<?xml version="1.0" encoding="UTF-8" standalone="no" ?>
<gpx xmlns="http://www.topografix.com/GPX/1/1" xmlns:xsi="http://www.w3.org/2001/XMLSchema-instance" xsi:schemaLocation="http://www.topografix.com/GPX/1/1 http://www.topografix.com/GPX/1/1/gpx.xsd" version="1.1" creator="VisuGPX - https://www.visugpx.com">
  <metadata>
    <name>Nébias : le Sentier Nature</name>
    <desc><![CDATA[Une balade au départ de Nébias qui vous mène, sous la conduite d\'un guide-nature, vers un monde magique dans un spectaculaire dédale rocheux.]]></desc>
  </metadata>
  <trk>
    <name><![CDATA[Nébias : le Sentier Nature_1]]></name>
    <trkseg>
      <trkpt lat="42.89698" lon="2.11508">
        <ele>547</ele>
        <time>2014-05-13T07:45:31.1Z</time>
      </trkpt>
      <trkpt lat="42.897" lon="2.11502">
        <ele>547</ele>
        <time>2014-05-13T07:45:33.1Z</time>
      </trkpt>
      <trkpt lat="42.89703" lon="2.115">
        <ele>548</ele>
        <time>2014-05-13T07:45:36.1Z</time>
      </trkpt>
      <trkpt lat="42.89705" lon="2.11498">
        <ele>548</ele>
        <time>2014-05-13T07:45:39.1Z</time>
      </trkpt>
      <trkpt lat="42.89706" lon="2.11495">
        <ele>548</ele>
        <time>2014-05-13T07:45:41.1Z</time>
      </trkpt>
      <trkpt lat="42.89706" lon="2.11491">
        <ele>548</ele>
        <time>2014-05-13T07:45:44.1Z</time>
      </trkpt>
      <trkpt lat="42.89708" lon="2.11487">
        <ele>548</ele>
        <time>2014-05-13T07:45:47.1Z</time>
      </trkpt>
      <trkpt lat="42.8971" lon="2.11483">
        <ele>548</ele>
        <time>2014-05-13T07:45:50.1Z</time>
      </trkpt>
      <trkpt lat="42.89712" lon="2.1148">
        <ele>548</ele>
        <time>2014-05-13T07:45:52.1Z</time>
      </trkpt>
      <trkpt lat="42.89714" lon="2.11476">
        <ele>548</ele>
        <time>2014-05-13T07:45:55.1Z</time>
      </trkpt>
      <trkpt lat="42.89715" lon="2.11474">
        <ele>548</ele>
        <time>2014-05-13T07:45:57.1Z</time>
      </trkpt>
      <trkpt lat="42.89716" lon="2.11469">
        <ele>548</ele>
        <time>2014-05-13T07:46:00.1Z</time>
      </trkpt>
      <trkpt lat="42.89716" lon="2.11465">
        <ele>548</ele>
        <time>2014-05-13T07:46:02.1Z</time>
      </trkpt>
      <trkpt lat="42.89716" lon="2.1146">
        <ele>548</ele>
        <time>2014-05-13T07:46:05.1Z</time>
      </trkpt>
      <trkpt lat="42.89717" lon="2.11456">
        <ele>547</ele>
        <time>2014-05-13T07:46:08.1Z</time>
      </trkpt>
      <trkpt lat="42.89717" lon="2.11453">
        <ele>547</ele>
        <time>2014-05-13T07:46:10.1Z</time>
      </trkpt>
      <trkpt lat="42.89718" lon="2.11448">
        <ele>547</ele>
        <time>2014-05-13T07:46:13.1Z</time>
      </trkpt>
      <trkpt lat="42.89719" lon="2.11444">
        <ele>547</ele>
        <time>2014-05-13T07:46:15.1Z</time>
      </trkpt>
      <trkpt lat="42.8972" lon="2.1144">
        <ele>547</ele>
        <time>2014-05-13T07:46:18.1Z</time>
      </trkpt>
      <trkpt lat="42.89721" lon="2.11436">
        <ele>547</ele>
        <time>2014-05-13T07:46:21.1Z</time>
      </trkpt>
      <trkpt lat="42.89722" lon="2.11432">
        <ele>547</ele>
        <time>2014-05-13T07:46:24.1Z</time>
      </trkpt>
      <trkpt lat="42.89724" lon="2.11427">
        <ele>547</ele>
        <time>2014-05-13T07:46:27.1Z</time>
      </trkpt>
      <trkpt lat="42.89724" lon="2.11424">
        <ele>547</ele>
        <time>2014-05-13T07:46:29.1Z</time>
      </trkpt>
      <trkpt lat="42.89725" lon="2.1142">
        <ele>547</ele>
        <time>2014-05-13T07:46:32.1Z</time>
      </trkpt>
      <trkpt lat="42.89726" lon="2.11418">
        <ele>546</ele>
        <time>2014-05-13T07:46:34.1Z</time>
      </trkpt>
      <trkpt lat="42.89727" lon="2.11414">
        <ele>547</ele>
        <time>2014-05-13T07:46:37.1Z</time>
      </trkpt>
      <trkpt lat="42.89727" lon="2.11408">
        <ele>546</ele>
        <time>2014-05-13T07:46:40.1Z</time>
      </trkpt>
      <trkpt lat="42.89727" lon="2.11404">
        <ele>546</ele>
        <time>2014-05-13T07:46:43.1Z</time>
      </trkpt>
      <trkpt lat="42.89727" lon="2.11401">
        <ele>546</ele>
        <time>2014-05-13T07:46:45.1Z</time>
      </trkpt>
      <trkpt lat="42.89729" lon="2.11397">
        <ele>546</ele>
        <time>2014-05-13T07:46:48.1Z</time>
      </trkpt>
      <trkpt lat="42.8973" lon="2.11395">
        <ele>546</ele>
        <time>2014-05-13T07:46:50.1Z</time>
      </trkpt>
      <trkpt lat="42.89732" lon="2.11393">
        <ele>546</ele>
        <time>2014-05-13T07:46:52.1Z</time>
      </trkpt>
      <trkpt lat="42.89734" lon="2.11393">
        <ele>546</ele>
        <time>2014-05-13T07:46:54.1Z</time>
      </trkpt>
      <trkpt lat="42.89738" lon="2.11393">
        <ele>546</ele>
        <time>2014-05-13T07:46:57.1Z</time>
      </trkpt>
      <trkpt lat="42.8974" lon="2.11394">
        <ele>546</ele>
        <time>2014-05-13T07:46:59.1Z</time>
      </trkpt>
      <trkpt lat="42.89742" lon="2.11395">
        <ele>547</ele>
        <time>2014-05-13T07:47:02.1Z</time>
      </trkpt>
      <trkpt lat="42.89745" lon="2.11396">
        <ele>547</ele>
        <time>2014-05-13T07:47:05.1Z</time>
      </trkpt>
      <trkpt lat="42.89746" lon="2.11397">
        <ele>547</ele>
        <time>2014-05-13T07:47:07.1Z</time>
      </trkpt>
      <trkpt lat="42.8975" lon="2.11399">
        <ele>547</ele>
        <time>2014-05-13T07:47:10.1Z</time>
      </trkpt>
      <trkpt lat="42.89752" lon="2.114">
        <ele>547</ele>
        <time>2014-05-13T07:47:12.1Z</time>
      </trkpt>
      <trkpt lat="42.89755" lon="2.11402">
        <ele>548</ele>
        <time>2014-05-13T07:47:15.1Z</time>
      </trkpt>
      <trkpt lat="42.89758" lon="2.11403">
        <ele>549</ele>
        <time>2014-05-13T07:47:18.1Z</time>
      </trkpt>
      <trkpt lat="42.89759" lon="2.11403">
        <ele>549</ele>
        <time>2014-05-13T07:47:20.1Z</time>
      </trkpt>
      <trkpt lat="42.89762" lon="2.11405">
        <ele>549</ele>
        <time>2014-05-13T07:47:23.1Z</time>
      </trkpt>
      <trkpt lat="42.89764" lon="2.11406">
        <ele>550</ele>
        <time>2014-05-13T07:47:25.1Z</time>
      </trkpt>
      <trkpt lat="42.89766" lon="2.11407">
        <ele>550</ele>
        <time>2014-05-13T07:47:27.1Z</time>
      </trkpt>
      <trkpt lat="42.89769" lon="2.11408">
        <ele>550</ele>
        <time>2014-05-13T07:47:30.1Z</time>
      </trkpt>
      <trkpt lat="42.89771" lon="2.11409">
        <ele>550</ele>
        <time>2014-05-13T07:47:32.1Z</time>
      </trkpt>
      <trkpt lat="42.89774" lon="2.1141">
        <ele>551</ele>
        <time>2014-05-13T07:47:34.1Z</time>
      </trkpt>
      <trkpt lat="42.89777" lon="2.11411">
        <ele>552</ele>
        <time>2014-05-13T07:47:37.1Z</time>
      </trkpt>
      <trkpt lat="42.8978" lon="2.1141">
        <ele>552</ele>
        <time>2014-05-13T07:47:39.1Z</time>
      </trkpt>
      <trkpt lat="42.89782" lon="2.11411">
        <ele>552</ele>
        <time>2014-05-13T07:47:42.1Z</time>
      </trkpt>
      <trkpt lat="42.89785" lon="2.11413">
        <ele>552</ele>
        <time>2014-05-13T07:47:45.1Z</time>
      </trkpt>
      <trkpt lat="42.89787" lon="2.11413">
        <ele>552</ele>
        <time>2014-05-13T07:47:48.1Z</time>
      </trkpt>
      <trkpt lat="42.89789" lon="2.11415">
        <ele>553</ele>
        <time>2014-05-13T07:47:50.1Z</time>
      </trkpt>
      <trkpt lat="42.89791" lon="2.11416">
        <ele>553</ele>
        <time>2014-05-13T07:47:53.1Z</time>
      </trkpt>
      <trkpt lat="42.89793" lon="2.11417">
        <ele>553</ele>
        <time>2014-05-13T07:47:55.1Z</time>
      </trkpt>
      <trkpt lat="42.89796" lon="2.11418">
        <ele>553</ele>
        <time>2014-05-13T07:47:58.1Z</time>
      </trkpt>
      <trkpt lat="42.89798" lon="2.11419">
        <ele>553</ele>
        <time>2014-05-13T07:48:01.1Z</time>
      </trkpt>
      <trkpt lat="42.89801" lon="2.11419">
        <ele>554</ele>
        <time>2014-05-13T07:48:04.1Z</time>
      </trkpt>
      <trkpt lat="42.89802" lon="2.1142">
        <ele>554</ele>
        <time>2014-05-13T07:48:06.1Z</time>
      </trkpt>
      <trkpt lat="42.89804" lon="2.11421">
        <ele>554</ele>
        <time>2014-05-13T07:48:09.1Z</time>
      </trkpt>
      <trkpt lat="42.89806" lon="2.11422">
        <ele>554</ele>
        <time>2014-05-13T07:48:12.1Z</time>
      </trkpt>
      <trkpt lat="42.89809" lon="2.11423">
        <ele>554</ele>
        <time>2014-05-13T07:48:15.1Z</time>
      </trkpt>
      <trkpt lat="42.89811" lon="2.11424">
        <ele>555</ele>
        <time>2014-05-13T07:48:17.1Z</time>
      </trkpt>
      <trkpt lat="42.89813" lon="2.11425">
        <ele>555</ele>
        <time>2014-05-13T07:48:20.1Z</time>
      </trkpt>
      <trkpt lat="42.89815" lon="2.11426">
        <ele>555</ele>
        <time>2014-05-13T07:48:22.1Z</time>
      </trkpt>
      <trkpt lat="42.89818" lon="2.11428">
        <ele>555</ele>
        <time>2014-05-13T07:48:25.1Z</time>
      </trkpt>
      <trkpt lat="42.89819" lon="2.11429">
        <ele>555</ele>
        <time>2014-05-13T07:48:27.1Z</time>
      </trkpt>
      <trkpt lat="42.89821" lon="2.1143">
        <ele>555</ele>
        <time>2014-05-13T07:48:30.1Z</time>
      </trkpt>
      <trkpt lat="42.89823" lon="2.11431">
        <ele>556</ele>
        <time>2014-05-13T07:48:32.1Z</time>
      </trkpt>
      <trkpt lat="42.89825" lon="2.11432">
        <ele>556</ele>
        <time>2014-05-13T07:48:34.1Z</time>
      </trkpt>
      <trkpt lat="42.89828" lon="2.11433">
        <ele>556</ele>
        <time>2014-05-13T07:48:37.1Z</time>
      </trkpt>
      <trkpt lat="42.8983" lon="2.11435">
        <ele>556</ele>
        <time>2014-05-13T07:48:40.1Z</time>
      </trkpt>
      <trkpt lat="42.89832" lon="2.11436">
        <ele>556</ele>
        <time>2014-05-13T07:48:43.1Z</time>
      </trkpt>
      <trkpt lat="42.89834" lon="2.11438">
        <ele>557</ele>
        <time>2014-05-13T07:48:46.1Z</time>
      </trkpt>
      <trkpt lat="42.89837" lon="2.11439">
        <ele>556</ele>
        <time>2014-05-13T07:48:49.1Z</time>
      </trkpt>
      <trkpt lat="42.89838" lon="2.1144">
        <ele>556</ele>
        <time>2014-05-13T07:48:51.1Z</time>
      </trkpt>
      <trkpt lat="42.89841" lon="2.11441">
        <ele>556</ele>
        <time>2014-05-13T07:48:54.1Z</time>
      </trkpt>
      <trkpt lat="42.89844" lon="2.11442">
        <ele>557</ele>
        <time>2014-05-13T07:48:56.1Z</time>
      </trkpt>
      <trkpt lat="42.89846" lon="2.11443">
        <ele>557</ele>
        <time>2014-05-13T07:48:58.1Z</time>
      </trkpt>
      <trkpt lat="42.89848" lon="2.11444">
        <ele>558</ele>
        <time>2014-05-13T07:49:00.1Z</time>
      </trkpt>
      <trkpt lat="42.8985" lon="2.11445">
        <ele>558</ele>
        <time>2014-05-13T07:49:03.1Z</time>
      </trkpt>
      <trkpt lat="42.89853" lon="2.11446">
        <ele>558</ele>
        <time>2014-05-13T07:49:06.1Z</time>
      </trkpt>
      <trkpt lat="42.89854" lon="2.11447">
        <ele>559</ele>
        <time>2014-05-13T07:49:08.1Z</time>
      </trkpt>
      <trkpt lat="42.89857" lon="2.11448">
        <ele>559</ele>
        <time>2014-05-13T07:49:11.1Z</time>
      </trkpt>
      <trkpt lat="42.89861" lon="2.1145">
        <ele>559</ele>
        <time>2014-05-13T07:49:14.1Z</time>
      </trkpt>
      <trkpt lat="42.89863" lon="2.11451">
        <ele>559</ele>
        <time>2014-05-13T07:49:16.1Z</time>
      </trkpt>
      <trkpt lat="42.89865" lon="2.11451">
        <ele>559</ele>
        <time>2014-05-13T07:49:19.1Z</time>
      </trkpt>
      <trkpt lat="42.89869" lon="2.11452">
        <ele>560</ele>
        <time>2014-05-13T07:49:22.1Z</time>
      </trkpt>
      <trkpt lat="42.89872" lon="2.11453">
        <ele>560</ele>
        <time>2014-05-13T07:49:25.1Z</time>
      </trkpt>
      <trkpt lat="42.89873" lon="2.11452">
        <ele>561</ele>
        <time>2014-05-13T07:49:28.1Z</time>
      </trkpt>
      <trkpt lat="42.89874" lon="2.11453">
        <ele>560</ele>
        <time>2014-05-13T07:49:31.1Z</time>
      </trkpt>
      <trkpt lat="42.89876" lon="2.11453">
        <ele>560</ele>
        <time>2014-05-13T07:49:34.1Z</time>
      </trkpt>
      <trkpt lat="42.89877" lon="2.11454">
        <ele>560</ele>
        <time>2014-05-13T07:49:37.1Z</time>
      </trkpt>
      <trkpt lat="42.89878" lon="2.11455">
        <ele>561</ele>
        <time>2014-05-13T07:49:40.1Z</time>
      </trkpt>
      <trkpt lat="42.89879" lon="2.11455">
        <ele>561</ele>
        <time>2014-05-13T07:49:43.1Z</time>
      </trkpt>
      <trkpt lat="42.8988" lon="2.11455">
        <ele>561</ele>
        <time>2014-05-13T07:49:46.1Z</time>
      </trkpt>
      <trkpt lat="42.8988" lon="2.11456">
        <ele>561</ele>
        <time>2014-05-13T07:49:49.1Z</time>
      </trkpt>
      <trkpt lat="42.8988" lon="2.11455">
        <ele>561</ele>
        <time>2014-05-13T07:49:52.1Z</time>
      </trkpt>
      <trkpt lat="42.8988" lon="2.11455">
        <ele>562</ele>
        <time>2014-05-13T07:49:54.1Z</time>
      </trkpt>
      <trkpt lat="42.89881" lon="2.11454">
        <ele>562</ele>
        <time>2014-05-13T07:49:57.1Z</time>
      </trkpt>
      <trkpt lat="42.89882" lon="2.11455">
        <ele>561</ele>
        <time>2014-05-13T07:49:59.1Z</time>
      </trkpt>
      <trkpt lat="42.89882" lon="2.11455">
        <ele>561</ele>
        <time>2014-05-13T07:50:02.1Z</time>
      </trkpt>
      <trkpt lat="42.89884" lon="2.11455">
        <ele>561</ele>
        <time>2014-05-13T07:50:05.1Z</time>
      </trkpt>
      <trkpt lat="42.89887" lon="2.11453">
        <ele>561</ele>
        <time>2014-05-13T07:50:08.1Z</time>
      </trkpt>
      <trkpt lat="42.89889" lon="2.11452">
        <ele>561</ele>
        <time>2014-05-13T07:50:10.1Z</time>
      </trkpt>
      <trkpt lat="42.89892" lon="2.11451">
        <ele>561</ele>
        <time>2014-05-13T07:50:13.1Z</time>
      </trkpt>
      <trkpt lat="42.89895" lon="2.1145">
        <ele>562</ele>
        <time>2014-05-13T07:50:16.1Z</time>
      </trkpt>
      <trkpt lat="42.89897" lon="2.1145">
        <ele>562</ele>
        <time>2014-05-13T07:50:18.1Z</time>
      </trkpt>
      <trkpt lat="42.89899" lon="2.1145">
        <ele>563</ele>
        <time>2014-05-13T07:50:21.1Z</time>
      </trkpt>
      <trkpt lat="42.89902" lon="2.1145">
        <ele>563</ele>
        <time>2014-05-13T07:50:23.1Z</time>
      </trkpt>
      <trkpt lat="42.89905" lon="2.1145">
        <ele>563</ele>
        <time>2014-05-13T07:50:26.1Z</time>
      </trkpt>
      <trkpt lat="42.89908" lon="2.1145">
        <ele>564</ele>
        <time>2014-05-13T07:50:29.1Z</time>
      </trkpt>
      <trkpt lat="42.89911" lon="2.1145">
        <ele>564</ele>
        <time>2014-05-13T07:50:32.1Z</time>
      </trkpt>
      <trkpt lat="42.89913" lon="2.1145">
        <ele>564</ele>
        <time>2014-05-13T07:50:34.1Z</time>
      </trkpt>
      <trkpt lat="42.89915" lon="2.1145">
        <ele>565</ele>
        <time>2014-05-13T07:50:37.1Z</time>
      </trkpt>
      <trkpt lat="42.89916" lon="2.1145">
        <ele>564</ele>
        <time>2014-05-13T07:50:39.1Z</time>
      </trkpt>
      <trkpt lat="42.8992" lon="2.1145">
        <ele>565</ele>
        <time>2014-05-13T07:50:42.1Z</time>
      </trkpt>
      <trkpt lat="42.89922" lon="2.1145">
        <ele>565</ele>
        <time>2014-05-13T07:50:45.1Z</time>
      </trkpt>
      <trkpt lat="42.89922" lon="2.11451">
        <ele>566</ele>
        <time>2014-05-13T07:50:48.1Z</time>
      </trkpt>
      <trkpt lat="42.89923" lon="2.11451">
        <ele>566</ele>
        <time>2014-05-13T07:50:50.1Z</time>
      </trkpt>
      <trkpt lat="42.89923" lon="2.11451">
        <ele>566</ele>
        <time>2014-05-13T07:50:52.1Z</time>
      </trkpt>
      <trkpt lat="42.89927" lon="2.11452">
        <ele>566</ele>
        <time>2014-05-13T07:50:55.1Z</time>
      </trkpt>
      <trkpt lat="42.89928" lon="2.11452">
        <ele>566</ele>
        <time>2014-05-13T07:50:57.1Z</time>
      </trkpt>
      <trkpt lat="42.89927" lon="2.11452">
        <ele>567</ele>
        <time>2014-05-13T07:51:01.1Z</time>
      </trkpt>
      <trkpt lat="42.89927" lon="2.11452">
        <ele>567</ele>
        <time>2014-05-13T07:51:04.1Z</time>
      </trkpt>
      <trkpt lat="42.89928" lon="2.11452">
        <ele>567</ele>
        <time>2014-05-13T07:51:07.1Z</time>
      </trkpt>
      <trkpt lat="42.89928" lon="2.11452">
        <ele>567</ele>
        <time>2014-05-13T07:51:09.1Z</time>
      </trkpt>
      <trkpt lat="42.89928" lon="2.11452">
        <ele>567</ele>
        <time>2014-05-13T07:51:11.1Z</time>
      </trkpt>
      <trkpt lat="42.8993" lon="2.11452">
        <ele>567</ele>
        <time>2014-05-13T07:51:14.1Z</time>
      </trkpt>
      <trkpt lat="42.89932" lon="2.11451">
        <ele>566</ele>
        <time>2014-05-13T07:51:16.1Z</time>
      </trkpt>
      <trkpt lat="42.89934" lon="2.11451">
        <ele>566</ele>
        <time>2014-05-13T07:51:18.1Z</time>
      </trkpt>
      <trkpt lat="42.89936" lon="2.11452">
        <ele>566</ele>
        <time>2014-05-13T07:51:21.1Z</time>
      </trkpt>
      <trkpt lat="42.89938" lon="2.11452">
        <ele>567</ele>
        <time>2014-05-13T07:51:23.1Z</time>
      </trkpt>
      <trkpt lat="42.89939" lon="2.11453">
        <ele>567</ele>
        <time>2014-05-13T07:51:25.1Z</time>
      </trkpt>
      <trkpt lat="42.89939" lon="2.11453">
        <ele>567</ele>
        <time>2014-05-13T07:51:28.1Z</time>
      </trkpt>
      <trkpt lat="42.89938" lon="2.11453">
        <ele>567</ele>
        <time>2014-05-13T07:51:30.1Z</time>
      </trkpt>
      <trkpt lat="42.89936" lon="2.11453">
        <ele>567</ele>
        <time>2014-05-13T07:51:33.1Z</time>
      </trkpt>
      <trkpt lat="42.89936" lon="2.11453">
        <ele>567</ele>
        <time>2014-05-13T07:51:35.1Z</time>
      </trkpt>
      <trkpt lat="42.89935" lon="2.11453">
        <ele>567</ele>
        <time>2014-05-13T07:51:37.1Z</time>
      </trkpt>
      <trkpt lat="42.89935" lon="2.11454">
        <ele>567</ele>
        <time>2014-05-13T07:51:41.1Z</time>
      </trkpt>
      <trkpt lat="42.89935" lon="2.11454">
        <ele>567</ele>
        <time>2014-05-13T07:51:43.1Z</time>
      </trkpt>
      <trkpt lat="42.89935" lon="2.11454">
        <ele>567</ele>
        <time>2014-05-13T07:51:46.1Z</time>
      </trkpt>
      <trkpt lat="42.89936" lon="2.11454">
        <ele>567</ele>
        <time>2014-05-13T07:51:50.1Z</time>
      </trkpt>
      <trkpt lat="42.89936" lon="2.11454">
        <ele>567</ele>
        <time>2014-05-13T07:51:53.1Z</time>
      </trkpt>
      <trkpt lat="42.89939" lon="2.11454">
        <ele>567</ele>
        <time>2014-05-13T07:51:56.1Z</time>
      </trkpt>
      <trkpt lat="42.8994" lon="2.11455">
        <ele>567</ele>
        <time>2014-05-13T07:51:58.1Z</time>
      </trkpt>
      <trkpt lat="42.89941" lon="2.11455">
        <ele>567</ele>
        <time>2014-05-13T07:52:01.1Z</time>
      </trkpt>
      <trkpt lat="42.89942" lon="2.11454">
        <ele>567</ele>
        <time>2014-05-13T07:52:04.1Z</time>
      </trkpt>
      <trkpt lat="42.89944" lon="2.11454">
        <ele>568</ele>
        <time>2014-05-13T07:52:07.1Z</time>
      </trkpt>
      <trkpt lat="42.89947" lon="2.11454">
        <ele>568</ele>
        <time>2014-05-13T07:52:10.1Z</time>
      </trkpt>
      <trkpt lat="42.89949" lon="2.11454">
        <ele>568</ele>
        <time>2014-05-13T07:52:13.1Z</time>
      </trkpt>
      <trkpt lat="42.89952" lon="2.11454">
        <ele>568</ele>
        <time>2014-05-13T07:52:16.1Z</time>
      </trkpt>
      <trkpt lat="42.89953" lon="2.11454">
        <ele>568</ele>
        <time>2014-05-13T07:52:18.1Z</time>
      </trkpt>
      <trkpt lat="42.89954" lon="2.11454">
        <ele>569</ele>
        <time>2014-05-13T07:52:20.1Z</time>
      </trkpt>
      <trkpt lat="42.89956" lon="2.11453">
        <ele>569</ele>
        <time>2014-05-13T07:52:23.1Z</time>
      </trkpt>
      <trkpt lat="42.89957" lon="2.11453">
        <ele>569</ele>
        <time>2014-05-13T07:52:25.1Z</time>
      </trkpt>
      <trkpt lat="42.89959" lon="2.11453">
        <ele>569</ele>
        <time>2014-05-13T07:52:28.1Z</time>
      </trkpt>
      <trkpt lat="42.89962" lon="2.11453">
        <ele>569</ele>
        <time>2014-05-13T07:52:30.1Z</time>
      </trkpt>
      <trkpt lat="42.89964" lon="2.11453">
        <ele>569</ele>
        <time>2014-05-13T07:52:32.1Z</time>
      </trkpt>
      <trkpt lat="42.89966" lon="2.11452">
        <ele>570</ele>
        <time>2014-05-13T07:52:35.1Z</time>
      </trkpt>
      <trkpt lat="42.89969" lon="2.11452">
        <ele>570</ele>
        <time>2014-05-13T07:52:38.1Z</time>
      </trkpt>
      <trkpt lat="42.89972" lon="2.11451">
        <ele>571</ele>
        <time>2014-05-13T07:52:41.1Z</time>
      </trkpt>
      <trkpt lat="42.89973" lon="2.11451">
        <ele>571</ele>
        <time>2014-05-13T07:52:43.1Z</time>
      </trkpt>
      <trkpt lat="42.89976" lon="2.11451">
        <ele>571</ele>
        <time>2014-05-13T07:52:46.1Z</time>
      </trkpt>
      <trkpt lat="42.89979" lon="2.1145">
        <ele>572</ele>
        <time>2014-05-13T07:52:49.1Z</time>
      </trkpt>
      <trkpt lat="42.89981" lon="2.1145">
        <ele>572</ele>
        <time>2014-05-13T07:52:52.1Z</time>
      </trkpt>
      <trkpt lat="42.89984" lon="2.11449">
        <ele>572</ele>
        <time>2014-05-13T07:52:55.1Z</time>
      </trkpt>
      <trkpt lat="42.89987" lon="2.11449">
        <ele>572</ele>
        <time>2014-05-13T07:52:58.1Z</time>
      </trkpt>
      <trkpt lat="42.8999" lon="2.11448">
        <ele>573</ele>
        <time>2014-05-13T07:53:01.1Z</time>
      </trkpt>
      <trkpt lat="42.89993" lon="2.11448">
        <ele>573</ele>
        <time>2014-05-13T07:53:04.1Z</time>
      </trkpt>
      <trkpt lat="42.89996" lon="2.11447">
        <ele>573</ele>
        <time>2014-05-13T07:53:07.1Z</time>
      </trkpt>
      <trkpt lat="42.89996" lon="2.11447">
        <ele>573</ele>
        <time>2014-05-13T07:53:10.1Z</time>
      </trkpt>
      <trkpt lat="42.89997" lon="2.11446">
        <ele>573</ele>
        <time>2014-05-13T07:53:12.1Z</time>
      </trkpt>
      <trkpt lat="42.89999" lon="2.11446">
        <ele>573</ele>
        <time>2014-05-13T07:53:14.1Z</time>
      </trkpt>
      <trkpt lat="42.90002" lon="2.11445">
        <ele>573</ele>
        <time>2014-05-13T07:53:17.1Z</time>
      </trkpt>
      <trkpt lat="42.90004" lon="2.11444">
        <ele>573</ele>
        <time>2014-05-13T07:53:19.1Z</time>
      </trkpt>
      <trkpt lat="42.90007" lon="2.11443">
        <ele>573</ele>
        <time>2014-05-13T07:53:22.1Z</time>
      </trkpt>
      <trkpt lat="42.90009" lon="2.11443">
        <ele>574</ele>
        <time>2014-05-13T07:53:24.1Z</time>
      </trkpt>
      <trkpt lat="42.90009" lon="2.11443">
        <ele>574</ele>
        <time>2014-05-13T07:53:27.1Z</time>
      </trkpt>
      <trkpt lat="42.9001" lon="2.11442">
        <ele>574</ele>
        <time>2014-05-13T07:53:30.1Z</time>
      </trkpt>
      <trkpt lat="42.90011" lon="2.11443">
        <ele>574</ele>
        <time>2014-05-13T07:53:33.1Z</time>
      </trkpt>
      <trkpt lat="42.90011" lon="2.11442">
        <ele>574</ele>
        <time>2014-05-13T07:53:36.1Z</time>
      </trkpt>
      <trkpt lat="42.90011" lon="2.11442">
        <ele>575</ele>
        <time>2014-05-13T07:53:39.1Z</time>
      </trkpt>
      <trkpt lat="42.90014" lon="2.11442">
        <ele>574</ele>
        <time>2014-05-13T07:53:42.1Z</time>
      </trkpt>
      <trkpt lat="42.90017" lon="2.11442">
        <ele>574</ele>
        <time>2014-05-13T07:53:45.1Z</time>
      </trkpt>
      <trkpt lat="42.90019" lon="2.11442">
        <ele>574</ele>
        <time>2014-05-13T07:53:47.1Z</time>
      </trkpt>
      <trkpt lat="42.90023" lon="2.11441">
        <ele>574</ele>
        <time>2014-05-13T07:53:50.1Z</time>
      </trkpt>
      <trkpt lat="42.90025" lon="2.11441">
        <ele>574</ele>
        <time>2014-05-13T07:53:52.1Z</time>
      </trkpt>
      <trkpt lat="42.90027" lon="2.1144">
        <ele>575</ele>
        <time>2014-05-13T07:53:54.1Z</time>
      </trkpt>
      <trkpt lat="42.9003" lon="2.11439">
        <ele>575</ele>
        <time>2014-05-13T07:53:56.1Z</time>
      </trkpt>
      <trkpt lat="42.90033" lon="2.11438">
        <ele>575</ele>
        <time>2014-05-13T07:53:59.1Z</time>
      </trkpt>
      <trkpt lat="42.90034" lon="2.11435">
        <ele>575</ele>
        <time>2014-05-13T07:54:01.1Z</time>
      </trkpt>
      <trkpt lat="42.90037" lon="2.11433">
        <ele>575</ele>
        <time>2014-05-13T07:54:04.1Z</time>
      </trkpt>
      <trkpt lat="42.90039" lon="2.11431">
        <ele>575</ele>
        <time>2014-05-13T07:54:06.1Z</time>
      </trkpt>
      <trkpt lat="42.9004" lon="2.11428">
        <ele>575</ele>
        <time>2014-05-13T07:54:08.1Z</time>
      </trkpt>
      <trkpt lat="42.90042" lon="2.11424">
        <ele>576</ele>
        <time>2014-05-13T07:54:11.1Z</time>
      </trkpt>
      <trkpt lat="42.90043" lon="2.11422">
        <ele>576</ele>
        <time>2014-05-13T07:54:13.1Z</time>
      </trkpt>
      <trkpt lat="42.90044" lon="2.11419">
        <ele>576</ele>
        <time>2014-05-13T07:54:16.1Z</time>
      </trkpt>
      <trkpt lat="42.90045" lon="2.11415">
        <ele>576</ele>
        <time>2014-05-13T07:54:19.1Z</time>
      </trkpt>
      <trkpt lat="42.90045" lon="2.11413">
        <ele>576</ele>
        <time>2014-05-13T07:54:22.1Z</time>
      </trkpt>
      <trkpt lat="42.90044" lon="2.11412">
        <ele>577</ele>
        <time>2014-05-13T07:54:25.1Z</time>
      </trkpt>
      <trkpt lat="42.90044" lon="2.11412">
        <ele>577</ele>
        <time>2014-05-13T07:54:28.1Z</time>
      </trkpt>
      <trkpt lat="42.90043" lon="2.1141">
        <ele>577</ele>
        <time>2014-05-13T07:54:31.1Z</time>
      </trkpt>
      <trkpt lat="42.90043" lon="2.11409">
        <ele>577</ele>
        <time>2014-05-13T07:54:33.1Z</time>
      </trkpt>
      <trkpt lat="42.90042" lon="2.1141">
        <ele>577</ele>
        <time>2014-05-13T07:54:36.1Z</time>
      </trkpt>
      <trkpt lat="42.90041" lon="2.11408">
        <ele>577</ele>
        <time>2014-05-13T07:54:38.1Z</time>
      </trkpt>
      <trkpt lat="42.9004" lon="2.11405">
        <ele>577</ele>
        <time>2014-05-13T07:54:41.1Z</time>
      </trkpt>
      <trkpt lat="42.90041" lon="2.11404">
        <ele>577</ele>
        <time>2014-05-13T07:54:43.1Z</time>
      </trkpt>
      <trkpt lat="42.90042" lon="2.11402">
        <ele>577</ele>
        <time>2014-05-13T07:54:46.1Z</time>
      </trkpt>
      <trkpt lat="42.90042" lon="2.11402">
        <ele>576</ele>
        <time>2014-05-13T07:54:50.1Z</time>
      </trkpt>
      <trkpt lat="42.90042" lon="2.11402">
        <ele>576</ele>
        <time>2014-05-13T07:54:53.1Z</time>
      </trkpt>
      <trkpt lat="42.90042" lon="2.11402">
        <ele>576</ele>
        <time>2014-05-13T07:54:56.1Z</time>
      </trkpt>
      <trkpt lat="42.90041" lon="2.11404">
        <ele>576</ele>
        <time>2014-05-13T07:54:59.1Z</time>
      </trkpt>
      <trkpt lat="42.90041" lon="2.11404">
        <ele>577</ele>
        <time>2014-05-13T07:55:01.1Z</time>
      </trkpt>
      <trkpt lat="42.90041" lon="2.11404">
        <ele>576</ele>
        <time>2014-05-13T07:55:03.1Z</time>
      </trkpt>
      <trkpt lat="42.90041" lon="2.11405">
        <ele>576</ele>
        <time>2014-05-13T07:55:06.1Z</time>
      </trkpt>
      <trkpt lat="42.9004" lon="2.11405">
        <ele>577</ele>
        <time>2014-05-13T07:55:08.1Z</time>
      </trkpt>
      <trkpt lat="42.9004" lon="2.11405">
        <ele>577</ele>
        <time>2014-05-13T07:55:11.1Z</time>
      </trkpt>
      <trkpt lat="42.9004" lon="2.11405">
        <ele>577</ele>
        <time>2014-05-13T07:55:13.1Z</time>
      </trkpt>
      <trkpt lat="42.9004" lon="2.11406">
        <ele>577</ele>
        <time>2014-05-13T07:55:16.1Z</time>
      </trkpt>
      <trkpt lat="42.90041" lon="2.11406">
        <ele>576</ele>
        <time>2014-05-13T07:55:18.1Z</time>
      </trkpt>
      <trkpt lat="42.90041" lon="2.11407">
        <ele>576</ele>
        <time>2014-05-13T07:55:21.1Z</time>
      </trkpt>
      <trkpt lat="42.90041" lon="2.11408">
        <ele>576</ele>
        <time>2014-05-13T07:55:23.1Z</time>
      </trkpt>
      <trkpt lat="42.90041" lon="2.11408">
        <ele>576</ele>
        <time>2014-05-13T07:55:25.1Z</time>
      </trkpt>
      <trkpt lat="42.90041" lon="2.11409">
        <ele>576</ele>
        <time>2014-05-13T07:55:28.1Z</time>
      </trkpt>
      <trkpt lat="42.90041" lon="2.11411">
        <ele>576</ele>
        <time>2014-05-13T07:55:30.1Z</time>
      </trkpt>
      <trkpt lat="42.90042" lon="2.11412">
        <ele>576</ele>
        <time>2014-05-13T07:55:32.1Z</time>
      </trkpt>
      <trkpt lat="42.90041" lon="2.11413">
        <ele>577</ele>
        <time>2014-05-13T07:55:35.1Z</time>
      </trkpt>
      <trkpt lat="42.90042" lon="2.11413">
        <ele>577</ele>
        <time>2014-05-13T07:55:39.1Z</time>
      </trkpt>
      <trkpt lat="42.90041" lon="2.11413">
        <ele>576</ele>
        <time>2014-05-13T07:55:43.1Z</time>
      </trkpt>
      <trkpt lat="42.90041" lon="2.11412">
        <ele>576</ele>
        <time>2014-05-13T07:55:47.1Z</time>
      </trkpt>
      <trkpt lat="42.90041" lon="2.11412">
        <ele>576</ele>
        <time>2014-05-13T07:55:49.1Z</time>
      </trkpt>
      <trkpt lat="42.90042" lon="2.11412">
        <ele>576</ele>
        <time>2014-05-13T07:55:52.1Z</time>
      </trkpt>
      <trkpt lat="42.90041" lon="2.11411">
        <ele>576</ele>
        <time>2014-05-13T07:55:54.1Z</time>
      </trkpt>
      <trkpt lat="42.90041" lon="2.11411">
        <ele>576</ele>
        <time>2014-05-13T07:55:57.1Z</time>
      </trkpt>
      <trkpt lat="42.90041" lon="2.11411">
        <ele>576</ele>
        <time>2014-05-13T07:56:00.1Z</time>
      </trkpt>
      <trkpt lat="42.90041" lon="2.1141">
        <ele>576</ele>
        <time>2014-05-13T07:56:02.1Z</time>
      </trkpt>
      <trkpt lat="42.90041" lon="2.1141">
        <ele>576</ele>
        <time>2014-05-13T07:56:05.1Z</time>
      </trkpt>
      <trkpt lat="42.90041" lon="2.1141">
        <ele>576</ele>
        <time>2014-05-13T07:56:07.1Z</time>
      </trkpt>
      <trkpt lat="42.90041" lon="2.1141">
        <ele>576</ele>
        <time>2014-05-13T07:56:11.1Z</time>
      </trkpt>
      <trkpt lat="42.90041" lon="2.1141">
        <ele>576</ele>
        <time>2014-05-13T07:56:16.1Z</time>
      </trkpt>
      <trkpt lat="42.90041" lon="2.1141">
        <ele>576</ele>
        <time>2014-05-13T07:56:19.1Z</time>
      </trkpt>
      <trkpt lat="42.90041" lon="2.1141">
        <ele>575</ele>
        <time>2014-05-13T07:56:23.1Z</time>
      </trkpt>
      <trkpt lat="42.90041" lon="2.1141">
        <ele>575</ele>
        <time>2014-05-13T07:56:27.1Z</time>
      </trkpt>
      <trkpt lat="42.90041" lon="2.1141">
        <ele>576</ele>
        <time>2014-05-13T07:56:30.1Z</time>
      </trkpt>
      <trkpt lat="42.90041" lon="2.1141">
        <ele>576</ele>
        <time>2014-05-13T07:56:34.1Z</time>
      </trkpt>
      <trkpt lat="42.90041" lon="2.1141">
        <ele>576</ele>
        <time>2014-05-13T07:56:36.1Z</time>
      </trkpt>
      <trkpt lat="42.90041" lon="2.1141">
        <ele>576</ele>
        <time>2014-05-13T07:56:39.1Z</time>
      </trkpt>
      <trkpt lat="42.90041" lon="2.1141">
        <ele>576</ele>
        <time>2014-05-13T07:56:41.1Z</time>
      </trkpt>
      <trkpt lat="42.90041" lon="2.1141">
        <ele>576</ele>
        <time>2014-05-13T07:56:43.1Z</time>
      </trkpt>
      <trkpt lat="42.90042" lon="2.1141">
        <ele>576</ele>
        <time>2014-05-13T07:56:46.1Z</time>
      </trkpt>
      <trkpt lat="42.90042" lon="2.1141">
        <ele>576</ele>
        <time>2014-05-13T07:56:49.1Z</time>
      </trkpt>
      <trkpt lat="42.90042" lon="2.1141">
        <ele>576</ele>
        <time>2014-05-13T07:56:52.1Z</time>
      </trkpt>
      <trkpt lat="42.90042" lon="2.1141">
        <ele>576</ele>
        <time>2014-05-13T07:56:55.1Z</time>
      </trkpt>
      <trkpt lat="42.90042" lon="2.11409">
        <ele>576</ele>
        <time>2014-05-13T07:56:58.1Z</time>
      </trkpt>
      <trkpt lat="42.90041" lon="2.11409">
        <ele>577</ele>
        <time>2014-05-13T07:57:01.1Z</time>
      </trkpt>
      <trkpt lat="42.90041" lon="2.1141">
        <ele>577</ele>
        <time>2014-05-13T07:57:06.1Z</time>
      </trkpt>
      <trkpt lat="42.90041" lon="2.1141">
        <ele>577</ele>
        <time>2014-05-13T07:57:10.1Z</time>
      </trkpt>
      <trkpt lat="42.90042" lon="2.1141">
        <ele>577</ele>
        <time>2014-05-13T07:57:12.1Z</time>
      </trkpt>
      <trkpt lat="42.90042" lon="2.1141">
        <ele>576</ele>
        <time>2014-05-13T07:57:15.1Z</time>
      </trkpt>
      <trkpt lat="42.90042" lon="2.1141">
        <ele>576</ele>
        <time>2014-05-13T07:57:17.1Z</time>
      </trkpt>
      <trkpt lat="42.90042" lon="2.1141">
        <ele>576</ele>
        <time>2014-05-13T07:57:19.1Z</time>
      </trkpt>
      <trkpt lat="42.90042" lon="2.1141">
        <ele>576</ele>
        <time>2014-05-13T07:57:22.1Z</time>
      </trkpt>
      <trkpt lat="42.90041" lon="2.1141">
        <ele>576</ele>
        <time>2014-05-13T07:57:25.1Z</time>
      </trkpt>
      <trkpt lat="42.90041" lon="2.1141">
        <ele>576</ele>
        <time>2014-05-13T07:57:28.1Z</time>
      </trkpt>
      <trkpt lat="42.90042" lon="2.1141">
        <ele>577</ele>
        <time>2014-05-13T07:57:31.1Z</time>
      </trkpt>
      <trkpt lat="42.90041" lon="2.1141">
        <ele>577</ele>
        <time>2014-05-13T07:57:34.1Z</time>
      </trkpt>
      <trkpt lat="42.90041" lon="2.1141">
        <ele>577</ele>
        <time>2014-05-13T07:57:36.1Z</time>
      </trkpt>
      <trkpt lat="42.90041" lon="2.1141">
        <ele>577</ele>
        <time>2014-05-13T07:57:39.1Z</time>
      </trkpt>
      <trkpt lat="42.90042" lon="2.1141">
        <ele>576</ele>
        <time>2014-05-13T07:57:41.1Z</time>
      </trkpt>
      <trkpt lat="42.90042" lon="2.1141">
        <ele>576</ele>
        <time>2014-05-13T07:57:44.1Z</time>
      </trkpt>
      <trkpt lat="42.90042" lon="2.11409">
        <ele>576</ele>
        <time>2014-05-13T07:57:46.1Z</time>
      </trkpt>
      <trkpt lat="42.90042" lon="2.11409">
        <ele>576</ele>
        <time>2014-05-13T07:57:50.1Z</time>
      </trkpt>
      <trkpt lat="42.90042" lon="2.11409">
        <ele>576</ele>
        <time>2014-05-13T07:57:52.1Z</time>
      </trkpt>
      <trkpt lat="42.90042" lon="2.11409">
        <ele>576</ele>
        <time>2014-05-13T07:57:55.1Z</time>
      </trkpt>
      <trkpt lat="42.90041" lon="2.11408">
        <ele>576</ele>
        <time>2014-05-13T07:57:59.1Z</time>
      </trkpt>
      <trkpt lat="42.90041" lon="2.11408">
        <ele>576</ele>
        <time>2014-05-13T07:58:03.1Z</time>
      </trkpt>
      <trkpt lat="42.90042" lon="2.11408">
        <ele>576</ele>
        <time>2014-05-13T07:58:06.1Z</time>
      </trkpt>
      <trkpt lat="42.90042" lon="2.11407">
        <ele>576</ele>
        <time>2014-05-13T07:58:09.1Z</time>
      </trkpt>
      <trkpt lat="42.90042" lon="2.11407">
        <ele>576</ele>
        <time>2014-05-13T07:58:12.1Z</time>
      </trkpt>
      <trkpt lat="42.90042" lon="2.11407">
        <ele>576</ele>
        <time>2014-05-13T07:58:15.1Z</time>
      </trkpt>
      <trkpt lat="42.90042" lon="2.11407">
        <ele>576</ele>
        <time>2014-05-13T07:58:19.1Z</time>
      </trkpt>
      <trkpt lat="42.90042" lon="2.11407">
        <ele>576</ele>
        <time>2014-05-13T07:58:22.1Z</time>
      </trkpt>
      <trkpt lat="42.90042" lon="2.11407">
        <ele>576</ele>
        <time>2014-05-13T07:58:26.1Z</time>
      </trkpt>
      <trkpt lat="42.90042" lon="2.11407">
        <ele>576</ele>
        <time>2014-05-13T07:58:29.1Z</time>
      </trkpt>
      <trkpt lat="42.90042" lon="2.11407">
        <ele>576</ele>
        <time>2014-05-13T07:58:31.1Z</time>
      </trkpt>
      <trkpt lat="42.90042" lon="2.11407">
        <ele>576</ele>
        <time>2014-05-13T07:58:35.1Z</time>
      </trkpt>
      <trkpt lat="42.90042" lon="2.11407">
        <ele>576</ele>
        <time>2014-05-13T07:58:38.1Z</time>
      </trkpt>
      <trkpt lat="42.90042" lon="2.11407">
        <ele>576</ele>
        <time>2014-05-13T07:58:40.1Z</time>
      </trkpt>
      <trkpt lat="42.90042" lon="2.11407">
        <ele>576</ele>
        <time>2014-05-13T07:58:42.1Z</time>
      </trkpt>
      <trkpt lat="42.90042" lon="2.11406">
        <ele>576</ele>
        <time>2014-05-13T07:58:45.1Z</time>
      </trkpt>
      <trkpt lat="42.90042" lon="2.11406">
        <ele>576</ele>
        <time>2014-05-13T07:58:48.1Z</time>
      </trkpt>
      <trkpt lat="42.90042" lon="2.11406">
        <ele>576</ele>
        <time>2014-05-13T07:58:52.1Z</time>
      </trkpt>
      <trkpt lat="42.90042" lon="2.11406">
        <ele>576</ele>
        <time>2014-05-13T07:58:54.1Z</time>
      </trkpt>
      <trkpt lat="42.90042" lon="2.11406">
        <ele>576</ele>
        <time>2014-05-13T07:58:57.1Z</time>
      </trkpt>
      <trkpt lat="42.90042" lon="2.11407">
        <ele>576</ele>
        <time>2014-05-13T07:59:00.1Z</time>
      </trkpt>
      <trkpt lat="42.90042" lon="2.11409">
        <ele>576</ele>
        <time>2014-05-13T07:59:02.1Z</time>
      </trkpt>
      <trkpt lat="42.90043" lon="2.1141">
        <ele>575</ele>
        <time>2014-05-13T07:59:04.1Z</time>
      </trkpt>
      <trkpt lat="42.90043" lon="2.1141">
        <ele>575</ele>
        <time>2014-05-13T07:59:07.1Z</time>
      </trkpt>
      <trkpt lat="42.90043" lon="2.1141">
        <ele>575</ele>
        <time>2014-05-13T07:59:09.1Z</time>
      </trkpt>
      <trkpt lat="42.90044" lon="2.1141">
        <ele>575</ele>
        <time>2014-05-13T07:59:14.1Z</time>
      </trkpt>
      <trkpt lat="42.90044" lon="2.1141">
        <ele>575</ele>
        <time>2014-05-13T07:59:16.1Z</time>
      </trkpt>
      <trkpt lat="42.90044" lon="2.1141">
        <ele>575</ele>
        <time>2014-05-13T07:59:18.1Z</time>
      </trkpt>
      <trkpt lat="42.90043" lon="2.1141">
        <ele>575</ele>
        <time>2014-05-13T07:59:21.1Z</time>
      </trkpt>
      <trkpt lat="42.90044" lon="2.1141">
        <ele>576</ele>
        <time>2014-05-13T07:59:23.1Z</time>
      </trkpt>
      <trkpt lat="42.90045" lon="2.11411">
        <ele>575</ele>
        <time>2014-05-13T07:59:26.1Z</time>
      </trkpt>
      <trkpt lat="42.90045" lon="2.11411">
        <ele>575</ele>
        <time>2014-05-13T07:59:29.1Z</time>
      </trkpt>
      <trkpt lat="42.90045" lon="2.11411">
        <ele>576</ele>
        <time>2014-05-13T07:59:36.1Z</time>
      </trkpt>
      <trkpt lat="42.90046" lon="2.11413">
        <ele>576</ele>
        <time>2014-05-13T07:59:39.1Z</time>
      </trkpt>
      <trkpt lat="42.90046" lon="2.11416">
        <ele>575</ele>
        <time>2014-05-13T07:59:42.1Z</time>
      </trkpt>
      <trkpt lat="42.90046" lon="2.11416">
        <ele>575</ele>
        <time>2014-05-13T07:59:45.1Z</time>
      </trkpt>
      <trkpt lat="42.90046" lon="2.11414">
        <ele>575</ele>
        <time>2014-05-13T07:59:48.1Z</time>
      </trkpt>
      <trkpt lat="42.90046" lon="2.11416">
        <ele>575</ele>
        <time>2014-05-13T07:59:50.1Z</time>
      </trkpt>
      <trkpt lat="42.90048" lon="2.11419">
        <ele>575</ele>
        <time>2014-05-13T07:59:53.1Z</time>
      </trkpt>
      <trkpt lat="42.9005" lon="2.1142">
        <ele>575</ele>
        <time>2014-05-13T07:59:55.1Z</time>
      </trkpt>
      <trkpt lat="42.90051" lon="2.11423">
        <ele>575</ele>
        <time>2014-05-13T07:59:57.1Z</time>
      </trkpt>
      <trkpt lat="42.90053" lon="2.11426">
        <ele>575</ele>
        <time>2014-05-13T08:00:00.1Z</time>
      </trkpt>
      <trkpt lat="42.90055" lon="2.1143">
        <ele>575</ele>
        <time>2014-05-13T08:00:03.1Z</time>
      </trkpt>
      <trkpt lat="42.90057" lon="2.11433">
        <ele>575</ele>
        <time>2014-05-13T08:00:05.1Z</time>
      </trkpt>
      <trkpt lat="42.90057" lon="2.11436">
        <ele>575</ele>
        <time>2014-05-13T08:00:08.1Z</time>
      </trkpt>
      <trkpt lat="42.90058" lon="2.11437">
        <ele>574</ele>
        <time>2014-05-13T08:00:10.1Z</time>
      </trkpt>
      <trkpt lat="42.90057" lon="2.11437">
        <ele>574</ele>
        <time>2014-05-13T08:00:13.1Z</time>
      </trkpt>
      <trkpt lat="42.90057" lon="2.11437">
        <ele>574</ele>
        <time>2014-05-13T08:00:15.1Z</time>
      </trkpt>
      <trkpt lat="42.90058" lon="2.11437">
        <ele>574</ele>
        <time>2014-05-13T08:00:17.1Z</time>
      </trkpt>
      <trkpt lat="42.90059" lon="2.11437">
        <ele>575</ele>
        <time>2014-05-13T08:00:20.1Z</time>
      </trkpt>
      <trkpt lat="42.90059" lon="2.11437">
        <ele>575</ele>
        <time>2014-05-13T08:00:23.1Z</time>
      </trkpt>
      <trkpt lat="42.90059" lon="2.11437">
        <ele>575</ele>
        <time>2014-05-13T08:00:26.1Z</time>
      </trkpt>
      <trkpt lat="42.90059" lon="2.11437">
        <ele>574</ele>
        <time>2014-05-13T08:00:31.1Z</time>
      </trkpt>
      <trkpt lat="42.90059" lon="2.11437">
        <ele>574</ele>
        <time>2014-05-13T08:00:34.1Z</time>
      </trkpt>
      <trkpt lat="42.90059" lon="2.11437">
        <ele>574</ele>
        <time>2014-05-13T08:00:37.1Z</time>
      </trkpt>
      <trkpt lat="42.90059" lon="2.11436">
        <ele>574</ele>
        <time>2014-05-13T08:00:39.1Z</time>
      </trkpt>
      <trkpt lat="42.90059" lon="2.11436">
        <ele>574</ele>
        <time>2014-05-13T08:00:41.1Z</time>
      </trkpt>
      <trkpt lat="42.90059" lon="2.11436">
        <ele>574</ele>
        <time>2014-05-13T08:00:43.1Z</time>
      </trkpt>
      <trkpt lat="42.90058" lon="2.11436">
        <ele>574</ele>
        <time>2014-05-13T08:00:47.1Z</time>
      </trkpt>
      <trkpt lat="42.90058" lon="2.11436">
        <ele>574</ele>
        <time>2014-05-13T08:00:50.1Z</time>
      </trkpt>
      <trkpt lat="42.90059" lon="2.11436">
        <ele>574</ele>
        <time>2014-05-13T08:00:53.1Z</time>
      </trkpt>
      <trkpt lat="42.90059" lon="2.11437">
        <ele>574</ele>
        <time>2014-05-13T08:00:56.1Z</time>
      </trkpt>
      <trkpt lat="42.90059" lon="2.11437">
        <ele>574</ele>
        <time>2014-05-13T08:00:59.1Z</time>
      </trkpt>
      <trkpt lat="42.90058" lon="2.11437">
        <ele>574</ele>
        <time>2014-05-13T08:01:01.1Z</time>
      </trkpt>
      <trkpt lat="42.90058" lon="2.11437">
        <ele>574</ele>
        <time>2014-05-13T08:01:03.1Z</time>
      </trkpt>
      <trkpt lat="42.90059" lon="2.11437">
        <ele>574</ele>
        <time>2014-05-13T08:01:07.1Z</time>
      </trkpt>
      <trkpt lat="42.90059" lon="2.11437">
        <ele>574</ele>
        <time>2014-05-13T08:01:09.1Z</time>
      </trkpt>
      <trkpt lat="42.9006" lon="2.11436">
        <ele>574</ele>
        <time>2014-05-13T08:01:11.1Z</time>
      </trkpt>
      <trkpt lat="42.9006" lon="2.11436">
        <ele>574</ele>
        <time>2014-05-13T08:01:14.1Z</time>
      </trkpt>
      <trkpt lat="42.9006" lon="2.11437">
        <ele>574</ele>
        <time>2014-05-13T08:01:17.1Z</time>
      </trkpt>
      <trkpt lat="42.9006" lon="2.11439">
        <ele>574</ele>
        <time>2014-05-13T08:01:20.1Z</time>
      </trkpt>
      <trkpt lat="42.90062" lon="2.11441">
        <ele>574</ele>
        <time>2014-05-13T08:01:23.1Z</time>
      </trkpt>
      <trkpt lat="42.90062" lon="2.11444">
        <ele>574</ele>
        <time>2014-05-13T08:01:25.1Z</time>
      </trkpt>
      <trkpt lat="42.90064" lon="2.11449">
        <ele>574</ele>
        <time>2014-05-13T08:01:28.1Z</time>
      </trkpt>
      <trkpt lat="42.90065" lon="2.11453">
        <ele>575</ele>
        <time>2014-05-13T08:01:31.1Z</time>
      </trkpt>
      <trkpt lat="42.90067" lon="2.11456">
        <ele>574</ele>
        <time>2014-05-13T08:01:33.1Z</time>
      </trkpt>
      <trkpt lat="42.90068" lon="2.11459">
        <ele>574</ele>
        <time>2014-05-13T08:01:35.1Z</time>
      </trkpt>
      <trkpt lat="42.9007" lon="2.11463">
        <ele>574</ele>
        <time>2014-05-13T08:01:38.1Z</time>
      </trkpt>
      <trkpt lat="42.90072" lon="2.11466">
        <ele>574</ele>
        <time>2014-05-13T08:01:41.1Z</time>
      </trkpt>
      <trkpt lat="42.90073" lon="2.11469">
        <ele>574</ele>
        <time>2014-05-13T08:01:43.1Z</time>
      </trkpt>
      <trkpt lat="42.90075" lon="2.1147">
        <ele>574</ele>
        <time>2014-05-13T08:01:45.1Z</time>
      </trkpt>
      <trkpt lat="42.90077" lon="2.11473">
        <ele>574</ele>
        <time>2014-05-13T08:01:48.1Z</time>
      </trkpt>
      <trkpt lat="42.90078" lon="2.11473">
        <ele>574</ele>
        <time>2014-05-13T08:01:50.1Z</time>
      </trkpt>
      <trkpt lat="42.90081" lon="2.11473">
        <ele>574</ele>
        <time>2014-05-13T08:01:53.1Z</time>
      </trkpt>
      <trkpt lat="42.90083" lon="2.11474">
        <ele>574</ele>
        <time>2014-05-13T08:01:56.1Z</time>
      </trkpt>
      <trkpt lat="42.90084" lon="2.11475">
        <ele>574</ele>
        <time>2014-05-13T08:01:58.1Z</time>
      </trkpt>
      <trkpt lat="42.90085" lon="2.11475">
        <ele>574</ele>
        <time>2014-05-13T08:02:02.1Z</time>
      </trkpt>
      <trkpt lat="42.90085" lon="2.11475">
        <ele>575</ele>
        <time>2014-05-13T08:02:04.1Z</time>
      </trkpt>
      <trkpt lat="42.90084" lon="2.11475">
        <ele>574</ele>
        <time>2014-05-13T08:02:07.1Z</time>
      </trkpt>
      <trkpt lat="42.90085" lon="2.11475">
        <ele>575</ele>
        <time>2014-05-13T08:02:10.1Z</time>
      </trkpt>
      <trkpt lat="42.90085" lon="2.11474">
        <ele>574</ele>
        <time>2014-05-13T08:02:12.1Z</time>
      </trkpt>
      <trkpt lat="42.90085" lon="2.11474">
        <ele>574</ele>
        <time>2014-05-13T08:02:15.1Z</time>
      </trkpt>
      <trkpt lat="42.90086" lon="2.11473">
        <ele>574</ele>
        <time>2014-05-13T08:02:18.1Z</time>
      </trkpt>
      <trkpt lat="42.90086" lon="2.11472">
        <ele>574</ele>
        <time>2014-05-13T08:02:20.1Z</time>
      </trkpt>
      <trkpt lat="42.90086" lon="2.11472">
        <ele>574</ele>
        <time>2014-05-13T08:02:23.1Z</time>
      </trkpt>
      <trkpt lat="42.90086" lon="2.11472">
        <ele>574</ele>
        <time>2014-05-13T08:02:26.1Z</time>
      </trkpt>
      <trkpt lat="42.90086" lon="2.11472">
        <ele>574</ele>
        <time>2014-05-13T08:02:28.1Z</time>
      </trkpt>
      <trkpt lat="42.90086" lon="2.11472">
        <ele>574</ele>
        <time>2014-05-13T08:02:32.1Z</time>
      </trkpt>
      <trkpt lat="42.90086" lon="2.11472">
        <ele>574</ele>
        <time>2014-05-13T08:02:34.1Z</time>
      </trkpt>
      <trkpt lat="42.90085" lon="2.11471">
        <ele>574</ele>
        <time>2014-05-13T08:02:37.1Z</time>
      </trkpt>
      <trkpt lat="42.90085" lon="2.11471">
        <ele>574</ele>
        <time>2014-05-13T08:02:40.1Z</time>
      </trkpt>
      <trkpt lat="42.90084" lon="2.11471">
        <ele>574</ele>
        <time>2014-05-13T08:02:43.1Z</time>
      </trkpt>
      <trkpt lat="42.90084" lon="2.11471">
        <ele>574</ele>
        <time>2014-05-13T08:02:47.1Z</time>
      </trkpt>
      <trkpt lat="42.90084" lon="2.11471">
        <ele>574</ele>
        <time>2014-05-13T08:02:50.1Z</time>
      </trkpt>
      <trkpt lat="42.90083" lon="2.11471">
        <ele>574</ele>
        <time>2014-05-13T08:02:52.1Z</time>
      </trkpt>
      <trkpt lat="42.90083" lon="2.11471">
        <ele>574</ele>
        <time>2014-05-13T08:02:56.1Z</time>
      </trkpt>
      <trkpt lat="42.90084" lon="2.11471">
        <ele>574</ele>
        <time>2014-05-13T08:03:00.1Z</time>
      </trkpt>
      <trkpt lat="42.90084" lon="2.11471">
        <ele>574</ele>
        <time>2014-05-13T08:03:03.1Z</time>
      </trkpt>
      <trkpt lat="42.90084" lon="2.11471">
        <ele>574</ele>
        <time>2014-05-13T08:03:06.1Z</time>
      </trkpt>
      <trkpt lat="42.90084" lon="2.11471">
        <ele>574</ele>
        <time>2014-05-13T08:03:08.1Z</time>
      </trkpt>
      <trkpt lat="42.90084" lon="2.11471">
        <ele>574</ele>
        <time>2014-05-13T08:03:13.1Z</time>
      </trkpt>
      <trkpt lat="42.90085" lon="2.11471">
        <ele>574</ele>
        <time>2014-05-13T08:03:15.1Z</time>
      </trkpt>
      <trkpt lat="42.90084" lon="2.11471">
        <ele>574</ele>
        <time>2014-05-13T08:03:19.1Z</time>
      </trkpt>
      <trkpt lat="42.90085" lon="2.1147">
        <ele>574</ele>
        <time>2014-05-13T08:03:23.1Z</time>
      </trkpt>
      <trkpt lat="42.90085" lon="2.1147">
        <ele>574</ele>
        <time>2014-05-13T08:03:25.1Z</time>
      </trkpt>
      <trkpt lat="42.90085" lon="2.1147">
        <ele>574</ele>
        <time>2014-05-13T08:03:28.1Z</time>
      </trkpt>
      <trkpt lat="42.90085" lon="2.1147">
        <ele>575</ele>
        <time>2014-05-13T08:03:31.1Z</time>
      </trkpt>
      <trkpt lat="42.90086" lon="2.11471">
        <ele>574</ele>
        <time>2014-05-13T08:03:33.1Z</time>
      </trkpt>
      <trkpt lat="42.90086" lon="2.11471">
        <ele>575</ele>
        <time>2014-05-13T08:03:36.1Z</time>
      </trkpt>
      <trkpt lat="42.90086" lon="2.11471">
        <ele>575</ele>
        <time>2014-05-13T08:03:39.1Z</time>
      </trkpt>
      <trkpt lat="42.90086" lon="2.11471">
        <ele>574</ele>
        <time>2014-05-13T08:03:42.1Z</time>
      </trkpt>
      <trkpt lat="42.90086" lon="2.11471">
        <ele>575</ele>
        <time>2014-05-13T08:03:46.1Z</time>
      </trkpt>
      <trkpt lat="42.90086" lon="2.1147">
        <ele>574</ele>
        <time>2014-05-13T08:03:49.1Z</time>
      </trkpt>
      <trkpt lat="42.90086" lon="2.11471">
        <ele>574</ele>
        <time>2014-05-13T08:03:52.1Z</time>
      </trkpt>
      <trkpt lat="42.90086" lon="2.1147">
        <ele>574</ele>
        <time>2014-05-13T08:03:57.1Z</time>
      </trkpt>
      <trkpt lat="42.90086" lon="2.1147">
        <ele>574</ele>
        <time>2014-05-13T08:04:01.1Z</time>
      </trkpt>
      <trkpt lat="42.90086" lon="2.1147">
        <ele>574</ele>
        <time>2014-05-13T08:04:04.1Z</time>
      </trkpt>
      <trkpt lat="42.90086" lon="2.1147">
        <ele>574</ele>
        <time>2014-05-13T08:04:06.1Z</time>
      </trkpt>
      <trkpt lat="42.90086" lon="2.1147">
        <ele>574</ele>
        <time>2014-05-13T08:04:09.1Z</time>
      </trkpt>
      <trkpt lat="42.90086" lon="2.1147">
        <ele>574</ele>
        <time>2014-05-13T08:04:12.1Z</time>
      </trkpt>
      <trkpt lat="42.90085" lon="2.1147">
        <ele>574</ele>
        <time>2014-05-13T08:04:15.1Z</time>
      </trkpt>
      <trkpt lat="42.90085" lon="2.11471">
        <ele>574</ele>
        <time>2014-05-13T08:04:17.1Z</time>
      </trkpt>
      <trkpt lat="42.90085" lon="2.11471">
        <ele>573</ele>
        <time>2014-05-13T08:04:20.1Z</time>
      </trkpt>
      <trkpt lat="42.90084" lon="2.11471">
        <ele>574</ele>
        <time>2014-05-13T08:04:22.1Z</time>
      </trkpt>
      <trkpt lat="42.90084" lon="2.11471">
        <ele>574</ele>
        <time>2014-05-13T08:04:25.1Z</time>
      </trkpt>
      <trkpt lat="42.90084" lon="2.11471">
        <ele>574</ele>
        <time>2014-05-13T08:04:27.1Z</time>
      </trkpt>
      <trkpt lat="42.90084" lon="2.11472">
        <ele>574</ele>
        <time>2014-05-13T08:04:32.1Z</time>
      </trkpt>
      <trkpt lat="42.90084" lon="2.11472">
        <ele>574</ele>
        <time>2014-05-13T08:04:35.1Z</time>
      </trkpt>
      <trkpt lat="42.90084" lon="2.11472">
        <ele>574</ele>
        <time>2014-05-13T08:04:39.1Z</time>
      </trkpt>
      <trkpt lat="42.90086" lon="2.11473">
        <ele>574</ele>
        <time>2014-05-13T08:04:42.1Z</time>
      </trkpt>
      <trkpt lat="42.90086" lon="2.11473">
        <ele>574</ele>
        <time>2014-05-13T08:04:45.1Z</time>
      </trkpt>
      <trkpt lat="42.90086" lon="2.11474">
        <ele>574</ele>
        <time>2014-05-13T08:04:47.1Z</time>
      </trkpt>
      <trkpt lat="42.90087" lon="2.11476">
        <ele>574</ele>
        <time>2014-05-13T08:04:50.1Z</time>
      </trkpt>
      <trkpt lat="42.90086" lon="2.11477">
        <ele>574</ele>
        <time>2014-05-13T08:04:53.1Z</time>
      </trkpt>
      <trkpt lat="42.90086" lon="2.11481">
        <ele>574</ele>
        <time>2014-05-13T08:04:56.1Z</time>
      </trkpt>
      <trkpt lat="42.90084" lon="2.11483">
        <ele>574</ele>
        <time>2014-05-13T08:04:59.1Z</time>
      </trkpt>
      <trkpt lat="42.90082" lon="2.11486">
        <ele>574</ele>
        <time>2014-05-13T08:05:01.1Z</time>
      </trkpt>
      <trkpt lat="42.90079" lon="2.11488">
        <ele>574</ele>
        <time>2014-05-13T08:05:04.1Z</time>
      </trkpt>
      <trkpt lat="42.90079" lon="2.11488">
        <ele>574</ele>
        <time>2014-05-13T08:05:06.1Z</time>
      </trkpt>
      <trkpt lat="42.90078" lon="2.11489">
        <ele>574</ele>
        <time>2014-05-13T08:05:09.1Z</time>
      </trkpt>
      <trkpt lat="42.90077" lon="2.11491">
        <ele>574</ele>
        <time>2014-05-13T08:05:11.1Z</time>
      </trkpt>
      <trkpt lat="42.90074" lon="2.11493">
        <ele>574</ele>
        <time>2014-05-13T08:05:14.1Z</time>
      </trkpt>
      <trkpt lat="42.90072" lon="2.11495">
        <ele>575</ele>
        <time>2014-05-13T08:05:17.1Z</time>
      </trkpt>
      <trkpt lat="42.9007" lon="2.11495">
        <ele>575</ele>
        <time>2014-05-13T08:05:20.1Z</time>
      </trkpt>
      <trkpt lat="42.9007" lon="2.11495">
        <ele>574</ele>
        <time>2014-05-13T08:05:23.1Z</time>
      </trkpt>
      <trkpt lat="42.9007" lon="2.11495">
        <ele>575</ele>
        <time>2014-05-13T08:05:26.1Z</time>
      </trkpt>
      <trkpt lat="42.9007" lon="2.11496">
        <ele>575</ele>
        <time>2014-05-13T08:05:28.1Z</time>
      </trkpt>
      <trkpt lat="42.90071" lon="2.11497">
        <ele>575</ele>
        <time>2014-05-13T08:05:31.1Z</time>
      </trkpt>
      <trkpt lat="42.90071" lon="2.11497">
        <ele>575</ele>
        <time>2014-05-13T08:05:34.1Z</time>
      </trkpt>
      <trkpt lat="42.90072" lon="2.11499">
        <ele>574</ele>
        <time>2014-05-13T08:05:37.1Z</time>
      </trkpt>
      <trkpt lat="42.90073" lon="2.11499">
        <ele>574</ele>
        <time>2014-05-13T08:05:40.1Z</time>
      </trkpt>
      <trkpt lat="42.90073" lon="2.11499">
        <ele>575</ele>
        <time>2014-05-13T08:05:42.1Z</time>
      </trkpt>
      <trkpt lat="42.90071" lon="2.11501">
        <ele>575</ele>
        <time>2014-05-13T08:05:45.1Z</time>
      </trkpt>
      <trkpt lat="42.90069" lon="2.11504">
        <ele>574</ele>
        <time>2014-05-13T08:05:48.1Z</time>
      </trkpt>
      <trkpt lat="42.90068" lon="2.11504">
        <ele>574</ele>
        <time>2014-05-13T08:05:51.1Z</time>
      </trkpt>
      <trkpt lat="42.90068" lon="2.11504">
        <ele>574</ele>
        <time>2014-05-13T08:05:53.1Z</time>
      </trkpt>
      <trkpt lat="42.90066" lon="2.11504">
        <ele>574</ele>
        <time>2014-05-13T08:05:56.1Z</time>
      </trkpt>
      <trkpt lat="42.90065" lon="2.11506">
        <ele>574</ele>
        <time>2014-05-13T08:05:59.1Z</time>
      </trkpt>
      <trkpt lat="42.90064" lon="2.11508">
        <ele>574</ele>
        <time>2014-05-13T08:06:01.1Z</time>
      </trkpt>
      <trkpt lat="42.90063" lon="2.1151">
        <ele>574</ele>
        <time>2014-05-13T08:06:03.1Z</time>
      </trkpt>
      <trkpt lat="42.90062" lon="2.11512">
        <ele>574</ele>
        <time>2014-05-13T08:06:06.1Z</time>
      </trkpt>
      <trkpt lat="42.90062" lon="2.11513">
        <ele>574</ele>
        <time>2014-05-13T08:06:08.1Z</time>
      </trkpt>
      <trkpt lat="42.90062" lon="2.11514">
        <ele>574</ele>
        <time>2014-05-13T08:06:11.1Z</time>
      </trkpt>
      <trkpt lat="42.90062" lon="2.11517">
        <ele>574</ele>
        <time>2014-05-13T08:06:14.1Z</time>
      </trkpt>
      <trkpt lat="42.90061" lon="2.1152">
        <ele>574</ele>
        <time>2014-05-13T08:06:16.1Z</time>
      </trkpt>
      <trkpt lat="42.90061" lon="2.11524">
        <ele>574</ele>
        <time>2014-05-13T08:06:19.1Z</time>
      </trkpt>
      <trkpt lat="42.90061" lon="2.11528">
        <ele>574</ele>
        <time>2014-05-13T08:06:21.1Z</time>
      </trkpt>
      <trkpt lat="42.90061" lon="2.11533">
        <ele>574</ele>
        <time>2014-05-13T08:06:24.1Z</time>
      </trkpt>
      <trkpt lat="42.9006" lon="2.11537">
        <ele>574</ele>
        <time>2014-05-13T08:06:27.1Z</time>
      </trkpt>
      <trkpt lat="42.9006" lon="2.11539">
        <ele>573</ele>
        <time>2014-05-13T08:06:29.1Z</time>
      </trkpt>
      <trkpt lat="42.9006" lon="2.11541">
        <ele>573</ele>
        <time>2014-05-13T08:06:32.1Z</time>
      </trkpt>
      <trkpt lat="42.9006" lon="2.11543">
        <ele>574</ele>
        <time>2014-05-13T08:06:35.1Z</time>
      </trkpt>
      <trkpt lat="42.9006" lon="2.11545">
        <ele>574</ele>
        <time>2014-05-13T08:06:38.1Z</time>
      </trkpt>
      <trkpt lat="42.9006" lon="2.11547">
        <ele>574</ele>
        <time>2014-05-13T08:06:40.1Z</time>
      </trkpt>
      <trkpt lat="42.90062" lon="2.11549">
        <ele>573</ele>
        <time>2014-05-13T08:06:43.1Z</time>
      </trkpt>
      <trkpt lat="42.90062" lon="2.11552">
        <ele>574</ele>
        <time>2014-05-13T08:06:45.1Z</time>
      </trkpt>
      <trkpt lat="42.90063" lon="2.11555">
        <ele>573</ele>
        <time>2014-05-13T08:06:48.1Z</time>
      </trkpt>
      <trkpt lat="42.90063" lon="2.11558">
        <ele>573</ele>
        <time>2014-05-13T08:06:50.1Z</time>
      </trkpt>
      <trkpt lat="42.90063" lon="2.11561">
        <ele>573</ele>
        <time>2014-05-13T08:06:52.1Z</time>
      </trkpt>
      <trkpt lat="42.90064" lon="2.11565">
        <ele>573</ele>
        <time>2014-05-13T08:06:55.1Z</time>
      </trkpt>
      <trkpt lat="42.90064" lon="2.11568">
        <ele>573</ele>
        <time>2014-05-13T08:06:57.1Z</time>
      </trkpt>
      <trkpt lat="42.90063" lon="2.11574">
        <ele>573</ele>
        <time>2014-05-13T08:07:00.1Z</time>
      </trkpt>
      <trkpt lat="42.90063" lon="2.11578">
        <ele>574</ele>
        <time>2014-05-13T08:07:03.1Z</time>
      </trkpt>
      <trkpt lat="42.90062" lon="2.11581">
        <ele>574</ele>
        <time>2014-05-13T08:07:05.1Z</time>
      </trkpt>
      <trkpt lat="42.90063" lon="2.11587">
        <ele>574</ele>
        <time>2014-05-13T08:07:08.1Z</time>
      </trkpt>
      <trkpt lat="42.90062" lon="2.11591">
        <ele>574</ele>
        <time>2014-05-13T08:07:11.1Z</time>
      </trkpt>
      <trkpt lat="42.90062" lon="2.11596">
        <ele>573</ele>
        <time>2014-05-13T08:07:14.1Z</time>
      </trkpt>
      <trkpt lat="42.90061" lon="2.11599">
        <ele>574</ele>
        <time>2014-05-13T08:07:16.1Z</time>
      </trkpt>
      <trkpt lat="42.9006" lon="2.11602">
        <ele>573</ele>
        <time>2014-05-13T08:07:19.1Z</time>
      </trkpt>
      <trkpt lat="42.90059" lon="2.11605">
        <ele>573</ele>
        <time>2014-05-13T08:07:22.1Z</time>
      </trkpt>
      <trkpt lat="42.90057" lon="2.11605">
        <ele>573</ele>
        <time>2014-05-13T08:07:24.1Z</time>
      </trkpt>
      <trkpt lat="42.90056" lon="2.11606">
        <ele>573</ele>
        <time>2014-05-13T08:07:27.1Z</time>
      </trkpt>
      <trkpt lat="42.90054" lon="2.11606">
        <ele>573</ele>
        <time>2014-05-13T08:07:29.1Z</time>
      </trkpt>
      <trkpt lat="42.90052" lon="2.11608">
        <ele>573</ele>
        <time>2014-05-13T08:07:32.1Z</time>
      </trkpt>
      <trkpt lat="42.90051" lon="2.11611">
        <ele>574</ele>
        <time>2014-05-13T08:07:35.1Z</time>
      </trkpt>
      <trkpt lat="42.90051" lon="2.11614">
        <ele>574</ele>
        <time>2014-05-13T08:07:37.1Z</time>
      </trkpt>
      <trkpt lat="42.90052" lon="2.11617">
        <ele>573</ele>
        <time>2014-05-13T08:07:40.1Z</time>
      </trkpt>
      <trkpt lat="42.90053" lon="2.11618">
        <ele>574</ele>
        <time>2014-05-13T08:07:43.1Z</time>
      </trkpt>
      <trkpt lat="42.90053" lon="2.11618">
        <ele>573</ele>
        <time>2014-05-13T08:07:46.1Z</time>
      </trkpt>
      <trkpt lat="42.90054" lon="2.11618">
        <ele>573</ele>
        <time>2014-05-13T08:07:48.1Z</time>
      </trkpt>
      <trkpt lat="42.90054" lon="2.11618">
        <ele>573</ele>
        <time>2014-05-13T08:07:51.1Z</time>
      </trkpt>
      <trkpt lat="42.90054" lon="2.11618">
        <ele>574</ele>
        <time>2014-05-13T08:07:54.1Z</time>
      </trkpt>
      <trkpt lat="42.90054" lon="2.11618">
        <ele>574</ele>
        <time>2014-05-13T08:07:57.1Z</time>
      </trkpt>
      <trkpt lat="42.90054" lon="2.11618">
        <ele>574</ele>
        <time>2014-05-13T08:07:59.1Z</time>
      </trkpt>
      <trkpt lat="42.90055" lon="2.11619">
        <ele>574</ele>
        <time>2014-05-13T08:08:02.1Z</time>
      </trkpt>
      <trkpt lat="42.90056" lon="2.11619">
        <ele>574</ele>
        <time>2014-05-13T08:08:05.1Z</time>
      </trkpt>
      <trkpt lat="42.90056" lon="2.11619">
        <ele>574</ele>
        <time>2014-05-13T08:08:08.1Z</time>
      </trkpt>
      <trkpt lat="42.90057" lon="2.11619">
        <ele>574</ele>
        <time>2014-05-13T08:08:10.1Z</time>
      </trkpt>
      <trkpt lat="42.90057" lon="2.1162">
        <ele>574</ele>
        <time>2014-05-13T08:08:13.1Z</time>
      </trkpt>
      <trkpt lat="42.90058" lon="2.11621">
        <ele>573</ele>
        <time>2014-05-13T08:08:15.1Z</time>
      </trkpt>
      <trkpt lat="42.90059" lon="2.11622">
        <ele>574</ele>
        <time>2014-05-13T08:08:18.1Z</time>
      </trkpt>
      <trkpt lat="42.90061" lon="2.11622">
        <ele>574</ele>
        <time>2014-05-13T08:08:21.1Z</time>
      </trkpt>
      <trkpt lat="42.90062" lon="2.11622">
        <ele>574</ele>
        <time>2014-05-13T08:08:23.1Z</time>
      </trkpt>
      <trkpt lat="42.90063" lon="2.11623">
        <ele>574</ele>
        <time>2014-05-13T08:08:26.1Z</time>
      </trkpt>
      <trkpt lat="42.90064" lon="2.11623">
        <ele>574</ele>
        <time>2014-05-13T08:08:28.1Z</time>
      </trkpt>
      <trkpt lat="42.90065" lon="2.11624">
        <ele>574</ele>
        <time>2014-05-13T08:08:31.1Z</time>
      </trkpt>
      <trkpt lat="42.90065" lon="2.11624">
        <ele>573</ele>
        <time>2014-05-13T08:08:33.1Z</time>
      </trkpt>
      <trkpt lat="42.90066" lon="2.11626">
        <ele>573</ele>
        <time>2014-05-13T08:08:36.1Z</time>
      </trkpt>
      <trkpt lat="42.90067" lon="2.11626">
        <ele>574</ele>
        <time>2014-05-13T08:08:38.1Z</time>
      </trkpt>
      <trkpt lat="42.90068" lon="2.11627">
        <ele>573</ele>
        <time>2014-05-13T08:08:40.1Z</time>
      </trkpt>
      <trkpt lat="42.90068" lon="2.11628">
        <ele>573</ele>
        <time>2014-05-13T08:08:43.1Z</time>
      </trkpt>
      <trkpt lat="42.90069" lon="2.1163">
        <ele>574</ele>
        <time>2014-05-13T08:08:46.1Z</time>
      </trkpt>
      <trkpt lat="42.9007" lon="2.11631">
        <ele>574</ele>
        <time>2014-05-13T08:08:49.1Z</time>
      </trkpt>
      <trkpt lat="42.9007" lon="2.11632">
        <ele>574</ele>
        <time>2014-05-13T08:08:51.1Z</time>
      </trkpt>
      <trkpt lat="42.9007" lon="2.11632">
        <ele>573</ele>
        <time>2014-05-13T08:08:53.1Z</time>
      </trkpt>
      <trkpt lat="42.90071" lon="2.11633">
        <ele>573</ele>
        <time>2014-05-13T08:08:56.1Z</time>
      </trkpt>
      <trkpt lat="42.90071" lon="2.11633">
        <ele>573</ele>
        <time>2014-05-13T08:08:58.1Z</time>
      </trkpt>
      <trkpt lat="42.90073" lon="2.11633">
        <ele>573</ele>
        <time>2014-05-13T08:09:01.1Z</time>
      </trkpt>
      <trkpt lat="42.90074" lon="2.11633">
        <ele>573</ele>
        <time>2014-05-13T08:09:04.1Z</time>
      </trkpt>
      <trkpt lat="42.90075" lon="2.11633">
        <ele>574</ele>
        <time>2014-05-13T08:09:06.1Z</time>
      </trkpt>
      <trkpt lat="42.90077" lon="2.11634">
        <ele>573</ele>
        <time>2014-05-13T08:09:09.1Z</time>
      </trkpt>
      <trkpt lat="42.90078" lon="2.11634">
        <ele>574</ele>
        <time>2014-05-13T08:09:11.1Z</time>
      </trkpt>
      <trkpt lat="42.9008" lon="2.11635">
        <ele>574</ele>
        <time>2014-05-13T08:09:14.1Z</time>
      </trkpt>
      <trkpt lat="42.90081" lon="2.11636">
        <ele>574</ele>
        <time>2014-05-13T08:09:16.1Z</time>
      </trkpt>
      <trkpt lat="42.90082" lon="2.11637">
        <ele>574</ele>
        <time>2014-05-13T08:09:18.1Z</time>
      </trkpt>
      <trkpt lat="42.90085" lon="2.11638">
        <ele>574</ele>
        <time>2014-05-13T08:09:21.1Z</time>
      </trkpt>
      <trkpt lat="42.90087" lon="2.11638">
        <ele>574</ele>
        <time>2014-05-13T08:09:24.1Z</time>
      </trkpt>
      <trkpt lat="42.90089" lon="2.11639">
        <ele>574</ele>
        <time>2014-05-13T08:09:27.1Z</time>
      </trkpt>
      <trkpt lat="42.90089" lon="2.11641">
        <ele>574</ele>
        <time>2014-05-13T08:09:29.1Z</time>
      </trkpt>
      <trkpt lat="42.9009" lon="2.11642">
        <ele>574</ele>
        <time>2014-05-13T08:09:31.1Z</time>
      </trkpt>
      <trkpt lat="42.90091" lon="2.11644">
        <ele>574</ele>
        <time>2014-05-13T08:09:34.1Z</time>
      </trkpt>
      <trkpt lat="42.90093" lon="2.11645">
        <ele>574</ele>
        <time>2014-05-13T08:09:36.1Z</time>
      </trkpt>
      <trkpt lat="42.90095" lon="2.11646">
        <ele>574</ele>
        <time>2014-05-13T08:09:39.1Z</time>
      </trkpt>
      <trkpt lat="42.90097" lon="2.11647">
        <ele>574</ele>
        <time>2014-05-13T08:09:41.1Z</time>
      </trkpt>
      <trkpt lat="42.90098" lon="2.11646">
        <ele>574</ele>
        <time>2014-05-13T08:09:43.1Z</time>
      </trkpt>
      <trkpt lat="42.901" lon="2.11647">
        <ele>574</ele>
        <time>2014-05-13T08:09:46.1Z</time>
      </trkpt>
      <trkpt lat="42.90102" lon="2.11649">
        <ele>574</ele>
        <time>2014-05-13T08:09:49.1Z</time>
      </trkpt>
      <trkpt lat="42.90102" lon="2.1165">
        <ele>574</ele>
        <time>2014-05-13T08:09:51.1Z</time>
      </trkpt>
      <trkpt lat="42.90104" lon="2.11652">
        <ele>573</ele>
        <time>2014-05-13T08:09:54.1Z</time>
      </trkpt>
      <trkpt lat="42.90105" lon="2.11652">
        <ele>573</ele>
        <time>2014-05-13T08:09:56.1Z</time>
      </trkpt>
      <trkpt lat="42.90106" lon="2.11653">
        <ele>573</ele>
        <time>2014-05-13T08:09:59.1Z</time>
      </trkpt>
      <trkpt lat="42.90109" lon="2.11656">
        <ele>572</ele>
        <time>2014-05-13T08:10:02.1Z</time>
      </trkpt>
      <trkpt lat="42.90111" lon="2.11658">
        <ele>572</ele>
        <time>2014-05-13T08:10:04.1Z</time>
      </trkpt>
      <trkpt lat="42.90113" lon="2.1166">
        <ele>572</ele>
        <time>2014-05-13T08:10:07.1Z</time>
      </trkpt>
      <trkpt lat="42.90116" lon="2.11664">
        <ele>572</ele>
        <time>2014-05-13T08:10:10.1Z</time>
      </trkpt>
      <trkpt lat="42.90117" lon="2.11666">
        <ele>573</ele>
        <time>2014-05-13T08:10:12.1Z</time>
      </trkpt>
      <trkpt lat="42.90119" lon="2.1167">
        <ele>573</ele>
        <time>2014-05-13T08:10:15.1Z</time>
      </trkpt>
      <trkpt lat="42.90119" lon="2.11673">
        <ele>573</ele>
        <time>2014-05-13T08:10:17.1Z</time>
      </trkpt>
      <trkpt lat="42.90119" lon="2.11676">
        <ele>573</ele>
        <time>2014-05-13T08:10:20.1Z</time>
      </trkpt>
      <trkpt lat="42.9012" lon="2.11677">
        <ele>573</ele>
        <time>2014-05-13T08:10:23.1Z</time>
      </trkpt>
      <trkpt lat="42.90121" lon="2.1168">
        <ele>573</ele>
        <time>2014-05-13T08:10:25.1Z</time>
      </trkpt>
      <trkpt lat="42.90122" lon="2.11684">
        <ele>573</ele>
        <time>2014-05-13T08:10:28.1Z</time>
      </trkpt>
      <trkpt lat="42.90123" lon="2.11688">
        <ele>572</ele>
        <time>2014-05-13T08:10:31.1Z</time>
      </trkpt>
      <trkpt lat="42.90123" lon="2.11691">
        <ele>572</ele>
        <time>2014-05-13T08:10:33.1Z</time>
      </trkpt>
      <trkpt lat="42.90125" lon="2.11696">
        <ele>572</ele>
        <time>2014-05-13T08:10:36.1Z</time>
      </trkpt>
      <trkpt lat="42.90126" lon="2.11699">
        <ele>572</ele>
        <time>2014-05-13T08:10:38.1Z</time>
      </trkpt>
      <trkpt lat="42.90128" lon="2.11703">
        <ele>572</ele>
        <time>2014-05-13T08:10:41.1Z</time>
      </trkpt>
      <trkpt lat="42.90128" lon="2.11704">
        <ele>572</ele>
        <time>2014-05-13T08:10:43.1Z</time>
      </trkpt>
      <trkpt lat="42.90129" lon="2.11706">
        <ele>572</ele>
        <time>2014-05-13T08:10:45.1Z</time>
      </trkpt>
      <trkpt lat="42.90131" lon="2.11708">
        <ele>571</ele>
        <time>2014-05-13T08:10:48.1Z</time>
      </trkpt>
      <trkpt lat="42.90131" lon="2.1171">
        <ele>572</ele>
        <time>2014-05-13T08:10:51.1Z</time>
      </trkpt>
      <trkpt lat="42.90132" lon="2.11711">
        <ele>572</ele>
        <time>2014-05-13T08:10:53.1Z</time>
      </trkpt>
      <trkpt lat="42.90133" lon="2.11712">
        <ele>572</ele>
        <time>2014-05-13T08:10:56.1Z</time>
      </trkpt>
      <trkpt lat="42.90133" lon="2.11713">
        <ele>572</ele>
        <time>2014-05-13T08:10:58.1Z</time>
      </trkpt>
      <trkpt lat="42.90132" lon="2.11714">
        <ele>573</ele>
        <time>2014-05-13T08:11:01.1Z</time>
      </trkpt>
      <trkpt lat="42.90132" lon="2.11715">
        <ele>572</ele>
        <time>2014-05-13T08:11:04.1Z</time>
      </trkpt>
      <trkpt lat="42.90132" lon="2.11715">
        <ele>573</ele>
        <time>2014-05-13T08:11:06.1Z</time>
      </trkpt>
      <trkpt lat="42.90133" lon="2.11716">
        <ele>572</ele>
        <time>2014-05-13T08:11:09.1Z</time>
      </trkpt>
      <trkpt lat="42.90133" lon="2.11716">
        <ele>573</ele>
        <time>2014-05-13T08:11:12.1Z</time>
      </trkpt>
      <trkpt lat="42.90133" lon="2.11717">
        <ele>573</ele>
        <time>2014-05-13T08:11:15.1Z</time>
      </trkpt>
      <trkpt lat="42.90133" lon="2.11717">
        <ele>573</ele>
        <time>2014-05-13T08:11:18.1Z</time>
      </trkpt>
      <trkpt lat="42.90133" lon="2.11717">
        <ele>573</ele>
        <time>2014-05-13T08:11:21.1Z</time>
      </trkpt>
      <trkpt lat="42.90133" lon="2.11717">
        <ele>573</ele>
        <time>2014-05-13T08:11:23.1Z</time>
      </trkpt>
      <trkpt lat="42.90132" lon="2.11716">
        <ele>573</ele>
        <time>2014-05-13T08:11:26.1Z</time>
      </trkpt>
      <trkpt lat="42.90132" lon="2.11716">
        <ele>573</ele>
        <time>2014-05-13T08:11:28.1Z</time>
      </trkpt>
      <trkpt lat="42.90132" lon="2.11716">
        <ele>573</ele>
        <time>2014-05-13T08:11:31.1Z</time>
      </trkpt>
      <trkpt lat="42.90132" lon="2.11715">
        <ele>573</ele>
        <time>2014-05-13T08:11:33.1Z</time>
      </trkpt>
      <trkpt lat="42.90132" lon="2.11715">
        <ele>573</ele>
        <time>2014-05-13T08:11:36.1Z</time>
      </trkpt>
      <trkpt lat="42.90132" lon="2.11714">
        <ele>573</ele>
        <time>2014-05-13T08:11:39.1Z</time>
      </trkpt>
      <trkpt lat="42.90132" lon="2.11714">
        <ele>572</ele>
        <time>2014-05-13T08:11:41.1Z</time>
      </trkpt>
      <trkpt lat="42.90132" lon="2.11713">
        <ele>572</ele>
        <time>2014-05-13T08:11:44.1Z</time>
      </trkpt>
      <trkpt lat="42.90132" lon="2.11713">
        <ele>572</ele>
        <time>2014-05-13T08:11:46.1Z</time>
      </trkpt>
      <trkpt lat="42.90132" lon="2.11711">
        <ele>573</ele>
        <time>2014-05-13T08:11:49.1Z</time>
      </trkpt>
      <trkpt lat="42.90132" lon="2.11711">
        <ele>573</ele>
        <time>2014-05-13T08:11:51.1Z</time>
      </trkpt>
      <trkpt lat="42.90132" lon="2.11711">
        <ele>573</ele>
        <time>2014-05-13T08:11:54.1Z</time>
      </trkpt>
      <trkpt lat="42.90132" lon="2.11711">
        <ele>572</ele>
        <time>2014-05-13T08:11:57.1Z</time>
      </trkpt>
      <trkpt lat="42.90132" lon="2.11711">
        <ele>572</ele>
        <time>2014-05-13T08:11:59.1Z</time>
      </trkpt>
      <trkpt lat="42.90132" lon="2.11711">
        <ele>572</ele>
        <time>2014-05-13T08:12:02.1Z</time>
      </trkpt>
      <trkpt lat="42.90133" lon="2.11711">
        <ele>573</ele>
        <time>2014-05-13T08:12:05.1Z</time>
      </trkpt>
      <trkpt lat="42.90133" lon="2.11711">
        <ele>573</ele>
        <time>2014-05-13T08:12:07.1Z</time>
      </trkpt>
      <trkpt lat="42.90133" lon="2.11711">
        <ele>573</ele>
        <time>2014-05-13T08:12:10.1Z</time>
      </trkpt>
      <trkpt lat="42.90133" lon="2.11711">
        <ele>573</ele>
        <time>2014-05-13T08:12:12.1Z</time>
      </trkpt>
      <trkpt lat="42.90133" lon="2.1171">
        <ele>573</ele>
        <time>2014-05-13T08:12:15.1Z</time>
      </trkpt>
      <trkpt lat="42.90133" lon="2.1171">
        <ele>573</ele>
        <time>2014-05-13T08:12:20.1Z</time>
      </trkpt>
      <trkpt lat="42.90133" lon="2.1171">
        <ele>572</ele>
        <time>2014-05-13T08:12:23.1Z</time>
      </trkpt>
      <trkpt lat="42.90133" lon="2.1171">
        <ele>572</ele>
        <time>2014-05-13T08:12:25.1Z</time>
      </trkpt>
      <trkpt lat="42.90133" lon="2.11709">
        <ele>572</ele>
        <time>2014-05-13T08:12:29.1Z</time>
      </trkpt>
      <trkpt lat="42.90132" lon="2.11709">
        <ele>572</ele>
        <time>2014-05-13T08:12:32.1Z</time>
      </trkpt>
      <trkpt lat="42.90133" lon="2.11709">
        <ele>572</ele>
        <time>2014-05-13T08:12:37.1Z</time>
      </trkpt>
      <trkpt lat="42.90132" lon="2.11709">
        <ele>572</ele>
        <time>2014-05-13T08:12:41.1Z</time>
      </trkpt>
      <trkpt lat="42.90132" lon="2.11709">
        <ele>572</ele>
        <time>2014-05-13T08:12:44.1Z</time>
      </trkpt>
      <trkpt lat="42.90132" lon="2.11709">
        <ele>573</ele>
        <time>2014-05-13T08:12:47.1Z</time>
      </trkpt>
      <trkpt lat="42.90131" lon="2.11709">
        <ele>573</ele>
        <time>2014-05-13T08:12:49.1Z</time>
      </trkpt>
      <trkpt lat="42.90131" lon="2.11709">
        <ele>573</ele>
        <time>2014-05-13T08:12:53.1Z</time>
      </trkpt>
      <trkpt lat="42.90131" lon="2.1171">
        <ele>572</ele>
        <time>2014-05-13T08:12:56.1Z</time>
      </trkpt>
      <trkpt lat="42.90131" lon="2.1171">
        <ele>572</ele>
        <time>2014-05-13T08:12:58.1Z</time>
      </trkpt>
      <trkpt lat="42.90131" lon="2.1171">
        <ele>572</ele>
        <time>2014-05-13T08:13:01.1Z</time>
      </trkpt>
      <trkpt lat="42.90131" lon="2.1171">
        <ele>573</ele>
        <time>2014-05-13T08:13:03.1Z</time>
      </trkpt>
      <trkpt lat="42.90131" lon="2.1171">
        <ele>572</ele>
        <time>2014-05-13T08:13:06.1Z</time>
      </trkpt>
      <trkpt lat="42.90131" lon="2.1171">
        <ele>572</ele>
        <time>2014-05-13T08:13:08.1Z</time>
      </trkpt>
      <trkpt lat="42.90131" lon="2.1171">
        <ele>572</ele>
        <time>2014-05-13T08:13:11.1Z</time>
      </trkpt>
      <trkpt lat="42.9013" lon="2.1171">
        <ele>573</ele>
        <time>2014-05-13T08:13:14.1Z</time>
      </trkpt>
      <trkpt lat="42.9013" lon="2.1171">
        <ele>573</ele>
        <time>2014-05-13T08:13:19.1Z</time>
      </trkpt>
      <trkpt lat="42.90129" lon="2.1171">
        <ele>572</ele>
        <time>2014-05-13T08:13:26.1Z</time>
      </trkpt>
      <trkpt lat="42.90129" lon="2.1171">
        <ele>572</ele>
        <time>2014-05-13T08:13:28.1Z</time>
      </trkpt>
      <trkpt lat="42.9013" lon="2.1171">
        <ele>573</ele>
        <time>2014-05-13T08:13:31.1Z</time>
      </trkpt>
      <trkpt lat="42.90131" lon="2.11711">
        <ele>573</ele>
        <time>2014-05-13T08:13:34.1Z</time>
      </trkpt>
      <trkpt lat="42.90131" lon="2.11711">
        <ele>573</ele>
        <time>2014-05-13T08:13:36.1Z</time>
      </trkpt>
      <trkpt lat="42.90132" lon="2.11711">
        <ele>573</ele>
        <time>2014-05-13T08:13:39.1Z</time>
      </trkpt>
      <trkpt lat="42.90132" lon="2.11712">
        <ele>573</ele>
        <time>2014-05-13T08:13:42.1Z</time>
      </trkpt>
      <trkpt lat="42.90133" lon="2.11712">
        <ele>573</ele>
        <time>2014-05-13T08:13:44.1Z</time>
      </trkpt>
      <trkpt lat="42.90133" lon="2.11712">
        <ele>573</ele>
        <time>2014-05-13T08:13:47.1Z</time>
      </trkpt>
      <trkpt lat="42.90133" lon="2.11712">
        <ele>573</ele>
        <time>2014-05-13T08:13:50.1Z</time>
      </trkpt>
      <trkpt lat="42.90133" lon="2.11712">
        <ele>573</ele>
        <time>2014-05-13T08:13:52.1Z</time>
      </trkpt>
      <trkpt lat="42.90134" lon="2.11712">
        <ele>573</ele>
        <time>2014-05-13T08:13:55.1Z</time>
      </trkpt>
      <trkpt lat="42.90134" lon="2.11712">
        <ele>573</ele>
        <time>2014-05-13T08:13:57.1Z</time>
      </trkpt>
      <trkpt lat="42.90134" lon="2.11712">
        <ele>573</ele>
        <time>2014-05-13T08:14:00.1Z</time>
      </trkpt>
      <trkpt lat="42.90135" lon="2.11712">
        <ele>573</ele>
        <time>2014-05-13T08:14:02.1Z</time>
      </trkpt>
      <trkpt lat="42.90135" lon="2.11711">
        <ele>573</ele>
        <time>2014-05-13T08:14:07.1Z</time>
      </trkpt>
      <trkpt lat="42.90135" lon="2.11711">
        <ele>573</ele>
        <time>2014-05-13T08:14:11.1Z</time>
      </trkpt>
      <trkpt lat="42.90135" lon="2.11711">
        <ele>573</ele>
        <time>2014-05-13T08:14:14.1Z</time>
      </trkpt>
      <trkpt lat="42.90135" lon="2.1171">
        <ele>573</ele>
        <time>2014-05-13T08:14:16.1Z</time>
      </trkpt>
      <trkpt lat="42.90134" lon="2.1171">
        <ele>573</ele>
        <time>2014-05-13T08:14:19.1Z</time>
      </trkpt>
      <trkpt lat="42.90134" lon="2.11709">
        <ele>572</ele>
        <time>2014-05-13T08:14:22.1Z</time>
      </trkpt>
      <trkpt lat="42.90134" lon="2.11709">
        <ele>573</ele>
        <time>2014-05-13T08:14:24.1Z</time>
      </trkpt>
      <trkpt lat="42.90134" lon="2.11709">
        <ele>573</ele>
        <time>2014-05-13T08:14:27.1Z</time>
      </trkpt>
      <trkpt lat="42.90134" lon="2.11709">
        <ele>573</ele>
        <time>2014-05-13T08:14:29.1Z</time>
      </trkpt>
      <trkpt lat="42.90134" lon="2.11709">
        <ele>573</ele>
        <time>2014-05-13T08:14:32.1Z</time>
      </trkpt>
      <trkpt lat="42.90135" lon="2.11709">
        <ele>573</ele>
        <time>2014-05-13T08:14:35.1Z</time>
      </trkpt>
      <trkpt lat="42.90135" lon="2.11709">
        <ele>573</ele>
        <time>2014-05-13T08:14:37.1Z</time>
      </trkpt>
      <trkpt lat="42.90135" lon="2.11709">
        <ele>573</ele>
        <time>2014-05-13T08:14:40.1Z</time>
      </trkpt>
      <trkpt lat="42.90135" lon="2.11709">
        <ele>573</ele>
        <time>2014-05-13T08:14:43.1Z</time>
      </trkpt>
      <trkpt lat="42.90135" lon="2.11709">
        <ele>573</ele>
        <time>2014-05-13T08:14:45.1Z</time>
      </trkpt>
      <trkpt lat="42.90135" lon="2.11709">
        <ele>573</ele>
        <time>2014-05-13T08:14:48.1Z</time>
      </trkpt>
      <trkpt lat="42.90135" lon="2.11709">
        <ele>573</ele>
        <time>2014-05-13T08:14:50.1Z</time>
      </trkpt>
      <trkpt lat="42.90135" lon="2.11709">
        <ele>572</ele>
        <time>2014-05-13T08:14:53.1Z</time>
      </trkpt>
      <trkpt lat="42.90135" lon="2.11709">
        <ele>572</ele>
        <time>2014-05-13T08:14:55.1Z</time>
      </trkpt>
      <trkpt lat="42.90135" lon="2.11709">
        <ele>572</ele>
        <time>2014-05-13T08:14:58.1Z</time>
      </trkpt>
      <trkpt lat="42.90135" lon="2.11708">
        <ele>573</ele>
        <time>2014-05-13T08:15:02.1Z</time>
      </trkpt>
      <trkpt lat="42.90136" lon="2.11708">
        <ele>573</ele>
        <time>2014-05-13T08:15:06.1Z</time>
      </trkpt>
      <trkpt lat="42.90136" lon="2.11708">
        <ele>572</ele>
        <time>2014-05-13T08:15:09.1Z</time>
      </trkpt>
      <trkpt lat="42.90136" lon="2.11709">
        <ele>572</ele>
        <time>2014-05-13T08:15:11.1Z</time>
      </trkpt>
      <trkpt lat="42.90138" lon="2.11709">
        <ele>572</ele>
        <time>2014-05-13T08:15:14.1Z</time>
      </trkpt>
      <trkpt lat="42.90139" lon="2.11709">
        <ele>573</ele>
        <time>2014-05-13T08:15:18.1Z</time>
      </trkpt>
      <trkpt lat="42.90139" lon="2.11709">
        <ele>573</ele>
        <time>2014-05-13T08:15:21.1Z</time>
      </trkpt>
      <trkpt lat="42.9014" lon="2.11709">
        <ele>573</ele>
        <time>2014-05-13T08:15:24.1Z</time>
      </trkpt>
      <trkpt lat="42.9014" lon="2.11709">
        <ele>574</ele>
        <time>2014-05-13T08:15:28.1Z</time>
      </trkpt>
      <trkpt lat="42.90139" lon="2.11709">
        <ele>573</ele>
        <time>2014-05-13T08:15:30.1Z</time>
      </trkpt>
      <trkpt lat="42.90139" lon="2.11709">
        <ele>573</ele>
        <time>2014-05-13T08:15:33.1Z</time>
      </trkpt>
      <trkpt lat="42.90138" lon="2.11709">
        <ele>573</ele>
        <time>2014-05-13T08:15:36.1Z</time>
      </trkpt>
      <trkpt lat="42.90137" lon="2.11709">
        <ele>573</ele>
        <time>2014-05-13T08:15:39.1Z</time>
      </trkpt>
      <trkpt lat="42.90137" lon="2.11709">
        <ele>573</ele>
        <time>2014-05-13T08:15:41.1Z</time>
      </trkpt>
      <trkpt lat="42.90136" lon="2.11709">
        <ele>573</ele>
        <time>2014-05-13T08:15:44.1Z</time>
      </trkpt>
      <trkpt lat="42.90136" lon="2.11709">
        <ele>573</ele>
        <time>2014-05-13T08:15:46.1Z</time>
      </trkpt>
      <trkpt lat="42.90136" lon="2.11709">
        <ele>573</ele>
        <time>2014-05-13T08:15:49.1Z</time>
      </trkpt>
      <trkpt lat="42.90134" lon="2.11708">
        <ele>573</ele>
        <time>2014-05-13T08:15:52.1Z</time>
      </trkpt>
      <trkpt lat="42.90133" lon="2.11707">
        <ele>573</ele>
        <time>2014-05-13T08:15:55.1Z</time>
      </trkpt>
      <trkpt lat="42.90132" lon="2.11707">
        <ele>573</ele>
        <time>2014-05-13T08:15:58.1Z</time>
      </trkpt>
      <trkpt lat="42.90131" lon="2.11706">
        <ele>573</ele>
        <time>2014-05-13T08:16:00.1Z</time>
      </trkpt>
      <trkpt lat="42.90131" lon="2.11705">
        <ele>573</ele>
        <time>2014-05-13T08:16:03.1Z</time>
      </trkpt>
      <trkpt lat="42.9013" lon="2.11705">
        <ele>573</ele>
        <time>2014-05-13T08:16:06.1Z</time>
      </trkpt>
      <trkpt lat="42.9013" lon="2.11705">
        <ele>573</ele>
        <time>2014-05-13T08:16:08.1Z</time>
      </trkpt>
      <trkpt lat="42.90129" lon="2.11705">
        <ele>573</ele>
        <time>2014-05-13T08:16:11.1Z</time>
      </trkpt>
      <trkpt lat="42.90129" lon="2.11705">
        <ele>573</ele>
        <time>2014-05-13T08:16:14.1Z</time>
      </trkpt>
      <trkpt lat="42.90129" lon="2.11705">
        <ele>572</ele>
        <time>2014-05-13T08:16:18.1Z</time>
      </trkpt>
      <trkpt lat="42.90129" lon="2.11705">
        <ele>573</ele>
        <time>2014-05-13T08:16:20.1Z</time>
      </trkpt>
      <trkpt lat="42.90129" lon="2.11705">
        <ele>573</ele>
        <time>2014-05-13T08:16:23.1Z</time>
      </trkpt>
      <trkpt lat="42.90129" lon="2.11705">
        <ele>573</ele>
        <time>2014-05-13T08:16:25.1Z</time>
      </trkpt>
      <trkpt lat="42.90129" lon="2.11706">
        <ele>573</ele>
        <time>2014-05-13T08:16:27.1Z</time>
      </trkpt>
      <trkpt lat="42.9013" lon="2.11706">
        <ele>573</ele>
        <time>2014-05-13T08:16:30.1Z</time>
      </trkpt>
      <trkpt lat="42.9013" lon="2.11707">
        <ele>573</ele>
        <time>2014-05-13T08:16:34.1Z</time>
      </trkpt>
      <trkpt lat="42.9013" lon="2.11707">
        <ele>573</ele>
        <time>2014-05-13T08:16:36.1Z</time>
      </trkpt>
      <trkpt lat="42.9013" lon="2.11707">
        <ele>573</ele>
        <time>2014-05-13T08:16:38.1Z</time>
      </trkpt>
      <trkpt lat="42.9013" lon="2.11707">
        <ele>573</ele>
        <time>2014-05-13T08:16:40.1Z</time>
      </trkpt>
      <trkpt lat="42.90131" lon="2.11708">
        <ele>573</ele>
        <time>2014-05-13T08:16:44.1Z</time>
      </trkpt>
      <trkpt lat="42.90131" lon="2.11708">
        <ele>573</ele>
        <time>2014-05-13T08:16:46.1Z</time>
      </trkpt>
      <trkpt lat="42.90131" lon="2.11708">
        <ele>573</ele>
        <time>2014-05-13T08:16:49.1Z</time>
      </trkpt>
      <trkpt lat="42.90131" lon="2.11708">
        <ele>573</ele>
        <time>2014-05-13T08:16:51.1Z</time>
      </trkpt>
      <trkpt lat="42.90131" lon="2.11708">
        <ele>573</ele>
        <time>2014-05-13T08:16:56.1Z</time>
      </trkpt>
      <trkpt lat="42.90131" lon="2.11709">
        <ele>573</ele>
        <time>2014-05-13T08:16:58.1Z</time>
      </trkpt>
      <trkpt lat="42.90131" lon="2.11708">
        <ele>573</ele>
        <time>2014-05-13T08:17:01.1Z</time>
      </trkpt>
      <trkpt lat="42.90131" lon="2.11708">
        <ele>573</ele>
        <time>2014-05-13T08:17:05.1Z</time>
      </trkpt>
      <trkpt lat="42.9013" lon="2.11708">
        <ele>574</ele>
        <time>2014-05-13T08:17:08.1Z</time>
      </trkpt>
      <trkpt lat="42.9013" lon="2.11708">
        <ele>574</ele>
        <time>2014-05-13T08:17:11.1Z</time>
      </trkpt>
      <trkpt lat="42.9013" lon="2.11708">
        <ele>573</ele>
        <time>2014-05-13T08:17:13.1Z</time>
      </trkpt>
      <trkpt lat="42.9013" lon="2.11707">
        <ele>573</ele>
        <time>2014-05-13T08:17:16.1Z</time>
      </trkpt>
      <trkpt lat="42.90129" lon="2.11707">
        <ele>573</ele>
        <time>2014-05-13T08:17:19.1Z</time>
      </trkpt>
      <trkpt lat="42.90129" lon="2.11707">
        <ele>573</ele>
        <time>2014-05-13T08:17:22.1Z</time>
      </trkpt>
      <trkpt lat="42.9013" lon="2.11707">
        <ele>573</ele>
        <time>2014-05-13T08:17:25.1Z</time>
      </trkpt>
      <trkpt lat="42.9013" lon="2.11707">
        <ele>573</ele>
        <time>2014-05-13T08:17:28.1Z</time>
      </trkpt>
      <trkpt lat="42.90129" lon="2.11708">
        <ele>573</ele>
        <time>2014-05-13T08:17:31.1Z</time>
      </trkpt>
      <trkpt lat="42.90129" lon="2.11709">
        <ele>574</ele>
        <time>2014-05-13T08:17:33.1Z</time>
      </trkpt>
      <trkpt lat="42.9013" lon="2.1171">
        <ele>573</ele>
        <time>2014-05-13T08:17:36.1Z</time>
      </trkpt>
      <trkpt lat="42.9013" lon="2.11712">
        <ele>573</ele>
        <time>2014-05-13T08:17:39.1Z</time>
      </trkpt>
      <trkpt lat="42.90129" lon="2.11714">
        <ele>573</ele>
        <time>2014-05-13T08:17:42.1Z</time>
      </trkpt>
      <trkpt lat="42.90129" lon="2.11717">
        <ele>573</ele>
        <time>2014-05-13T08:17:45.1Z</time>
      </trkpt>
      <trkpt lat="42.90129" lon="2.1172">
        <ele>573</ele>
        <time>2014-05-13T08:17:47.1Z</time>
      </trkpt>
      <trkpt lat="42.90129" lon="2.11721">
        <ele>573</ele>
        <time>2014-05-13T08:17:49.1Z</time>
      </trkpt>
      <trkpt lat="42.90129" lon="2.11724">
        <ele>573</ele>
        <time>2014-05-13T08:17:52.1Z</time>
      </trkpt>
      <trkpt lat="42.9013" lon="2.11727">
        <ele>573</ele>
        <time>2014-05-13T08:17:54.1Z</time>
      </trkpt>
      <trkpt lat="42.90131" lon="2.11731">
        <ele>573</ele>
        <time>2014-05-13T08:17:57.1Z</time>
      </trkpt>
      <trkpt lat="42.90131" lon="2.11734">
        <ele>574</ele>
        <time>2014-05-13T08:17:59.1Z</time>
      </trkpt>
      <trkpt lat="42.90132" lon="2.11737">
        <ele>574</ele>
        <time>2014-05-13T08:18:02.1Z</time>
      </trkpt>
      <trkpt lat="42.90132" lon="2.1174">
        <ele>574</ele>
        <time>2014-05-13T08:18:05.1Z</time>
      </trkpt>
      <trkpt lat="42.90132" lon="2.11742">
        <ele>574</ele>
        <time>2014-05-13T08:18:07.1Z</time>
      </trkpt>
      <trkpt lat="42.90132" lon="2.11746">
        <ele>574</ele>
        <time>2014-05-13T08:18:10.1Z</time>
      </trkpt>
      <trkpt lat="42.90132" lon="2.11749">
        <ele>574</ele>
        <time>2014-05-13T08:18:12.1Z</time>
      </trkpt>
      <trkpt lat="42.90133" lon="2.11753">
        <ele>574</ele>
        <time>2014-05-13T08:18:15.1Z</time>
      </trkpt>
      <trkpt lat="42.90133" lon="2.11756">
        <ele>574</ele>
        <time>2014-05-13T08:18:18.1Z</time>
      </trkpt>
      <trkpt lat="42.90133" lon="2.11758">
        <ele>574</ele>
        <time>2014-05-13T08:18:20.1Z</time>
      </trkpt>
      <trkpt lat="42.90134" lon="2.11762">
        <ele>574</ele>
        <time>2014-05-13T08:18:23.1Z</time>
      </trkpt>
      <trkpt lat="42.90134" lon="2.11766">
        <ele>574</ele>
        <time>2014-05-13T08:18:26.1Z</time>
      </trkpt>
      <trkpt lat="42.90135" lon="2.11768">
        <ele>574</ele>
        <time>2014-05-13T08:18:28.1Z</time>
      </trkpt>
      <trkpt lat="42.90135" lon="2.1177">
        <ele>574</ele>
        <time>2014-05-13T08:18:31.1Z</time>
      </trkpt>
      <trkpt lat="42.90136" lon="2.11772">
        <ele>574</ele>
        <time>2014-05-13T08:18:33.1Z</time>
      </trkpt>
      <trkpt lat="42.90136" lon="2.11775">
        <ele>573</ele>
        <time>2014-05-13T08:18:36.1Z</time>
      </trkpt>
      <trkpt lat="42.90137" lon="2.11775">
        <ele>573</ele>
        <time>2014-05-13T08:18:38.1Z</time>
      </trkpt>
      <trkpt lat="42.90137" lon="2.11777">
        <ele>573</ele>
        <time>2014-05-13T08:18:41.1Z</time>
      </trkpt>
      <trkpt lat="42.90138" lon="2.11778">
        <ele>573</ele>
        <time>2014-05-13T08:18:44.1Z</time>
      </trkpt>
      <trkpt lat="42.90138" lon="2.11781">
        <ele>573</ele>
        <time>2014-05-13T08:18:46.1Z</time>
      </trkpt>
      <trkpt lat="42.90138" lon="2.11785">
        <ele>573</ele>
        <time>2014-05-13T08:18:49.1Z</time>
      </trkpt>
      <trkpt lat="42.90139" lon="2.11789">
        <ele>572</ele>
        <time>2014-05-13T08:18:52.1Z</time>
      </trkpt>
      <trkpt lat="42.9014" lon="2.11793">
        <ele>572</ele>
        <time>2014-05-13T08:18:55.1Z</time>
      </trkpt>
      <trkpt lat="42.90142" lon="2.11796">
        <ele>572</ele>
        <time>2014-05-13T08:18:58.1Z</time>
      </trkpt>
      <trkpt lat="42.90144" lon="2.11799">
        <ele>572</ele>
        <time>2014-05-13T08:19:01.1Z</time>
      </trkpt>
      <trkpt lat="42.90147" lon="2.11802">
        <ele>572</ele>
        <time>2014-05-13T08:19:04.1Z</time>
      </trkpt>
      <trkpt lat="42.90149" lon="2.11804">
        <ele>572</ele>
        <time>2014-05-13T08:19:06.1Z</time>
      </trkpt>
      <trkpt lat="42.9015" lon="2.11806">
        <ele>572</ele>
        <time>2014-05-13T08:19:08.1Z</time>
      </trkpt>
      <trkpt lat="42.90152" lon="2.11808">
        <ele>572</ele>
        <time>2014-05-13T08:19:11.1Z</time>
      </trkpt>
      <trkpt lat="42.90155" lon="2.11809">
        <ele>572</ele>
        <time>2014-05-13T08:19:14.1Z</time>
      </trkpt>
      <trkpt lat="42.90157" lon="2.11811">
        <ele>572</ele>
        <time>2014-05-13T08:19:17.1Z</time>
      </trkpt>
      <trkpt lat="42.90159" lon="2.11813">
        <ele>572</ele>
        <time>2014-05-13T08:19:19.1Z</time>
      </trkpt>
      <trkpt lat="42.90161" lon="2.11814">
        <ele>571</ele>
        <time>2014-05-13T08:19:21.1Z</time>
      </trkpt>
      <trkpt lat="42.90163" lon="2.11816">
        <ele>571</ele>
        <time>2014-05-13T08:19:24.1Z</time>
      </trkpt>
      <trkpt lat="42.90166" lon="2.11818">
        <ele>571</ele>
        <time>2014-05-13T08:19:27.1Z</time>
      </trkpt>
      <trkpt lat="42.90168" lon="2.1182">
        <ele>572</ele>
        <time>2014-05-13T08:19:30.1Z</time>
      </trkpt>
      <trkpt lat="42.9017" lon="2.11821">
        <ele>572</ele>
        <time>2014-05-13T08:19:32.1Z</time>
      </trkpt>
      <trkpt lat="42.90171" lon="2.11821">
        <ele>572</ele>
        <time>2014-05-13T08:19:34.1Z</time>
      </trkpt>
      <trkpt lat="42.90173" lon="2.11823">
        <ele>572</ele>
        <time>2014-05-13T08:19:37.1Z</time>
      </trkpt>
      <trkpt lat="42.90176" lon="2.11825">
        <ele>572</ele>
        <time>2014-05-13T08:19:40.1Z</time>
      </trkpt>
      <trkpt lat="42.90179" lon="2.11826">
        <ele>572</ele>
        <time>2014-05-13T08:19:43.1Z</time>
      </trkpt>
      <trkpt lat="42.90181" lon="2.11828">
        <ele>573</ele>
        <time>2014-05-13T08:19:46.1Z</time>
      </trkpt>
      <trkpt lat="42.90184" lon="2.11829">
        <ele>573</ele>
        <time>2014-05-13T08:19:49.1Z</time>
      </trkpt>
      <trkpt lat="42.90187" lon="2.11829">
        <ele>573</ele>
        <time>2014-05-13T08:19:52.1Z</time>
      </trkpt>
      <trkpt lat="42.9019" lon="2.11831">
        <ele>573</ele>
        <time>2014-05-13T08:19:55.1Z</time>
      </trkpt>
      <trkpt lat="42.90192" lon="2.11831">
        <ele>573</ele>
        <time>2014-05-13T08:19:57.1Z</time>
      </trkpt>
      <trkpt lat="42.90194" lon="2.11831">
        <ele>573</ele>
        <time>2014-05-13T08:20:00.1Z</time>
      </trkpt>
      <trkpt lat="42.90195" lon="2.1183">
        <ele>573</ele>
        <time>2014-05-13T08:20:02.1Z</time>
      </trkpt>
      <trkpt lat="42.90198" lon="2.1183">
        <ele>573</ele>
        <time>2014-05-13T08:20:05.1Z</time>
      </trkpt>
      <trkpt lat="42.90199" lon="2.11829">
        <ele>573</ele>
        <time>2014-05-13T08:20:07.1Z</time>
      </trkpt>
      <trkpt lat="42.90201" lon="2.11828">
        <ele>573</ele>
        <time>2014-05-13T08:20:09.1Z</time>
      </trkpt>
      <trkpt lat="42.90203" lon="2.11828">
        <ele>573</ele>
        <time>2014-05-13T08:20:12.1Z</time>
      </trkpt>
      <trkpt lat="42.90205" lon="2.11828">
        <ele>573</ele>
        <time>2014-05-13T08:20:15.1Z</time>
      </trkpt>
      <trkpt lat="42.90208" lon="2.11828">
        <ele>574</ele>
        <time>2014-05-13T08:20:18.1Z</time>
      </trkpt>
      <trkpt lat="42.90209" lon="2.11827">
        <ele>574</ele>
        <time>2014-05-13T08:20:20.1Z</time>
      </trkpt>
      <trkpt lat="42.90211" lon="2.11827">
        <ele>573</ele>
        <time>2014-05-13T08:20:22.1Z</time>
      </trkpt>
      <trkpt lat="42.90213" lon="2.11827">
        <ele>574</ele>
        <time>2014-05-13T08:20:25.1Z</time>
      </trkpt>
      <trkpt lat="42.90215" lon="2.11826">
        <ele>573</ele>
        <time>2014-05-13T08:20:28.1Z</time>
      </trkpt>
      <trkpt lat="42.90216" lon="2.11826">
        <ele>574</ele>
        <time>2014-05-13T08:20:30.1Z</time>
      </trkpt>
      <trkpt lat="42.90218" lon="2.11826">
        <ele>574</ele>
        <time>2014-05-13T08:20:33.1Z</time>
      </trkpt>
      <trkpt lat="42.90221" lon="2.11826">
        <ele>574</ele>
        <time>2014-05-13T08:20:36.1Z</time>
      </trkpt>
      <trkpt lat="42.90224" lon="2.11826">
        <ele>574</ele>
        <time>2014-05-13T08:20:39.1Z</time>
      </trkpt>
      <trkpt lat="42.90226" lon="2.11827">
        <ele>574</ele>
        <time>2014-05-13T08:20:41.1Z</time>
      </trkpt>
      <trkpt lat="42.90227" lon="2.11827">
        <ele>574</ele>
        <time>2014-05-13T08:20:44.1Z</time>
      </trkpt>
      <trkpt lat="42.90229" lon="2.11827">
        <ele>574</ele>
        <time>2014-05-13T08:20:46.1Z</time>
      </trkpt>
      <trkpt lat="42.9023" lon="2.11827">
        <ele>574</ele>
        <time>2014-05-13T08:20:48.1Z</time>
      </trkpt>
      <trkpt lat="42.90232" lon="2.11829">
        <ele>574</ele>
        <time>2014-05-13T08:20:51.1Z</time>
      </trkpt>
      <trkpt lat="42.90233" lon="2.11829">
        <ele>573</ele>
        <time>2014-05-13T08:20:53.1Z</time>
      </trkpt>
      <trkpt lat="42.90236" lon="2.11829">
        <ele>573</ele>
        <time>2014-05-13T08:20:56.1Z</time>
      </trkpt>
      <trkpt lat="42.90239" lon="2.11828">
        <ele>574</ele>
        <time>2014-05-13T08:20:58.1Z</time>
      </trkpt>
      <trkpt lat="42.90241" lon="2.11826">
        <ele>574</ele>
        <time>2014-05-13T08:21:01.1Z</time>
      </trkpt>
      <trkpt lat="42.90244" lon="2.11824">
        <ele>574</ele>
        <time>2014-05-13T08:21:04.1Z</time>
      </trkpt>
      <trkpt lat="42.90244" lon="2.11823">
        <ele>575</ele>
        <time>2014-05-13T08:21:06.1Z</time>
      </trkpt>
      <trkpt lat="42.90246" lon="2.11821">
        <ele>575</ele>
        <time>2014-05-13T08:21:09.1Z</time>
      </trkpt>
      <trkpt lat="42.90247" lon="2.1182">
        <ele>575</ele>
        <time>2014-05-13T08:21:12.1Z</time>
      </trkpt>
      <trkpt lat="42.90247" lon="2.11819">
        <ele>575</ele>
        <time>2014-05-13T08:21:15.1Z</time>
      </trkpt>
      <trkpt lat="42.90248" lon="2.11818">
        <ele>575</ele>
        <time>2014-05-13T08:21:18.1Z</time>
      </trkpt>
      <trkpt lat="42.90251" lon="2.11818">
        <ele>576</ele>
        <time>2014-05-13T08:21:21.1Z</time>
      </trkpt>
      <trkpt lat="42.90252" lon="2.11819">
        <ele>575</ele>
        <time>2014-05-13T08:21:24.1Z</time>
      </trkpt>
      <trkpt lat="42.90255" lon="2.11819">
        <ele>575</ele>
        <time>2014-05-13T08:21:27.1Z</time>
      </trkpt>
      <trkpt lat="42.90257" lon="2.1182">
        <ele>574</ele>
        <time>2014-05-13T08:21:29.1Z</time>
      </trkpt>
      <trkpt lat="42.90259" lon="2.11821">
        <ele>574</ele>
        <time>2014-05-13T08:21:32.1Z</time>
      </trkpt>
      <trkpt lat="42.9026" lon="2.11822">
        <ele>574</ele>
        <time>2014-05-13T08:21:34.1Z</time>
      </trkpt>
      <trkpt lat="42.90261" lon="2.11821">
        <ele>574</ele>
        <time>2014-05-13T08:21:37.1Z</time>
      </trkpt>
      <trkpt lat="42.90262" lon="2.11821">
        <ele>575</ele>
        <time>2014-05-13T08:21:40.1Z</time>
      </trkpt>
      <trkpt lat="42.90262" lon="2.11821">
        <ele>575</ele>
        <time>2014-05-13T08:21:42.1Z</time>
      </trkpt>
      <trkpt lat="42.90262" lon="2.11821">
        <ele>575</ele>
        <time>2014-05-13T08:21:45.1Z</time>
      </trkpt>
      <trkpt lat="42.90263" lon="2.11822">
        <ele>574</ele>
        <time>2014-05-13T08:21:48.1Z</time>
      </trkpt>
      <trkpt lat="42.90263" lon="2.11822">
        <ele>574</ele>
        <time>2014-05-13T08:21:53.1Z</time>
      </trkpt>
      <trkpt lat="42.90263" lon="2.11822">
        <ele>574</ele>
        <time>2014-05-13T08:21:55.1Z</time>
      </trkpt>
      <trkpt lat="42.90263" lon="2.11822">
        <ele>574</ele>
        <time>2014-05-13T08:21:58.1Z</time>
      </trkpt>
      <trkpt lat="42.90264" lon="2.11822">
        <ele>575</ele>
        <time>2014-05-13T08:22:00.1Z</time>
      </trkpt>
      <trkpt lat="42.90264" lon="2.11822">
        <ele>575</ele>
        <time>2014-05-13T08:22:03.1Z</time>
      </trkpt>
      <trkpt lat="42.90264" lon="2.11822">
        <ele>575</ele>
        <time>2014-05-13T08:22:05.1Z</time>
      </trkpt>
      <trkpt lat="42.90264" lon="2.11823">
        <ele>574</ele>
        <time>2014-05-13T08:22:08.1Z</time>
      </trkpt>
      <trkpt lat="42.90264" lon="2.11822">
        <ele>574</ele>
        <time>2014-05-13T08:22:11.1Z</time>
      </trkpt>
      <trkpt lat="42.90265" lon="2.11822">
        <ele>574</ele>
        <time>2014-05-13T08:22:13.1Z</time>
      </trkpt>
      <trkpt lat="42.90263" lon="2.11823">
        <ele>574</ele>
        <time>2014-05-13T08:22:16.1Z</time>
      </trkpt>
      <trkpt lat="42.90263" lon="2.11824">
        <ele>574</ele>
        <time>2014-05-13T08:22:18.1Z</time>
      </trkpt>
      <trkpt lat="42.90263" lon="2.11824">
        <ele>574</ele>
        <time>2014-05-13T08:22:21.1Z</time>
      </trkpt>
      <trkpt lat="42.90264" lon="2.11824">
        <ele>574</ele>
        <time>2014-05-13T08:22:24.1Z</time>
      </trkpt>
      <trkpt lat="42.90265" lon="2.11822">
        <ele>574</ele>
        <time>2014-05-13T08:22:27.1Z</time>
      </trkpt>
      <trkpt lat="42.90264" lon="2.1182">
        <ele>574</ele>
        <time>2014-05-13T08:22:30.1Z</time>
      </trkpt>
      <trkpt lat="42.90264" lon="2.11819">
        <ele>575</ele>
        <time>2014-05-13T08:22:32.1Z</time>
      </trkpt>
      <trkpt lat="42.90262" lon="2.11819">
        <ele>574</ele>
        <time>2014-05-13T08:22:35.1Z</time>
      </trkpt>
      <trkpt lat="42.90261" lon="2.11818">
        <ele>575</ele>
        <time>2014-05-13T08:22:37.1Z</time>
      </trkpt>
      <trkpt lat="42.9026" lon="2.11817">
        <ele>574</ele>
        <time>2014-05-13T08:22:40.1Z</time>
      </trkpt>
      <trkpt lat="42.90261" lon="2.11816">
        <ele>575</ele>
        <time>2014-05-13T08:22:43.1Z</time>
      </trkpt>
      <trkpt lat="42.90261" lon="2.11816">
        <ele>575</ele>
        <time>2014-05-13T08:22:46.1Z</time>
      </trkpt>
      <trkpt lat="42.90261" lon="2.11815">
        <ele>575</ele>
        <time>2014-05-13T08:22:49.1Z</time>
      </trkpt>
      <trkpt lat="42.9026" lon="2.11814">
        <ele>575</ele>
        <time>2014-05-13T08:22:52.1Z</time>
      </trkpt>
      <trkpt lat="42.9026" lon="2.11814">
        <ele>575</ele>
        <time>2014-05-13T08:22:54.1Z</time>
      </trkpt>
      <trkpt lat="42.90258" lon="2.11814">
        <ele>575</ele>
        <time>2014-05-13T08:22:57.1Z</time>
      </trkpt>
      <trkpt lat="42.90259" lon="2.11814">
        <ele>575</ele>
        <time>2014-05-13T08:22:59.1Z</time>
      </trkpt>
      <trkpt lat="42.9026" lon="2.11815">
        <ele>575</ele>
        <time>2014-05-13T08:23:02.1Z</time>
      </trkpt>
      <trkpt lat="42.90261" lon="2.11815">
        <ele>575</ele>
        <time>2014-05-13T08:23:05.1Z</time>
      </trkpt>
      <trkpt lat="42.90262" lon="2.11815">
        <ele>575</ele>
        <time>2014-05-13T08:23:07.1Z</time>
      </trkpt>
      <trkpt lat="42.90262" lon="2.11815">
        <ele>574</ele>
        <time>2014-05-13T08:23:11.1Z</time>
      </trkpt>
      <trkpt lat="42.90263" lon="2.11816">
        <ele>574</ele>
        <time>2014-05-13T08:23:14.1Z</time>
      </trkpt>
      <trkpt lat="42.90263" lon="2.11816">
        <ele>574</ele>
        <time>2014-05-13T08:23:17.1Z</time>
      </trkpt>
      <trkpt lat="42.90264" lon="2.11816">
        <ele>574</ele>
        <time>2014-05-13T08:23:19.1Z</time>
      </trkpt>
      <trkpt lat="42.90265" lon="2.11817">
        <ele>575</ele>
        <time>2014-05-13T08:23:22.1Z</time>
      </trkpt>
      <trkpt lat="42.90265" lon="2.11818">
        <ele>575</ele>
        <time>2014-05-13T08:23:25.1Z</time>
      </trkpt>
      <trkpt lat="42.90265" lon="2.11818">
        <ele>575</ele>
        <time>2014-05-13T08:23:28.1Z</time>
      </trkpt>
      <trkpt lat="42.90266" lon="2.11819">
        <ele>575</ele>
        <time>2014-05-13T08:23:31.1Z</time>
      </trkpt>
      <trkpt lat="42.90267" lon="2.11821">
        <ele>575</ele>
        <time>2014-05-13T08:23:33.1Z</time>
      </trkpt>
      <trkpt lat="42.90267" lon="2.11822">
        <ele>575</ele>
        <time>2014-05-13T08:23:36.1Z</time>
      </trkpt>
      <trkpt lat="42.90267" lon="2.11822">
        <ele>575</ele>
        <time>2014-05-13T08:23:39.1Z</time>
      </trkpt>
      <trkpt lat="42.90268" lon="2.11821">
        <ele>575</ele>
        <time>2014-05-13T08:23:42.1Z</time>
      </trkpt>
      <trkpt lat="42.90269" lon="2.11821">
        <ele>575</ele>
        <time>2014-05-13T08:23:45.1Z</time>
      </trkpt>
      <trkpt lat="42.90269" lon="2.1182">
        <ele>575</ele>
        <time>2014-05-13T08:23:47.1Z</time>
      </trkpt>
      <trkpt lat="42.9027" lon="2.1182">
        <ele>574</ele>
        <time>2014-05-13T08:23:49.1Z</time>
      </trkpt>
      <trkpt lat="42.9027" lon="2.11818">
        <ele>574</ele>
        <time>2014-05-13T08:23:51.1Z</time>
      </trkpt>
      <trkpt lat="42.9027" lon="2.11817">
        <ele>574</ele>
        <time>2014-05-13T08:23:54.1Z</time>
      </trkpt>
      <trkpt lat="42.9027" lon="2.11816">
        <ele>574</ele>
        <time>2014-05-13T08:23:56.1Z</time>
      </trkpt>
      <trkpt lat="42.90271" lon="2.11816">
        <ele>575</ele>
        <time>2014-05-13T08:23:59.1Z</time>
      </trkpt>
      <trkpt lat="42.90271" lon="2.11816">
        <ele>575</ele>
        <time>2014-05-13T08:24:01.1Z</time>
      </trkpt>
      <trkpt lat="42.90271" lon="2.11815">
        <ele>575</ele>
        <time>2014-05-13T08:24:03.1Z</time>
      </trkpt>
      <trkpt lat="42.9027" lon="2.11814">
        <ele>575</ele>
        <time>2014-05-13T08:24:06.1Z</time>
      </trkpt>
      <trkpt lat="42.9027" lon="2.11815">
        <ele>574</ele>
        <time>2014-05-13T08:24:08.1Z</time>
      </trkpt>
      <trkpt lat="42.90268" lon="2.11815">
        <ele>574</ele>
        <time>2014-05-13T08:24:11.1Z</time>
      </trkpt>
      <trkpt lat="42.90267" lon="2.11815">
        <ele>574</ele>
        <time>2014-05-13T08:24:13.1Z</time>
      </trkpt>
      <trkpt lat="42.90266" lon="2.11815">
        <ele>575</ele>
        <time>2014-05-13T08:24:16.1Z</time>
      </trkpt>
      <trkpt lat="42.90266" lon="2.11815">
        <ele>575</ele>
        <time>2014-05-13T08:24:19.1Z</time>
      </trkpt>
      <trkpt lat="42.90266" lon="2.11816">
        <ele>575</ele>
        <time>2014-05-13T08:24:21.1Z</time>
      </trkpt>
      <trkpt lat="42.90265" lon="2.11817">
        <ele>574</ele>
        <time>2014-05-13T08:24:24.1Z</time>
      </trkpt>
      <trkpt lat="42.90265" lon="2.11817">
        <ele>574</ele>
        <time>2014-05-13T08:24:27.1Z</time>
      </trkpt>
      <trkpt lat="42.90265" lon="2.11817">
        <ele>574</ele>
        <time>2014-05-13T08:24:29.1Z</time>
      </trkpt>
      <trkpt lat="42.90264" lon="2.11816">
        <ele>574</ele>
        <time>2014-05-13T08:24:32.1Z</time>
      </trkpt>
      <trkpt lat="42.90263" lon="2.11816">
        <ele>574</ele>
        <time>2014-05-13T08:24:34.1Z</time>
      </trkpt>
      <trkpt lat="42.90263" lon="2.11816">
        <ele>575</ele>
        <time>2014-05-13T08:24:37.1Z</time>
      </trkpt>
      <trkpt lat="42.90263" lon="2.11816">
        <ele>575</ele>
        <time>2014-05-13T08:24:40.1Z</time>
      </trkpt>
      <trkpt lat="42.90263" lon="2.11816">
        <ele>575</ele>
        <time>2014-05-13T08:24:42.1Z</time>
      </trkpt>
      <trkpt lat="42.90262" lon="2.11816">
        <ele>575</ele>
        <time>2014-05-13T08:24:45.1Z</time>
      </trkpt>
      <trkpt lat="42.90261" lon="2.11816">
        <ele>575</ele>
        <time>2014-05-13T08:24:47.1Z</time>
      </trkpt>
      <trkpt lat="42.90261" lon="2.11816">
        <ele>575</ele>
        <time>2014-05-13T08:24:50.1Z</time>
      </trkpt>
      <trkpt lat="42.90261" lon="2.11816">
        <ele>575</ele>
        <time>2014-05-13T08:24:52.1Z</time>
      </trkpt>
      <trkpt lat="42.90261" lon="2.11818">
        <ele>574</ele>
        <time>2014-05-13T08:24:55.1Z</time>
      </trkpt>
      <trkpt lat="42.90262" lon="2.11818">
        <ele>574</ele>
        <time>2014-05-13T08:24:58.1Z</time>
      </trkpt>
      <trkpt lat="42.90263" lon="2.11819">
        <ele>575</ele>
        <time>2014-05-13T08:25:01.1Z</time>
      </trkpt>
      <trkpt lat="42.90263" lon="2.11821">
        <ele>574</ele>
        <time>2014-05-13T08:25:04.1Z</time>
      </trkpt>
      <trkpt lat="42.90263" lon="2.11821">
        <ele>574</ele>
        <time>2014-05-13T08:25:06.1Z</time>
      </trkpt>
      <trkpt lat="42.90263" lon="2.11821">
        <ele>574</ele>
        <time>2014-05-13T08:25:08.1Z</time>
      </trkpt>
      <trkpt lat="42.90265" lon="2.11823">
        <ele>574</ele>
        <time>2014-05-13T08:25:11.1Z</time>
      </trkpt>
      <trkpt lat="42.90265" lon="2.11823">
        <ele>574</ele>
        <time>2014-05-13T08:25:15.1Z</time>
      </trkpt>
      <trkpt lat="42.90266" lon="2.11822">
        <ele>574</ele>
        <time>2014-05-13T08:25:18.1Z</time>
      </trkpt>
      <trkpt lat="42.90266" lon="2.11823">
        <ele>574</ele>
        <time>2014-05-13T08:25:21.1Z</time>
      </trkpt>
      <trkpt lat="42.90266" lon="2.11823">
        <ele>574</ele>
        <time>2014-05-13T08:25:24.1Z</time>
      </trkpt>
      <trkpt lat="42.90266" lon="2.11823">
        <ele>574</ele>
        <time>2014-05-13T08:25:27.1Z</time>
      </trkpt>
      <trkpt lat="42.90266" lon="2.11823">
        <ele>574</ele>
        <time>2014-05-13T08:25:30.1Z</time>
      </trkpt>
      <trkpt lat="42.90267" lon="2.11823">
        <ele>574</ele>
        <time>2014-05-13T08:25:32.1Z</time>
      </trkpt>
      <trkpt lat="42.90267" lon="2.11823">
        <ele>574</ele>
        <time>2014-05-13T08:25:34.1Z</time>
      </trkpt>
      <trkpt lat="42.90267" lon="2.11823">
        <ele>574</ele>
        <time>2014-05-13T08:25:37.1Z</time>
      </trkpt>
      <trkpt lat="42.90267" lon="2.11823">
        <ele>574</ele>
        <time>2014-05-13T08:25:39.1Z</time>
      </trkpt>
      <trkpt lat="42.90267" lon="2.11823">
        <ele>574</ele>
        <time>2014-05-13T08:25:42.1Z</time>
      </trkpt>
      <trkpt lat="42.90267" lon="2.11822">
        <ele>574</ele>
        <time>2014-05-13T08:25:44.1Z</time>
      </trkpt>
      <trkpt lat="42.90267" lon="2.11823">
        <ele>574</ele>
        <time>2014-05-13T08:25:47.1Z</time>
      </trkpt>
      <trkpt lat="42.90266" lon="2.11822">
        <ele>574</ele>
        <time>2014-05-13T08:25:50.1Z</time>
      </trkpt>
      <trkpt lat="42.90266" lon="2.11822">
        <ele>574</ele>
        <time>2014-05-13T08:25:52.1Z</time>
      </trkpt>
      <trkpt lat="42.90265" lon="2.11823">
        <ele>574</ele>
        <time>2014-05-13T08:25:55.1Z</time>
      </trkpt>
      <trkpt lat="42.90265" lon="2.11824">
        <ele>574</ele>
        <time>2014-05-13T08:25:58.1Z</time>
      </trkpt>
      <trkpt lat="42.90266" lon="2.11824">
        <ele>574</ele>
        <time>2014-05-13T08:26:00.1Z</time>
      </trkpt>
      <trkpt lat="42.90267" lon="2.11825">
        <ele>574</ele>
        <time>2014-05-13T08:26:03.1Z</time>
      </trkpt>
      <trkpt lat="42.90268" lon="2.11825">
        <ele>574</ele>
        <time>2014-05-13T08:26:05.1Z</time>
      </trkpt>
      <trkpt lat="42.90269" lon="2.11827">
        <ele>574</ele>
        <time>2014-05-13T08:26:08.1Z</time>
      </trkpt>
      <trkpt lat="42.9027" lon="2.11828">
        <ele>574</ele>
        <time>2014-05-13T08:26:10.1Z</time>
      </trkpt>
      <trkpt lat="42.9027" lon="2.11829">
        <ele>574</ele>
        <time>2014-05-13T08:26:12.1Z</time>
      </trkpt>
      <trkpt lat="42.90271" lon="2.1183">
        <ele>574</ele>
        <time>2014-05-13T08:26:15.1Z</time>
      </trkpt>
      <trkpt lat="42.90273" lon="2.11831">
        <ele>574</ele>
        <time>2014-05-13T08:26:18.1Z</time>
      </trkpt>
      <trkpt lat="42.90276" lon="2.11832">
        <ele>574</ele>
        <time>2014-05-13T08:26:21.1Z</time>
      </trkpt>
      <trkpt lat="42.90279" lon="2.11834">
        <ele>574</ele>
        <time>2014-05-13T08:26:24.1Z</time>
      </trkpt>
      <trkpt lat="42.9028" lon="2.11835">
        <ele>574</ele>
        <time>2014-05-13T08:26:27.1Z</time>
      </trkpt>
      <trkpt lat="42.90281" lon="2.11835">
        <ele>574</ele>
        <time>2014-05-13T08:26:29.1Z</time>
      </trkpt>
      <trkpt lat="42.90283" lon="2.11835">
        <ele>574</ele>
        <time>2014-05-13T08:26:32.1Z</time>
      </trkpt>
      <trkpt lat="42.90284" lon="2.11835">
        <ele>574</ele>
        <time>2014-05-13T08:26:34.1Z</time>
      </trkpt>
      <trkpt lat="42.90286" lon="2.11835">
        <ele>574</ele>
        <time>2014-05-13T08:26:37.1Z</time>
      </trkpt>
      <trkpt lat="42.90288" lon="2.11836">
        <ele>574</ele>
        <time>2014-05-13T08:26:40.1Z</time>
      </trkpt>
      <trkpt lat="42.90289" lon="2.11836">
        <ele>574</ele>
        <time>2014-05-13T08:26:42.1Z</time>
      </trkpt>
      <trkpt lat="42.90292" lon="2.11837">
        <ele>574</ele>
        <time>2014-05-13T08:26:45.1Z</time>
      </trkpt>
      <trkpt lat="42.90295" lon="2.11837">
        <ele>574</ele>
        <time>2014-05-13T08:26:48.1Z</time>
      </trkpt>
      <trkpt lat="42.90296" lon="2.11837">
        <ele>574</ele>
        <time>2014-05-13T08:26:50.1Z</time>
      </trkpt>
      <trkpt lat="42.90299" lon="2.11836">
        <ele>574</ele>
        <time>2014-05-13T08:26:53.1Z</time>
      </trkpt>
      <trkpt lat="42.90301" lon="2.11837">
        <ele>573</ele>
        <time>2014-05-13T08:26:55.1Z</time>
      </trkpt>
      <trkpt lat="42.90303" lon="2.11836">
        <ele>573</ele>
        <time>2014-05-13T08:26:58.1Z</time>
      </trkpt>
      <trkpt lat="42.90306" lon="2.11836">
        <ele>573</ele>
        <time>2014-05-13T08:27:01.1Z</time>
      </trkpt>
      <trkpt lat="42.90308" lon="2.11837">
        <ele>573</ele>
        <time>2014-05-13T08:27:03.1Z</time>
      </trkpt>
      <trkpt lat="42.90311" lon="2.11839">
        <ele>573</ele>
        <time>2014-05-13T08:27:06.1Z</time>
      </trkpt>
      <trkpt lat="42.90313" lon="2.11841">
        <ele>573</ele>
        <time>2014-05-13T08:27:08.1Z</time>
      </trkpt>
      <trkpt lat="42.90316" lon="2.11842">
        <ele>573</ele>
        <time>2014-05-13T08:27:11.1Z</time>
      </trkpt>
      <trkpt lat="42.90319" lon="2.11844">
        <ele>573</ele>
        <time>2014-05-13T08:27:14.1Z</time>
      </trkpt>
      <trkpt lat="42.90322" lon="2.11846">
        <ele>573</ele>
        <time>2014-05-13T08:27:17.1Z</time>
      </trkpt>
      <trkpt lat="42.90326" lon="2.11848">
        <ele>573</ele>
        <time>2014-05-13T08:27:20.1Z</time>
      </trkpt>
      <trkpt lat="42.90328" lon="2.1185">
        <ele>573</ele>
        <time>2014-05-13T08:27:23.1Z</time>
      </trkpt>
      <trkpt lat="42.9033" lon="2.11851">
        <ele>573</ele>
        <time>2014-05-13T08:27:25.1Z</time>
      </trkpt>
      <trkpt lat="42.90332" lon="2.11852">
        <ele>573</ele>
        <time>2014-05-13T08:27:27.1Z</time>
      </trkpt>
      <trkpt lat="42.90334" lon="2.11853">
        <ele>573</ele>
        <time>2014-05-13T08:27:30.1Z</time>
      </trkpt>
      <trkpt lat="42.90336" lon="2.11854">
        <ele>573</ele>
        <time>2014-05-13T08:27:32.1Z</time>
      </trkpt>
      <trkpt lat="42.90338" lon="2.11855">
        <ele>573</ele>
        <time>2014-05-13T08:27:35.1Z</time>
      </trkpt>
      <trkpt lat="42.90339" lon="2.11856">
        <ele>573</ele>
        <time>2014-05-13T08:27:37.1Z</time>
      </trkpt>
      <trkpt lat="42.90342" lon="2.11858">
        <ele>573</ele>
        <time>2014-05-13T08:27:40.1Z</time>
      </trkpt>
      <trkpt lat="42.90344" lon="2.11859">
        <ele>573</ele>
        <time>2014-05-13T08:27:43.1Z</time>
      </trkpt>
      <trkpt lat="42.90345" lon="2.1186">
        <ele>573</ele>
        <time>2014-05-13T08:27:45.1Z</time>
      </trkpt>
      <trkpt lat="42.90347" lon="2.11862">
        <ele>574</ele>
        <time>2014-05-13T08:27:48.1Z</time>
      </trkpt>
      <trkpt lat="42.90348" lon="2.11865">
        <ele>573</ele>
        <time>2014-05-13T08:27:51.1Z</time>
      </trkpt>
      <trkpt lat="42.90349" lon="2.11866">
        <ele>573</ele>
        <time>2014-05-13T08:27:53.1Z</time>
      </trkpt>
      <trkpt lat="42.9035" lon="2.11867">
        <ele>573</ele>
        <time>2014-05-13T08:27:56.1Z</time>
      </trkpt>
      <trkpt lat="42.90352" lon="2.11867">
        <ele>572</ele>
        <time>2014-05-13T08:27:58.1Z</time>
      </trkpt>
      <trkpt lat="42.90353" lon="2.11868">
        <ele>572</ele>
        <time>2014-05-13T08:28:01.1Z</time>
      </trkpt>
      <trkpt lat="42.90356" lon="2.11869">
        <ele>571</ele>
        <time>2014-05-13T08:28:04.1Z</time>
      </trkpt>
      <trkpt lat="42.90357" lon="2.11871">
        <ele>571</ele>
        <time>2014-05-13T08:28:06.1Z</time>
      </trkpt>
      <trkpt lat="42.90359" lon="2.11874">
        <ele>570</ele>
        <time>2014-05-13T08:28:09.1Z</time>
      </trkpt>
      <trkpt lat="42.90359" lon="2.11875">
        <ele>570</ele>
        <time>2014-05-13T08:28:11.1Z</time>
      </trkpt>
      <trkpt lat="42.9036" lon="2.11876">
        <ele>570</ele>
        <time>2014-05-13T08:28:14.1Z</time>
      </trkpt>
      <trkpt lat="42.90361" lon="2.11877">
        <ele>570</ele>
        <time>2014-05-13T08:28:16.1Z</time>
      </trkpt>
      <trkpt lat="42.90361" lon="2.11878">
        <ele>570</ele>
        <time>2014-05-13T08:28:18.1Z</time>
      </trkpt>
      <trkpt lat="42.90361" lon="2.11881">
        <ele>570</ele>
        <time>2014-05-13T08:28:21.1Z</time>
      </trkpt>
      <trkpt lat="42.90361" lon="2.11882">
        <ele>570</ele>
        <time>2014-05-13T08:28:24.1Z</time>
      </trkpt>
      <trkpt lat="42.90361" lon="2.11883">
        <ele>569</ele>
        <time>2014-05-13T08:28:26.1Z</time>
      </trkpt>
      <trkpt lat="42.90361" lon="2.11885">
        <ele>569</ele>
        <time>2014-05-13T08:28:29.1Z</time>
      </trkpt>
      <trkpt lat="42.90362" lon="2.11884">
        <ele>569</ele>
        <time>2014-05-13T08:28:32.1Z</time>
      </trkpt>
      <trkpt lat="42.90363" lon="2.11885">
        <ele>569</ele>
        <time>2014-05-13T08:28:34.1Z</time>
      </trkpt>
      <trkpt lat="42.90363" lon="2.11885">
        <ele>568</ele>
        <time>2014-05-13T08:28:37.1Z</time>
      </trkpt>
      <trkpt lat="42.90363" lon="2.11887">
        <ele>567</ele>
        <time>2014-05-13T08:28:40.1Z</time>
      </trkpt>
      <trkpt lat="42.90364" lon="2.11886">
        <ele>567</ele>
        <time>2014-05-13T08:28:42.1Z</time>
      </trkpt>
      <trkpt lat="42.90365" lon="2.11886">
        <ele>566</ele>
        <time>2014-05-13T08:28:45.1Z</time>
      </trkpt>
      <trkpt lat="42.90365" lon="2.11884">
        <ele>566</ele>
        <time>2014-05-13T08:28:48.1Z</time>
      </trkpt>
      <trkpt lat="42.90366" lon="2.11884">
        <ele>566</ele>
        <time>2014-05-13T08:28:51.1Z</time>
      </trkpt>
      <trkpt lat="42.90366" lon="2.11883">
        <ele>566</ele>
        <time>2014-05-13T08:28:53.1Z</time>
      </trkpt>
      <trkpt lat="42.90366" lon="2.11883">
        <ele>566</ele>
        <time>2014-05-13T08:28:56.1Z</time>
      </trkpt>
      <trkpt lat="42.90365" lon="2.11883">
        <ele>566</ele>
        <time>2014-05-13T08:28:58.1Z</time>
      </trkpt>
      <trkpt lat="42.90365" lon="2.11883">
        <ele>566</ele>
        <time>2014-05-13T08:29:00.1Z</time>
      </trkpt>
      <trkpt lat="42.90367" lon="2.11884">
        <ele>566</ele>
        <time>2014-05-13T08:29:03.1Z</time>
      </trkpt>
      <trkpt lat="42.90367" lon="2.11884">
        <ele>566</ele>
        <time>2014-05-13T08:29:05.1Z</time>
      </trkpt>
      <trkpt lat="42.90368" lon="2.11884">
        <ele>566</ele>
        <time>2014-05-13T08:29:08.1Z</time>
      </trkpt>
      <trkpt lat="42.90368" lon="2.11884">
        <ele>565</ele>
        <time>2014-05-13T08:29:11.1Z</time>
      </trkpt>
      <trkpt lat="42.9037" lon="2.11883">
        <ele>565</ele>
        <time>2014-05-13T08:29:14.1Z</time>
      </trkpt>
      <trkpt lat="42.90371" lon="2.11883">
        <ele>564</ele>
        <time>2014-05-13T08:29:16.1Z</time>
      </trkpt>
      <trkpt lat="42.90373" lon="2.11885">
        <ele>564</ele>
        <time>2014-05-13T08:29:18.1Z</time>
      </trkpt>
      <trkpt lat="42.90372" lon="2.11887">
        <ele>563</ele>
        <time>2014-05-13T08:29:21.1Z</time>
      </trkpt>
      <trkpt lat="42.90373" lon="2.11887">
        <ele>563</ele>
        <time>2014-05-13T08:29:24.1Z</time>
      </trkpt>
      <trkpt lat="42.90374" lon="2.11888">
        <ele>563</ele>
        <time>2014-05-13T08:29:26.1Z</time>
      </trkpt>
      <trkpt lat="42.90374" lon="2.1189">
        <ele>564</ele>
        <time>2014-05-13T08:29:29.1Z</time>
      </trkpt>
      <trkpt lat="42.90374" lon="2.11892">
        <ele>564</ele>
        <time>2014-05-13T08:29:32.1Z</time>
      </trkpt>
      <trkpt lat="42.90375" lon="2.11893">
        <ele>563</ele>
        <time>2014-05-13T08:29:34.1Z</time>
      </trkpt>
      <trkpt lat="42.90372" lon="2.11895">
        <ele>563</ele>
        <time>2014-05-13T08:29:37.1Z</time>
      </trkpt>
      <trkpt lat="42.90371" lon="2.11895">
        <ele>562</ele>
        <time>2014-05-13T08:29:39.1Z</time>
      </trkpt>
      <trkpt lat="42.90371" lon="2.11896">
        <ele>562</ele>
        <time>2014-05-13T08:29:41.1Z</time>
      </trkpt>
      <trkpt lat="42.90373" lon="2.11896">
        <ele>562</ele>
        <time>2014-05-13T08:29:44.1Z</time>
      </trkpt>
      <trkpt lat="42.90376" lon="2.11897">
        <ele>561</ele>
        <time>2014-05-13T08:29:47.1Z</time>
      </trkpt>
      <trkpt lat="42.90377" lon="2.11897">
        <ele>561</ele>
        <time>2014-05-13T08:29:49.1Z</time>
      </trkpt>
      <trkpt lat="42.90379" lon="2.11897">
        <ele>561</ele>
        <time>2014-05-13T08:29:52.1Z</time>
      </trkpt>
      <trkpt lat="42.90379" lon="2.11893">
        <ele>560</ele>
        <time>2014-05-13T08:29:55.1Z</time>
      </trkpt>
      <trkpt lat="42.90381" lon="2.11892">
        <ele>560</ele>
        <time>2014-05-13T08:29:58.1Z</time>
      </trkpt>
      <trkpt lat="42.90382" lon="2.11892">
        <ele>559</ele>
        <time>2014-05-13T08:30:01.1Z</time>
      </trkpt>
      <trkpt lat="42.90383" lon="2.11892">
        <ele>559</ele>
        <time>2014-05-13T08:30:03.1Z</time>
      </trkpt>
      <trkpt lat="42.90383" lon="2.11891">
        <ele>559</ele>
        <time>2014-05-13T08:30:06.1Z</time>
      </trkpt>
      <trkpt lat="42.90383" lon="2.1189">
        <ele>559</ele>
        <time>2014-05-13T08:30:08.1Z</time>
      </trkpt>
      <trkpt lat="42.90383" lon="2.11888">
        <ele>558</ele>
        <time>2014-05-13T08:30:11.1Z</time>
      </trkpt>
      <trkpt lat="42.90383" lon="2.11887">
        <ele>558</ele>
        <time>2014-05-13T08:30:13.1Z</time>
      </trkpt>
      <trkpt lat="42.90384" lon="2.11885">
        <ele>557</ele>
        <time>2014-05-13T08:30:16.1Z</time>
      </trkpt>
      <trkpt lat="42.90384" lon="2.11883">
        <ele>558</ele>
        <time>2014-05-13T08:30:18.1Z</time>
      </trkpt>
      <trkpt lat="42.90383" lon="2.11882">
        <ele>558</ele>
        <time>2014-05-13T08:30:21.1Z</time>
      </trkpt>
      <trkpt lat="42.90385" lon="2.1188">
        <ele>557</ele>
        <time>2014-05-13T08:30:24.1Z</time>
      </trkpt>
      <trkpt lat="42.90386" lon="2.11877">
        <ele>556</ele>
        <time>2014-05-13T08:30:27.1Z</time>
      </trkpt>
      <trkpt lat="42.90387" lon="2.11877">
        <ele>556</ele>
        <time>2014-05-13T08:30:29.1Z</time>
      </trkpt>
      <trkpt lat="42.90388" lon="2.11875">
        <ele>556</ele>
        <time>2014-05-13T08:30:32.1Z</time>
      </trkpt>
      <trkpt lat="42.90388" lon="2.11874">
        <ele>556</ele>
        <time>2014-05-13T08:30:34.1Z</time>
      </trkpt>
      <trkpt lat="42.90389" lon="2.11873">
        <ele>555</ele>
        <time>2014-05-13T08:30:37.1Z</time>
      </trkpt>
      <trkpt lat="42.90388" lon="2.1187">
        <ele>555</ele>
        <time>2014-05-13T08:30:40.1Z</time>
      </trkpt>
      <trkpt lat="42.90389" lon="2.11868">
        <ele>555</ele>
        <time>2014-05-13T08:30:42.1Z</time>
      </trkpt>
      <trkpt lat="42.9039" lon="2.11869">
        <ele>555</ele>
        <time>2014-05-13T08:30:45.1Z</time>
      </trkpt>
      <trkpt lat="42.90391" lon="2.11873">
        <ele>554</ele>
        <time>2014-05-13T08:30:48.1Z</time>
      </trkpt>
      <trkpt lat="42.90393" lon="2.11873">
        <ele>554</ele>
        <time>2014-05-13T08:30:51.1Z</time>
      </trkpt>
      <trkpt lat="42.90391" lon="2.11872">
        <ele>554</ele>
        <time>2014-05-13T08:30:53.1Z</time>
      </trkpt>
      <trkpt lat="42.90391" lon="2.11872">
        <ele>554</ele>
        <time>2014-05-13T08:30:55.1Z</time>
      </trkpt>
      <trkpt lat="42.90391" lon="2.11871">
        <ele>554</ele>
        <time>2014-05-13T08:30:58.1Z</time>
      </trkpt>
      <trkpt lat="42.90391" lon="2.11871">
        <ele>554</ele>
        <time>2014-05-13T08:31:00.1Z</time>
      </trkpt>
      <trkpt lat="42.90392" lon="2.11871">
        <ele>554</ele>
        <time>2014-05-13T08:31:03.1Z</time>
      </trkpt>
      <trkpt lat="42.90393" lon="2.11871">
        <ele>555</ele>
        <time>2014-05-13T08:31:06.1Z</time>
      </trkpt>
      <trkpt lat="42.90393" lon="2.11872">
        <ele>554</ele>
        <time>2014-05-13T08:31:09.1Z</time>
      </trkpt>
      <trkpt lat="42.90393" lon="2.11872">
        <ele>554</ele>
        <time>2014-05-13T08:31:12.1Z</time>
      </trkpt>
      <trkpt lat="42.90393" lon="2.11873">
        <ele>554</ele>
        <time>2014-05-13T08:31:14.1Z</time>
      </trkpt>
      <trkpt lat="42.90393" lon="2.11873">
        <ele>554</ele>
        <time>2014-05-13T08:31:17.1Z</time>
      </trkpt>
      <trkpt lat="42.90394" lon="2.11872">
        <ele>554</ele>
        <time>2014-05-13T08:31:20.1Z</time>
      </trkpt>
      <trkpt lat="42.90394" lon="2.11872">
        <ele>554</ele>
        <time>2014-05-13T08:31:23.1Z</time>
      </trkpt>
      <trkpt lat="42.90395" lon="2.11873">
        <ele>555</ele>
        <time>2014-05-13T08:31:26.1Z</time>
      </trkpt>
      <trkpt lat="42.90395" lon="2.11874">
        <ele>555</ele>
        <time>2014-05-13T08:31:29.1Z</time>
      </trkpt>
      <trkpt lat="42.90395" lon="2.11874">
        <ele>555</ele>
        <time>2014-05-13T08:31:31.1Z</time>
      </trkpt>
      <trkpt lat="42.90394" lon="2.11874">
        <ele>555</ele>
        <time>2014-05-13T08:31:33.1Z</time>
      </trkpt>
      <trkpt lat="42.90393" lon="2.11873">
        <ele>555</ele>
        <time>2014-05-13T08:31:36.1Z</time>
      </trkpt>
      <trkpt lat="42.90395" lon="2.11873">
        <ele>555</ele>
        <time>2014-05-13T08:31:39.1Z</time>
      </trkpt>
      <trkpt lat="42.90394" lon="2.11873">
        <ele>554</ele>
        <time>2014-05-13T08:31:41.1Z</time>
      </trkpt>
      <trkpt lat="42.90393" lon="2.11873">
        <ele>554</ele>
        <time>2014-05-13T08:31:44.1Z</time>
      </trkpt>
      <trkpt lat="42.90394" lon="2.11872">
        <ele>553</ele>
        <time>2014-05-13T08:31:46.1Z</time>
      </trkpt>
      <trkpt lat="42.90394" lon="2.11873">
        <ele>553</ele>
        <time>2014-05-13T08:31:49.1Z</time>
      </trkpt>
      <trkpt lat="42.90396" lon="2.11874">
        <ele>554</ele>
        <time>2014-05-13T08:31:52.1Z</time>
      </trkpt>
      <trkpt lat="42.90396" lon="2.11876">
        <ele>554</ele>
        <time>2014-05-13T08:31:54.1Z</time>
      </trkpt>
      <trkpt lat="42.90396" lon="2.11878">
        <ele>554</ele>
        <time>2014-05-13T08:31:57.1Z</time>
      </trkpt>
      <trkpt lat="42.90396" lon="2.11878">
        <ele>554</ele>
        <time>2014-05-13T08:32:00.1Z</time>
      </trkpt>
      <trkpt lat="42.90395" lon="2.11878">
        <ele>554</ele>
        <time>2014-05-13T08:32:03.1Z</time>
      </trkpt>
      <trkpt lat="42.90394" lon="2.1188">
        <ele>554</ele>
        <time>2014-05-13T08:32:06.1Z</time>
      </trkpt>
      <trkpt lat="42.90394" lon="2.11882">
        <ele>554</ele>
        <time>2014-05-13T08:32:09.1Z</time>
      </trkpt>
      <trkpt lat="42.90394" lon="2.11882">
        <ele>554</ele>
        <time>2014-05-13T08:32:11.1Z</time>
      </trkpt>
      <trkpt lat="42.90393" lon="2.11883">
        <ele>554</ele>
        <time>2014-05-13T08:32:14.1Z</time>
      </trkpt>
      <trkpt lat="42.90393" lon="2.11883">
        <ele>554</ele>
        <time>2014-05-13T08:32:16.1Z</time>
      </trkpt>
      <trkpt lat="42.90393" lon="2.11883">
        <ele>554</ele>
        <time>2014-05-13T08:32:19.1Z</time>
      </trkpt>
      <trkpt lat="42.90393" lon="2.11882">
        <ele>554</ele>
        <time>2014-05-13T08:32:21.1Z</time>
      </trkpt>
      <trkpt lat="42.90392" lon="2.11882">
        <ele>554</ele>
        <time>2014-05-13T08:32:24.1Z</time>
      </trkpt>
      <trkpt lat="42.90393" lon="2.11882">
        <ele>554</ele>
        <time>2014-05-13T08:32:26.1Z</time>
      </trkpt>
      <trkpt lat="42.90393" lon="2.11882">
        <ele>554</ele>
        <time>2014-05-13T08:32:29.1Z</time>
      </trkpt>
      <trkpt lat="42.90394" lon="2.11882">
        <ele>554</ele>
        <time>2014-05-13T08:32:31.1Z</time>
      </trkpt>
      <trkpt lat="42.90395" lon="2.11882">
        <ele>554</ele>
        <time>2014-05-13T08:32:34.1Z</time>
      </trkpt>
      <trkpt lat="42.90396" lon="2.11882">
        <ele>554</ele>
        <time>2014-05-13T08:32:36.1Z</time>
      </trkpt>
      <trkpt lat="42.90397" lon="2.11882">
        <ele>554</ele>
        <time>2014-05-13T08:32:38.1Z</time>
      </trkpt>
      <trkpt lat="42.90398" lon="2.11882">
        <ele>553</ele>
        <time>2014-05-13T08:32:41.1Z</time>
      </trkpt>
      <trkpt lat="42.90398" lon="2.11881">
        <ele>553</ele>
        <time>2014-05-13T08:32:43.1Z</time>
      </trkpt>
      <trkpt lat="42.90399" lon="2.11881">
        <ele>553</ele>
        <time>2014-05-13T08:32:46.1Z</time>
      </trkpt>
      <trkpt lat="42.90401" lon="2.1188">
        <ele>552</ele>
        <time>2014-05-13T08:32:49.1Z</time>
      </trkpt>
      <trkpt lat="42.90402" lon="2.11879">
        <ele>551</ele>
        <time>2014-05-13T08:32:52.1Z</time>
      </trkpt>
      <trkpt lat="42.90403" lon="2.11877">
        <ele>551</ele>
        <time>2014-05-13T08:32:54.1Z</time>
      </trkpt>
      <trkpt lat="42.90403" lon="2.11875">
        <ele>550</ele>
        <time>2014-05-13T08:32:57.1Z</time>
      </trkpt>
      <trkpt lat="42.90403" lon="2.11874">
        <ele>550</ele>
        <time>2014-05-13T08:33:00.1Z</time>
      </trkpt>
      <trkpt lat="42.90404" lon="2.11872">
        <ele>550</ele>
        <time>2014-05-13T08:33:02.1Z</time>
      </trkpt>
      <trkpt lat="42.90403" lon="2.11872">
        <ele>550</ele>
        <time>2014-05-13T08:33:05.1Z</time>
      </trkpt>
      <trkpt lat="42.90403" lon="2.11873">
        <ele>550</ele>
        <time>2014-05-13T08:33:07.1Z</time>
      </trkpt>
      <trkpt lat="42.90405" lon="2.11873">
        <ele>549</ele>
        <time>2014-05-13T08:33:10.1Z</time>
      </trkpt>
      <trkpt lat="42.90405" lon="2.11872">
        <ele>549</ele>
        <time>2014-05-13T08:33:12.1Z</time>
      </trkpt>
      <trkpt lat="42.90406" lon="2.11873">
        <ele>549</ele>
        <time>2014-05-13T08:33:14.1Z</time>
      </trkpt>
      <trkpt lat="42.90407" lon="2.11874">
        <ele>548</ele>
        <time>2014-05-13T08:33:17.1Z</time>
      </trkpt>
      <trkpt lat="42.90408" lon="2.11876">
        <ele>547</ele>
        <time>2014-05-13T08:33:20.1Z</time>
      </trkpt>
      <trkpt lat="42.9041" lon="2.11878">
        <ele>547</ele>
        <time>2014-05-13T08:33:22.1Z</time>
      </trkpt>
      <trkpt lat="42.90409" lon="2.1188">
        <ele>547</ele>
        <time>2014-05-13T08:33:25.1Z</time>
      </trkpt>
      <trkpt lat="42.9041" lon="2.11881">
        <ele>547</ele>
        <time>2014-05-13T08:33:28.1Z</time>
      </trkpt>
      <trkpt lat="42.90408" lon="2.11883">
        <ele>547</ele>
        <time>2014-05-13T08:33:31.1Z</time>
      </trkpt>
      <trkpt lat="42.90408" lon="2.11884">
        <ele>547</ele>
        <time>2014-05-13T08:33:33.1Z</time>
      </trkpt>
      <trkpt lat="42.90408" lon="2.11886">
        <ele>547</ele>
        <time>2014-05-13T08:33:36.1Z</time>
      </trkpt>
      <trkpt lat="42.90408" lon="2.11888">
        <ele>547</ele>
        <time>2014-05-13T08:33:38.1Z</time>
      </trkpt>
      <trkpt lat="42.90409" lon="2.1189">
        <ele>547</ele>
        <time>2014-05-13T08:33:41.1Z</time>
      </trkpt>
      <trkpt lat="42.9041" lon="2.11892">
        <ele>547</ele>
        <time>2014-05-13T08:33:43.1Z</time>
      </trkpt>
      <trkpt lat="42.90412" lon="2.11896">
        <ele>548</ele>
        <time>2014-05-13T08:33:46.1Z</time>
      </trkpt>
      <trkpt lat="42.90413" lon="2.119">
        <ele>548</ele>
        <time>2014-05-13T08:33:49.1Z</time>
      </trkpt>
      <trkpt lat="42.90414" lon="2.11902">
        <ele>548</ele>
        <time>2014-05-13T08:33:51.1Z</time>
      </trkpt>
      <trkpt lat="42.90414" lon="2.11906">
        <ele>548</ele>
        <time>2014-05-13T08:33:54.1Z</time>
      </trkpt>
      <trkpt lat="42.90415" lon="2.11909">
        <ele>548</ele>
        <time>2014-05-13T08:33:56.1Z</time>
      </trkpt>
      <trkpt lat="42.90416" lon="2.11911">
        <ele>548</ele>
        <time>2014-05-13T08:33:59.1Z</time>
      </trkpt>
      <trkpt lat="42.90415" lon="2.11913">
        <ele>548</ele>
        <time>2014-05-13T08:34:01.1Z</time>
      </trkpt>
      <trkpt lat="42.90416" lon="2.11915">
        <ele>549</ele>
        <time>2014-05-13T08:34:03.1Z</time>
      </trkpt>
      <trkpt lat="42.90416" lon="2.11918">
        <ele>549</ele>
        <time>2014-05-13T08:34:06.1Z</time>
      </trkpt>
      <trkpt lat="42.90417" lon="2.11921">
        <ele>549</ele>
        <time>2014-05-13T08:34:09.1Z</time>
      </trkpt>
      <trkpt lat="42.90419" lon="2.11923">
        <ele>549</ele>
        <time>2014-05-13T08:34:12.1Z</time>
      </trkpt>
      <trkpt lat="42.90419" lon="2.11926">
        <ele>549</ele>
        <time>2014-05-13T08:34:15.1Z</time>
      </trkpt>
      <trkpt lat="42.90419" lon="2.11927">
        <ele>548</ele>
        <time>2014-05-13T08:34:17.1Z</time>
      </trkpt>
      <trkpt lat="42.9042" lon="2.1193">
        <ele>548</ele>
        <time>2014-05-13T08:34:20.1Z</time>
      </trkpt>
      <trkpt lat="42.9042" lon="2.11931">
        <ele>548</ele>
        <time>2014-05-13T08:34:22.1Z</time>
      </trkpt>
      <trkpt lat="42.9042" lon="2.11932">
        <ele>549</ele>
        <time>2014-05-13T08:34:25.1Z</time>
      </trkpt>
      <trkpt lat="42.90419" lon="2.11932">
        <ele>548</ele>
        <time>2014-05-13T08:34:28.1Z</time>
      </trkpt>
      <trkpt lat="42.9042" lon="2.11932">
        <ele>548</ele>
        <time>2014-05-13T08:34:31.1Z</time>
      </trkpt>
      <trkpt lat="42.90421" lon="2.11931">
        <ele>547</ele>
        <time>2014-05-13T08:34:34.1Z</time>
      </trkpt>
      <trkpt lat="42.90422" lon="2.11931">
        <ele>547</ele>
        <time>2014-05-13T08:34:37.1Z</time>
      </trkpt>
      <trkpt lat="42.90422" lon="2.11931">
        <ele>548</ele>
        <time>2014-05-13T08:34:39.1Z</time>
      </trkpt>
      <trkpt lat="42.90423" lon="2.11931">
        <ele>548</ele>
        <time>2014-05-13T08:34:42.1Z</time>
      </trkpt>
      <trkpt lat="42.90424" lon="2.1193">
        <ele>548</ele>
        <time>2014-05-13T08:34:45.1Z</time>
      </trkpt>
      <trkpt lat="42.90425" lon="2.1193">
        <ele>549</ele>
        <time>2014-05-13T08:34:47.1Z</time>
      </trkpt>
      <trkpt lat="42.90427" lon="2.11931">
        <ele>549</ele>
        <time>2014-05-13T08:34:50.1Z</time>
      </trkpt>
      <trkpt lat="42.90428" lon="2.11931">
        <ele>549</ele>
        <time>2014-05-13T08:34:52.1Z</time>
      </trkpt>
      <trkpt lat="42.9043" lon="2.11932">
        <ele>549</ele>
        <time>2014-05-13T08:34:55.1Z</time>
      </trkpt>
      <trkpt lat="42.90432" lon="2.11933">
        <ele>550</ele>
        <time>2014-05-13T08:34:57.1Z</time>
      </trkpt>
      <trkpt lat="42.90433" lon="2.11934">
        <ele>550</ele>
        <time>2014-05-13T08:34:59.1Z</time>
      </trkpt>
      <trkpt lat="42.90435" lon="2.11934">
        <ele>550</ele>
        <time>2014-05-13T08:35:02.1Z</time>
      </trkpt>
      <trkpt lat="42.90436" lon="2.11936">
        <ele>550</ele>
        <time>2014-05-13T08:35:04.1Z</time>
      </trkpt>
      <trkpt lat="42.90438" lon="2.11935">
        <ele>549</ele>
        <time>2014-05-13T08:35:07.1Z</time>
      </trkpt>
      <trkpt lat="42.90439" lon="2.11935">
        <ele>549</ele>
        <time>2014-05-13T08:35:09.1Z</time>
      </trkpt>
      <trkpt lat="42.90442" lon="2.11936">
        <ele>549</ele>
        <time>2014-05-13T08:35:12.1Z</time>
      </trkpt>
      <trkpt lat="42.90443" lon="2.11939">
        <ele>550</ele>
        <time>2014-05-13T08:35:14.1Z</time>
      </trkpt>
      <trkpt lat="42.90445" lon="2.11942">
        <ele>550</ele>
        <time>2014-05-13T08:35:16.1Z</time>
      </trkpt>
      <trkpt lat="42.90446" lon="2.11945">
        <ele>550</ele>
        <time>2014-05-13T08:35:19.1Z</time>
      </trkpt>
      <trkpt lat="42.90448" lon="2.11948">
        <ele>551</ele>
        <time>2014-05-13T08:35:22.1Z</time>
      </trkpt>
      <trkpt lat="42.90449" lon="2.11951">
        <ele>551</ele>
        <time>2014-05-13T08:35:25.1Z</time>
      </trkpt>
      <trkpt lat="42.9045" lon="2.11953">
        <ele>551</ele>
        <time>2014-05-13T08:35:27.1Z</time>
      </trkpt>
      <trkpt lat="42.90452" lon="2.11956">
        <ele>552</ele>
        <time>2014-05-13T08:35:29.1Z</time>
      </trkpt>
      <trkpt lat="42.90453" lon="2.11958">
        <ele>552</ele>
        <time>2014-05-13T08:35:32.1Z</time>
      </trkpt>
      <trkpt lat="42.90454" lon="2.11959">
        <ele>552</ele>
        <time>2014-05-13T08:35:35.1Z</time>
      </trkpt>
      <trkpt lat="42.90455" lon="2.11961">
        <ele>552</ele>
        <time>2014-05-13T08:35:37.1Z</time>
      </trkpt>
      <trkpt lat="42.90455" lon="2.11961">
        <ele>552</ele>
        <time>2014-05-13T08:35:40.1Z</time>
      </trkpt>
      <trkpt lat="42.90454" lon="2.11958">
        <ele>552</ele>
        <time>2014-05-13T08:35:43.1Z</time>
      </trkpt>
      <trkpt lat="42.90454" lon="2.11958">
        <ele>552</ele>
        <time>2014-05-13T08:35:46.1Z</time>
      </trkpt>
      <trkpt lat="42.90455" lon="2.11959">
        <ele>552</ele>
        <time>2014-05-13T08:35:49.1Z</time>
      </trkpt>
      <trkpt lat="42.90455" lon="2.11958">
        <ele>552</ele>
        <time>2014-05-13T08:35:51.1Z</time>
      </trkpt>
      <trkpt lat="42.90456" lon="2.11958">
        <ele>552</ele>
        <time>2014-05-13T08:35:53.1Z</time>
      </trkpt>
      <trkpt lat="42.90459" lon="2.11958">
        <ele>552</ele>
        <time>2014-05-13T08:35:56.1Z</time>
      </trkpt>
      <trkpt lat="42.90461" lon="2.11959">
        <ele>552</ele>
        <time>2014-05-13T08:35:59.1Z</time>
      </trkpt>
      <trkpt lat="42.90464" lon="2.11959">
        <ele>551</ele>
        <time>2014-05-13T08:36:01.1Z</time>
      </trkpt>
      <trkpt lat="42.90466" lon="2.11959">
        <ele>551</ele>
        <time>2014-05-13T08:36:04.1Z</time>
      </trkpt>
      <trkpt lat="42.90468" lon="2.11959">
        <ele>551</ele>
        <time>2014-05-13T08:36:06.1Z</time>
      </trkpt>
      <trkpt lat="42.90471" lon="2.1196">
        <ele>551</ele>
        <time>2014-05-13T08:36:09.1Z</time>
      </trkpt>
      <trkpt lat="42.90472" lon="2.11961">
        <ele>551</ele>
        <time>2014-05-13T08:36:11.1Z</time>
      </trkpt>
      <trkpt lat="42.90475" lon="2.11961">
        <ele>552</ele>
        <time>2014-05-13T08:36:14.1Z</time>
      </trkpt>
      <trkpt lat="42.90476" lon="2.11961">
        <ele>552</ele>
        <time>2014-05-13T08:36:17.1Z</time>
      </trkpt>
      <trkpt lat="42.90477" lon="2.11961">
        <ele>552</ele>
        <time>2014-05-13T08:36:19.1Z</time>
      </trkpt>
      <trkpt lat="42.90477" lon="2.11961">
        <ele>553</ele>
        <time>2014-05-13T08:36:22.1Z</time>
      </trkpt>
      <trkpt lat="42.90477" lon="2.11961">
        <ele>553</ele>
        <time>2014-05-13T08:36:26.1Z</time>
      </trkpt>
      <trkpt lat="42.90478" lon="2.11961">
        <ele>553</ele>
        <time>2014-05-13T08:36:28.1Z</time>
      </trkpt>
      <trkpt lat="42.9048" lon="2.11961">
        <ele>553</ele>
        <time>2014-05-13T08:36:31.1Z</time>
      </trkpt>
      <trkpt lat="42.90481" lon="2.11961">
        <ele>553</ele>
        <time>2014-05-13T08:36:34.1Z</time>
      </trkpt>
      <trkpt lat="42.90481" lon="2.11961">
        <ele>553</ele>
        <time>2014-05-13T08:36:37.1Z</time>
      </trkpt>
      <trkpt lat="42.90481" lon="2.11961">
        <ele>553</ele>
        <time>2014-05-13T08:36:39.1Z</time>
      </trkpt>
      <trkpt lat="42.90481" lon="2.1196">
        <ele>553</ele>
        <time>2014-05-13T08:36:42.1Z</time>
      </trkpt>
      <trkpt lat="42.90482" lon="2.11961">
        <ele>553</ele>
        <time>2014-05-13T08:36:44.1Z</time>
      </trkpt>
      <trkpt lat="42.90482" lon="2.11961">
        <ele>552</ele>
        <time>2014-05-13T08:36:47.1Z</time>
      </trkpt>
      <trkpt lat="42.9048" lon="2.1196">
        <ele>552</ele>
        <time>2014-05-13T08:36:50.1Z</time>
      </trkpt>
      <trkpt lat="42.90479" lon="2.11961">
        <ele>553</ele>
        <time>2014-05-13T08:36:52.1Z</time>
      </trkpt>
      <trkpt lat="42.90478" lon="2.11961">
        <ele>553</ele>
        <time>2014-05-13T08:36:55.1Z</time>
      </trkpt>
      <trkpt lat="42.90478" lon="2.11961">
        <ele>553</ele>
        <time>2014-05-13T08:36:58.1Z</time>
      </trkpt>
      <trkpt lat="42.90477" lon="2.11961">
        <ele>553</ele>
        <time>2014-05-13T08:37:01.1Z</time>
      </trkpt>
      <trkpt lat="42.90477" lon="2.11961">
        <ele>553</ele>
        <time>2014-05-13T08:37:03.1Z</time>
      </trkpt>
      <trkpt lat="42.90476" lon="2.11962">
        <ele>553</ele>
        <time>2014-05-13T08:37:06.1Z</time>
      </trkpt>
      <trkpt lat="42.90476" lon="2.11962">
        <ele>553</ele>
        <time>2014-05-13T08:37:09.1Z</time>
      </trkpt>
      <trkpt lat="42.90476" lon="2.11962">
        <ele>553</ele>
        <time>2014-05-13T08:37:12.1Z</time>
      </trkpt>
      <trkpt lat="42.90476" lon="2.11965">
        <ele>553</ele>
        <time>2014-05-13T08:37:15.1Z</time>
      </trkpt>
      <trkpt lat="42.90475" lon="2.11966">
        <ele>553</ele>
        <time>2014-05-13T08:37:17.1Z</time>
      </trkpt>
      <trkpt lat="42.90474" lon="2.11966">
        <ele>553</ele>
        <time>2014-05-13T08:37:20.1Z</time>
      </trkpt>
      <trkpt lat="42.90475" lon="2.11965">
        <ele>553</ele>
        <time>2014-05-13T08:37:23.1Z</time>
      </trkpt>
      <trkpt lat="42.90475" lon="2.11965">
        <ele>553</ele>
        <time>2014-05-13T08:37:25.1Z</time>
      </trkpt>
      <trkpt lat="42.90474" lon="2.11965">
        <ele>553</ele>
        <time>2014-05-13T08:37:28.1Z</time>
      </trkpt>
      <trkpt lat="42.90474" lon="2.11966">
        <ele>553</ele>
        <time>2014-05-13T08:37:30.1Z</time>
      </trkpt>
      <trkpt lat="42.90475" lon="2.11966">
        <ele>553</ele>
        <time>2014-05-13T08:37:33.1Z</time>
      </trkpt>
      <trkpt lat="42.90476" lon="2.11966">
        <ele>553</ele>
        <time>2014-05-13T08:37:36.1Z</time>
      </trkpt>
      <trkpt lat="42.90476" lon="2.11967">
        <ele>553</ele>
        <time>2014-05-13T08:37:38.1Z</time>
      </trkpt>
      <trkpt lat="42.90477" lon="2.11968">
        <ele>552</ele>
        <time>2014-05-13T08:37:41.1Z</time>
      </trkpt>
      <trkpt lat="42.90477" lon="2.11969">
        <ele>553</ele>
        <time>2014-05-13T08:37:43.1Z</time>
      </trkpt>
      <trkpt lat="42.90479" lon="2.11969">
        <ele>553</ele>
        <time>2014-05-13T08:37:46.1Z</time>
      </trkpt>
      <trkpt lat="42.9048" lon="2.11969">
        <ele>553</ele>
        <time>2014-05-13T08:37:49.1Z</time>
      </trkpt>
      <trkpt lat="42.9048" lon="2.11969">
        <ele>553</ele>
        <time>2014-05-13T08:37:51.1Z</time>
      </trkpt>
      <trkpt lat="42.90481" lon="2.1197">
        <ele>553</ele>
        <time>2014-05-13T08:37:54.1Z</time>
      </trkpt>
      <trkpt lat="42.90481" lon="2.11971">
        <ele>553</ele>
        <time>2014-05-13T08:37:57.1Z</time>
      </trkpt>
      <trkpt lat="42.90481" lon="2.11971">
        <ele>553</ele>
        <time>2014-05-13T08:37:59.1Z</time>
      </trkpt>
      <trkpt lat="42.90482" lon="2.11969">
        <ele>552</ele>
        <time>2014-05-13T08:38:02.1Z</time>
      </trkpt>
      <trkpt lat="42.90482" lon="2.11969">
        <ele>552</ele>
        <time>2014-05-13T08:38:04.1Z</time>
      </trkpt>
      <trkpt lat="42.90481" lon="2.11967">
        <ele>552</ele>
        <time>2014-05-13T08:38:07.1Z</time>
      </trkpt>
      <trkpt lat="42.90479" lon="2.11967">
        <ele>553</ele>
        <time>2014-05-13T08:38:10.1Z</time>
      </trkpt>
      <trkpt lat="42.9048" lon="2.11966">
        <ele>553</ele>
        <time>2014-05-13T08:38:12.1Z</time>
      </trkpt>
      <trkpt lat="42.9048" lon="2.11966">
        <ele>553</ele>
        <time>2014-05-13T08:38:15.1Z</time>
      </trkpt>
      <trkpt lat="42.9048" lon="2.11966">
        <ele>553</ele>
        <time>2014-05-13T08:38:18.1Z</time>
      </trkpt>
      <trkpt lat="42.9048" lon="2.11966">
        <ele>552</ele>
        <time>2014-05-13T08:38:20.1Z</time>
      </trkpt>
      <trkpt lat="42.9048" lon="2.11966">
        <ele>552</ele>
        <time>2014-05-13T08:38:23.1Z</time>
      </trkpt>
      <trkpt lat="42.9048" lon="2.11966">
        <ele>552</ele>
        <time>2014-05-13T08:38:25.1Z</time>
      </trkpt>
      <trkpt lat="42.9048" lon="2.11966">
        <ele>552</ele>
        <time>2014-05-13T08:38:28.1Z</time>
      </trkpt>
      <trkpt lat="42.9048" lon="2.11967">
        <ele>552</ele>
        <time>2014-05-13T08:38:31.1Z</time>
      </trkpt>
      <trkpt lat="42.90481" lon="2.11968">
        <ele>552</ele>
        <time>2014-05-13T08:38:34.1Z</time>
      </trkpt>
      <trkpt lat="42.9048" lon="2.11967">
        <ele>552</ele>
        <time>2014-05-13T08:38:36.1Z</time>
      </trkpt>
      <trkpt lat="42.9048" lon="2.11967">
        <ele>552</ele>
        <time>2014-05-13T08:38:39.1Z</time>
      </trkpt>
      <trkpt lat="42.90478" lon="2.11965">
        <ele>552</ele>
        <time>2014-05-13T08:38:42.1Z</time>
      </trkpt>
      <trkpt lat="42.90478" lon="2.11965">
        <ele>552</ele>
        <time>2014-05-13T08:38:45.1Z</time>
      </trkpt>
      <trkpt lat="42.90478" lon="2.11966">
        <ele>552</ele>
        <time>2014-05-13T08:38:48.1Z</time>
      </trkpt>
      <trkpt lat="42.90478" lon="2.11966">
        <ele>552</ele>
        <time>2014-05-13T08:38:51.1Z</time>
      </trkpt>
      <trkpt lat="42.90478" lon="2.11966">
        <ele>553</ele>
        <time>2014-05-13T08:38:53.1Z</time>
      </trkpt>
      <trkpt lat="42.90478" lon="2.11967">
        <ele>553</ele>
        <time>2014-05-13T08:38:56.1Z</time>
      </trkpt>
      <trkpt lat="42.90479" lon="2.11967">
        <ele>553</ele>
        <time>2014-05-13T08:38:58.1Z</time>
      </trkpt>
      <trkpt lat="42.90477" lon="2.11967">
        <ele>552</ele>
        <time>2014-05-13T08:39:01.1Z</time>
      </trkpt>
      <trkpt lat="42.90477" lon="2.11967">
        <ele>552</ele>
        <time>2014-05-13T08:39:03.1Z</time>
      </trkpt>
      <trkpt lat="42.90477" lon="2.11966">
        <ele>552</ele>
        <time>2014-05-13T08:39:06.1Z</time>
      </trkpt>
      <trkpt lat="42.90476" lon="2.11966">
        <ele>553</ele>
        <time>2014-05-13T08:39:09.1Z</time>
      </trkpt>
      <trkpt lat="42.90476" lon="2.11965">
        <ele>553</ele>
        <time>2014-05-13T08:39:11.1Z</time>
      </trkpt>
      <trkpt lat="42.90475" lon="2.11964">
        <ele>553</ele>
        <time>2014-05-13T08:39:14.1Z</time>
      </trkpt>
      <trkpt lat="42.90475" lon="2.11964">
        <ele>553</ele>
        <time>2014-05-13T08:39:17.1Z</time>
      </trkpt>
      <trkpt lat="42.90475" lon="2.11964">
        <ele>553</ele>
        <time>2014-05-13T08:39:19.1Z</time>
      </trkpt>
      <trkpt lat="42.90475" lon="2.11963">
        <ele>553</ele>
        <time>2014-05-13T08:39:22.1Z</time>
      </trkpt>
      <trkpt lat="42.90475" lon="2.11963">
        <ele>553</ele>
        <time>2014-05-13T08:39:24.1Z</time>
      </trkpt>
      <trkpt lat="42.90476" lon="2.11963">
        <ele>552</ele>
        <time>2014-05-13T08:39:27.1Z</time>
      </trkpt>
      <trkpt lat="42.90475" lon="2.11962">
        <ele>552</ele>
        <time>2014-05-13T08:39:30.1Z</time>
      </trkpt>
      <trkpt lat="42.90474" lon="2.11961">
        <ele>552</ele>
        <time>2014-05-13T08:39:32.1Z</time>
      </trkpt>
      <trkpt lat="42.90473" lon="2.11962">
        <ele>552</ele>
        <time>2014-05-13T08:39:35.1Z</time>
      </trkpt>
      <trkpt lat="42.90474" lon="2.11962">
        <ele>552</ele>
        <time>2014-05-13T08:39:37.1Z</time>
      </trkpt>
      <trkpt lat="42.90474" lon="2.11962">
        <ele>552</ele>
        <time>2014-05-13T08:39:41.1Z</time>
      </trkpt>
      <trkpt lat="42.90475" lon="2.11964">
        <ele>553</ele>
        <time>2014-05-13T08:39:44.1Z</time>
      </trkpt>
      <trkpt lat="42.90475" lon="2.11964">
        <ele>553</ele>
        <time>2014-05-13T08:39:46.1Z</time>
      </trkpt>
      <trkpt lat="42.90475" lon="2.11963">
        <ele>553</ele>
        <time>2014-05-13T08:39:49.1Z</time>
      </trkpt>
      <trkpt lat="42.90476" lon="2.11962">
        <ele>553</ele>
        <time>2014-05-13T08:39:51.1Z</time>
      </trkpt>
      <trkpt lat="42.90476" lon="2.11961">
        <ele>553</ele>
        <time>2014-05-13T08:39:54.1Z</time>
      </trkpt>
      <trkpt lat="42.90477" lon="2.1196">
        <ele>553</ele>
        <time>2014-05-13T08:39:57.1Z</time>
      </trkpt>
      <trkpt lat="42.9048" lon="2.11958">
        <ele>553</ele>
        <time>2014-05-13T08:40:00.1Z</time>
      </trkpt>
      <trkpt lat="42.9048" lon="2.11957">
        <ele>553</ele>
        <time>2014-05-13T08:40:02.1Z</time>
      </trkpt>
      <trkpt lat="42.9048" lon="2.11957">
        <ele>553</ele>
        <time>2014-05-13T08:40:05.1Z</time>
      </trkpt>
      <trkpt lat="42.90481" lon="2.11957">
        <ele>553</ele>
        <time>2014-05-13T08:40:07.1Z</time>
      </trkpt>
      <trkpt lat="42.90481" lon="2.11958">
        <ele>553</ele>
        <time>2014-05-13T08:40:09.1Z</time>
      </trkpt>
      <trkpt lat="42.90482" lon="2.11959">
        <ele>553</ele>
        <time>2014-05-13T08:40:12.1Z</time>
      </trkpt>
      <trkpt lat="42.90482" lon="2.11959">
        <ele>553</ele>
        <time>2014-05-13T08:40:15.1Z</time>
      </trkpt>
      <trkpt lat="42.90481" lon="2.1196">
        <ele>552</ele>
        <time>2014-05-13T08:40:18.1Z</time>
      </trkpt>
      <trkpt lat="42.90481" lon="2.11962">
        <ele>552</ele>
        <time>2014-05-13T08:40:20.1Z</time>
      </trkpt>
      <trkpt lat="42.90481" lon="2.11963">
        <ele>552</ele>
        <time>2014-05-13T08:40:22.1Z</time>
      </trkpt>
      <trkpt lat="42.90482" lon="2.11964">
        <ele>552</ele>
        <time>2014-05-13T08:40:24.1Z</time>
      </trkpt>
      <trkpt lat="42.90482" lon="2.11964">
        <ele>553</ele>
        <time>2014-05-13T08:40:28.1Z</time>
      </trkpt>
      <trkpt lat="42.9048" lon="2.11964">
        <ele>553</ele>
        <time>2014-05-13T08:40:31.1Z</time>
      </trkpt>
      <trkpt lat="42.90481" lon="2.11964">
        <ele>553</ele>
        <time>2014-05-13T08:40:33.1Z</time>
      </trkpt>
      <trkpt lat="42.90483" lon="2.11964">
        <ele>553</ele>
        <time>2014-05-13T08:40:36.1Z</time>
      </trkpt>
      <trkpt lat="42.90483" lon="2.11965">
        <ele>553</ele>
        <time>2014-05-13T08:40:39.1Z</time>
      </trkpt>
      <trkpt lat="42.90484" lon="2.11966">
        <ele>553</ele>
        <time>2014-05-13T08:40:41.1Z</time>
      </trkpt>
      <trkpt lat="42.90485" lon="2.11967">
        <ele>553</ele>
        <time>2014-05-13T08:40:44.1Z</time>
      </trkpt>
      <trkpt lat="42.90486" lon="2.11967">
        <ele>553</ele>
        <time>2014-05-13T08:40:46.1Z</time>
      </trkpt>
      <trkpt lat="42.90488" lon="2.11968">
        <ele>553</ele>
        <time>2014-05-13T08:40:49.1Z</time>
      </trkpt>
      <trkpt lat="42.90489" lon="2.11969">
        <ele>553</ele>
        <time>2014-05-13T08:40:51.1Z</time>
      </trkpt>
      <trkpt lat="42.90492" lon="2.1197">
        <ele>553</ele>
        <time>2014-05-13T08:40:54.1Z</time>
      </trkpt>
      <trkpt lat="42.90494" lon="2.11972">
        <ele>554</ele>
        <time>2014-05-13T08:40:57.1Z</time>
      </trkpt>
      <trkpt lat="42.90497" lon="2.11975">
        <ele>554</ele>
        <time>2014-05-13T08:41:00.1Z</time>
      </trkpt>
      <trkpt lat="42.905" lon="2.11977">
        <ele>554</ele>
        <time>2014-05-13T08:41:03.1Z</time>
      </trkpt>
      <trkpt lat="42.90503" lon="2.11977">
        <ele>555</ele>
        <time>2014-05-13T08:41:06.1Z</time>
      </trkpt>
      <trkpt lat="42.90504" lon="2.11976">
        <ele>555</ele>
        <time>2014-05-13T08:41:08.1Z</time>
      </trkpt>
      <trkpt lat="42.90505" lon="2.11976">
        <ele>555</ele>
        <time>2014-05-13T08:41:10.1Z</time>
      </trkpt>
      <trkpt lat="42.90507" lon="2.11976">
        <ele>555</ele>
        <time>2014-05-13T08:41:13.1Z</time>
      </trkpt>
      <trkpt lat="42.90509" lon="2.11978">
        <ele>555</ele>
        <time>2014-05-13T08:41:15.1Z</time>
      </trkpt>
      <trkpt lat="42.90511" lon="2.1198">
        <ele>555</ele>
        <time>2014-05-13T08:41:18.1Z</time>
      </trkpt>
      <trkpt lat="42.90513" lon="2.11981">
        <ele>555</ele>
        <time>2014-05-13T08:41:20.1Z</time>
      </trkpt>
      <trkpt lat="42.90517" lon="2.11983">
        <ele>555</ele>
        <time>2014-05-13T08:41:23.1Z</time>
      </trkpt>
      <trkpt lat="42.90519" lon="2.11986">
        <ele>555</ele>
        <time>2014-05-13T08:41:26.1Z</time>
      </trkpt>
      <trkpt lat="42.90521" lon="2.11988">
        <ele>555</ele>
        <time>2014-05-13T08:41:28.1Z</time>
      </trkpt>
      <trkpt lat="42.90523" lon="2.11991">
        <ele>555</ele>
        <time>2014-05-13T08:41:31.1Z</time>
      </trkpt>
      <trkpt lat="42.90523" lon="2.11993">
        <ele>555</ele>
        <time>2014-05-13T08:41:33.1Z</time>
      </trkpt>
      <trkpt lat="42.90524" lon="2.11994">
        <ele>555</ele>
        <time>2014-05-13T08:41:36.1Z</time>
      </trkpt>
      <trkpt lat="42.90523" lon="2.11996">
        <ele>555</ele>
        <time>2014-05-13T08:41:39.1Z</time>
      </trkpt>
      <trkpt lat="42.90522" lon="2.11999">
        <ele>555</ele>
        <time>2014-05-13T08:41:41.1Z</time>
      </trkpt>
      <trkpt lat="42.90522" lon="2.12">
        <ele>555</ele>
        <time>2014-05-13T08:41:43.1Z</time>
      </trkpt>
      <trkpt lat="42.90522" lon="2.12002">
        <ele>555</ele>
        <time>2014-05-13T08:41:45.1Z</time>
      </trkpt>
      <trkpt lat="42.90522" lon="2.12004">
        <ele>555</ele>
        <time>2014-05-13T08:41:47.1Z</time>
      </trkpt>
      <trkpt lat="42.90524" lon="2.12006">
        <ele>554</ele>
        <time>2014-05-13T08:41:50.1Z</time>
      </trkpt>
      <trkpt lat="42.90526" lon="2.12009">
        <ele>554</ele>
        <time>2014-05-13T08:41:53.1Z</time>
      </trkpt>
      <trkpt lat="42.90527" lon="2.1201">
        <ele>554</ele>
        <time>2014-05-13T08:41:55.1Z</time>
      </trkpt>
      <trkpt lat="42.90529" lon="2.12011">
        <ele>554</ele>
        <time>2014-05-13T08:41:58.1Z</time>
      </trkpt>
      <trkpt lat="42.90531" lon="2.12012">
        <ele>554</ele>
        <time>2014-05-13T08:42:01.1Z</time>
      </trkpt>
      <trkpt lat="42.90532" lon="2.12014">
        <ele>554</ele>
        <time>2014-05-13T08:42:04.1Z</time>
      </trkpt>
      <trkpt lat="42.90534" lon="2.12015">
        <ele>553</ele>
        <time>2014-05-13T08:42:07.1Z</time>
      </trkpt>
      <trkpt lat="42.90535" lon="2.12015">
        <ele>553</ele>
        <time>2014-05-13T08:42:09.1Z</time>
      </trkpt>
      <trkpt lat="42.90537" lon="2.12016">
        <ele>553</ele>
        <time>2014-05-13T08:42:11.1Z</time>
      </trkpt>
      <trkpt lat="42.90539" lon="2.12016">
        <ele>553</ele>
        <time>2014-05-13T08:42:14.1Z</time>
      </trkpt>
      <trkpt lat="42.9054" lon="2.12016">
        <ele>553</ele>
        <time>2014-05-13T08:42:16.1Z</time>
      </trkpt>
      <trkpt lat="42.90543" lon="2.12017">
        <ele>553</ele>
        <time>2014-05-13T08:42:19.1Z</time>
      </trkpt>
      <trkpt lat="42.90545" lon="2.12018">
        <ele>553</ele>
        <time>2014-05-13T08:42:21.1Z</time>
      </trkpt>
      <trkpt lat="42.90546" lon="2.12018">
        <ele>552</ele>
        <time>2014-05-13T08:42:23.1Z</time>
      </trkpt>
      <trkpt lat="42.90548" lon="2.12019">
        <ele>552</ele>
        <time>2014-05-13T08:42:26.1Z</time>
      </trkpt>
      <trkpt lat="42.9055" lon="2.12019">
        <ele>552</ele>
        <time>2014-05-13T08:42:29.1Z</time>
      </trkpt>
      <trkpt lat="42.90551" lon="2.12018">
        <ele>552</ele>
        <time>2014-05-13T08:42:31.1Z</time>
      </trkpt>
      <trkpt lat="42.90552" lon="2.12017">
        <ele>552</ele>
        <time>2014-05-13T08:42:33.1Z</time>
      </trkpt>
      <trkpt lat="42.90553" lon="2.12017">
        <ele>553</ele>
        <time>2014-05-13T08:42:35.1Z</time>
      </trkpt>
      <trkpt lat="42.90555" lon="2.12016">
        <ele>553</ele>
        <time>2014-05-13T08:42:38.1Z</time>
      </trkpt>
      <trkpt lat="42.90557" lon="2.12016">
        <ele>553</ele>
        <time>2014-05-13T08:42:40.1Z</time>
      </trkpt>
      <trkpt lat="42.9056" lon="2.12017">
        <ele>553</ele>
        <time>2014-05-13T08:42:43.1Z</time>
      </trkpt>
      <trkpt lat="42.90564" lon="2.1202">
        <ele>553</ele>
        <time>2014-05-13T08:42:46.1Z</time>
      </trkpt>
      <trkpt lat="42.90565" lon="2.1202">
        <ele>553</ele>
        <time>2014-05-13T08:42:48.1Z</time>
      </trkpt>
      <trkpt lat="42.90569" lon="2.12022">
        <ele>553</ele>
        <time>2014-05-13T08:42:51.1Z</time>
      </trkpt>
      <trkpt lat="42.9057" lon="2.12024">
        <ele>553</ele>
        <time>2014-05-13T08:42:53.1Z</time>
      </trkpt>
      <trkpt lat="42.90572" lon="2.12025">
        <ele>553</ele>
        <time>2014-05-13T08:42:56.1Z</time>
      </trkpt>
      <trkpt lat="42.90573" lon="2.12026">
        <ele>553</ele>
        <time>2014-05-13T08:42:58.1Z</time>
      </trkpt>
      <trkpt lat="42.90574" lon="2.12027">
        <ele>553</ele>
        <time>2014-05-13T08:43:00.1Z</time>
      </trkpt>
      <trkpt lat="42.90576" lon="2.12029">
        <ele>552</ele>
        <time>2014-05-13T08:43:03.1Z</time>
      </trkpt>
      <trkpt lat="42.90577" lon="2.12029">
        <ele>552</ele>
        <time>2014-05-13T08:43:06.1Z</time>
      </trkpt>
      <trkpt lat="42.90577" lon="2.12028">
        <ele>552</ele>
        <time>2014-05-13T08:43:09.1Z</time>
      </trkpt>
      <trkpt lat="42.90578" lon="2.12029">
        <ele>551</ele>
        <time>2014-05-13T08:43:12.1Z</time>
      </trkpt>
      <trkpt lat="42.90579" lon="2.12029">
        <ele>551</ele>
        <time>2014-05-13T08:43:15.1Z</time>
      </trkpt>
      <trkpt lat="42.90579" lon="2.1203">
        <ele>551</ele>
        <time>2014-05-13T08:43:18.1Z</time>
      </trkpt>
      <trkpt lat="42.9058" lon="2.12031">
        <ele>551</ele>
        <time>2014-05-13T08:43:20.1Z</time>
      </trkpt>
      <trkpt lat="42.9058" lon="2.12032">
        <ele>551</ele>
        <time>2014-05-13T08:43:23.1Z</time>
      </trkpt>
      <trkpt lat="42.9058" lon="2.12033">
        <ele>551</ele>
        <time>2014-05-13T08:43:25.1Z</time>
      </trkpt>
      <trkpt lat="42.9058" lon="2.12036">
        <ele>551</ele>
        <time>2014-05-13T08:43:28.1Z</time>
      </trkpt>
      <trkpt lat="42.90581" lon="2.1204">
        <ele>550</ele>
        <time>2014-05-13T08:43:31.1Z</time>
      </trkpt>
      <trkpt lat="42.9058" lon="2.12042">
        <ele>550</ele>
        <time>2014-05-13T08:43:34.1Z</time>
      </trkpt>
      <trkpt lat="42.90582" lon="2.12044">
        <ele>549</ele>
        <time>2014-05-13T08:43:36.1Z</time>
      </trkpt>
      <trkpt lat="42.90582" lon="2.12045">
        <ele>549</ele>
        <time>2014-05-13T08:43:38.1Z</time>
      </trkpt>
      <trkpt lat="42.90584" lon="2.12047">
        <ele>549</ele>
        <time>2014-05-13T08:43:41.1Z</time>
      </trkpt>
      <trkpt lat="42.90585" lon="2.12047">
        <ele>549</ele>
        <time>2014-05-13T08:43:43.1Z</time>
      </trkpt>
      <trkpt lat="42.90586" lon="2.12047">
        <ele>549</ele>
        <time>2014-05-13T08:43:46.1Z</time>
      </trkpt>
      <trkpt lat="42.90587" lon="2.12048">
        <ele>549</ele>
        <time>2014-05-13T08:43:48.1Z</time>
      </trkpt>
      <trkpt lat="42.90589" lon="2.12047">
        <ele>549</ele>
        <time>2014-05-13T08:43:50.1Z</time>
      </trkpt>
      <trkpt lat="42.90592" lon="2.12048">
        <ele>549</ele>
        <time>2014-05-13T08:43:53.1Z</time>
      </trkpt>
      <trkpt lat="42.90594" lon="2.12049">
        <ele>549</ele>
        <time>2014-05-13T08:43:56.1Z</time>
      </trkpt>
      <trkpt lat="42.90596" lon="2.12051">
        <ele>549</ele>
        <time>2014-05-13T08:43:59.1Z</time>
      </trkpt>
      <trkpt lat="42.90598" lon="2.12052">
        <ele>548</ele>
        <time>2014-05-13T08:44:02.1Z</time>
      </trkpt>
      <trkpt lat="42.906" lon="2.12054">
        <ele>548</ele>
        <time>2014-05-13T08:44:05.1Z</time>
      </trkpt>
      <trkpt lat="42.90601" lon="2.12055">
        <ele>547</ele>
        <time>2014-05-13T08:44:08.1Z</time>
      </trkpt>
      <trkpt lat="42.90602" lon="2.12056">
        <ele>547</ele>
        <time>2014-05-13T08:44:10.1Z</time>
      </trkpt>
      <trkpt lat="42.90603" lon="2.12057">
        <ele>546</ele>
        <time>2014-05-13T08:44:13.1Z</time>
      </trkpt>
      <trkpt lat="42.90604" lon="2.12058">
        <ele>545</ele>
        <time>2014-05-13T08:44:15.1Z</time>
      </trkpt>
      <trkpt lat="42.90605" lon="2.1206">
        <ele>545</ele>
        <time>2014-05-13T08:44:18.1Z</time>
      </trkpt>
      <trkpt lat="42.90606" lon="2.12061">
        <ele>545</ele>
        <time>2014-05-13T08:44:20.1Z</time>
      </trkpt>
      <trkpt lat="42.90607" lon="2.12062">
        <ele>545</ele>
        <time>2014-05-13T08:44:23.1Z</time>
      </trkpt>
      <trkpt lat="42.90608" lon="2.12063">
        <ele>544</ele>
        <time>2014-05-13T08:44:25.1Z</time>
      </trkpt>
      <trkpt lat="42.90609" lon="2.12064">
        <ele>544</ele>
        <time>2014-05-13T08:44:27.1Z</time>
      </trkpt>
      <trkpt lat="42.90611" lon="2.12067">
        <ele>544</ele>
        <time>2014-05-13T08:44:30.1Z</time>
      </trkpt>
      <trkpt lat="42.90612" lon="2.12068">
        <ele>543</ele>
        <time>2014-05-13T08:44:32.1Z</time>
      </trkpt>
      <trkpt lat="42.90615" lon="2.12068">
        <ele>543</ele>
        <time>2014-05-13T08:44:35.1Z</time>
      </trkpt>
      <trkpt lat="42.90616" lon="2.12069">
        <ele>542</ele>
        <time>2014-05-13T08:44:37.1Z</time>
      </trkpt>
      <trkpt lat="42.90617" lon="2.12069">
        <ele>542</ele>
        <time>2014-05-13T08:44:39.1Z</time>
      </trkpt>
      <trkpt lat="42.9062" lon="2.1207">
        <ele>542</ele>
        <time>2014-05-13T08:44:42.1Z</time>
      </trkpt>
      <trkpt lat="42.90623" lon="2.1207">
        <ele>542</ele>
        <time>2014-05-13T08:44:45.1Z</time>
      </trkpt>
      <trkpt lat="42.90627" lon="2.1207">
        <ele>542</ele>
        <time>2014-05-13T08:44:48.1Z</time>
      </trkpt>
      <trkpt lat="42.90628" lon="2.1207">
        <ele>541</ele>
        <time>2014-05-13T08:44:50.1Z</time>
      </trkpt>
      <trkpt lat="42.90632" lon="2.12071">
        <ele>541</ele>
        <time>2014-05-13T08:44:53.1Z</time>
      </trkpt>
      <trkpt lat="42.90633" lon="2.12071">
        <ele>541</ele>
        <time>2014-05-13T08:44:56.1Z</time>
      </trkpt>
      <trkpt lat="42.90633" lon="2.12071">
        <ele>541</ele>
        <time>2014-05-13T08:44:58.1Z</time>
      </trkpt>
      <trkpt lat="42.90633" lon="2.12072">
        <ele>542</ele>
        <time>2014-05-13T08:45:01.1Z</time>
      </trkpt>
      <trkpt lat="42.90634" lon="2.12072">
        <ele>542</ele>
        <time>2014-05-13T08:45:03.1Z</time>
      </trkpt>
      <trkpt lat="42.90635" lon="2.12073">
        <ele>542</ele>
        <time>2014-05-13T08:45:06.1Z</time>
      </trkpt>
      <trkpt lat="42.90636" lon="2.12072">
        <ele>542</ele>
        <time>2014-05-13T08:45:09.1Z</time>
      </trkpt>
      <trkpt lat="42.90636" lon="2.12073">
        <ele>543</ele>
        <time>2014-05-13T08:45:11.1Z</time>
      </trkpt>
      <trkpt lat="42.90636" lon="2.12074">
        <ele>542</ele>
        <time>2014-05-13T08:45:14.1Z</time>
      </trkpt>
      <trkpt lat="42.90637" lon="2.12074">
        <ele>542</ele>
        <time>2014-05-13T08:45:16.1Z</time>
      </trkpt>
      <trkpt lat="42.90637" lon="2.12075">
        <ele>542</ele>
        <time>2014-05-13T08:45:19.1Z</time>
      </trkpt>
      <trkpt lat="42.90637" lon="2.12075">
        <ele>542</ele>
        <time>2014-05-13T08:45:21.1Z</time>
      </trkpt>
      <trkpt lat="42.90638" lon="2.12076">
        <ele>542</ele>
        <time>2014-05-13T08:45:24.1Z</time>
      </trkpt>
      <trkpt lat="42.90638" lon="2.12077">
        <ele>542</ele>
        <time>2014-05-13T08:45:27.1Z</time>
      </trkpt>
      <trkpt lat="42.90638" lon="2.12077">
        <ele>542</ele>
        <time>2014-05-13T08:45:29.1Z</time>
      </trkpt>
      <trkpt lat="42.90638" lon="2.12078">
        <ele>542</ele>
        <time>2014-05-13T08:45:32.1Z</time>
      </trkpt>
      <trkpt lat="42.90639" lon="2.12079">
        <ele>542</ele>
        <time>2014-05-13T08:45:34.1Z</time>
      </trkpt>
      <trkpt lat="42.9064" lon="2.1208">
        <ele>542</ele>
        <time>2014-05-13T08:45:37.1Z</time>
      </trkpt>
      <trkpt lat="42.90641" lon="2.1208">
        <ele>542</ele>
        <time>2014-05-13T08:45:39.1Z</time>
      </trkpt>
      <trkpt lat="42.90643" lon="2.12081">
        <ele>542</ele>
        <time>2014-05-13T08:45:41.1Z</time>
      </trkpt>
      <trkpt lat="42.90644" lon="2.12082">
        <ele>542</ele>
        <time>2014-05-13T08:45:44.1Z</time>
      </trkpt>
      <trkpt lat="42.90646" lon="2.12081">
        <ele>541</ele>
        <time>2014-05-13T08:45:47.1Z</time>
      </trkpt>
      <trkpt lat="42.90647" lon="2.12081">
        <ele>540</ele>
        <time>2014-05-13T08:45:50.1Z</time>
      </trkpt>
      <trkpt lat="42.90648" lon="2.12082">
        <ele>540</ele>
        <time>2014-05-13T08:45:53.1Z</time>
      </trkpt>
      <trkpt lat="42.90651" lon="2.12082">
        <ele>540</ele>
        <time>2014-05-13T08:45:56.1Z</time>
      </trkpt>
      <trkpt lat="42.90653" lon="2.12083">
        <ele>540</ele>
        <time>2014-05-13T08:45:58.1Z</time>
      </trkpt>
      <trkpt lat="42.90656" lon="2.12083">
        <ele>540</ele>
        <time>2014-05-13T08:46:01.1Z</time>
      </trkpt>
      <trkpt lat="42.90657" lon="2.12083">
        <ele>540</ele>
        <time>2014-05-13T08:46:03.1Z</time>
      </trkpt>
      <trkpt lat="42.90659" lon="2.12084">
        <ele>540</ele>
        <time>2014-05-13T08:46:06.1Z</time>
      </trkpt>
      <trkpt lat="42.90662" lon="2.12084">
        <ele>540</ele>
        <time>2014-05-13T08:46:09.1Z</time>
      </trkpt>
      <trkpt lat="42.90664" lon="2.12082">
        <ele>539</ele>
        <time>2014-05-13T08:46:12.1Z</time>
      </trkpt>
      <trkpt lat="42.90665" lon="2.12082">
        <ele>539</ele>
        <time>2014-05-13T08:46:14.1Z</time>
      </trkpt>
      <trkpt lat="42.90668" lon="2.12083">
        <ele>539</ele>
        <time>2014-05-13T08:46:17.1Z</time>
      </trkpt>
      <trkpt lat="42.9067" lon="2.12083">
        <ele>538</ele>
        <time>2014-05-13T08:46:19.1Z</time>
      </trkpt>
      <trkpt lat="42.90673" lon="2.12083">
        <ele>538</ele>
        <time>2014-05-13T08:46:22.1Z</time>
      </trkpt>
      <trkpt lat="42.90675" lon="2.12082">
        <ele>538</ele>
        <time>2014-05-13T08:46:25.1Z</time>
      </trkpt>
      <trkpt lat="42.90677" lon="2.12082">
        <ele>538</ele>
        <time>2014-05-13T08:46:27.1Z</time>
      </trkpt>
      <trkpt lat="42.90679" lon="2.12083">
        <ele>538</ele>
        <time>2014-05-13T08:46:30.1Z</time>
      </trkpt>
      <trkpt lat="42.90681" lon="2.12081">
        <ele>538</ele>
        <time>2014-05-13T08:46:33.1Z</time>
      </trkpt>
      <trkpt lat="42.90684" lon="2.12081">
        <ele>538</ele>
        <time>2014-05-13T08:46:36.1Z</time>
      </trkpt>
      <trkpt lat="42.90687" lon="2.12081">
        <ele>538</ele>
        <time>2014-05-13T08:46:39.1Z</time>
      </trkpt>
      <trkpt lat="42.90689" lon="2.12082">
        <ele>538</ele>
        <time>2014-05-13T08:46:41.1Z</time>
      </trkpt>
      <trkpt lat="42.90691" lon="2.12082">
        <ele>538</ele>
        <time>2014-05-13T08:46:43.1Z</time>
      </trkpt>
      <trkpt lat="42.90693" lon="2.12082">
        <ele>538</ele>
        <time>2014-05-13T08:46:46.1Z</time>
      </trkpt>
      <trkpt lat="42.90694" lon="2.12081">
        <ele>538</ele>
        <time>2014-05-13T08:46:48.1Z</time>
      </trkpt>
      <trkpt lat="42.90697" lon="2.12081">
        <ele>538</ele>
        <time>2014-05-13T08:46:51.1Z</time>
      </trkpt>
      <trkpt lat="42.90699" lon="2.12081">
        <ele>538</ele>
        <time>2014-05-13T08:46:53.1Z</time>
      </trkpt>
      <trkpt lat="42.90701" lon="2.12082">
        <ele>537</ele>
        <time>2014-05-13T08:46:56.1Z</time>
      </trkpt>
      <trkpt lat="42.90704" lon="2.12083">
        <ele>537</ele>
        <time>2014-05-13T08:46:59.1Z</time>
      </trkpt>
      <trkpt lat="42.90706" lon="2.12084">
        <ele>537</ele>
        <time>2014-05-13T08:47:01.1Z</time>
      </trkpt>
      <trkpt lat="42.90709" lon="2.12084">
        <ele>536</ele>
        <time>2014-05-13T08:47:04.1Z</time>
      </trkpt>
      <trkpt lat="42.90711" lon="2.12085">
        <ele>536</ele>
        <time>2014-05-13T08:47:06.1Z</time>
      </trkpt>
      <trkpt lat="42.90715" lon="2.12084">
        <ele>537</ele>
        <time>2014-05-13T08:47:09.1Z</time>
      </trkpt>
      <trkpt lat="42.90717" lon="2.12084">
        <ele>536</ele>
        <time>2014-05-13T08:47:12.1Z</time>
      </trkpt>
      <trkpt lat="42.9072" lon="2.12083">
        <ele>536</ele>
        <time>2014-05-13T08:47:15.1Z</time>
      </trkpt>
      <trkpt lat="42.90722" lon="2.12082">
        <ele>536</ele>
        <time>2014-05-13T08:47:17.1Z</time>
      </trkpt>
      <trkpt lat="42.90724" lon="2.12082">
        <ele>536</ele>
        <time>2014-05-13T08:47:20.1Z</time>
      </trkpt>
      <trkpt lat="42.90727" lon="2.12081">
        <ele>536</ele>
        <time>2014-05-13T08:47:23.1Z</time>
      </trkpt>
      <trkpt lat="42.9073" lon="2.12082">
        <ele>536</ele>
        <time>2014-05-13T08:47:26.1Z</time>
      </trkpt>
      <trkpt lat="42.90733" lon="2.12081">
        <ele>536</ele>
        <time>2014-05-13T08:47:28.1Z</time>
      </trkpt>
      <trkpt lat="42.90736" lon="2.12079">
        <ele>535</ele>
        <time>2014-05-13T08:47:31.1Z</time>
      </trkpt>
      <trkpt lat="42.90741" lon="2.12076">
        <ele>535</ele>
        <time>2014-05-13T08:47:34.1Z</time>
      </trkpt>
      <trkpt lat="42.90744" lon="2.12075">
        <ele>535</ele>
        <time>2014-05-13T08:47:37.1Z</time>
      </trkpt>
      <trkpt lat="42.90746" lon="2.12073">
        <ele>535</ele>
        <time>2014-05-13T08:47:40.1Z</time>
      </trkpt>
      <trkpt lat="42.90747" lon="2.12072">
        <ele>534</ele>
        <time>2014-05-13T08:47:42.1Z</time>
      </trkpt>
      <trkpt lat="42.90749" lon="2.12071">
        <ele>534</ele>
        <time>2014-05-13T08:47:44.1Z</time>
      </trkpt>
      <trkpt lat="42.90752" lon="2.1207">
        <ele>534</ele>
        <time>2014-05-13T08:47:47.1Z</time>
      </trkpt>
      <trkpt lat="42.90754" lon="2.12068">
        <ele>534</ele>
        <time>2014-05-13T08:47:50.1Z</time>
      </trkpt>
      <trkpt lat="42.90756" lon="2.12067">
        <ele>534</ele>
        <time>2014-05-13T08:47:52.1Z</time>
      </trkpt>
      <trkpt lat="42.90758" lon="2.12067">
        <ele>533</ele>
        <time>2014-05-13T08:47:55.1Z</time>
      </trkpt>
      <trkpt lat="42.90759" lon="2.12067">
        <ele>533</ele>
        <time>2014-05-13T08:47:58.1Z</time>
      </trkpt>
      <trkpt lat="42.90761" lon="2.12068">
        <ele>533</ele>
        <time>2014-05-13T08:48:01.1Z</time>
      </trkpt>
      <trkpt lat="42.90762" lon="2.12068">
        <ele>533</ele>
        <time>2014-05-13T08:48:04.1Z</time>
      </trkpt>
      <trkpt lat="42.90762" lon="2.12065">
        <ele>533</ele>
        <time>2014-05-13T08:48:07.1Z</time>
      </trkpt>
      <trkpt lat="42.90762" lon="2.12064">
        <ele>533</ele>
        <time>2014-05-13T08:48:10.1Z</time>
      </trkpt>
      <trkpt lat="42.90763" lon="2.12065">
        <ele>533</ele>
        <time>2014-05-13T08:48:12.1Z</time>
      </trkpt>
      <trkpt lat="42.90762" lon="2.12063">
        <ele>533</ele>
        <time>2014-05-13T08:48:15.1Z</time>
      </trkpt>
      <trkpt lat="42.90763" lon="2.12063">
        <ele>533</ele>
        <time>2014-05-13T08:48:17.1Z</time>
      </trkpt>
      <trkpt lat="42.90763" lon="2.12063">
        <ele>533</ele>
        <time>2014-05-13T08:48:19.1Z</time>
      </trkpt>
      <trkpt lat="42.90764" lon="2.12063">
        <ele>533</ele>
        <time>2014-05-13T08:48:22.1Z</time>
      </trkpt>
      <trkpt lat="42.90765" lon="2.12064">
        <ele>533</ele>
        <time>2014-05-13T08:48:24.1Z</time>
      </trkpt>
      <trkpt lat="42.90767" lon="2.12065">
        <ele>533</ele>
        <time>2014-05-13T08:48:26.1Z</time>
      </trkpt>
      <trkpt lat="42.90769" lon="2.12066">
        <ele>533</ele>
        <time>2014-05-13T08:48:29.1Z</time>
      </trkpt>
      <trkpt lat="42.90771" lon="2.12068">
        <ele>532</ele>
        <time>2014-05-13T08:48:32.1Z</time>
      </trkpt>
      <trkpt lat="42.90772" lon="2.1207">
        <ele>531</ele>
        <time>2014-05-13T08:48:35.1Z</time>
      </trkpt>
      <trkpt lat="42.90773" lon="2.12072">
        <ele>531</ele>
        <time>2014-05-13T08:48:38.1Z</time>
      </trkpt>
      <trkpt lat="42.90773" lon="2.12074">
        <ele>531</ele>
        <time>2014-05-13T08:48:40.1Z</time>
      </trkpt>
      <trkpt lat="42.90776" lon="2.12076">
        <ele>531</ele>
        <time>2014-05-13T08:48:43.1Z</time>
      </trkpt>
      <trkpt lat="42.90777" lon="2.12079">
        <ele>530</ele>
        <time>2014-05-13T08:48:46.1Z</time>
      </trkpt>
      <trkpt lat="42.90779" lon="2.1208">
        <ele>529</ele>
        <time>2014-05-13T08:48:49.1Z</time>
      </trkpt>
      <trkpt lat="42.90781" lon="2.1208">
        <ele>529</ele>
        <time>2014-05-13T08:48:52.1Z</time>
      </trkpt>
      <trkpt lat="42.90782" lon="2.1208">
        <ele>528</ele>
        <time>2014-05-13T08:48:55.1Z</time>
      </trkpt>
      <trkpt lat="42.90783" lon="2.12081">
        <ele>528</ele>
        <time>2014-05-13T08:48:58.1Z</time>
      </trkpt>
      <trkpt lat="42.90784" lon="2.12081">
        <ele>528</ele>
        <time>2014-05-13T08:49:02.1Z</time>
      </trkpt>
      <trkpt lat="42.90785" lon="2.12081">
        <ele>528</ele>
        <time>2014-05-13T08:49:05.1Z</time>
      </trkpt>
      <trkpt lat="42.90785" lon="2.12081">
        <ele>528</ele>
        <time>2014-05-13T08:49:07.1Z</time>
      </trkpt>
      <trkpt lat="42.90785" lon="2.12082">
        <ele>528</ele>
        <time>2014-05-13T08:49:10.1Z</time>
      </trkpt>
      <trkpt lat="42.90786" lon="2.12083">
        <ele>527</ele>
        <time>2014-05-13T08:49:12.1Z</time>
      </trkpt>
      <trkpt lat="42.90786" lon="2.12085">
        <ele>526</ele>
        <time>2014-05-13T08:49:15.1Z</time>
      </trkpt>
      <trkpt lat="42.90786" lon="2.12086">
        <ele>526</ele>
        <time>2014-05-13T08:49:17.1Z</time>
      </trkpt>
      <trkpt lat="42.90786" lon="2.12086">
        <ele>526</ele>
        <time>2014-05-13T08:49:19.1Z</time>
      </trkpt>
      <trkpt lat="42.90787" lon="2.12086">
        <ele>526</ele>
        <time>2014-05-13T08:49:22.1Z</time>
      </trkpt>
      <trkpt lat="42.90787" lon="2.12086">
        <ele>526</ele>
        <time>2014-05-13T08:49:24.1Z</time>
      </trkpt>
      <trkpt lat="42.90789" lon="2.12086">
        <ele>526</ele>
        <time>2014-05-13T08:49:27.1Z</time>
      </trkpt>
      <trkpt lat="42.90789" lon="2.12087">
        <ele>526</ele>
        <time>2014-05-13T08:49:29.1Z</time>
      </trkpt>
      <trkpt lat="42.9079" lon="2.12087">
        <ele>526</ele>
        <time>2014-05-13T08:49:32.1Z</time>
      </trkpt>
      <trkpt lat="42.9079" lon="2.12087">
        <ele>526</ele>
        <time>2014-05-13T08:49:35.1Z</time>
      </trkpt>
      <trkpt lat="42.90791" lon="2.12088">
        <ele>525</ele>
        <time>2014-05-13T08:49:38.1Z</time>
      </trkpt>
      <trkpt lat="42.90791" lon="2.12088">
        <ele>525</ele>
        <time>2014-05-13T08:49:40.1Z</time>
      </trkpt>
      <trkpt lat="42.90792" lon="2.12089">
        <ele>525</ele>
        <time>2014-05-13T08:49:42.1Z</time>
      </trkpt>
      <trkpt lat="42.90792" lon="2.12091">
        <ele>525</ele>
        <time>2014-05-13T08:49:45.1Z</time>
      </trkpt>
      <trkpt lat="42.90792" lon="2.12092">
        <ele>524</ele>
        <time>2014-05-13T08:49:48.1Z</time>
      </trkpt>
      <trkpt lat="42.90791" lon="2.12094">
        <ele>523</ele>
        <time>2014-05-13T08:49:51.1Z</time>
      </trkpt>
      <trkpt lat="42.9079" lon="2.12095">
        <ele>523</ele>
        <time>2014-05-13T08:49:54.1Z</time>
      </trkpt>
      <trkpt lat="42.9079" lon="2.12098">
        <ele>524</ele>
        <time>2014-05-13T08:49:57.1Z</time>
      </trkpt>
      <trkpt lat="42.9079" lon="2.121">
        <ele>524</ele>
        <time>2014-05-13T08:50:00.1Z</time>
      </trkpt>
      <trkpt lat="42.9079" lon="2.12101">
        <ele>524</ele>
        <time>2014-05-13T08:50:02.1Z</time>
      </trkpt>
      <trkpt lat="42.90789" lon="2.12104">
        <ele>523</ele>
        <time>2014-05-13T08:50:05.1Z</time>
      </trkpt>
      <trkpt lat="42.9079" lon="2.12105">
        <ele>523</ele>
        <time>2014-05-13T08:50:07.1Z</time>
      </trkpt>
      <trkpt lat="42.9079" lon="2.12107">
        <ele>523</ele>
        <time>2014-05-13T08:50:10.1Z</time>
      </trkpt>
      <trkpt lat="42.9079" lon="2.12108">
        <ele>523</ele>
        <time>2014-05-13T08:50:12.1Z</time>
      </trkpt>
      <trkpt lat="42.9079" lon="2.12109">
        <ele>524</ele>
        <time>2014-05-13T08:50:15.1Z</time>
      </trkpt>
      <trkpt lat="42.90789" lon="2.12111">
        <ele>524</ele>
        <time>2014-05-13T08:50:18.1Z</time>
      </trkpt>
      <trkpt lat="42.90789" lon="2.12112">
        <ele>524</ele>
        <time>2014-05-13T08:50:20.1Z</time>
      </trkpt>
      <trkpt lat="42.90789" lon="2.12112">
        <ele>524</ele>
        <time>2014-05-13T08:50:23.1Z</time>
      </trkpt>
      <trkpt lat="42.90789" lon="2.12113">
        <ele>524</ele>
        <time>2014-05-13T08:50:25.1Z</time>
      </trkpt>
      <trkpt lat="42.90789" lon="2.12113">
        <ele>523</ele>
        <time>2014-05-13T08:50:28.1Z</time>
      </trkpt>
      <trkpt lat="42.90791" lon="2.12114">
        <ele>522</ele>
        <time>2014-05-13T08:50:31.1Z</time>
      </trkpt>
      <trkpt lat="42.9079" lon="2.12114">
        <ele>522</ele>
        <time>2014-05-13T08:50:34.1Z</time>
      </trkpt>
      <trkpt lat="42.9079" lon="2.12113">
        <ele>522</ele>
        <time>2014-05-13T08:50:37.1Z</time>
      </trkpt>
      <trkpt lat="42.9079" lon="2.12112">
        <ele>523</ele>
        <time>2014-05-13T08:50:39.1Z</time>
      </trkpt>
      <trkpt lat="42.90789" lon="2.12111">
        <ele>523</ele>
        <time>2014-05-13T08:50:42.1Z</time>
      </trkpt>
      <trkpt lat="42.90789" lon="2.12111">
        <ele>523</ele>
        <time>2014-05-13T08:50:44.1Z</time>
      </trkpt>
      <trkpt lat="42.90788" lon="2.12112">
        <ele>522</ele>
        <time>2014-05-13T08:50:47.1Z</time>
      </trkpt>
      <trkpt lat="42.90786" lon="2.12112">
        <ele>522</ele>
        <time>2014-05-13T08:50:49.1Z</time>
      </trkpt>
      <trkpt lat="42.90784" lon="2.12112">
        <ele>522</ele>
        <time>2014-05-13T08:50:52.1Z</time>
      </trkpt>
      <trkpt lat="42.90784" lon="2.12113">
        <ele>522</ele>
        <time>2014-05-13T08:50:54.1Z</time>
      </trkpt>
      <trkpt lat="42.90783" lon="2.12114">
        <ele>523</ele>
        <time>2014-05-13T08:50:56.1Z</time>
      </trkpt>
      <trkpt lat="42.90783" lon="2.12113">
        <ele>523</ele>
        <time>2014-05-13T08:50:59.1Z</time>
      </trkpt>
      <trkpt lat="42.90783" lon="2.12113">
        <ele>523</ele>
        <time>2014-05-13T08:51:01.1Z</time>
      </trkpt>
      <trkpt lat="42.90783" lon="2.12111">
        <ele>523</ele>
        <time>2014-05-13T08:51:04.1Z</time>
      </trkpt>
      <trkpt lat="42.90783" lon="2.1211">
        <ele>522</ele>
        <time>2014-05-13T08:51:07.1Z</time>
      </trkpt>
      <trkpt lat="42.90783" lon="2.12109">
        <ele>522</ele>
        <time>2014-05-13T08:51:10.1Z</time>
      </trkpt>
      <trkpt lat="42.90783" lon="2.12107">
        <ele>522</ele>
        <time>2014-05-13T08:51:13.1Z</time>
      </trkpt>
      <trkpt lat="42.90783" lon="2.12106">
        <ele>522</ele>
        <time>2014-05-13T08:51:15.1Z</time>
      </trkpt>
      <trkpt lat="42.90783" lon="2.12105">
        <ele>522</ele>
        <time>2014-05-13T08:51:18.1Z</time>
      </trkpt>
      <trkpt lat="42.90783" lon="2.12105">
        <ele>523</ele>
        <time>2014-05-13T08:51:20.1Z</time>
      </trkpt>
      <trkpt lat="42.90783" lon="2.12103">
        <ele>523</ele>
        <time>2014-05-13T08:51:23.1Z</time>
      </trkpt>
      <trkpt lat="42.90783" lon="2.12103">
        <ele>523</ele>
        <time>2014-05-13T08:51:25.1Z</time>
      </trkpt>
      <trkpt lat="42.90782" lon="2.12102">
        <ele>523</ele>
        <time>2014-05-13T08:51:28.1Z</time>
      </trkpt>
      <trkpt lat="42.90782" lon="2.12101">
        <ele>523</ele>
        <time>2014-05-13T08:51:30.1Z</time>
      </trkpt>
      <trkpt lat="42.90781" lon="2.121">
        <ele>522</ele>
        <time>2014-05-13T08:51:32.1Z</time>
      </trkpt>
      <trkpt lat="42.90781" lon="2.12098">
        <ele>522</ele>
        <time>2014-05-13T08:51:35.1Z</time>
      </trkpt>
      <trkpt lat="42.9078" lon="2.12096">
        <ele>522</ele>
        <time>2014-05-13T08:51:38.1Z</time>
      </trkpt>
      <trkpt lat="42.9078" lon="2.12095">
        <ele>522</ele>
        <time>2014-05-13T08:51:41.1Z</time>
      </trkpt>
      <trkpt lat="42.9078" lon="2.12095">
        <ele>523</ele>
        <time>2014-05-13T08:51:43.1Z</time>
      </trkpt>
      <trkpt lat="42.9078" lon="2.12095">
        <ele>523</ele>
        <time>2014-05-13T08:51:47.1Z</time>
      </trkpt>
      <trkpt lat="42.90779" lon="2.12096">
        <ele>522</ele>
        <time>2014-05-13T08:51:50.1Z</time>
      </trkpt>
      <trkpt lat="42.90779" lon="2.12096">
        <ele>522</ele>
        <time>2014-05-13T08:51:53.1Z</time>
      </trkpt>
      <trkpt lat="42.90779" lon="2.12097">
        <ele>522</ele>
        <time>2014-05-13T08:51:56.1Z</time>
      </trkpt>
      <trkpt lat="42.90778" lon="2.12099">
        <ele>522</ele>
        <time>2014-05-13T08:51:59.1Z</time>
      </trkpt>
      <trkpt lat="42.90778" lon="2.12099">
        <ele>521</ele>
        <time>2014-05-13T08:52:01.1Z</time>
      </trkpt>
      <trkpt lat="42.90778" lon="2.121">
        <ele>521</ele>
        <time>2014-05-13T08:52:04.1Z</time>
      </trkpt>
      <trkpt lat="42.90778" lon="2.121">
        <ele>522</ele>
        <time>2014-05-13T08:52:06.1Z</time>
      </trkpt>
      <trkpt lat="42.90777" lon="2.121">
        <ele>522</ele>
        <time>2014-05-13T08:52:09.1Z</time>
      </trkpt>
      <trkpt lat="42.90775" lon="2.12101">
        <ele>522</ele>
        <time>2014-05-13T08:52:12.1Z</time>
      </trkpt>
      <trkpt lat="42.90775" lon="2.12102">
        <ele>522</ele>
        <time>2014-05-13T08:52:14.1Z</time>
      </trkpt>
      <trkpt lat="42.90776" lon="2.12102">
        <ele>522</ele>
        <time>2014-05-13T08:52:17.1Z</time>
      </trkpt>
      <trkpt lat="42.90776" lon="2.12102">
        <ele>522</ele>
        <time>2014-05-13T08:52:19.1Z</time>
      </trkpt>
      <trkpt lat="42.90777" lon="2.12103">
        <ele>522</ele>
        <time>2014-05-13T08:52:21.1Z</time>
      </trkpt>
      <trkpt lat="42.90778" lon="2.12103">
        <ele>522</ele>
        <time>2014-05-13T08:52:24.1Z</time>
      </trkpt>
      <trkpt lat="42.90777" lon="2.12104">
        <ele>522</ele>
        <time>2014-05-13T08:52:26.1Z</time>
      </trkpt>
      <trkpt lat="42.90776" lon="2.12105">
        <ele>522</ele>
        <time>2014-05-13T08:52:29.1Z</time>
      </trkpt>
      <trkpt lat="42.90775" lon="2.12106">
        <ele>521</ele>
        <time>2014-05-13T08:52:31.1Z</time>
      </trkpt>
      <trkpt lat="42.90774" lon="2.12107">
        <ele>521</ele>
        <time>2014-05-13T08:52:33.1Z</time>
      </trkpt>
      <trkpt lat="42.90773" lon="2.12107">
        <ele>521</ele>
        <time>2014-05-13T08:52:35.1Z</time>
      </trkpt>
      <trkpt lat="42.90773" lon="2.12107">
        <ele>521</ele>
        <time>2014-05-13T08:52:38.1Z</time>
      </trkpt>
      <trkpt lat="42.90774" lon="2.12108">
        <ele>521</ele>
        <time>2014-05-13T08:52:40.1Z</time>
      </trkpt>
      <trkpt lat="42.90774" lon="2.12107">
        <ele>521</ele>
        <time>2014-05-13T08:52:43.1Z</time>
      </trkpt>
      <trkpt lat="42.90774" lon="2.12107">
        <ele>521</ele>
        <time>2014-05-13T08:52:45.1Z</time>
      </trkpt>
      <trkpt lat="42.90775" lon="2.12107">
        <ele>521</ele>
        <time>2014-05-13T08:52:49.1Z</time>
      </trkpt>
      <trkpt lat="42.90776" lon="2.12109">
        <ele>521</ele>
        <time>2014-05-13T08:52:52.1Z</time>
      </trkpt>
      <trkpt lat="42.90776" lon="2.12111">
        <ele>520</ele>
        <time>2014-05-13T08:52:55.1Z</time>
      </trkpt>
      <trkpt lat="42.90776" lon="2.12113">
        <ele>519</ele>
        <time>2014-05-13T08:52:57.1Z</time>
      </trkpt>
      <trkpt lat="42.90777" lon="2.12114">
        <ele>519</ele>
        <time>2014-05-13T08:53:00.1Z</time>
      </trkpt>
      <trkpt lat="42.90779" lon="2.12113">
        <ele>518</ele>
        <time>2014-05-13T08:53:03.1Z</time>
      </trkpt>
      <trkpt lat="42.90779" lon="2.12113">
        <ele>518</ele>
        <time>2014-05-13T08:53:05.1Z</time>
      </trkpt>
      <trkpt lat="42.9078" lon="2.12111">
        <ele>517</ele>
        <time>2014-05-13T08:53:08.1Z</time>
      </trkpt>
      <trkpt lat="42.90781" lon="2.12111">
        <ele>517</ele>
        <time>2014-05-13T08:53:10.1Z</time>
      </trkpt>
      <trkpt lat="42.90783" lon="2.12112">
        <ele>517</ele>
        <time>2014-05-13T08:53:13.1Z</time>
      </trkpt>
      <trkpt lat="42.90786" lon="2.12112">
        <ele>516</ele>
        <time>2014-05-13T08:53:16.1Z</time>
      </trkpt>
      <trkpt lat="42.90787" lon="2.12111">
        <ele>516</ele>
        <time>2014-05-13T08:53:18.1Z</time>
      </trkpt>
      <trkpt lat="42.90788" lon="2.12112">
        <ele>515</ele>
        <time>2014-05-13T08:53:20.1Z</time>
      </trkpt>
      <trkpt lat="42.90791" lon="2.12113">
        <ele>515</ele>
        <time>2014-05-13T08:53:22.1Z</time>
      </trkpt>
      <trkpt lat="42.90794" lon="2.12113">
        <ele>514</ele>
        <time>2014-05-13T08:53:25.1Z</time>
      </trkpt>
      <trkpt lat="42.90796" lon="2.12113">
        <ele>513</ele>
        <time>2014-05-13T08:53:28.1Z</time>
      </trkpt>
      <trkpt lat="42.90798" lon="2.12113">
        <ele>513</ele>
        <time>2014-05-13T08:53:30.1Z</time>
      </trkpt>
      <trkpt lat="42.908" lon="2.12112">
        <ele>512</ele>
        <time>2014-05-13T08:53:33.1Z</time>
      </trkpt>
      <trkpt lat="42.90803" lon="2.1211">
        <ele>512</ele>
        <time>2014-05-13T08:53:36.1Z</time>
      </trkpt>
      <trkpt lat="42.90805" lon="2.12109">
        <ele>511</ele>
        <time>2014-05-13T08:53:39.1Z</time>
      </trkpt>
      <trkpt lat="42.90807" lon="2.12108">
        <ele>511</ele>
        <time>2014-05-13T08:53:41.1Z</time>
      </trkpt>
      <trkpt lat="42.90808" lon="2.12106">
        <ele>511</ele>
        <time>2014-05-13T08:53:44.1Z</time>
      </trkpt>
      <trkpt lat="42.9081" lon="2.12106">
        <ele>511</ele>
        <time>2014-05-13T08:53:46.1Z</time>
      </trkpt>
      <trkpt lat="42.90813" lon="2.12105">
        <ele>510</ele>
        <time>2014-05-13T08:53:49.1Z</time>
      </trkpt>
      <trkpt lat="42.90814" lon="2.12105">
        <ele>510</ele>
        <time>2014-05-13T08:53:51.1Z</time>
      </trkpt>
      <trkpt lat="42.90816" lon="2.12104">
        <ele>509</ele>
        <time>2014-05-13T08:53:54.1Z</time>
      </trkpt>
      <trkpt lat="42.90817" lon="2.12104">
        <ele>509</ele>
        <time>2014-05-13T08:53:56.1Z</time>
      </trkpt>
      <trkpt lat="42.90819" lon="2.12103">
        <ele>509</ele>
        <time>2014-05-13T08:53:59.1Z</time>
      </trkpt>
      <trkpt lat="42.90821" lon="2.12101">
        <ele>510</ele>
        <time>2014-05-13T08:54:01.1Z</time>
      </trkpt>
      <trkpt lat="42.90823" lon="2.121">
        <ele>510</ele>
        <time>2014-05-13T08:54:04.1Z</time>
      </trkpt>
      <trkpt lat="42.90824" lon="2.12099">
        <ele>509</ele>
        <time>2014-05-13T08:54:06.1Z</time>
      </trkpt>
      <trkpt lat="42.90825" lon="2.12099">
        <ele>510</ele>
        <time>2014-05-13T08:54:09.1Z</time>
      </trkpt>
      <trkpt lat="42.90825" lon="2.12098">
        <ele>509</ele>
        <time>2014-05-13T08:54:12.1Z</time>
      </trkpt>
      <trkpt lat="42.90827" lon="2.12098">
        <ele>509</ele>
        <time>2014-05-13T08:54:15.1Z</time>
      </trkpt>
      <trkpt lat="42.90828" lon="2.12097">
        <ele>509</ele>
        <time>2014-05-13T08:54:18.1Z</time>
      </trkpt>
      <trkpt lat="42.90829" lon="2.12096">
        <ele>508</ele>
        <time>2014-05-13T08:54:20.1Z</time>
      </trkpt>
      <trkpt lat="42.90831" lon="2.12095">
        <ele>508</ele>
        <time>2014-05-13T08:54:22.1Z</time>
      </trkpt>
      <trkpt lat="42.90833" lon="2.12093">
        <ele>507</ele>
        <time>2014-05-13T08:54:25.1Z</time>
      </trkpt>
      <trkpt lat="42.90836" lon="2.12091">
        <ele>507</ele>
        <time>2014-05-13T08:54:28.1Z</time>
      </trkpt>
      <trkpt lat="42.90838" lon="2.12089">
        <ele>506</ele>
        <time>2014-05-13T08:54:30.1Z</time>
      </trkpt>
      <trkpt lat="42.90839" lon="2.12087">
        <ele>506</ele>
        <time>2014-05-13T08:54:33.1Z</time>
      </trkpt>
      <trkpt lat="42.90839" lon="2.12086">
        <ele>506</ele>
        <time>2014-05-13T08:54:36.1Z</time>
      </trkpt>
      <trkpt lat="42.90839" lon="2.12084">
        <ele>506</ele>
        <time>2014-05-13T08:54:39.1Z</time>
      </trkpt>
      <trkpt lat="42.90841" lon="2.12082">
        <ele>505</ele>
        <time>2014-05-13T08:54:42.1Z</time>
      </trkpt>
      <trkpt lat="42.90842" lon="2.12081">
        <ele>505</ele>
        <time>2014-05-13T08:54:44.1Z</time>
      </trkpt>
      <trkpt lat="42.90843" lon="2.12079">
        <ele>505</ele>
        <time>2014-05-13T08:54:47.1Z</time>
      </trkpt>
      <trkpt lat="42.90844" lon="2.12078">
        <ele>504</ele>
        <time>2014-05-13T08:54:50.1Z</time>
      </trkpt>
      <trkpt lat="42.90846" lon="2.12076">
        <ele>504</ele>
        <time>2014-05-13T08:54:52.1Z</time>
      </trkpt>
      <trkpt lat="42.90847" lon="2.12076">
        <ele>503</ele>
        <time>2014-05-13T08:54:55.1Z</time>
      </trkpt>
      <trkpt lat="42.90848" lon="2.12074">
        <ele>503</ele>
        <time>2014-05-13T08:54:58.1Z</time>
      </trkpt>
      <trkpt lat="42.9085" lon="2.12073">
        <ele>503</ele>
        <time>2014-05-13T08:55:01.1Z</time>
      </trkpt>
      <trkpt lat="42.90854" lon="2.12073">
        <ele>502</ele>
        <time>2014-05-13T08:55:04.1Z</time>
      </trkpt>
      <trkpt lat="42.90855" lon="2.12074">
        <ele>501</ele>
        <time>2014-05-13T08:55:07.1Z</time>
      </trkpt>
      <trkpt lat="42.90856" lon="2.12075">
        <ele>501</ele>
        <time>2014-05-13T08:55:09.1Z</time>
      </trkpt>
      <trkpt lat="42.90858" lon="2.12075">
        <ele>501</ele>
        <time>2014-05-13T08:55:12.1Z</time>
      </trkpt>
      <trkpt lat="42.90859" lon="2.12075">
        <ele>501</ele>
        <time>2014-05-13T08:55:14.1Z</time>
      </trkpt>
      <trkpt lat="42.90861" lon="2.12074">
        <ele>501</ele>
        <time>2014-05-13T08:55:17.1Z</time>
      </trkpt>
      <trkpt lat="42.90863" lon="2.12073">
        <ele>500</ele>
        <time>2014-05-13T08:55:19.1Z</time>
      </trkpt>
      <trkpt lat="42.90864" lon="2.12072">
        <ele>500</ele>
        <time>2014-05-13T08:55:22.1Z</time>
      </trkpt>
      <trkpt lat="42.90866" lon="2.1207">
        <ele>500</ele>
        <time>2014-05-13T08:55:25.1Z</time>
      </trkpt>
      <trkpt lat="42.90868" lon="2.12068">
        <ele>499</ele>
        <time>2014-05-13T08:55:28.1Z</time>
      </trkpt>
      <trkpt lat="42.9087" lon="2.12066">
        <ele>499</ele>
        <time>2014-05-13T08:55:30.1Z</time>
      </trkpt>
      <trkpt lat="42.9087" lon="2.12065">
        <ele>499</ele>
        <time>2014-05-13T08:55:32.1Z</time>
      </trkpt>
      <trkpt lat="42.90871" lon="2.12062">
        <ele>498</ele>
        <time>2014-05-13T08:55:35.1Z</time>
      </trkpt>
      <trkpt lat="42.90872" lon="2.12059">
        <ele>498</ele>
        <time>2014-05-13T08:55:37.1Z</time>
      </trkpt>
      <trkpt lat="42.90873" lon="2.12058">
        <ele>498</ele>
        <time>2014-05-13T08:55:39.1Z</time>
      </trkpt>
      <trkpt lat="42.90875" lon="2.12055">
        <ele>497</ele>
        <time>2014-05-13T08:55:42.1Z</time>
      </trkpt>
      <trkpt lat="42.90876" lon="2.12053">
        <ele>497</ele>
        <time>2014-05-13T08:55:45.1Z</time>
      </trkpt>
      <trkpt lat="42.90877" lon="2.1205">
        <ele>497</ele>
        <time>2014-05-13T08:55:48.1Z</time>
      </trkpt>
      <trkpt lat="42.90878" lon="2.12048">
        <ele>497</ele>
        <time>2014-05-13T08:55:51.1Z</time>
      </trkpt>
      <trkpt lat="42.90879" lon="2.12047">
        <ele>497</ele>
        <time>2014-05-13T08:55:53.1Z</time>
      </trkpt>
      <trkpt lat="42.90881" lon="2.12044">
        <ele>497</ele>
        <time>2014-05-13T08:55:56.1Z</time>
      </trkpt>
      <trkpt lat="42.90882" lon="2.12042">
        <ele>497</ele>
        <time>2014-05-13T08:55:59.1Z</time>
      </trkpt>
      <trkpt lat="42.90883" lon="2.12041">
        <ele>498</ele>
        <time>2014-05-13T08:56:01.1Z</time>
      </trkpt>
      <trkpt lat="42.90885" lon="2.12039">
        <ele>497</ele>
        <time>2014-05-13T08:56:04.1Z</time>
      </trkpt>
      <trkpt lat="42.90887" lon="2.12037">
        <ele>497</ele>
        <time>2014-05-13T08:56:07.1Z</time>
      </trkpt>
      <trkpt lat="42.90888" lon="2.12035">
        <ele>496</ele>
        <time>2014-05-13T08:56:10.1Z</time>
      </trkpt>
      <trkpt lat="42.90891" lon="2.12033">
        <ele>495</ele>
        <time>2014-05-13T08:56:13.1Z</time>
      </trkpt>
      <trkpt lat="42.90892" lon="2.12032">
        <ele>495</ele>
        <time>2014-05-13T08:56:15.1Z</time>
      </trkpt>
      <trkpt lat="42.90893" lon="2.12032">
        <ele>495</ele>
        <time>2014-05-13T08:56:17.1Z</time>
      </trkpt>
      <trkpt lat="42.90895" lon="2.12031">
        <ele>495</ele>
        <time>2014-05-13T08:56:20.1Z</time>
      </trkpt>
      <trkpt lat="42.90897" lon="2.1203">
        <ele>495</ele>
        <time>2014-05-13T08:56:23.1Z</time>
      </trkpt>
      <trkpt lat="42.90899" lon="2.1203">
        <ele>495</ele>
        <time>2014-05-13T08:56:25.1Z</time>
      </trkpt>
      <trkpt lat="42.909" lon="2.1203">
        <ele>495</ele>
        <time>2014-05-13T08:56:28.1Z</time>
      </trkpt>
      <trkpt lat="42.90902" lon="2.12029">
        <ele>495</ele>
        <time>2014-05-13T08:56:31.1Z</time>
      </trkpt>
      <trkpt lat="42.90903" lon="2.1203">
        <ele>495</ele>
        <time>2014-05-13T08:56:34.1Z</time>
      </trkpt>
      <trkpt lat="42.90903" lon="2.1203">
        <ele>495</ele>
        <time>2014-05-13T08:56:36.1Z</time>
      </trkpt>
      <trkpt lat="42.90903" lon="2.12029">
        <ele>495</ele>
        <time>2014-05-13T08:56:38.1Z</time>
      </trkpt>
      <trkpt lat="42.90904" lon="2.1203">
        <ele>495</ele>
        <time>2014-05-13T08:56:41.1Z</time>
      </trkpt>
      <trkpt lat="42.90906" lon="2.1203">
        <ele>495</ele>
        <time>2014-05-13T08:56:44.1Z</time>
      </trkpt>
      <trkpt lat="42.90907" lon="2.1203">
        <ele>495</ele>
        <time>2014-05-13T08:56:47.1Z</time>
      </trkpt>
      <trkpt lat="42.90908" lon="2.12029">
        <ele>495</ele>
        <time>2014-05-13T08:56:50.1Z</time>
      </trkpt>
      <trkpt lat="42.90909" lon="2.12029">
        <ele>495</ele>
        <time>2014-05-13T08:56:52.1Z</time>
      </trkpt>
      <trkpt lat="42.9091" lon="2.12029">
        <ele>495</ele>
        <time>2014-05-13T08:56:54.1Z</time>
      </trkpt>
      <trkpt lat="42.90911" lon="2.12029">
        <ele>495</ele>
        <time>2014-05-13T08:56:57.1Z</time>
      </trkpt>
      <trkpt lat="42.90912" lon="2.1203">
        <ele>495</ele>
        <time>2014-05-13T08:57:00.1Z</time>
      </trkpt>
      <trkpt lat="42.90912" lon="2.1203">
        <ele>495</ele>
        <time>2014-05-13T08:57:03.1Z</time>
      </trkpt>
      <trkpt lat="42.90912" lon="2.12031">
        <ele>495</ele>
        <time>2014-05-13T08:57:06.1Z</time>
      </trkpt>
      <trkpt lat="42.90912" lon="2.12031">
        <ele>495</ele>
        <time>2014-05-13T08:57:08.1Z</time>
      </trkpt>
      <trkpt lat="42.90912" lon="2.12031">
        <ele>495</ele>
        <time>2014-05-13T08:57:11.1Z</time>
      </trkpt>
      <trkpt lat="42.90912" lon="2.12032">
        <ele>495</ele>
        <time>2014-05-13T08:57:14.1Z</time>
      </trkpt>
      <trkpt lat="42.90912" lon="2.12032">
        <ele>495</ele>
        <time>2014-05-13T08:57:16.1Z</time>
      </trkpt>
      <trkpt lat="42.90912" lon="2.12032">
        <ele>495</ele>
        <time>2014-05-13T08:57:19.1Z</time>
      </trkpt>
      <trkpt lat="42.90912" lon="2.12032">
        <ele>495</ele>
        <time>2014-05-13T08:57:21.1Z</time>
      </trkpt>
      <trkpt lat="42.90912" lon="2.12034">
        <ele>495</ele>
        <time>2014-05-13T08:57:24.1Z</time>
      </trkpt>
      <trkpt lat="42.90912" lon="2.12034">
        <ele>495</ele>
        <time>2014-05-13T08:57:26.1Z</time>
      </trkpt>
      <trkpt lat="42.90912" lon="2.12035">
        <ele>495</ele>
        <time>2014-05-13T08:57:29.1Z</time>
      </trkpt>
      <trkpt lat="42.90912" lon="2.12035">
        <ele>495</ele>
        <time>2014-05-13T08:57:32.1Z</time>
      </trkpt>
      <trkpt lat="42.90912" lon="2.12035">
        <ele>496</ele>
        <time>2014-05-13T08:57:36.1Z</time>
      </trkpt>
      <trkpt lat="42.90912" lon="2.12035">
        <ele>496</ele>
        <time>2014-05-13T08:57:38.1Z</time>
      </trkpt>
      <trkpt lat="42.90911" lon="2.12036">
        <ele>496</ele>
        <time>2014-05-13T08:57:41.1Z</time>
      </trkpt>
      <trkpt lat="42.90911" lon="2.12036">
        <ele>496</ele>
        <time>2014-05-13T08:57:43.1Z</time>
      </trkpt>
      <trkpt lat="42.9091" lon="2.12035">
        <ele>495</ele>
        <time>2014-05-13T08:57:45.1Z</time>
      </trkpt>
      <trkpt lat="42.9091" lon="2.12035">
        <ele>495</ele>
        <time>2014-05-13T08:57:48.1Z</time>
      </trkpt>
      <trkpt lat="42.90909" lon="2.12035">
        <ele>495</ele>
        <time>2014-05-13T08:57:51.1Z</time>
      </trkpt>
      <trkpt lat="42.90909" lon="2.12035">
        <ele>495</ele>
        <time>2014-05-13T08:57:53.1Z</time>
      </trkpt>
      <trkpt lat="42.90909" lon="2.12034">
        <ele>495</ele>
        <time>2014-05-13T08:57:57.1Z</time>
      </trkpt>
      <trkpt lat="42.90909" lon="2.12035">
        <ele>495</ele>
        <time>2014-05-13T08:58:00.1Z</time>
      </trkpt>
      <trkpt lat="42.90908" lon="2.12035">
        <ele>494</ele>
        <time>2014-05-13T08:58:03.1Z</time>
      </trkpt>
      <trkpt lat="42.90908" lon="2.12035">
        <ele>495</ele>
        <time>2014-05-13T08:58:06.1Z</time>
      </trkpt>
      <trkpt lat="42.90908" lon="2.12035">
        <ele>495</ele>
        <time>2014-05-13T08:58:08.1Z</time>
      </trkpt>
      <trkpt lat="42.90908" lon="2.12035">
        <ele>495</ele>
        <time>2014-05-13T08:58:10.1Z</time>
      </trkpt>
      <trkpt lat="42.90908" lon="2.12034">
        <ele>495</ele>
        <time>2014-05-13T08:58:13.1Z</time>
      </trkpt>
      <trkpt lat="42.90908" lon="2.12034">
        <ele>494</ele>
        <time>2014-05-13T08:58:17.1Z</time>
      </trkpt>
      <trkpt lat="42.90908" lon="2.12034">
        <ele>495</ele>
        <time>2014-05-13T08:58:20.1Z</time>
      </trkpt>
      <trkpt lat="42.90908" lon="2.12034">
        <ele>495</ele>
        <time>2014-05-13T08:58:24.1Z</time>
      </trkpt>
      <trkpt lat="42.90908" lon="2.12034">
        <ele>494</ele>
        <time>2014-05-13T08:58:28.1Z</time>
      </trkpt>
      <trkpt lat="42.90908" lon="2.12033">
        <ele>495</ele>
        <time>2014-05-13T08:58:31.1Z</time>
      </trkpt>
      <trkpt lat="42.90908" lon="2.12033">
        <ele>495</ele>
        <time>2014-05-13T08:58:33.1Z</time>
      </trkpt>
      <trkpt lat="42.90909" lon="2.12033">
        <ele>494</ele>
        <time>2014-05-13T08:58:36.1Z</time>
      </trkpt>
      <trkpt lat="42.9091" lon="2.12033">
        <ele>494</ele>
        <time>2014-05-13T08:58:39.1Z</time>
      </trkpt>
      <trkpt lat="42.9091" lon="2.12034">
        <ele>494</ele>
        <time>2014-05-13T08:58:42.1Z</time>
      </trkpt>
      <trkpt lat="42.9091" lon="2.12033">
        <ele>495</ele>
        <time>2014-05-13T08:58:45.1Z</time>
      </trkpt>
      <trkpt lat="42.9091" lon="2.12033">
        <ele>495</ele>
        <time>2014-05-13T08:58:48.1Z</time>
      </trkpt>
      <trkpt lat="42.90911" lon="2.12033">
        <ele>495</ele>
        <time>2014-05-13T08:58:50.1Z</time>
      </trkpt>
      <trkpt lat="42.90911" lon="2.12033">
        <ele>495</ele>
        <time>2014-05-13T08:58:54.1Z</time>
      </trkpt>
      <trkpt lat="42.90911" lon="2.12033">
        <ele>494</ele>
        <time>2014-05-13T08:58:56.1Z</time>
      </trkpt>
      <trkpt lat="42.90911" lon="2.12033">
        <ele>495</ele>
        <time>2014-05-13T08:58:58.1Z</time>
      </trkpt>
      <trkpt lat="42.90911" lon="2.12033">
        <ele>495</ele>
        <time>2014-05-13T08:59:01.1Z</time>
      </trkpt>
      <trkpt lat="42.90911" lon="2.12033">
        <ele>495</ele>
        <time>2014-05-13T08:59:03.1Z</time>
      </trkpt>
      <trkpt lat="42.90911" lon="2.12033">
        <ele>495</ele>
        <time>2014-05-13T08:59:06.1Z</time>
      </trkpt>
      <trkpt lat="42.90911" lon="2.12033">
        <ele>495</ele>
        <time>2014-05-13T08:59:09.1Z</time>
      </trkpt>
      <trkpt lat="42.90911" lon="2.12033">
        <ele>495</ele>
        <time>2014-05-13T08:59:13.1Z</time>
      </trkpt>
      <trkpt lat="42.90911" lon="2.12033">
        <ele>495</ele>
        <time>2014-05-13T08:59:16.1Z</time>
      </trkpt>
      <trkpt lat="42.90911" lon="2.12033">
        <ele>495</ele>
        <time>2014-05-13T08:59:19.1Z</time>
      </trkpt>
      <trkpt lat="42.90912" lon="2.12033">
        <ele>495</ele>
        <time>2014-05-13T08:59:22.1Z</time>
      </trkpt>
      <trkpt lat="42.90912" lon="2.12034">
        <ele>495</ele>
        <time>2014-05-13T08:59:25.1Z</time>
      </trkpt>
      <trkpt lat="42.90912" lon="2.12034">
        <ele>494</ele>
        <time>2014-05-13T08:59:28.1Z</time>
      </trkpt>
      <trkpt lat="42.90912" lon="2.12034">
        <ele>494</ele>
        <time>2014-05-13T08:59:31.1Z</time>
      </trkpt>
      <trkpt lat="42.90912" lon="2.12035">
        <ele>494</ele>
        <time>2014-05-13T08:59:35.1Z</time>
      </trkpt>
      <trkpt lat="42.90912" lon="2.12035">
        <ele>494</ele>
        <time>2014-05-13T08:59:37.1Z</time>
      </trkpt>
      <trkpt lat="42.90913" lon="2.12035">
        <ele>494</ele>
        <time>2014-05-13T08:59:40.1Z</time>
      </trkpt>
      <trkpt lat="42.90913" lon="2.12036">
        <ele>494</ele>
        <time>2014-05-13T08:59:43.1Z</time>
      </trkpt>
      <trkpt lat="42.90913" lon="2.12036">
        <ele>494</ele>
        <time>2014-05-13T08:59:47.1Z</time>
      </trkpt>
      <trkpt lat="42.90912" lon="2.12036">
        <ele>494</ele>
        <time>2014-05-13T08:59:50.1Z</time>
      </trkpt>
      <trkpt lat="42.90912" lon="2.12037">
        <ele>494</ele>
        <time>2014-05-13T08:59:52.1Z</time>
      </trkpt>
      <trkpt lat="42.90912" lon="2.12037">
        <ele>493</ele>
        <time>2014-05-13T08:59:56.1Z</time>
      </trkpt>
      <trkpt lat="42.90912" lon="2.12037">
        <ele>493</ele>
        <time>2014-05-13T08:59:59.1Z</time>
      </trkpt>
      <trkpt lat="42.90912" lon="2.12037">
        <ele>493</ele>
        <time>2014-05-13T09:00:03.1Z</time>
      </trkpt>
      <trkpt lat="42.90912" lon="2.12037">
        <ele>493</ele>
        <time>2014-05-13T09:00:07.1Z</time>
      </trkpt>
      <trkpt lat="42.90912" lon="2.12037">
        <ele>493</ele>
        <time>2014-05-13T09:00:09.1Z</time>
      </trkpt>
      <trkpt lat="42.90912" lon="2.12037">
        <ele>493</ele>
        <time>2014-05-13T09:00:12.1Z</time>
      </trkpt>
      <trkpt lat="42.90912" lon="2.12037">
        <ele>493</ele>
        <time>2014-05-13T09:00:15.1Z</time>
      </trkpt>
      <trkpt lat="42.90912" lon="2.12037">
        <ele>493</ele>
        <time>2014-05-13T09:00:19.1Z</time>
      </trkpt>
      <trkpt lat="42.90912" lon="2.12037">
        <ele>493</ele>
        <time>2014-05-13T09:00:22.1Z</time>
      </trkpt>
      <trkpt lat="42.90911" lon="2.12037">
        <ele>494</ele>
        <time>2014-05-13T09:00:24.1Z</time>
      </trkpt>
      <trkpt lat="42.90911" lon="2.12037">
        <ele>494</ele>
        <time>2014-05-13T09:00:26.1Z</time>
      </trkpt>
      <trkpt lat="42.90911" lon="2.12037">
        <ele>494</ele>
        <time>2014-05-13T09:00:36.1Z</time>
      </trkpt>
      <trkpt lat="42.90911" lon="2.12037">
        <ele>494</ele>
        <time>2014-05-13T09:00:38.1Z</time>
      </trkpt>
      <trkpt lat="42.90911" lon="2.12036">
        <ele>494</ele>
        <time>2014-05-13T09:00:41.1Z</time>
      </trkpt>
      <trkpt lat="42.90911" lon="2.12036">
        <ele>494</ele>
        <time>2014-05-13T09:00:43.1Z</time>
      </trkpt>
      <trkpt lat="42.9091" lon="2.12035">
        <ele>494</ele>
        <time>2014-05-13T09:00:46.1Z</time>
      </trkpt>
      <trkpt lat="42.9091" lon="2.12035">
        <ele>494</ele>
        <time>2014-05-13T09:00:50.1Z</time>
      </trkpt>
      <trkpt lat="42.9091" lon="2.12035">
        <ele>494</ele>
        <time>2014-05-13T09:00:52.1Z</time>
      </trkpt>
      <trkpt lat="42.9091" lon="2.12034">
        <ele>495</ele>
        <time>2014-05-13T09:00:54.1Z</time>
      </trkpt>
      <trkpt lat="42.9091" lon="2.12033">
        <ele>495</ele>
        <time>2014-05-13T09:00:57.1Z</time>
      </trkpt>
      <trkpt lat="42.90911" lon="2.12034">
        <ele>495</ele>
        <time>2014-05-13T09:01:00.1Z</time>
      </trkpt>
      <trkpt lat="42.90911" lon="2.12034">
        <ele>494</ele>
        <time>2014-05-13T09:01:02.1Z</time>
      </trkpt>
      <trkpt lat="42.90911" lon="2.12034">
        <ele>494</ele>
        <time>2014-05-13T09:01:05.1Z</time>
      </trkpt>
      <trkpt lat="42.90911" lon="2.12034">
        <ele>494</ele>
        <time>2014-05-13T09:01:08.1Z</time>
      </trkpt>
      <trkpt lat="42.90912" lon="2.12035">
        <ele>494</ele>
        <time>2014-05-13T09:01:10.1Z</time>
      </trkpt>
      <trkpt lat="42.90912" lon="2.12035">
        <ele>494</ele>
        <time>2014-05-13T09:01:14.1Z</time>
      </trkpt>
      <trkpt lat="42.90912" lon="2.12036">
        <ele>494</ele>
        <time>2014-05-13T09:01:17.1Z</time>
      </trkpt>
      <trkpt lat="42.90912" lon="2.12036">
        <ele>494</ele>
        <time>2014-05-13T09:01:19.1Z</time>
      </trkpt>
      <trkpt lat="42.90912" lon="2.12036">
        <ele>494</ele>
        <time>2014-05-13T09:01:23.1Z</time>
      </trkpt>
      <trkpt lat="42.90912" lon="2.12037">
        <ele>494</ele>
        <time>2014-05-13T09:01:25.1Z</time>
      </trkpt>
      <trkpt lat="42.90911" lon="2.12037">
        <ele>494</ele>
        <time>2014-05-13T09:01:27.1Z</time>
      </trkpt>
      <trkpt lat="42.90911" lon="2.12037">
        <ele>494</ele>
        <time>2014-05-13T09:01:31.1Z</time>
      </trkpt>
      <trkpt lat="42.90911" lon="2.12037">
        <ele>494</ele>
        <time>2014-05-13T09:01:35.1Z</time>
      </trkpt>
      <trkpt lat="42.90911" lon="2.12037">
        <ele>494</ele>
        <time>2014-05-13T09:01:37.1Z</time>
      </trkpt>
      <trkpt lat="42.90911" lon="2.12038">
        <ele>494</ele>
        <time>2014-05-13T09:01:42.1Z</time>
      </trkpt>
      <trkpt lat="42.90911" lon="2.12038">
        <ele>494</ele>
        <time>2014-05-13T09:01:45.1Z</time>
      </trkpt>
      <trkpt lat="42.90911" lon="2.12037">
        <ele>494</ele>
        <time>2014-05-13T09:01:48.1Z</time>
      </trkpt>
      <trkpt lat="42.9091" lon="2.12037">
        <ele>494</ele>
        <time>2014-05-13T09:01:52.1Z</time>
      </trkpt>
      <trkpt lat="42.9091" lon="2.12038">
        <ele>494</ele>
        <time>2014-05-13T09:01:56.1Z</time>
      </trkpt>
      <trkpt lat="42.9091" lon="2.12038">
        <ele>494</ele>
        <time>2014-05-13T09:01:59.1Z</time>
      </trkpt>
      <trkpt lat="42.9091" lon="2.12038">
        <ele>494</ele>
        <time>2014-05-13T09:02:03.1Z</time>
      </trkpt>
      <trkpt lat="42.9091" lon="2.12038">
        <ele>494</ele>
        <time>2014-05-13T09:02:05.1Z</time>
      </trkpt>
      <trkpt lat="42.9091" lon="2.12038">
        <ele>494</ele>
        <time>2014-05-13T09:02:08.1Z</time>
      </trkpt>
      <trkpt lat="42.9091" lon="2.12038">
        <ele>494</ele>
        <time>2014-05-13T09:02:10.1Z</time>
      </trkpt>
      <trkpt lat="42.9091" lon="2.12038">
        <ele>493</ele>
        <time>2014-05-13T09:02:13.1Z</time>
      </trkpt>
      <trkpt lat="42.9091" lon="2.12038">
        <ele>493</ele>
        <time>2014-05-13T09:02:16.1Z</time>
      </trkpt>
      <trkpt lat="42.90911" lon="2.12038">
        <ele>494</ele>
        <time>2014-05-13T09:02:18.1Z</time>
      </trkpt>
      <trkpt lat="42.90911" lon="2.12038">
        <ele>494</ele>
        <time>2014-05-13T09:02:21.1Z</time>
      </trkpt>
      <trkpt lat="42.90911" lon="2.12038">
        <ele>494</ele>
        <time>2014-05-13T09:02:24.1Z</time>
      </trkpt>
      <trkpt lat="42.90911" lon="2.12038">
        <ele>494</ele>
        <time>2014-05-13T09:02:26.1Z</time>
      </trkpt>
      <trkpt lat="42.90911" lon="2.12037">
        <ele>494</ele>
        <time>2014-05-13T09:02:29.1Z</time>
      </trkpt>
      <trkpt lat="42.90911" lon="2.12037">
        <ele>494</ele>
        <time>2014-05-13T09:02:32.1Z</time>
      </trkpt>
      <trkpt lat="42.90911" lon="2.12036">
        <ele>494</ele>
        <time>2014-05-13T09:02:34.1Z</time>
      </trkpt>
      <trkpt lat="42.90911" lon="2.12036">
        <ele>494</ele>
        <time>2014-05-13T09:02:38.1Z</time>
      </trkpt>
      <trkpt lat="42.90912" lon="2.12037">
        <ele>494</ele>
        <time>2014-05-13T09:02:41.1Z</time>
      </trkpt>
      <trkpt lat="42.90912" lon="2.12037">
        <ele>494</ele>
        <time>2014-05-13T09:02:45.1Z</time>
      </trkpt>
      <trkpt lat="42.90912" lon="2.12037">
        <ele>494</ele>
        <time>2014-05-13T09:02:49.1Z</time>
      </trkpt>
      <trkpt lat="42.90912" lon="2.12037">
        <ele>494</ele>
        <time>2014-05-13T09:02:51.1Z</time>
      </trkpt>
      <trkpt lat="42.90913" lon="2.12036">
        <ele>494</ele>
        <time>2014-05-13T09:02:54.1Z</time>
      </trkpt>
      <trkpt lat="42.90912" lon="2.12035">
        <ele>494</ele>
        <time>2014-05-13T09:02:58.1Z</time>
      </trkpt>
      <trkpt lat="42.90911" lon="2.12034">
        <ele>494</ele>
        <time>2014-05-13T09:03:01.1Z</time>
      </trkpt>
      <trkpt lat="42.90911" lon="2.12034">
        <ele>494</ele>
        <time>2014-05-13T09:03:03.1Z</time>
      </trkpt>
      <trkpt lat="42.90911" lon="2.12033">
        <ele>494</ele>
        <time>2014-05-13T09:03:07.1Z</time>
      </trkpt>
      <trkpt lat="42.90912" lon="2.12034">
        <ele>494</ele>
        <time>2014-05-13T09:03:10.1Z</time>
      </trkpt>
      <trkpt lat="42.90913" lon="2.12033">
        <ele>494</ele>
        <time>2014-05-13T09:03:12.1Z</time>
      </trkpt>
      <trkpt lat="42.90913" lon="2.12033">
        <ele>494</ele>
        <time>2014-05-13T09:03:15.1Z</time>
      </trkpt>
      <trkpt lat="42.90913" lon="2.12034">
        <ele>494</ele>
        <time>2014-05-13T09:03:19.1Z</time>
      </trkpt>
      <trkpt lat="42.90913" lon="2.12035">
        <ele>494</ele>
        <time>2014-05-13T09:03:23.1Z</time>
      </trkpt>
      <trkpt lat="42.90912" lon="2.12035">
        <ele>494</ele>
        <time>2014-05-13T09:03:25.1Z</time>
      </trkpt>
      <trkpt lat="42.90912" lon="2.12035">
        <ele>494</ele>
        <time>2014-05-13T09:03:28.1Z</time>
      </trkpt>
      <trkpt lat="42.90912" lon="2.12036">
        <ele>494</ele>
        <time>2014-05-13T09:03:30.1Z</time>
      </trkpt>
      <trkpt lat="42.90912" lon="2.12037">
        <ele>494</ele>
        <time>2014-05-13T09:03:33.1Z</time>
      </trkpt>
      <trkpt lat="42.90912" lon="2.12037">
        <ele>494</ele>
        <time>2014-05-13T09:03:36.1Z</time>
      </trkpt>
      <trkpt lat="42.90912" lon="2.12038">
        <ele>494</ele>
        <time>2014-05-13T09:03:38.1Z</time>
      </trkpt>
      <trkpt lat="42.90911" lon="2.12038">
        <ele>494</ele>
        <time>2014-05-13T09:03:41.1Z</time>
      </trkpt>
      <trkpt lat="42.90911" lon="2.12038">
        <ele>494</ele>
        <time>2014-05-13T09:03:44.1Z</time>
      </trkpt>
      <trkpt lat="42.90911" lon="2.12038">
        <ele>493</ele>
        <time>2014-05-13T09:03:48.1Z</time>
      </trkpt>
      <trkpt lat="42.90911" lon="2.12037">
        <ele>493</ele>
        <time>2014-05-13T09:03:51.1Z</time>
      </trkpt>
      <trkpt lat="42.90911" lon="2.12037">
        <ele>494</ele>
        <time>2014-05-13T09:03:54.1Z</time>
      </trkpt>
      <trkpt lat="42.90911" lon="2.12038">
        <ele>494</ele>
        <time>2014-05-13T09:03:57.1Z</time>
      </trkpt>
      <trkpt lat="42.90911" lon="2.12038">
        <ele>494</ele>
        <time>2014-05-13T09:04:00.1Z</time>
      </trkpt>
      <trkpt lat="42.90911" lon="2.12038">
        <ele>494</ele>
        <time>2014-05-13T09:04:02.1Z</time>
      </trkpt>
      <trkpt lat="42.90911" lon="2.12038">
        <ele>494</ele>
        <time>2014-05-13T09:04:05.1Z</time>
      </trkpt>
      <trkpt lat="42.90911" lon="2.12037">
        <ele>493</ele>
        <time>2014-05-13T09:04:08.1Z</time>
      </trkpt>
      <trkpt lat="42.90911" lon="2.12037">
        <ele>493</ele>
        <time>2014-05-13T09:04:10.1Z</time>
      </trkpt>
      <trkpt lat="42.90911" lon="2.12037">
        <ele>493</ele>
        <time>2014-05-13T09:04:15.1Z</time>
      </trkpt>
      <trkpt lat="42.90911" lon="2.12037">
        <ele>494</ele>
        <time>2014-05-13T09:04:18.1Z</time>
      </trkpt>
      <trkpt lat="42.90911" lon="2.12036">
        <ele>493</ele>
        <time>2014-05-13T09:04:21.1Z</time>
      </trkpt>
      <trkpt lat="42.90911" lon="2.12036">
        <ele>493</ele>
        <time>2014-05-13T09:04:24.1Z</time>
      </trkpt>
      <trkpt lat="42.90911" lon="2.12036">
        <ele>494</ele>
        <time>2014-05-13T09:04:27.1Z</time>
      </trkpt>
      <trkpt lat="42.90911" lon="2.12037">
        <ele>494</ele>
        <time>2014-05-13T09:04:29.1Z</time>
      </trkpt>
      <trkpt lat="42.90912" lon="2.12037">
        <ele>494</ele>
        <time>2014-05-13T09:04:32.1Z</time>
      </trkpt>
      <trkpt lat="42.90912" lon="2.12037">
        <ele>494</ele>
        <time>2014-05-13T09:04:35.1Z</time>
      </trkpt>
      <trkpt lat="42.90913" lon="2.12037">
        <ele>494</ele>
        <time>2014-05-13T09:04:37.1Z</time>
      </trkpt>
      <trkpt lat="42.90913" lon="2.12037">
        <ele>494</ele>
        <time>2014-05-13T09:04:40.1Z</time>
      </trkpt>
      <trkpt lat="42.90913" lon="2.12037">
        <ele>493</ele>
        <time>2014-05-13T09:04:43.1Z</time>
      </trkpt>
      <trkpt lat="42.90912" lon="2.12036">
        <ele>493</ele>
        <time>2014-05-13T09:04:45.1Z</time>
      </trkpt>
      <trkpt lat="42.90913" lon="2.12036">
        <ele>493</ele>
        <time>2014-05-13T09:04:48.1Z</time>
      </trkpt>
      <trkpt lat="42.90913" lon="2.12036">
        <ele>493</ele>
        <time>2014-05-13T09:04:51.1Z</time>
      </trkpt>
      <trkpt lat="42.90914" lon="2.12035">
        <ele>493</ele>
        <time>2014-05-13T09:04:53.1Z</time>
      </trkpt>
      <trkpt lat="42.90914" lon="2.12036">
        <ele>494</ele>
        <time>2014-05-13T09:04:56.1Z</time>
      </trkpt>
      <trkpt lat="42.90913" lon="2.12036">
        <ele>494</ele>
        <time>2014-05-13T09:04:59.1Z</time>
      </trkpt>
      <trkpt lat="42.90913" lon="2.12036">
        <ele>494</ele>
        <time>2014-05-13T09:05:01.1Z</time>
      </trkpt>
      <trkpt lat="42.90913" lon="2.12036">
        <ele>494</ele>
        <time>2014-05-13T09:05:07.1Z</time>
      </trkpt>
      <trkpt lat="42.90913" lon="2.12037">
        <ele>494</ele>
        <time>2014-05-13T09:05:11.1Z</time>
      </trkpt>
      <trkpt lat="42.90913" lon="2.12037">
        <ele>494</ele>
        <time>2014-05-13T09:05:15.1Z</time>
      </trkpt>
      <trkpt lat="42.90912" lon="2.12036">
        <ele>494</ele>
        <time>2014-05-13T09:05:17.1Z</time>
      </trkpt>
      <trkpt lat="42.90912" lon="2.12036">
        <ele>493</ele>
        <time>2014-05-13T09:05:19.1Z</time>
      </trkpt>
      <trkpt lat="42.90912" lon="2.12036">
        <ele>493</ele>
        <time>2014-05-13T09:05:23.1Z</time>
      </trkpt>
      <trkpt lat="42.90912" lon="2.12036">
        <ele>493</ele>
        <time>2014-05-13T09:05:26.1Z</time>
      </trkpt>
      <trkpt lat="42.90911" lon="2.12036">
        <ele>493</ele>
        <time>2014-05-13T09:05:28.1Z</time>
      </trkpt>
      <trkpt lat="42.90912" lon="2.12035">
        <ele>493</ele>
        <time>2014-05-13T09:05:33.1Z</time>
      </trkpt>
      <trkpt lat="42.90912" lon="2.12035">
        <ele>493</ele>
        <time>2014-05-13T09:05:36.1Z</time>
      </trkpt>
      <trkpt lat="42.90912" lon="2.12035">
        <ele>493</ele>
        <time>2014-05-13T09:05:39.1Z</time>
      </trkpt>
      <trkpt lat="42.90912" lon="2.12035">
        <ele>493</ele>
        <time>2014-05-13T09:05:41.1Z</time>
      </trkpt>
      <trkpt lat="42.90913" lon="2.12034">
        <ele>493</ele>
        <time>2014-05-13T09:05:43.1Z</time>
      </trkpt>
      <trkpt lat="42.90913" lon="2.12034">
        <ele>493</ele>
        <time>2014-05-13T09:05:47.1Z</time>
      </trkpt>
      <trkpt lat="42.90914" lon="2.12033">
        <ele>492</ele>
        <time>2014-05-13T09:05:49.1Z</time>
      </trkpt>
      <trkpt lat="42.90914" lon="2.12033">
        <ele>492</ele>
        <time>2014-05-13T09:05:52.1Z</time>
      </trkpt>
      <trkpt lat="42.90914" lon="2.12032">
        <ele>492</ele>
        <time>2014-05-13T09:05:56.1Z</time>
      </trkpt>
      <trkpt lat="42.90914" lon="2.12032">
        <ele>492</ele>
        <time>2014-05-13T09:05:58.1Z</time>
      </trkpt>
      <trkpt lat="42.90914" lon="2.12032">
        <ele>492</ele>
        <time>2014-05-13T09:06:02.1Z</time>
      </trkpt>
      <trkpt lat="42.90914" lon="2.12032">
        <ele>493</ele>
        <time>2014-05-13T09:06:04.1Z</time>
      </trkpt>
      <trkpt lat="42.90913" lon="2.12032">
        <ele>493</ele>
        <time>2014-05-13T09:06:07.1Z</time>
      </trkpt>
      <trkpt lat="42.90913" lon="2.12033">
        <ele>493</ele>
        <time>2014-05-13T09:06:09.1Z</time>
      </trkpt>
      <trkpt lat="42.90913" lon="2.12033">
        <ele>493</ele>
        <time>2014-05-13T09:06:12.1Z</time>
      </trkpt>
      <trkpt lat="42.90913" lon="2.12033">
        <ele>493</ele>
        <time>2014-05-13T09:06:14.1Z</time>
      </trkpt>
      <trkpt lat="42.90914" lon="2.12033">
        <ele>493</ele>
        <time>2014-05-13T09:06:16.1Z</time>
      </trkpt>
      <trkpt lat="42.90914" lon="2.12033">
        <ele>492</ele>
        <time>2014-05-13T09:06:19.1Z</time>
      </trkpt>
      <trkpt lat="42.90914" lon="2.12032">
        <ele>492</ele>
        <time>2014-05-13T09:06:21.1Z</time>
      </trkpt>
      <trkpt lat="42.90913" lon="2.12032">
        <ele>492</ele>
        <time>2014-05-13T09:06:25.1Z</time>
      </trkpt>
      <trkpt lat="42.90913" lon="2.12032">
        <ele>492</ele>
        <time>2014-05-13T09:06:29.1Z</time>
      </trkpt>
      <trkpt lat="42.90913" lon="2.12032">
        <ele>492</ele>
        <time>2014-05-13T09:06:32.1Z</time>
      </trkpt>
      <trkpt lat="42.90913" lon="2.12032">
        <ele>492</ele>
        <time>2014-05-13T09:06:34.1Z</time>
      </trkpt>
      <trkpt lat="42.90912" lon="2.12032">
        <ele>492</ele>
        <time>2014-05-13T09:06:37.1Z</time>
      </trkpt>
      <trkpt lat="42.90912" lon="2.12032">
        <ele>493</ele>
        <time>2014-05-13T09:06:40.1Z</time>
      </trkpt>
      <trkpt lat="42.90911" lon="2.12032">
        <ele>493</ele>
        <time>2014-05-13T09:06:44.1Z</time>
      </trkpt>
      <trkpt lat="42.90911" lon="2.12032">
        <ele>493</ele>
        <time>2014-05-13T09:06:46.1Z</time>
      </trkpt>
      <trkpt lat="42.90912" lon="2.12033">
        <ele>493</ele>
        <time>2014-05-13T09:06:49.1Z</time>
      </trkpt>
      <trkpt lat="42.90912" lon="2.12033">
        <ele>493</ele>
        <time>2014-05-13T09:06:51.1Z</time>
      </trkpt>
      <trkpt lat="42.90912" lon="2.12033">
        <ele>493</ele>
        <time>2014-05-13T09:06:53.1Z</time>
      </trkpt>
      <trkpt lat="42.90912" lon="2.12033">
        <ele>493</ele>
        <time>2014-05-13T09:06:56.1Z</time>
      </trkpt>
      <trkpt lat="42.90912" lon="2.12033">
        <ele>493</ele>
        <time>2014-05-13T09:07:00.1Z</time>
      </trkpt>
      <trkpt lat="42.90912" lon="2.12033">
        <ele>493</ele>
        <time>2014-05-13T09:07:03.1Z</time>
      </trkpt>
      <trkpt lat="42.90913" lon="2.12033">
        <ele>492</ele>
        <time>2014-05-13T09:07:07.1Z</time>
      </trkpt>
      <trkpt lat="42.90913" lon="2.12032">
        <ele>493</ele>
        <time>2014-05-13T09:07:09.1Z</time>
      </trkpt>
      <trkpt lat="42.90914" lon="2.12031">
        <ele>492</ele>
        <time>2014-05-13T09:07:12.1Z</time>
      </trkpt>
      <trkpt lat="42.90915" lon="2.1203">
        <ele>492</ele>
        <time>2014-05-13T09:07:14.1Z</time>
      </trkpt>
      <trkpt lat="42.90915" lon="2.12029">
        <ele>492</ele>
        <time>2014-05-13T09:07:18.1Z</time>
      </trkpt>
      <trkpt lat="42.90916" lon="2.12029">
        <ele>492</ele>
        <time>2014-05-13T09:07:20.1Z</time>
      </trkpt>
      <trkpt lat="42.90916" lon="2.12029">
        <ele>492</ele>
        <time>2014-05-13T09:07:22.1Z</time>
      </trkpt>
      <trkpt lat="42.90916" lon="2.12028">
        <ele>492</ele>
        <time>2014-05-13T09:07:25.1Z</time>
      </trkpt>
      <trkpt lat="42.90916" lon="2.12028">
        <ele>492</ele>
        <time>2014-05-13T09:07:27.1Z</time>
      </trkpt>
      <trkpt lat="42.90915" lon="2.12028">
        <ele>492</ele>
        <time>2014-05-13T09:07:31.1Z</time>
      </trkpt>
      <trkpt lat="42.90915" lon="2.12028">
        <ele>491</ele>
        <time>2014-05-13T09:07:33.1Z</time>
      </trkpt>
      <trkpt lat="42.90914" lon="2.12028">
        <ele>491</ele>
        <time>2014-05-13T09:07:35.1Z</time>
      </trkpt>
      <trkpt lat="42.90914" lon="2.12028">
        <ele>491</ele>
        <time>2014-05-13T09:07:38.1Z</time>
      </trkpt>
      <trkpt lat="42.90914" lon="2.12028">
        <ele>491</ele>
        <time>2014-05-13T09:07:40.1Z</time>
      </trkpt>
      <trkpt lat="42.90914" lon="2.12028">
        <ele>491</ele>
        <time>2014-05-13T09:07:43.1Z</time>
      </trkpt>
      <trkpt lat="42.90914" lon="2.12029">
        <ele>491</ele>
        <time>2014-05-13T09:07:45.1Z</time>
      </trkpt>
      <trkpt lat="42.90914" lon="2.12029">
        <ele>491</ele>
        <time>2014-05-13T09:07:48.1Z</time>
      </trkpt>
      <trkpt lat="42.90915" lon="2.12029">
        <ele>491</ele>
        <time>2014-05-13T09:07:51.1Z</time>
      </trkpt>
      <trkpt lat="42.90914" lon="2.12029">
        <ele>491</ele>
        <time>2014-05-13T09:07:55.1Z</time>
      </trkpt>
      <trkpt lat="42.90914" lon="2.1203">
        <ele>491</ele>
        <time>2014-05-13T09:07:57.1Z</time>
      </trkpt>
      <trkpt lat="42.90914" lon="2.1203">
        <ele>491</ele>
        <time>2014-05-13T09:08:00.1Z</time>
      </trkpt>
      <trkpt lat="42.90914" lon="2.1203">
        <ele>491</ele>
        <time>2014-05-13T09:08:03.1Z</time>
      </trkpt>
      <trkpt lat="42.90914" lon="2.1203">
        <ele>491</ele>
        <time>2014-05-13T09:08:05.1Z</time>
      </trkpt>
      <trkpt lat="42.90914" lon="2.1203">
        <ele>491</ele>
        <time>2014-05-13T09:08:08.1Z</time>
      </trkpt>
      <trkpt lat="42.90914" lon="2.1203">
        <ele>491</ele>
        <time>2014-05-13T09:08:12.1Z</time>
      </trkpt>
      <trkpt lat="42.90915" lon="2.1203">
        <ele>491</ele>
        <time>2014-05-13T09:08:14.1Z</time>
      </trkpt>
      <trkpt lat="42.90915" lon="2.1203">
        <ele>491</ele>
        <time>2014-05-13T09:08:17.1Z</time>
      </trkpt>
      <trkpt lat="42.90915" lon="2.1203">
        <ele>491</ele>
        <time>2014-05-13T09:08:19.1Z</time>
      </trkpt>
      <trkpt lat="42.90916" lon="2.1203">
        <ele>491</ele>
        <time>2014-05-13T09:08:21.1Z</time>
      </trkpt>
      <trkpt lat="42.90916" lon="2.1203">
        <ele>491</ele>
        <time>2014-05-13T09:08:25.1Z</time>
      </trkpt>
      <trkpt lat="42.90916" lon="2.1203">
        <ele>491</ele>
        <time>2014-05-13T09:08:30.1Z</time>
      </trkpt>
      <trkpt lat="42.90916" lon="2.1203">
        <ele>491</ele>
        <time>2014-05-13T09:08:34.1Z</time>
      </trkpt>
      <trkpt lat="42.90915" lon="2.12031">
        <ele>491</ele>
        <time>2014-05-13T09:08:38.1Z</time>
      </trkpt>
      <trkpt lat="42.90915" lon="2.12031">
        <ele>491</ele>
        <time>2014-05-13T09:08:43.1Z</time>
      </trkpt>
      <trkpt lat="42.90915" lon="2.12031">
        <ele>491</ele>
        <time>2014-05-13T09:08:45.1Z</time>
      </trkpt>
      <trkpt lat="42.90915" lon="2.12032">
        <ele>491</ele>
        <time>2014-05-13T09:08:47.1Z</time>
      </trkpt>
      <trkpt lat="42.90915" lon="2.12034">
        <ele>491</ele>
        <time>2014-05-13T09:08:50.1Z</time>
      </trkpt>
      <trkpt lat="42.90914" lon="2.12034">
        <ele>491</ele>
        <time>2014-05-13T09:08:52.1Z</time>
      </trkpt>
      <trkpt lat="42.90914" lon="2.12034">
        <ele>491</ele>
        <time>2014-05-13T09:08:55.1Z</time>
      </trkpt>
      <trkpt lat="42.90913" lon="2.12033">
        <ele>491</ele>
        <time>2014-05-13T09:08:58.1Z</time>
      </trkpt>
      <trkpt lat="42.90913" lon="2.12033">
        <ele>491</ele>
        <time>2014-05-13T09:09:00.1Z</time>
      </trkpt>
      <trkpt lat="42.90912" lon="2.12033">
        <ele>491</ele>
        <time>2014-05-13T09:09:02.1Z</time>
      </trkpt>
      <trkpt lat="42.90911" lon="2.12033">
        <ele>491</ele>
        <time>2014-05-13T09:09:06.1Z</time>
      </trkpt>
      <trkpt lat="42.9091" lon="2.12033">
        <ele>491</ele>
        <time>2014-05-13T09:09:08.1Z</time>
      </trkpt>
      <trkpt lat="42.9091" lon="2.12033">
        <ele>491</ele>
        <time>2014-05-13T09:09:11.1Z</time>
      </trkpt>
      <trkpt lat="42.9091" lon="2.12033">
        <ele>491</ele>
        <time>2014-05-13T09:09:15.1Z</time>
      </trkpt>
      <trkpt lat="42.9091" lon="2.12034">
        <ele>491</ele>
        <time>2014-05-13T09:09:19.1Z</time>
      </trkpt>
      <trkpt lat="42.9091" lon="2.12034">
        <ele>491</ele>
        <time>2014-05-13T09:09:21.1Z</time>
      </trkpt>
      <trkpt lat="42.90909" lon="2.12034">
        <ele>491</ele>
        <time>2014-05-13T09:09:25.1Z</time>
      </trkpt>
      <trkpt lat="42.90909" lon="2.12034">
        <ele>491</ele>
        <time>2014-05-13T09:09:29.1Z</time>
      </trkpt>
      <trkpt lat="42.90909" lon="2.12034">
        <ele>491</ele>
        <time>2014-05-13T09:09:32.1Z</time>
      </trkpt>
      <trkpt lat="42.90909" lon="2.12035">
        <ele>491</ele>
        <time>2014-05-13T09:09:35.1Z</time>
      </trkpt>
      <trkpt lat="42.9091" lon="2.12035">
        <ele>491</ele>
        <time>2014-05-13T09:09:38.1Z</time>
      </trkpt>
      <trkpt lat="42.9091" lon="2.12035">
        <ele>490</ele>
        <time>2014-05-13T09:09:40.1Z</time>
      </trkpt>
      <trkpt lat="42.9091" lon="2.12035">
        <ele>491</ele>
        <time>2014-05-13T09:09:42.1Z</time>
      </trkpt>
      <trkpt lat="42.9091" lon="2.12035">
        <ele>491</ele>
        <time>2014-05-13T09:09:47.1Z</time>
      </trkpt>
      <trkpt lat="42.9091" lon="2.12036">
        <ele>491</ele>
        <time>2014-05-13T09:09:49.1Z</time>
      </trkpt>
      <trkpt lat="42.9091" lon="2.12036">
        <ele>491</ele>
        <time>2014-05-13T09:09:51.1Z</time>
      </trkpt>
      <trkpt lat="42.9091" lon="2.12036">
        <ele>490</ele>
        <time>2014-05-13T09:09:55.1Z</time>
      </trkpt>
      <trkpt lat="42.90909" lon="2.12037">
        <ele>490</ele>
        <time>2014-05-13T09:10:00.1Z</time>
      </trkpt>
      <trkpt lat="42.90909" lon="2.12037">
        <ele>490</ele>
        <time>2014-05-13T09:10:02.1Z</time>
      </trkpt>
      <trkpt lat="42.90909" lon="2.12038">
        <ele>490</ele>
        <time>2014-05-13T09:10:04.1Z</time>
      </trkpt>
      <trkpt lat="42.90909" lon="2.12039">
        <ele>491</ele>
        <time>2014-05-13T09:10:07.1Z</time>
      </trkpt>
      <trkpt lat="42.90909" lon="2.1204">
        <ele>491</ele>
        <time>2014-05-13T09:10:09.1Z</time>
      </trkpt>
      <trkpt lat="42.9091" lon="2.1204">
        <ele>491</ele>
        <time>2014-05-13T09:10:12.1Z</time>
      </trkpt>
      <trkpt lat="42.9091" lon="2.12041">
        <ele>491</ele>
        <time>2014-05-13T09:10:14.1Z</time>
      </trkpt>
      <trkpt lat="42.90909" lon="2.12041">
        <ele>490</ele>
        <time>2014-05-13T09:10:18.1Z</time>
      </trkpt>
      <trkpt lat="42.90909" lon="2.12041">
        <ele>490</ele>
        <time>2014-05-13T09:10:20.1Z</time>
      </trkpt>
      <trkpt lat="42.90909" lon="2.1204">
        <ele>490</ele>
        <time>2014-05-13T09:10:22.1Z</time>
      </trkpt>
      <trkpt lat="42.90909" lon="2.1204">
        <ele>491</ele>
        <time>2014-05-13T09:10:25.1Z</time>
      </trkpt>
      <trkpt lat="42.90909" lon="2.12039">
        <ele>491</ele>
        <time>2014-05-13T09:10:27.1Z</time>
      </trkpt>
      <trkpt lat="42.90909" lon="2.12039">
        <ele>490</ele>
        <time>2014-05-13T09:10:30.1Z</time>
      </trkpt>
      <trkpt lat="42.90909" lon="2.12038">
        <ele>490</ele>
        <time>2014-05-13T09:10:33.1Z</time>
      </trkpt>
      <trkpt lat="42.90908" lon="2.12037">
        <ele>490</ele>
        <time>2014-05-13T09:10:36.1Z</time>
      </trkpt>
      <trkpt lat="42.90908" lon="2.12037">
        <ele>490</ele>
        <time>2014-05-13T09:10:38.1Z</time>
      </trkpt>
      <trkpt lat="42.90909" lon="2.12036">
        <ele>490</ele>
        <time>2014-05-13T09:10:40.1Z</time>
      </trkpt>
      <trkpt lat="42.90908" lon="2.12036">
        <ele>490</ele>
        <time>2014-05-13T09:10:43.1Z</time>
      </trkpt>
      <trkpt lat="42.90909" lon="2.12035">
        <ele>490</ele>
        <time>2014-05-13T09:10:45.1Z</time>
      </trkpt>
      <trkpt lat="42.9091" lon="2.12036">
        <ele>491</ele>
        <time>2014-05-13T09:10:49.1Z</time>
      </trkpt>
      <trkpt lat="42.90911" lon="2.12036">
        <ele>491</ele>
        <time>2014-05-13T09:10:51.1Z</time>
      </trkpt>
      <trkpt lat="42.90911" lon="2.12036">
        <ele>491</ele>
        <time>2014-05-13T09:10:54.1Z</time>
      </trkpt>
      <trkpt lat="42.90911" lon="2.12037">
        <ele>491</ele>
        <time>2014-05-13T09:10:56.1Z</time>
      </trkpt>
      <trkpt lat="42.90911" lon="2.12037">
        <ele>491</ele>
        <time>2014-05-13T09:10:58.1Z</time>
      </trkpt>
      <trkpt lat="42.90911" lon="2.12036">
        <ele>491</ele>
        <time>2014-05-13T09:11:02.1Z</time>
      </trkpt>
      <trkpt lat="42.90911" lon="2.12035">
        <ele>491</ele>
        <time>2014-05-13T09:11:04.1Z</time>
      </trkpt>
      <trkpt lat="42.90911" lon="2.12035">
        <ele>491</ele>
        <time>2014-05-13T09:11:07.1Z</time>
      </trkpt>
      <trkpt lat="42.90911" lon="2.12035">
        <ele>490</ele>
        <time>2014-05-13T09:11:11.1Z</time>
      </trkpt>
      <trkpt lat="42.9091" lon="2.12034">
        <ele>490</ele>
        <time>2014-05-13T09:11:14.1Z</time>
      </trkpt>
      <trkpt lat="42.90911" lon="2.12034">
        <ele>490</ele>
        <time>2014-05-13T09:11:16.1Z</time>
      </trkpt>
      <trkpt lat="42.90911" lon="2.12034">
        <ele>490</ele>
        <time>2014-05-13T09:11:19.1Z</time>
      </trkpt>
      <trkpt lat="42.90911" lon="2.12033">
        <ele>490</ele>
        <time>2014-05-13T09:11:21.1Z</time>
      </trkpt>
      <trkpt lat="42.90911" lon="2.12033">
        <ele>490</ele>
        <time>2014-05-13T09:11:23.1Z</time>
      </trkpt>
      <trkpt lat="42.90911" lon="2.12032">
        <ele>490</ele>
        <time>2014-05-13T09:11:26.1Z</time>
      </trkpt>
      <trkpt lat="42.90911" lon="2.12031">
        <ele>490</ele>
        <time>2014-05-13T09:11:29.1Z</time>
      </trkpt>
      <trkpt lat="42.90911" lon="2.12031">
        <ele>490</ele>
        <time>2014-05-13T09:11:31.1Z</time>
      </trkpt>
      <trkpt lat="42.90911" lon="2.12031">
        <ele>490</ele>
        <time>2014-05-13T09:11:34.1Z</time>
      </trkpt>
      <trkpt lat="42.90911" lon="2.12031">
        <ele>490</ele>
        <time>2014-05-13T09:11:38.1Z</time>
      </trkpt>
      <trkpt lat="42.9091" lon="2.1203">
        <ele>490</ele>
        <time>2014-05-13T09:11:41.1Z</time>
      </trkpt>
      <trkpt lat="42.9091" lon="2.1203">
        <ele>490</ele>
        <time>2014-05-13T09:11:43.1Z</time>
      </trkpt>
      <trkpt lat="42.90911" lon="2.1203">
        <ele>490</ele>
        <time>2014-05-13T09:11:45.1Z</time>
      </trkpt>
      <trkpt lat="42.90911" lon="2.12031">
        <ele>490</ele>
        <time>2014-05-13T09:11:48.1Z</time>
      </trkpt>
      <trkpt lat="42.90911" lon="2.12032">
        <ele>490</ele>
        <time>2014-05-13T09:11:50.1Z</time>
      </trkpt>
      <trkpt lat="42.90911" lon="2.12032">
        <ele>490</ele>
        <time>2014-05-13T09:11:53.1Z</time>
      </trkpt>
      <trkpt lat="42.90911" lon="2.12033">
        <ele>490</ele>
        <time>2014-05-13T09:11:56.1Z</time>
      </trkpt>
      <trkpt lat="42.90911" lon="2.12033">
        <ele>490</ele>
        <time>2014-05-13T09:11:58.1Z</time>
      </trkpt>
      <trkpt lat="42.90911" lon="2.12033">
        <ele>490</ele>
        <time>2014-05-13T09:12:02.1Z</time>
      </trkpt>
      <trkpt lat="42.90911" lon="2.12034">
        <ele>490</ele>
        <time>2014-05-13T09:12:05.1Z</time>
      </trkpt>
      <trkpt lat="42.90911" lon="2.12034">
        <ele>490</ele>
        <time>2014-05-13T09:12:08.1Z</time>
      </trkpt>
      <trkpt lat="42.90912" lon="2.12035">
        <ele>490</ele>
        <time>2014-05-13T09:12:10.1Z</time>
      </trkpt>
      <trkpt lat="42.90912" lon="2.12035">
        <ele>490</ele>
        <time>2014-05-13T09:12:12.1Z</time>
      </trkpt>
      <trkpt lat="42.90913" lon="2.12035">
        <ele>490</ele>
        <time>2014-05-13T09:12:15.1Z</time>
      </trkpt>
      <trkpt lat="42.90913" lon="2.12036">
        <ele>490</ele>
        <time>2014-05-13T09:12:18.1Z</time>
      </trkpt>
      <trkpt lat="42.90913" lon="2.12035">
        <ele>490</ele>
        <time>2014-05-13T09:12:21.1Z</time>
      </trkpt>
      <trkpt lat="42.90913" lon="2.12036">
        <ele>490</ele>
        <time>2014-05-13T09:12:25.1Z</time>
      </trkpt>
      <trkpt lat="42.90913" lon="2.12035">
        <ele>490</ele>
        <time>2014-05-13T09:12:27.1Z</time>
      </trkpt>
      <trkpt lat="42.90914" lon="2.12035">
        <ele>490</ele>
        <time>2014-05-13T09:12:32.1Z</time>
      </trkpt>
      <trkpt lat="42.90913" lon="2.12035">
        <ele>490</ele>
        <time>2014-05-13T09:12:35.1Z</time>
      </trkpt>
      <trkpt lat="42.90913" lon="2.12035">
        <ele>490</ele>
        <time>2014-05-13T09:12:39.1Z</time>
      </trkpt>
      <trkpt lat="42.90912" lon="2.12035">
        <ele>490</ele>
        <time>2014-05-13T09:12:42.1Z</time>
      </trkpt>
      <trkpt lat="42.90912" lon="2.12035">
        <ele>491</ele>
        <time>2014-05-13T09:12:44.1Z</time>
      </trkpt>
      <trkpt lat="42.90912" lon="2.12035">
        <ele>490</ele>
        <time>2014-05-13T09:12:47.1Z</time>
      </trkpt>
      <trkpt lat="42.90911" lon="2.12035">
        <ele>490</ele>
        <time>2014-05-13T09:12:49.1Z</time>
      </trkpt>
      <trkpt lat="42.90911" lon="2.12035">
        <ele>490</ele>
        <time>2014-05-13T09:12:53.1Z</time>
      </trkpt>
      <trkpt lat="42.90911" lon="2.12035">
        <ele>490</ele>
        <time>2014-05-13T09:12:56.1Z</time>
      </trkpt>
      <trkpt lat="42.9091" lon="2.12035">
        <ele>490</ele>
        <time>2014-05-13T09:12:58.1Z</time>
      </trkpt>
      <trkpt lat="42.9091" lon="2.12036">
        <ele>490</ele>
        <time>2014-05-13T09:13:01.1Z</time>
      </trkpt>
      <trkpt lat="42.9091" lon="2.12036">
        <ele>490</ele>
        <time>2014-05-13T09:13:04.1Z</time>
      </trkpt>
      <trkpt lat="42.9091" lon="2.12037">
        <ele>490</ele>
        <time>2014-05-13T09:13:06.1Z</time>
      </trkpt>
      <trkpt lat="42.9091" lon="2.12037">
        <ele>489</ele>
        <time>2014-05-13T09:13:09.1Z</time>
      </trkpt>
      <trkpt lat="42.9091" lon="2.12038">
        <ele>489</ele>
        <time>2014-05-13T09:13:12.1Z</time>
      </trkpt>
      <trkpt lat="42.9091" lon="2.12038">
        <ele>490</ele>
        <time>2014-05-13T09:13:15.1Z</time>
      </trkpt>
      <trkpt lat="42.9091" lon="2.12038">
        <ele>489</ele>
        <time>2014-05-13T09:13:18.1Z</time>
      </trkpt>
      <trkpt lat="42.9091" lon="2.12038">
        <ele>489</ele>
        <time>2014-05-13T09:13:21.1Z</time>
      </trkpt>
      <trkpt lat="42.9091" lon="2.12037">
        <ele>489</ele>
        <time>2014-05-13T09:13:23.1Z</time>
      </trkpt>
      <trkpt lat="42.9091" lon="2.12037">
        <ele>489</ele>
        <time>2014-05-13T09:13:26.1Z</time>
      </trkpt>
      <trkpt lat="42.9091" lon="2.12036">
        <ele>489</ele>
        <time>2014-05-13T09:13:29.1Z</time>
      </trkpt>
      <trkpt lat="42.90909" lon="2.12036">
        <ele>490</ele>
        <time>2014-05-13T09:13:31.1Z</time>
      </trkpt>
      <trkpt lat="42.90909" lon="2.12035">
        <ele>490</ele>
        <time>2014-05-13T09:13:34.1Z</time>
      </trkpt>
      <trkpt lat="42.90908" lon="2.12035">
        <ele>490</ele>
        <time>2014-05-13T09:13:36.1Z</time>
      </trkpt>
      <trkpt lat="42.90908" lon="2.12034">
        <ele>490</ele>
        <time>2014-05-13T09:13:39.1Z</time>
      </trkpt>
      <trkpt lat="42.90909" lon="2.12034">
        <ele>489</ele>
        <time>2014-05-13T09:13:42.1Z</time>
      </trkpt>
      <trkpt lat="42.90909" lon="2.12035">
        <ele>490</ele>
        <time>2014-05-13T09:13:46.1Z</time>
      </trkpt>
      <trkpt lat="42.90909" lon="2.12035">
        <ele>490</ele>
        <time>2014-05-13T09:13:50.1Z</time>
      </trkpt>
      <trkpt lat="42.90909" lon="2.12035">
        <ele>490</ele>
        <time>2014-05-13T09:13:52.1Z</time>
      </trkpt>
      <trkpt lat="42.9091" lon="2.12035">
        <ele>490</ele>
        <time>2014-05-13T09:13:55.1Z</time>
      </trkpt>
      <trkpt lat="42.9091" lon="2.12035">
        <ele>490</ele>
        <time>2014-05-13T09:13:58.1Z</time>
      </trkpt>
      <trkpt lat="42.9091" lon="2.12035">
        <ele>490</ele>
        <time>2014-05-13T09:14:00.1Z</time>
      </trkpt>
      <trkpt lat="42.9091" lon="2.12035">
        <ele>490</ele>
        <time>2014-05-13T09:14:03.1Z</time>
      </trkpt>
      <trkpt lat="42.9091" lon="2.12036">
        <ele>490</ele>
        <time>2014-05-13T09:14:06.1Z</time>
      </trkpt>
      <trkpt lat="42.90911" lon="2.12035">
        <ele>490</ele>
        <time>2014-05-13T09:14:09.1Z</time>
      </trkpt>
      <trkpt lat="42.90911" lon="2.12035">
        <ele>490</ele>
        <time>2014-05-13T09:14:11.1Z</time>
      </trkpt>
      <trkpt lat="42.90911" lon="2.12035">
        <ele>490</ele>
        <time>2014-05-13T09:14:14.1Z</time>
      </trkpt>
      <trkpt lat="42.90911" lon="2.12034">
        <ele>490</ele>
        <time>2014-05-13T09:14:16.1Z</time>
      </trkpt>
      <trkpt lat="42.90911" lon="2.12034">
        <ele>490</ele>
        <time>2014-05-13T09:14:20.1Z</time>
      </trkpt>
      <trkpt lat="42.90911" lon="2.12033">
        <ele>490</ele>
        <time>2014-05-13T09:14:23.1Z</time>
      </trkpt>
      <trkpt lat="42.90911" lon="2.12033">
        <ele>490</ele>
        <time>2014-05-13T09:14:25.1Z</time>
      </trkpt>
      <trkpt lat="42.90911" lon="2.12033">
        <ele>490</ele>
        <time>2014-05-13T09:14:28.1Z</time>
      </trkpt>
      <trkpt lat="42.90911" lon="2.12033">
        <ele>490</ele>
        <time>2014-05-13T09:14:31.1Z</time>
      </trkpt>
      <trkpt lat="42.90911" lon="2.12034">
        <ele>490</ele>
        <time>2014-05-13T09:14:33.1Z</time>
      </trkpt>
      <trkpt lat="42.90911" lon="2.12034">
        <ele>490</ele>
        <time>2014-05-13T09:14:37.1Z</time>
      </trkpt>
      <trkpt lat="42.90911" lon="2.12034">
        <ele>491</ele>
        <time>2014-05-13T09:14:40.1Z</time>
      </trkpt>
      <trkpt lat="42.90911" lon="2.12034">
        <ele>490</ele>
        <time>2014-05-13T09:14:43.1Z</time>
      </trkpt>
      <trkpt lat="42.90911" lon="2.12035">
        <ele>490</ele>
        <time>2014-05-13T09:14:45.1Z</time>
      </trkpt>
      <trkpt lat="42.90911" lon="2.12034">
        <ele>490</ele>
        <time>2014-05-13T09:14:49.1Z</time>
      </trkpt>
      <trkpt lat="42.90911" lon="2.12034">
        <ele>491</ele>
        <time>2014-05-13T09:14:52.1Z</time>
      </trkpt>
      <trkpt lat="42.90911" lon="2.12033">
        <ele>491</ele>
        <time>2014-05-13T09:14:55.1Z</time>
      </trkpt>
      <trkpt lat="42.9091" lon="2.12034">
        <ele>491</ele>
        <time>2014-05-13T09:14:58.1Z</time>
      </trkpt>
      <trkpt lat="42.9091" lon="2.12034">
        <ele>491</ele>
        <time>2014-05-13T09:15:00.1Z</time>
      </trkpt>
      <trkpt lat="42.9091" lon="2.12035">
        <ele>491</ele>
        <time>2014-05-13T09:15:03.1Z</time>
      </trkpt>
      <trkpt lat="42.90909" lon="2.12035">
        <ele>491</ele>
        <time>2014-05-13T09:15:05.1Z</time>
      </trkpt>
      <trkpt lat="42.90909" lon="2.12035">
        <ele>491</ele>
        <time>2014-05-13T09:15:08.1Z</time>
      </trkpt>
      <trkpt lat="42.90909" lon="2.12036">
        <ele>490</ele>
        <time>2014-05-13T09:15:11.1Z</time>
      </trkpt>
      <trkpt lat="42.90908" lon="2.12036">
        <ele>490</ele>
        <time>2014-05-13T09:15:13.1Z</time>
      </trkpt>
      <trkpt lat="42.90908" lon="2.12036">
        <ele>490</ele>
        <time>2014-05-13T09:15:16.1Z</time>
      </trkpt>
      <trkpt lat="42.90908" lon="2.12036">
        <ele>490</ele>
        <time>2014-05-13T09:15:18.1Z</time>
      </trkpt>
      <trkpt lat="42.90908" lon="2.12036">
        <ele>490</ele>
        <time>2014-05-13T09:15:21.1Z</time>
      </trkpt>
      <trkpt lat="42.90908" lon="2.12036">
        <ele>491</ele>
        <time>2014-05-13T09:15:26.1Z</time>
      </trkpt>
      <trkpt lat="42.90908" lon="2.12035">
        <ele>491</ele>
        <time>2014-05-13T09:15:29.1Z</time>
      </trkpt>
      <trkpt lat="42.90908" lon="2.12035">
        <ele>491</ele>
        <time>2014-05-13T09:15:32.1Z</time>
      </trkpt>
      <trkpt lat="42.90908" lon="2.12036">
        <ele>491</ele>
        <time>2014-05-13T09:15:37.1Z</time>
      </trkpt>
      <trkpt lat="42.90908" lon="2.12036">
        <ele>491</ele>
        <time>2014-05-13T09:15:39.1Z</time>
      </trkpt>
      <trkpt lat="42.90908" lon="2.12036">
        <ele>491</ele>
        <time>2014-05-13T09:15:43.1Z</time>
      </trkpt>
      <trkpt lat="42.90908" lon="2.12035">
        <ele>491</ele>
        <time>2014-05-13T09:15:46.1Z</time>
      </trkpt>
      <trkpt lat="42.90908" lon="2.12036">
        <ele>491</ele>
        <time>2014-05-13T09:15:48.1Z</time>
      </trkpt>
      <trkpt lat="42.90908" lon="2.12035">
        <ele>491</ele>
        <time>2014-05-13T09:15:51.1Z</time>
      </trkpt>
      <trkpt lat="42.90909" lon="2.12034">
        <ele>491</ele>
        <time>2014-05-13T09:15:54.1Z</time>
      </trkpt>
      <trkpt lat="42.90909" lon="2.12033">
        <ele>491</ele>
        <time>2014-05-13T09:15:56.1Z</time>
      </trkpt>
      <trkpt lat="42.90909" lon="2.12033">
        <ele>491</ele>
        <time>2014-05-13T09:15:59.1Z</time>
      </trkpt>
      <trkpt lat="42.90909" lon="2.12033">
        <ele>491</ele>
        <time>2014-05-13T09:16:01.1Z</time>
      </trkpt>
      <trkpt lat="42.9091" lon="2.12033">
        <ele>491</ele>
        <time>2014-05-13T09:16:04.1Z</time>
      </trkpt>
      <trkpt lat="42.9091" lon="2.12033">
        <ele>491</ele>
        <time>2014-05-13T09:16:07.1Z</time>
      </trkpt>
      <trkpt lat="42.9091" lon="2.12033">
        <ele>491</ele>
        <time>2014-05-13T09:16:10.1Z</time>
      </trkpt>
      <trkpt lat="42.9091" lon="2.12034">
        <ele>491</ele>
        <time>2014-05-13T09:16:12.1Z</time>
      </trkpt>
      <trkpt lat="42.9091" lon="2.12034">
        <ele>491</ele>
        <time>2014-05-13T09:16:14.1Z</time>
      </trkpt>
      <trkpt lat="42.90909" lon="2.12034">
        <ele>491</ele>
        <time>2014-05-13T09:16:18.1Z</time>
      </trkpt>
      <trkpt lat="42.90908" lon="2.12033">
        <ele>491</ele>
        <time>2014-05-13T09:16:21.1Z</time>
      </trkpt>
      <trkpt lat="42.90908" lon="2.12033">
        <ele>491</ele>
        <time>2014-05-13T09:16:24.1Z</time>
      </trkpt>
      <trkpt lat="42.90908" lon="2.12033">
        <ele>491</ele>
        <time>2014-05-13T09:16:26.1Z</time>
      </trkpt>
      <trkpt lat="42.90908" lon="2.12032">
        <ele>491</ele>
        <time>2014-05-13T09:16:29.1Z</time>
      </trkpt>
      <trkpt lat="42.90908" lon="2.12032">
        <ele>491</ele>
        <time>2014-05-13T09:16:31.1Z</time>
      </trkpt>
      <trkpt lat="42.90908" lon="2.12031">
        <ele>491</ele>
        <time>2014-05-13T09:16:34.1Z</time>
      </trkpt>
      <trkpt lat="42.90908" lon="2.12031">
        <ele>491</ele>
        <time>2014-05-13T09:16:36.1Z</time>
      </trkpt>
      <trkpt lat="42.90908" lon="2.12031">
        <ele>491</ele>
        <time>2014-05-13T09:16:38.1Z</time>
      </trkpt>
      <trkpt lat="42.90908" lon="2.1203">
        <ele>491</ele>
        <time>2014-05-13T09:16:41.1Z</time>
      </trkpt>
      <trkpt lat="42.90908" lon="2.1203">
        <ele>491</ele>
        <time>2014-05-13T09:16:43.1Z</time>
      </trkpt>
      <trkpt lat="42.90908" lon="2.1203">
        <ele>491</ele>
        <time>2014-05-13T09:16:47.1Z</time>
      </trkpt>
      <trkpt lat="42.90909" lon="2.12031">
        <ele>491</ele>
        <time>2014-05-13T09:16:50.1Z</time>
      </trkpt>
      <trkpt lat="42.9091" lon="2.12032">
        <ele>491</ele>
        <time>2014-05-13T09:16:53.1Z</time>
      </trkpt>
      <trkpt lat="42.9091" lon="2.12032">
        <ele>491</ele>
        <time>2014-05-13T09:16:55.1Z</time>
      </trkpt>
      <trkpt lat="42.9091" lon="2.12032">
        <ele>491</ele>
        <time>2014-05-13T09:16:59.1Z</time>
      </trkpt>
      <trkpt lat="42.9091" lon="2.12032">
        <ele>492</ele>
        <time>2014-05-13T09:17:02.1Z</time>
      </trkpt>
      <trkpt lat="42.9091" lon="2.12032">
        <ele>491</ele>
        <time>2014-05-13T09:17:09.1Z</time>
      </trkpt>
      <trkpt lat="42.9091" lon="2.12032">
        <ele>491</ele>
        <time>2014-05-13T09:17:12.1Z</time>
      </trkpt>
      <trkpt lat="42.90909" lon="2.12031">
        <ele>491</ele>
        <time>2014-05-13T09:17:15.1Z</time>
      </trkpt>
      <trkpt lat="42.90909" lon="2.12031">
        <ele>491</ele>
        <time>2014-05-13T09:17:17.1Z</time>
      </trkpt>
      <trkpt lat="42.90908" lon="2.12031">
        <ele>491</ele>
        <time>2014-05-13T09:17:20.1Z</time>
      </trkpt>
      <trkpt lat="42.90908" lon="2.12031">
        <ele>491</ele>
        <time>2014-05-13T09:17:22.1Z</time>
      </trkpt>
      <trkpt lat="42.90908" lon="2.1203">
        <ele>491</ele>
        <time>2014-05-13T09:17:25.1Z</time>
      </trkpt>
      <trkpt lat="42.90908" lon="2.1203">
        <ele>491</ele>
        <time>2014-05-13T09:17:30.1Z</time>
      </trkpt>
      <trkpt lat="42.90908" lon="2.1203">
        <ele>491</ele>
        <time>2014-05-13T09:17:34.1Z</time>
      </trkpt>
      <trkpt lat="42.90908" lon="2.1203">
        <ele>491</ele>
        <time>2014-05-13T09:17:37.1Z</time>
      </trkpt>
      <trkpt lat="42.90908" lon="2.12029">
        <ele>491</ele>
        <time>2014-05-13T09:17:42.1Z</time>
      </trkpt>
      <trkpt lat="42.90908" lon="2.12029">
        <ele>491</ele>
        <time>2014-05-13T09:17:44.1Z</time>
      </trkpt>
      <trkpt lat="42.90908" lon="2.1203">
        <ele>491</ele>
        <time>2014-05-13T09:17:47.1Z</time>
      </trkpt>
      <trkpt lat="42.90908" lon="2.1203">
        <ele>491</ele>
        <time>2014-05-13T09:17:49.1Z</time>
      </trkpt>
      <trkpt lat="42.90908" lon="2.1203">
        <ele>490</ele>
        <time>2014-05-13T09:17:53.1Z</time>
      </trkpt>
      <trkpt lat="42.90909" lon="2.12031">
        <ele>491</ele>
        <time>2014-05-13T09:17:56.1Z</time>
      </trkpt>
      <trkpt lat="42.90909" lon="2.12031">
        <ele>491</ele>
        <time>2014-05-13T09:17:58.1Z</time>
      </trkpt>
      <trkpt lat="42.9091" lon="2.12031">
        <ele>491</ele>
        <time>2014-05-13T09:18:01.1Z</time>
      </trkpt>
      <trkpt lat="42.9091" lon="2.12032">
        <ele>491</ele>
        <time>2014-05-13T09:18:04.1Z</time>
      </trkpt>
      <trkpt lat="42.9091" lon="2.12031">
        <ele>491</ele>
        <time>2014-05-13T09:18:08.1Z</time>
      </trkpt>
      <trkpt lat="42.9091" lon="2.12031">
        <ele>490</ele>
        <time>2014-05-13T09:18:11.1Z</time>
      </trkpt>
      <trkpt lat="42.90909" lon="2.12031">
        <ele>490</ele>
        <time>2014-05-13T09:18:14.1Z</time>
      </trkpt>
      <trkpt lat="42.90909" lon="2.12031">
        <ele>491</ele>
        <time>2014-05-13T09:18:16.1Z</time>
      </trkpt>
      <trkpt lat="42.90909" lon="2.1203">
        <ele>490</ele>
        <time>2014-05-13T09:18:19.1Z</time>
      </trkpt>
      <trkpt lat="42.90908" lon="2.1203">
        <ele>490</ele>
        <time>2014-05-13T09:18:21.1Z</time>
      </trkpt>
      <trkpt lat="42.90908" lon="2.1203">
        <ele>490</ele>
        <time>2014-05-13T09:18:24.1Z</time>
      </trkpt>
      <trkpt lat="42.90908" lon="2.1203">
        <ele>490</ele>
        <time>2014-05-13T09:18:27.1Z</time>
      </trkpt>
      <trkpt lat="42.90908" lon="2.1203">
        <ele>490</ele>
        <time>2014-05-13T09:18:30.1Z</time>
      </trkpt>
      <trkpt lat="42.90908" lon="2.1203">
        <ele>490</ele>
        <time>2014-05-13T09:18:33.1Z</time>
      </trkpt>
      <trkpt lat="42.90908" lon="2.1203">
        <ele>491</ele>
        <time>2014-05-13T09:18:36.1Z</time>
      </trkpt>
      <trkpt lat="42.90909" lon="2.12031">
        <ele>491</ele>
        <time>2014-05-13T09:18:38.1Z</time>
      </trkpt>
      <trkpt lat="42.90909" lon="2.12031">
        <ele>491</ele>
        <time>2014-05-13T09:18:42.1Z</time>
      </trkpt>
      <trkpt lat="42.90909" lon="2.12031">
        <ele>491</ele>
        <time>2014-05-13T09:18:45.1Z</time>
      </trkpt>
      <trkpt lat="42.9091" lon="2.12031">
        <ele>491</ele>
        <time>2014-05-13T09:18:48.1Z</time>
      </trkpt>
      <trkpt lat="42.9091" lon="2.12031">
        <ele>491</ele>
        <time>2014-05-13T09:18:50.1Z</time>
      </trkpt>
      <trkpt lat="42.90911" lon="2.12032">
        <ele>491</ele>
        <time>2014-05-13T09:18:53.1Z</time>
      </trkpt>
      <trkpt lat="42.90911" lon="2.12032">
        <ele>491</ele>
        <time>2014-05-13T09:18:55.1Z</time>
      </trkpt>
      <trkpt lat="42.90911" lon="2.12033">
        <ele>491</ele>
        <time>2014-05-13T09:18:59.1Z</time>
      </trkpt>
      <trkpt lat="42.90911" lon="2.12033">
        <ele>491</ele>
        <time>2014-05-13T09:19:02.1Z</time>
      </trkpt>
      <trkpt lat="42.90911" lon="2.12034">
        <ele>491</ele>
        <time>2014-05-13T09:19:04.1Z</time>
      </trkpt>
      <trkpt lat="42.90911" lon="2.12035">
        <ele>491</ele>
        <time>2014-05-13T09:19:07.1Z</time>
      </trkpt>
      <trkpt lat="42.90911" lon="2.12036">
        <ele>491</ele>
        <time>2014-05-13T09:19:10.1Z</time>
      </trkpt>
      <trkpt lat="42.90912" lon="2.12036">
        <ele>491</ele>
        <time>2014-05-13T09:19:13.1Z</time>
      </trkpt>
      <trkpt lat="42.90912" lon="2.12037">
        <ele>491</ele>
        <time>2014-05-13T09:19:16.1Z</time>
      </trkpt>
      <trkpt lat="42.90913" lon="2.12037">
        <ele>491</ele>
        <time>2014-05-13T09:19:18.1Z</time>
      </trkpt>
      <trkpt lat="42.90913" lon="2.12037">
        <ele>491</ele>
        <time>2014-05-13T09:19:21.1Z</time>
      </trkpt>
      <trkpt lat="42.90913" lon="2.12037">
        <ele>490</ele>
        <time>2014-05-13T09:19:24.1Z</time>
      </trkpt>
      <trkpt lat="42.90912" lon="2.12036">
        <ele>491</ele>
        <time>2014-05-13T09:19:28.1Z</time>
      </trkpt>
      <trkpt lat="42.90912" lon="2.12036">
        <ele>491</ele>
        <time>2014-05-13T09:19:31.1Z</time>
      </trkpt>
      <trkpt lat="42.90911" lon="2.12036">
        <ele>491</ele>
        <time>2014-05-13T09:19:34.1Z</time>
      </trkpt>
      <trkpt lat="42.90911" lon="2.12035">
        <ele>491</ele>
        <time>2014-05-13T09:19:37.1Z</time>
      </trkpt>
      <trkpt lat="42.9091" lon="2.12035">
        <ele>491</ele>
        <time>2014-05-13T09:19:40.1Z</time>
      </trkpt>
      <trkpt lat="42.9091" lon="2.12035">
        <ele>491</ele>
        <time>2014-05-13T09:19:42.1Z</time>
      </trkpt>
      <trkpt lat="42.90909" lon="2.12035">
        <ele>491</ele>
        <time>2014-05-13T09:19:45.1Z</time>
      </trkpt>
      <trkpt lat="42.90909" lon="2.12035">
        <ele>491</ele>
        <time>2014-05-13T09:19:47.1Z</time>
      </trkpt>
      <trkpt lat="42.90908" lon="2.12034">
        <ele>491</ele>
        <time>2014-05-13T09:19:50.1Z</time>
      </trkpt>
      <trkpt lat="42.90908" lon="2.12034">
        <ele>491</ele>
        <time>2014-05-13T09:19:52.1Z</time>
      </trkpt>
      <trkpt lat="42.90908" lon="2.12033">
        <ele>491</ele>
        <time>2014-05-13T09:19:54.1Z</time>
      </trkpt>
      <trkpt lat="42.90908" lon="2.12033">
        <ele>490</ele>
        <time>2014-05-13T09:19:57.1Z</time>
      </trkpt>
      <trkpt lat="42.90908" lon="2.12032">
        <ele>490</ele>
        <time>2014-05-13T09:19:59.1Z</time>
      </trkpt>
      <trkpt lat="42.90908" lon="2.12032">
        <ele>490</ele>
        <time>2014-05-13T09:20:02.1Z</time>
      </trkpt>
      <trkpt lat="42.90908" lon="2.12032">
        <ele>491</ele>
        <time>2014-05-13T09:20:04.1Z</time>
      </trkpt>
      <trkpt lat="42.90908" lon="2.12032">
        <ele>490</ele>
        <time>2014-05-13T09:20:07.1Z</time>
      </trkpt>
      <trkpt lat="42.90908" lon="2.12032">
        <ele>491</ele>
        <time>2014-05-13T09:20:09.1Z</time>
      </trkpt>
      <trkpt lat="42.90909" lon="2.12032">
        <ele>491</ele>
        <time>2014-05-13T09:20:12.1Z</time>
      </trkpt>
      <trkpt lat="42.90909" lon="2.12033">
        <ele>491</ele>
        <time>2014-05-13T09:20:14.1Z</time>
      </trkpt>
      <trkpt lat="42.90909" lon="2.12033">
        <ele>491</ele>
        <time>2014-05-13T09:20:20.1Z</time>
      </trkpt>
      <trkpt lat="42.90909" lon="2.12033">
        <ele>491</ele>
        <time>2014-05-13T09:20:23.1Z</time>
      </trkpt>
      <trkpt lat="42.90909" lon="2.12033">
        <ele>491</ele>
        <time>2014-05-13T09:20:28.1Z</time>
      </trkpt>
      <trkpt lat="42.90909" lon="2.12033">
        <ele>491</ele>
        <time>2014-05-13T09:20:31.1Z</time>
      </trkpt>
      <trkpt lat="42.90909" lon="2.12032">
        <ele>491</ele>
        <time>2014-05-13T09:20:34.1Z</time>
      </trkpt>
      <trkpt lat="42.90908" lon="2.12032">
        <ele>491</ele>
        <time>2014-05-13T09:20:37.1Z</time>
      </trkpt>
      <trkpt lat="42.90908" lon="2.12031">
        <ele>491</ele>
        <time>2014-05-13T09:20:39.1Z</time>
      </trkpt>
      <trkpt lat="42.90908" lon="2.12031">
        <ele>491</ele>
        <time>2014-05-13T09:20:42.1Z</time>
      </trkpt>
      <trkpt lat="42.90907" lon="2.12031">
        <ele>491</ele>
        <time>2014-05-13T09:20:46.1Z</time>
      </trkpt>
      <trkpt lat="42.90907" lon="2.12031">
        <ele>491</ele>
        <time>2014-05-13T09:20:48.1Z</time>
      </trkpt>
      <trkpt lat="42.90907" lon="2.1203">
        <ele>491</ele>
        <time>2014-05-13T09:20:51.1Z</time>
      </trkpt>
      <trkpt lat="42.90907" lon="2.1203">
        <ele>491</ele>
        <time>2014-05-13T09:20:53.1Z</time>
      </trkpt>
      <trkpt lat="42.90907" lon="2.1203">
        <ele>491</ele>
        <time>2014-05-13T09:20:56.1Z</time>
      </trkpt>
      <trkpt lat="42.90907" lon="2.12029">
        <ele>491</ele>
        <time>2014-05-13T09:20:59.1Z</time>
      </trkpt>
      <trkpt lat="42.90906" lon="2.12029">
        <ele>491</ele>
        <time>2014-05-13T09:21:04.1Z</time>
      </trkpt>
      <trkpt lat="42.90906" lon="2.1203">
        <ele>491</ele>
        <time>2014-05-13T09:21:06.1Z</time>
      </trkpt>
      <trkpt lat="42.90906" lon="2.12031">
        <ele>491</ele>
        <time>2014-05-13T09:21:09.1Z</time>
      </trkpt>
      <trkpt lat="42.90906" lon="2.12031">
        <ele>491</ele>
        <time>2014-05-13T09:21:12.1Z</time>
      </trkpt>
      <trkpt lat="42.90906" lon="2.12032">
        <ele>491</ele>
        <time>2014-05-13T09:21:14.1Z</time>
      </trkpt>
      <trkpt lat="42.90907" lon="2.12032">
        <ele>491</ele>
        <time>2014-05-13T09:21:17.1Z</time>
      </trkpt>
      <trkpt lat="42.90907" lon="2.12033">
        <ele>491</ele>
        <time>2014-05-13T09:21:19.1Z</time>
      </trkpt>
      <trkpt lat="42.90907" lon="2.12033">
        <ele>491</ele>
        <time>2014-05-13T09:21:21.1Z</time>
      </trkpt>
      <trkpt lat="42.90907" lon="2.12034">
        <ele>491</ele>
        <time>2014-05-13T09:21:24.1Z</time>
      </trkpt>
      <trkpt lat="42.90907" lon="2.12034">
        <ele>491</ele>
        <time>2014-05-13T09:21:28.1Z</time>
      </trkpt>
      <trkpt lat="42.90907" lon="2.12034">
        <ele>491</ele>
        <time>2014-05-13T09:21:31.1Z</time>
      </trkpt>
      <trkpt lat="42.90907" lon="2.12035">
        <ele>491</ele>
        <time>2014-05-13T09:21:33.1Z</time>
      </trkpt>
      <trkpt lat="42.90907" lon="2.12034">
        <ele>491</ele>
        <time>2014-05-13T09:21:37.1Z</time>
      </trkpt>
      <trkpt lat="42.90907" lon="2.12034">
        <ele>491</ele>
        <time>2014-05-13T09:21:41.1Z</time>
      </trkpt>
      <trkpt lat="42.90907" lon="2.12035">
        <ele>491</ele>
        <time>2014-05-13T09:21:43.1Z</time>
      </trkpt>
      <trkpt lat="42.90907" lon="2.12034">
        <ele>491</ele>
        <time>2014-05-13T09:21:47.1Z</time>
      </trkpt>
      <trkpt lat="42.90906" lon="2.12035">
        <ele>491</ele>
        <time>2014-05-13T09:21:49.1Z</time>
      </trkpt>
      <trkpt lat="42.90905" lon="2.12035">
        <ele>491</ele>
        <time>2014-05-13T09:21:52.1Z</time>
      </trkpt>
      <trkpt lat="42.90905" lon="2.12035">
        <ele>491</ele>
        <time>2014-05-13T09:21:55.1Z</time>
      </trkpt>
      <trkpt lat="42.90905" lon="2.12035">
        <ele>491</ele>
        <time>2014-05-13T09:21:57.1Z</time>
      </trkpt>
      <trkpt lat="42.90906" lon="2.12036">
        <ele>491</ele>
        <time>2014-05-13T09:22:00.1Z</time>
      </trkpt>
      <trkpt lat="42.90907" lon="2.12037">
        <ele>491</ele>
        <time>2014-05-13T09:22:03.1Z</time>
      </trkpt>
      <trkpt lat="42.90907" lon="2.12037">
        <ele>491</ele>
        <time>2014-05-13T09:22:06.1Z</time>
      </trkpt>
      <trkpt lat="42.90907" lon="2.12037">
        <ele>490</ele>
        <time>2014-05-13T09:22:08.1Z</time>
      </trkpt>
      <trkpt lat="42.90907" lon="2.12037">
        <ele>491</ele>
        <time>2014-05-13T09:22:12.1Z</time>
      </trkpt>
      <trkpt lat="42.90907" lon="2.12037">
        <ele>491</ele>
        <time>2014-05-13T09:22:15.1Z</time>
      </trkpt>
      <trkpt lat="42.90907" lon="2.12036">
        <ele>491</ele>
        <time>2014-05-13T09:22:17.1Z</time>
      </trkpt>
      <trkpt lat="42.90908" lon="2.12036">
        <ele>490</ele>
        <time>2014-05-13T09:22:20.1Z</time>
      </trkpt>
      <trkpt lat="42.90908" lon="2.12036">
        <ele>490</ele>
        <time>2014-05-13T09:22:23.1Z</time>
      </trkpt>
      <trkpt lat="42.90908" lon="2.12035">
        <ele>490</ele>
        <time>2014-05-13T09:22:25.1Z</time>
      </trkpt>
      <trkpt lat="42.90908" lon="2.12035">
        <ele>490</ele>
        <time>2014-05-13T09:22:28.1Z</time>
      </trkpt>
      <trkpt lat="42.90908" lon="2.12035">
        <ele>490</ele>
        <time>2014-05-13T09:22:30.1Z</time>
      </trkpt>
      <trkpt lat="42.90908" lon="2.12035">
        <ele>490</ele>
        <time>2014-05-13T09:22:33.1Z</time>
      </trkpt>
      <trkpt lat="42.90908" lon="2.12035">
        <ele>491</ele>
        <time>2014-05-13T09:22:36.1Z</time>
      </trkpt>
      <trkpt lat="42.90908" lon="2.12035">
        <ele>491</ele>
        <time>2014-05-13T09:22:38.1Z</time>
      </trkpt>
      <trkpt lat="42.90909" lon="2.12034">
        <ele>491</ele>
        <time>2014-05-13T09:22:41.1Z</time>
      </trkpt>
      <trkpt lat="42.9091" lon="2.12034">
        <ele>490</ele>
        <time>2014-05-13T09:22:43.1Z</time>
      </trkpt>
      <trkpt lat="42.9091" lon="2.12034">
        <ele>490</ele>
        <time>2014-05-13T09:22:46.1Z</time>
      </trkpt>
      <trkpt lat="42.9091" lon="2.12034">
        <ele>490</ele>
        <time>2014-05-13T09:22:49.1Z</time>
      </trkpt>
      <trkpt lat="42.9091" lon="2.12034">
        <ele>490</ele>
        <time>2014-05-13T09:22:53.1Z</time>
      </trkpt>
      <trkpt lat="42.9091" lon="2.12034">
        <ele>490</ele>
        <time>2014-05-13T09:22:58.1Z</time>
      </trkpt>
      <trkpt lat="42.9091" lon="2.12034">
        <ele>490</ele>
        <time>2014-05-13T09:23:01.1Z</time>
      </trkpt>
      <trkpt lat="42.90909" lon="2.12034">
        <ele>490</ele>
        <time>2014-05-13T09:23:04.1Z</time>
      </trkpt>
      <trkpt lat="42.90909" lon="2.12034">
        <ele>490</ele>
        <time>2014-05-13T09:23:08.1Z</time>
      </trkpt>
      <trkpt lat="42.9091" lon="2.12035">
        <ele>490</ele>
        <time>2014-05-13T09:23:11.1Z</time>
      </trkpt>
      <trkpt lat="42.90909" lon="2.12035">
        <ele>490</ele>
        <time>2014-05-13T09:23:15.1Z</time>
      </trkpt>
      <trkpt lat="42.90909" lon="2.12034">
        <ele>490</ele>
        <time>2014-05-13T09:23:17.1Z</time>
      </trkpt>
      <trkpt lat="42.90908" lon="2.12034">
        <ele>490</ele>
        <time>2014-05-13T09:23:20.1Z</time>
      </trkpt>
      <trkpt lat="42.90908" lon="2.12035">
        <ele>491</ele>
        <time>2014-05-13T09:23:23.1Z</time>
      </trkpt>
      <trkpt lat="42.90909" lon="2.12035">
        <ele>491</ele>
        <time>2014-05-13T09:23:26.1Z</time>
      </trkpt>
      <trkpt lat="42.90909" lon="2.12035">
        <ele>491</ele>
        <time>2014-05-13T09:23:29.1Z</time>
      </trkpt>
      <trkpt lat="42.90908" lon="2.12035">
        <ele>491</ele>
        <time>2014-05-13T09:23:32.1Z</time>
      </trkpt>
      <trkpt lat="42.90907" lon="2.12034">
        <ele>491</ele>
        <time>2014-05-13T09:23:35.1Z</time>
      </trkpt>
      <trkpt lat="42.90907" lon="2.12033">
        <ele>491</ele>
        <time>2014-05-13T09:23:37.1Z</time>
      </trkpt>
      <trkpt lat="42.90907" lon="2.12033">
        <ele>490</ele>
        <time>2014-05-13T09:23:40.1Z</time>
      </trkpt>
      <trkpt lat="42.90907" lon="2.12033">
        <ele>490</ele>
        <time>2014-05-13T09:23:43.1Z</time>
      </trkpt>
      <trkpt lat="42.90906" lon="2.12033">
        <ele>490</ele>
        <time>2014-05-13T09:23:45.1Z</time>
      </trkpt>
      <trkpt lat="42.90906" lon="2.12033">
        <ele>491</ele>
        <time>2014-05-13T09:23:48.1Z</time>
      </trkpt>
      <trkpt lat="42.90905" lon="2.12033">
        <ele>491</ele>
        <time>2014-05-13T09:23:52.1Z</time>
      </trkpt>
      <trkpt lat="42.90906" lon="2.12034">
        <ele>491</ele>
        <time>2014-05-13T09:23:55.1Z</time>
      </trkpt>
      <trkpt lat="42.90905" lon="2.12033">
        <ele>491</ele>
        <time>2014-05-13T09:23:58.1Z</time>
      </trkpt>
      <trkpt lat="42.90905" lon="2.12033">
        <ele>490</ele>
        <time>2014-05-13T09:24:02.1Z</time>
      </trkpt>
      <trkpt lat="42.90905" lon="2.12033">
        <ele>490</ele>
        <time>2014-05-13T09:24:04.1Z</time>
      </trkpt>
      <trkpt lat="42.90905" lon="2.12033">
        <ele>490</ele>
        <time>2014-05-13T09:24:07.1Z</time>
      </trkpt>
      <trkpt lat="42.90906" lon="2.12033">
        <ele>490</ele>
        <time>2014-05-13T09:24:10.1Z</time>
      </trkpt>
      <trkpt lat="42.90907" lon="2.12033">
        <ele>490</ele>
        <time>2014-05-13T09:24:13.1Z</time>
      </trkpt>
      <trkpt lat="42.90907" lon="2.12033">
        <ele>490</ele>
        <time>2014-05-13T09:24:16.1Z</time>
      </trkpt>
      <trkpt lat="42.90907" lon="2.12032">
        <ele>490</ele>
        <time>2014-05-13T09:24:19.1Z</time>
      </trkpt>
      <trkpt lat="42.90907" lon="2.12032">
        <ele>490</ele>
        <time>2014-05-13T09:24:21.1Z</time>
      </trkpt>
      <trkpt lat="42.90907" lon="2.12031">
        <ele>490</ele>
        <time>2014-05-13T09:24:24.1Z</time>
      </trkpt>
      <trkpt lat="42.90907" lon="2.12031">
        <ele>490</ele>
        <time>2014-05-13T09:24:29.1Z</time>
      </trkpt>
      <trkpt lat="42.90907" lon="2.12031">
        <ele>490</ele>
        <time>2014-05-13T09:24:32.1Z</time>
      </trkpt>
      <trkpt lat="42.90907" lon="2.12031">
        <ele>490</ele>
        <time>2014-05-13T09:24:35.1Z</time>
      </trkpt>
      <trkpt lat="42.90908" lon="2.12031">
        <ele>490</ele>
        <time>2014-05-13T09:24:39.1Z</time>
      </trkpt>
      <trkpt lat="42.90908" lon="2.12031">
        <ele>490</ele>
        <time>2014-05-13T09:24:42.1Z</time>
      </trkpt>
      <trkpt lat="42.90907" lon="2.12031">
        <ele>490</ele>
        <time>2014-05-13T09:24:45.1Z</time>
      </trkpt>
      <trkpt lat="42.90908" lon="2.1203">
        <ele>490</ele>
        <time>2014-05-13T09:24:47.1Z</time>
      </trkpt>
      <trkpt lat="42.90908" lon="2.1203">
        <ele>489</ele>
        <time>2014-05-13T09:24:50.1Z</time>
      </trkpt>
      <trkpt lat="42.90908" lon="2.12031">
        <ele>489</ele>
        <time>2014-05-13T09:24:52.1Z</time>
      </trkpt>
      <trkpt lat="42.90908" lon="2.12031">
        <ele>489</ele>
        <time>2014-05-13T09:24:55.1Z</time>
      </trkpt>
      <trkpt lat="42.90908" lon="2.12031">
        <ele>489</ele>
        <time>2014-05-13T09:24:57.1Z</time>
      </trkpt>
      <trkpt lat="42.90908" lon="2.12032">
        <ele>490</ele>
        <time>2014-05-13T09:25:00.1Z</time>
      </trkpt>
      <trkpt lat="42.90908" lon="2.12032">
        <ele>490</ele>
        <time>2014-05-13T09:25:02.1Z</time>
      </trkpt>
      <trkpt lat="42.90908" lon="2.12032">
        <ele>490</ele>
        <time>2014-05-13T09:25:06.1Z</time>
      </trkpt>
      <trkpt lat="42.90908" lon="2.12032">
        <ele>490</ele>
        <time>2014-05-13T09:25:09.1Z</time>
      </trkpt>
      <trkpt lat="42.90908" lon="2.12032">
        <ele>490</ele>
        <time>2014-05-13T09:25:12.1Z</time>
      </trkpt>
      <trkpt lat="42.90908" lon="2.12032">
        <ele>490</ele>
        <time>2014-05-13T09:25:16.1Z</time>
      </trkpt>
      <trkpt lat="42.90908" lon="2.12032">
        <ele>490</ele>
        <time>2014-05-13T09:25:19.1Z</time>
      </trkpt>
      <trkpt lat="42.90908" lon="2.12031">
        <ele>490</ele>
        <time>2014-05-13T09:25:21.1Z</time>
      </trkpt>
      <trkpt lat="42.90908" lon="2.12031">
        <ele>490</ele>
        <time>2014-05-13T09:25:24.1Z</time>
      </trkpt>
      <trkpt lat="42.90908" lon="2.12031">
        <ele>490</ele>
        <time>2014-05-13T09:25:26.1Z</time>
      </trkpt>
      <trkpt lat="42.90909" lon="2.1203">
        <ele>490</ele>
        <time>2014-05-13T09:25:29.1Z</time>
      </trkpt>
      <trkpt lat="42.90909" lon="2.1203">
        <ele>490</ele>
        <time>2014-05-13T09:25:32.1Z</time>
      </trkpt>
      <trkpt lat="42.90909" lon="2.12031">
        <ele>490</ele>
        <time>2014-05-13T09:25:34.1Z</time>
      </trkpt>
      <trkpt lat="42.90908" lon="2.12032">
        <ele>490</ele>
        <time>2014-05-13T09:25:37.1Z</time>
      </trkpt>
      <trkpt lat="42.90908" lon="2.12032">
        <ele>490</ele>
        <time>2014-05-13T09:25:39.1Z</time>
      </trkpt>
      <trkpt lat="42.90908" lon="2.12033">
        <ele>490</ele>
        <time>2014-05-13T09:25:42.1Z</time>
      </trkpt>
      <trkpt lat="42.90908" lon="2.12033">
        <ele>490</ele>
        <time>2014-05-13T09:25:44.1Z</time>
      </trkpt>
      <trkpt lat="42.90908" lon="2.12033">
        <ele>490</ele>
        <time>2014-05-13T09:25:48.1Z</time>
      </trkpt>
      <trkpt lat="42.90908" lon="2.12034">
        <ele>490</ele>
        <time>2014-05-13T09:25:51.1Z</time>
      </trkpt>
      <trkpt lat="42.90908" lon="2.12034">
        <ele>490</ele>
        <time>2014-05-13T09:25:54.1Z</time>
      </trkpt>
      <trkpt lat="42.90907" lon="2.12034">
        <ele>490</ele>
        <time>2014-05-13T09:25:56.1Z</time>
      </trkpt>
      <trkpt lat="42.90907" lon="2.12034">
        <ele>490</ele>
        <time>2014-05-13T09:25:59.1Z</time>
      </trkpt>
      <trkpt lat="42.90906" lon="2.12033">
        <ele>490</ele>
        <time>2014-05-13T09:26:02.1Z</time>
      </trkpt>
      <trkpt lat="42.90905" lon="2.12033">
        <ele>489</ele>
        <time>2014-05-13T09:26:05.1Z</time>
      </trkpt>
      <trkpt lat="42.90905" lon="2.12032">
        <ele>489</ele>
        <time>2014-05-13T09:26:08.1Z</time>
      </trkpt>
      <trkpt lat="42.90905" lon="2.12032">
        <ele>489</ele>
        <time>2014-05-13T09:26:10.1Z</time>
      </trkpt>
      <trkpt lat="42.90904" lon="2.12031">
        <ele>489</ele>
        <time>2014-05-13T09:26:13.1Z</time>
      </trkpt>
      <trkpt lat="42.90904" lon="2.12031">
        <ele>489</ele>
        <time>2014-05-13T09:26:17.1Z</time>
      </trkpt>
      <trkpt lat="42.90903" lon="2.12031">
        <ele>489</ele>
        <time>2014-05-13T09:26:19.1Z</time>
      </trkpt>
      <trkpt lat="42.90903" lon="2.1203">
        <ele>489</ele>
        <time>2014-05-13T09:26:22.1Z</time>
      </trkpt>
      <trkpt lat="42.90903" lon="2.12029">
        <ele>489</ele>
        <time>2014-05-13T09:26:25.1Z</time>
      </trkpt>
      <trkpt lat="42.90903" lon="2.12029">
        <ele>489</ele>
        <time>2014-05-13T09:26:27.1Z</time>
      </trkpt>
      <trkpt lat="42.90903" lon="2.12029">
        <ele>489</ele>
        <time>2014-05-13T09:26:30.1Z</time>
      </trkpt>
      <trkpt lat="42.90903" lon="2.12028">
        <ele>489</ele>
        <time>2014-05-13T09:26:32.1Z</time>
      </trkpt>
      <trkpt lat="42.90903" lon="2.12028">
        <ele>489</ele>
        <time>2014-05-13T09:26:36.1Z</time>
      </trkpt>
      <trkpt lat="42.90903" lon="2.12028">
        <ele>489</ele>
        <time>2014-05-13T09:26:40.1Z</time>
      </trkpt>
      <trkpt lat="42.90904" lon="2.12028">
        <ele>489</ele>
        <time>2014-05-13T09:26:43.1Z</time>
      </trkpt>
      <trkpt lat="42.90904" lon="2.12028">
        <ele>489</ele>
        <time>2014-05-13T09:26:45.1Z</time>
      </trkpt>
      <trkpt lat="42.90905" lon="2.12027">
        <ele>490</ele>
        <time>2014-05-13T09:26:48.1Z</time>
      </trkpt>
      <trkpt lat="42.90905" lon="2.12027">
        <ele>489</ele>
        <time>2014-05-13T09:26:52.1Z</time>
      </trkpt>
      <trkpt lat="42.90905" lon="2.12026">
        <ele>489</ele>
        <time>2014-05-13T09:26:54.1Z</time>
      </trkpt>
      <trkpt lat="42.90905" lon="2.12025">
        <ele>489</ele>
        <time>2014-05-13T09:26:57.1Z</time>
      </trkpt>
      <trkpt lat="42.90906" lon="2.12026">
        <ele>490</ele>
        <time>2014-05-13T09:26:59.1Z</time>
      </trkpt>
      <trkpt lat="42.90906" lon="2.12026">
        <ele>490</ele>
        <time>2014-05-13T09:27:01.1Z</time>
      </trkpt>
      <trkpt lat="42.90906" lon="2.12026">
        <ele>489</ele>
        <time>2014-05-13T09:27:06.1Z</time>
      </trkpt>
      <trkpt lat="42.90907" lon="2.12026">
        <ele>489</ele>
        <time>2014-05-13T09:27:08.1Z</time>
      </trkpt>
      <trkpt lat="42.90908" lon="2.12025">
        <ele>489</ele>
        <time>2014-05-13T09:27:11.1Z</time>
      </trkpt>
      <trkpt lat="42.90909" lon="2.12023">
        <ele>489</ele>
        <time>2014-05-13T09:27:14.1Z</time>
      </trkpt>
      <trkpt lat="42.90909" lon="2.12022">
        <ele>489</ele>
        <time>2014-05-13T09:27:17.1Z</time>
      </trkpt>
      <trkpt lat="42.90909" lon="2.12019">
        <ele>489</ele>
        <time>2014-05-13T09:27:20.1Z</time>
      </trkpt>
      <trkpt lat="42.90909" lon="2.12018">
        <ele>489</ele>
        <time>2014-05-13T09:27:22.1Z</time>
      </trkpt>
      <trkpt lat="42.90909" lon="2.12017">
        <ele>488</ele>
        <time>2014-05-13T09:27:25.1Z</time>
      </trkpt>
      <trkpt lat="42.90909" lon="2.12016">
        <ele>488</ele>
        <time>2014-05-13T09:27:27.1Z</time>
      </trkpt>
      <trkpt lat="42.9091" lon="2.12014">
        <ele>488</ele>
        <time>2014-05-13T09:27:30.1Z</time>
      </trkpt>
      <trkpt lat="42.9091" lon="2.12011">
        <ele>488</ele>
        <time>2014-05-13T09:27:33.1Z</time>
      </trkpt>
      <trkpt lat="42.90911" lon="2.1201">
        <ele>487</ele>
        <time>2014-05-13T09:27:35.1Z</time>
      </trkpt>
      <trkpt lat="42.9091" lon="2.12008">
        <ele>487</ele>
        <time>2014-05-13T09:27:38.1Z</time>
      </trkpt>
      <trkpt lat="42.90911" lon="2.12006">
        <ele>487</ele>
        <time>2014-05-13T09:27:40.1Z</time>
      </trkpt>
      <trkpt lat="42.90911" lon="2.12004">
        <ele>487</ele>
        <time>2014-05-13T09:27:43.1Z</time>
      </trkpt>
      <trkpt lat="42.90911" lon="2.12004">
        <ele>487</ele>
        <time>2014-05-13T09:27:45.1Z</time>
      </trkpt>
      <trkpt lat="42.90912" lon="2.12003">
        <ele>487</ele>
        <time>2014-05-13T09:27:48.1Z</time>
      </trkpt>
      <trkpt lat="42.90912" lon="2.12002">
        <ele>487</ele>
        <time>2014-05-13T09:27:50.1Z</time>
      </trkpt>
      <trkpt lat="42.90912" lon="2.12">
        <ele>486</ele>
        <time>2014-05-13T09:27:53.1Z</time>
      </trkpt>
      <trkpt lat="42.90913" lon="2.11997">
        <ele>486</ele>
        <time>2014-05-13T09:27:55.1Z</time>
      </trkpt>
      <trkpt lat="42.90915" lon="2.11993">
        <ele>486</ele>
        <time>2014-05-13T09:27:58.1Z</time>
      </trkpt>
      <trkpt lat="42.90915" lon="2.11989">
        <ele>485</ele>
        <time>2014-05-13T09:28:01.1Z</time>
      </trkpt>
      <trkpt lat="42.90916" lon="2.11987">
        <ele>485</ele>
        <time>2014-05-13T09:28:03.1Z</time>
      </trkpt>
      <trkpt lat="42.90916" lon="2.11984">
        <ele>485</ele>
        <time>2014-05-13T09:28:05.1Z</time>
      </trkpt>
      <trkpt lat="42.90916" lon="2.1198">
        <ele>485</ele>
        <time>2014-05-13T09:28:08.1Z</time>
      </trkpt>
      <trkpt lat="42.90918" lon="2.11976">
        <ele>484</ele>
        <time>2014-05-13T09:28:11.1Z</time>
      </trkpt>
      <trkpt lat="42.90918" lon="2.11974">
        <ele>484</ele>
        <time>2014-05-13T09:28:13.1Z</time>
      </trkpt>
      <trkpt lat="42.90918" lon="2.1197">
        <ele>483</ele>
        <time>2014-05-13T09:28:16.1Z</time>
      </trkpt>
      <trkpt lat="42.90918" lon="2.11966">
        <ele>483</ele>
        <time>2014-05-13T09:28:19.1Z</time>
      </trkpt>
      <trkpt lat="42.90918" lon="2.11962">
        <ele>483</ele>
        <time>2014-05-13T09:28:22.1Z</time>
      </trkpt>
      <trkpt lat="42.90916" lon="2.11959">
        <ele>482</ele>
        <time>2014-05-13T09:28:25.1Z</time>
      </trkpt>
      <trkpt lat="42.90916" lon="2.11956">
        <ele>482</ele>
        <time>2014-05-13T09:28:27.1Z</time>
      </trkpt>
      <trkpt lat="42.90914" lon="2.11952">
        <ele>481</ele>
        <time>2014-05-13T09:28:30.1Z</time>
      </trkpt>
      <trkpt lat="42.90913" lon="2.11948">
        <ele>480</ele>
        <time>2014-05-13T09:28:33.1Z</time>
      </trkpt>
      <trkpt lat="42.90912" lon="2.11944">
        <ele>480</ele>
        <time>2014-05-13T09:28:35.1Z</time>
      </trkpt>
      <trkpt lat="42.90911" lon="2.11942">
        <ele>480</ele>
        <time>2014-05-13T09:28:37.1Z</time>
      </trkpt>
      <trkpt lat="42.90911" lon="2.11938">
        <ele>480</ele>
        <time>2014-05-13T09:28:40.1Z</time>
      </trkpt>
      <trkpt lat="42.90912" lon="2.11934">
        <ele>480</ele>
        <time>2014-05-13T09:28:43.1Z</time>
      </trkpt>
      <trkpt lat="42.90913" lon="2.11932">
        <ele>480</ele>
        <time>2014-05-13T09:28:45.1Z</time>
      </trkpt>
      <trkpt lat="42.90915" lon="2.11931">
        <ele>480</ele>
        <time>2014-05-13T09:28:47.1Z</time>
      </trkpt>
      <trkpt lat="42.90917" lon="2.11927">
        <ele>480</ele>
        <time>2014-05-13T09:28:50.1Z</time>
      </trkpt>
      <trkpt lat="42.90918" lon="2.11924">
        <ele>479</ele>
        <time>2014-05-13T09:28:52.1Z</time>
      </trkpt>
      <trkpt lat="42.90919" lon="2.11919">
        <ele>479</ele>
        <time>2014-05-13T09:28:55.1Z</time>
      </trkpt>
      <trkpt lat="42.9092" lon="2.11917">
        <ele>479</ele>
        <time>2014-05-13T09:28:57.1Z</time>
      </trkpt>
      <trkpt lat="42.9092" lon="2.11914">
        <ele>478</ele>
        <time>2014-05-13T09:28:59.1Z</time>
      </trkpt>
      <trkpt lat="42.90922" lon="2.11911">
        <ele>478</ele>
        <time>2014-05-13T09:29:02.1Z</time>
      </trkpt>
      <trkpt lat="42.90924" lon="2.11908">
        <ele>478</ele>
        <time>2014-05-13T09:29:05.1Z</time>
      </trkpt>
      <trkpt lat="42.90926" lon="2.11906">
        <ele>478</ele>
        <time>2014-05-13T09:29:07.1Z</time>
      </trkpt>
      <trkpt lat="42.90928" lon="2.11903">
        <ele>478</ele>
        <time>2014-05-13T09:29:10.1Z</time>
      </trkpt>
      <trkpt lat="42.90929" lon="2.119">
        <ele>478</ele>
        <time>2014-05-13T09:29:12.1Z</time>
      </trkpt>
      <trkpt lat="42.90931" lon="2.11896">
        <ele>478</ele>
        <time>2014-05-13T09:29:15.1Z</time>
      </trkpt>
      <trkpt lat="42.90934" lon="2.11893">
        <ele>477</ele>
        <time>2014-05-13T09:29:18.1Z</time>
      </trkpt>
      <trkpt lat="42.90936" lon="2.1189">
        <ele>477</ele>
        <time>2014-05-13T09:29:20.1Z</time>
      </trkpt>
      <trkpt lat="42.90938" lon="2.11887">
        <ele>477</ele>
        <time>2014-05-13T09:29:23.1Z</time>
      </trkpt>
      <trkpt lat="42.90939" lon="2.11884">
        <ele>477</ele>
        <time>2014-05-13T09:29:25.1Z</time>
      </trkpt>
      <trkpt lat="42.90942" lon="2.11881">
        <ele>477</ele>
        <time>2014-05-13T09:29:28.1Z</time>
      </trkpt>
      <trkpt lat="42.90943" lon="2.11879">
        <ele>476</ele>
        <time>2014-05-13T09:29:30.1Z</time>
      </trkpt>
      <trkpt lat="42.90945" lon="2.11877">
        <ele>476</ele>
        <time>2014-05-13T09:29:33.1Z</time>
      </trkpt>
      <trkpt lat="42.90947" lon="2.11875">
        <ele>476</ele>
        <time>2014-05-13T09:29:36.1Z</time>
      </trkpt>
      <trkpt lat="42.90949" lon="2.11872">
        <ele>476</ele>
        <time>2014-05-13T09:29:39.1Z</time>
      </trkpt>
      <trkpt lat="42.90952" lon="2.1187">
        <ele>475</ele>
        <time>2014-05-13T09:29:42.1Z</time>
      </trkpt>
      <trkpt lat="42.90954" lon="2.11869">
        <ele>475</ele>
        <time>2014-05-13T09:29:44.1Z</time>
      </trkpt>
      <trkpt lat="42.90955" lon="2.11868">
        <ele>475</ele>
        <time>2014-05-13T09:29:46.1Z</time>
      </trkpt>
      <trkpt lat="42.90958" lon="2.11866">
        <ele>474</ele>
        <time>2014-05-13T09:29:49.1Z</time>
      </trkpt>
      <trkpt lat="42.9096" lon="2.11865">
        <ele>474</ele>
        <time>2014-05-13T09:29:52.1Z</time>
      </trkpt>
      <trkpt lat="42.90963" lon="2.11863">
        <ele>474</ele>
        <time>2014-05-13T09:29:55.1Z</time>
      </trkpt>
      <trkpt lat="42.90965" lon="2.11862">
        <ele>474</ele>
        <time>2014-05-13T09:29:57.1Z</time>
      </trkpt>
      <trkpt lat="42.90967" lon="2.1186">
        <ele>473</ele>
        <time>2014-05-13T09:30:00.1Z</time>
      </trkpt>
      <trkpt lat="42.9097" lon="2.11859">
        <ele>474</ele>
        <time>2014-05-13T09:30:03.1Z</time>
      </trkpt>
      <trkpt lat="42.90973" lon="2.11858">
        <ele>474</ele>
        <time>2014-05-13T09:30:06.1Z</time>
      </trkpt>
      <trkpt lat="42.90975" lon="2.11857">
        <ele>474</ele>
        <time>2014-05-13T09:30:08.1Z</time>
      </trkpt>
      <trkpt lat="42.90978" lon="2.11855">
        <ele>473</ele>
        <time>2014-05-13T09:30:11.1Z</time>
      </trkpt>
      <trkpt lat="42.90981" lon="2.11853">
        <ele>473</ele>
        <time>2014-05-13T09:30:14.1Z</time>
      </trkpt>
      <trkpt lat="42.90983" lon="2.11852">
        <ele>473</ele>
        <time>2014-05-13T09:30:16.1Z</time>
      </trkpt>
      <trkpt lat="42.90985" lon="2.11851">
        <ele>474</ele>
        <time>2014-05-13T09:30:19.1Z</time>
      </trkpt>
      <trkpt lat="42.90988" lon="2.11849">
        <ele>474</ele>
        <time>2014-05-13T09:30:22.1Z</time>
      </trkpt>
      <trkpt lat="42.9099" lon="2.11849">
        <ele>474</ele>
        <time>2014-05-13T09:30:24.1Z</time>
      </trkpt>
      <trkpt lat="42.90993" lon="2.11848">
        <ele>474</ele>
        <time>2014-05-13T09:30:27.1Z</time>
      </trkpt>
      <trkpt lat="42.90995" lon="2.11847">
        <ele>474</ele>
        <time>2014-05-13T09:30:29.1Z</time>
      </trkpt>
      <trkpt lat="42.90998" lon="2.11846">
        <ele>474</ele>
        <time>2014-05-13T09:30:32.1Z</time>
      </trkpt>
      <trkpt lat="42.91001" lon="2.11845">
        <ele>474</ele>
        <time>2014-05-13T09:30:35.1Z</time>
      </trkpt>
      <trkpt lat="42.91003" lon="2.11845">
        <ele>474</ele>
        <time>2014-05-13T09:30:37.1Z</time>
      </trkpt>
      <trkpt lat="42.91006" lon="2.11844">
        <ele>474</ele>
        <time>2014-05-13T09:30:40.1Z</time>
      </trkpt>
      <trkpt lat="42.91009" lon="2.11844">
        <ele>474</ele>
        <time>2014-05-13T09:30:42.1Z</time>
      </trkpt>
      <trkpt lat="42.91011" lon="2.11844">
        <ele>474</ele>
        <time>2014-05-13T09:30:45.1Z</time>
      </trkpt>
      <trkpt lat="42.91014" lon="2.11844">
        <ele>474</ele>
        <time>2014-05-13T09:30:47.1Z</time>
      </trkpt>
      <trkpt lat="42.91016" lon="2.11845">
        <ele>474</ele>
        <time>2014-05-13T09:30:49.1Z</time>
      </trkpt>
      <trkpt lat="42.91019" lon="2.11846">
        <ele>473</ele>
        <time>2014-05-13T09:30:52.1Z</time>
      </trkpt>
      <trkpt lat="42.91023" lon="2.11846">
        <ele>473</ele>
        <time>2014-05-13T09:30:55.1Z</time>
      </trkpt>
      <trkpt lat="42.91025" lon="2.11847">
        <ele>473</ele>
        <time>2014-05-13T09:30:57.1Z</time>
      </trkpt>
      <trkpt lat="42.91029" lon="2.11848">
        <ele>473</ele>
        <time>2014-05-13T09:31:00.1Z</time>
      </trkpt>
      <trkpt lat="42.91033" lon="2.11848">
        <ele>473</ele>
        <time>2014-05-13T09:31:03.1Z</time>
      </trkpt>
      <trkpt lat="42.91035" lon="2.11848">
        <ele>473</ele>
        <time>2014-05-13T09:31:05.1Z</time>
      </trkpt>
      <trkpt lat="42.91038" lon="2.11847">
        <ele>473</ele>
        <time>2014-05-13T09:31:08.1Z</time>
      </trkpt>
      <trkpt lat="42.91041" lon="2.11848">
        <ele>473</ele>
        <time>2014-05-13T09:31:11.1Z</time>
      </trkpt>
      <trkpt lat="42.91043" lon="2.11847">
        <ele>473</ele>
        <time>2014-05-13T09:31:13.1Z</time>
      </trkpt>
      <trkpt lat="42.91046" lon="2.11847">
        <ele>473</ele>
        <time>2014-05-13T09:31:16.1Z</time>
      </trkpt>
      <trkpt lat="42.91048" lon="2.11847">
        <ele>473</ele>
        <time>2014-05-13T09:31:19.1Z</time>
      </trkpt>
      <trkpt lat="42.91049" lon="2.11848">
        <ele>473</ele>
        <time>2014-05-13T09:31:22.1Z</time>
      </trkpt>
      <trkpt lat="42.9105" lon="2.11848">
        <ele>473</ele>
        <time>2014-05-13T09:31:24.1Z</time>
      </trkpt>
      <trkpt lat="42.91051" lon="2.11847">
        <ele>473</ele>
        <time>2014-05-13T09:31:26.1Z</time>
      </trkpt>
      <trkpt lat="42.91051" lon="2.11847">
        <ele>473</ele>
        <time>2014-05-13T09:31:28.1Z</time>
      </trkpt>
      <trkpt lat="42.91053" lon="2.11849">
        <ele>473</ele>
        <time>2014-05-13T09:31:31.1Z</time>
      </trkpt>
      <trkpt lat="42.91054" lon="2.11851">
        <ele>473</ele>
        <time>2014-05-13T09:31:34.1Z</time>
      </trkpt>
      <trkpt lat="42.91056" lon="2.1185">
        <ele>473</ele>
        <time>2014-05-13T09:31:36.1Z</time>
      </trkpt>
      <trkpt lat="42.91057" lon="2.11851">
        <ele>473</ele>
        <time>2014-05-13T09:31:38.1Z</time>
      </trkpt>
      <trkpt lat="42.91058" lon="2.11851">
        <ele>473</ele>
        <time>2014-05-13T09:31:40.1Z</time>
      </trkpt>
      <trkpt lat="42.91059" lon="2.1185">
        <ele>472</ele>
        <time>2014-05-13T09:31:43.1Z</time>
      </trkpt>
      <trkpt lat="42.91061" lon="2.1185">
        <ele>473</ele>
        <time>2014-05-13T09:31:45.1Z</time>
      </trkpt>
      <trkpt lat="42.91064" lon="2.11849">
        <ele>473</ele>
        <time>2014-05-13T09:31:48.1Z</time>
      </trkpt>
      <trkpt lat="42.91066" lon="2.11849">
        <ele>473</ele>
        <time>2014-05-13T09:31:50.1Z</time>
      </trkpt>
      <trkpt lat="42.91069" lon="2.11848">
        <ele>472</ele>
        <time>2014-05-13T09:31:53.1Z</time>
      </trkpt>
      <trkpt lat="42.91071" lon="2.11848">
        <ele>472</ele>
        <time>2014-05-13T09:31:56.1Z</time>
      </trkpt>
      <trkpt lat="42.91073" lon="2.11847">
        <ele>472</ele>
        <time>2014-05-13T09:31:58.1Z</time>
      </trkpt>
      <trkpt lat="42.91076" lon="2.11847">
        <ele>471</ele>
        <time>2014-05-13T09:32:01.1Z</time>
      </trkpt>
      <trkpt lat="42.91077" lon="2.11846">
        <ele>471</ele>
        <time>2014-05-13T09:32:03.1Z</time>
      </trkpt>
      <trkpt lat="42.91079" lon="2.11845">
        <ele>471</ele>
        <time>2014-05-13T09:32:06.1Z</time>
      </trkpt>
      <trkpt lat="42.91082" lon="2.11843">
        <ele>471</ele>
        <time>2014-05-13T09:32:09.1Z</time>
      </trkpt>
      <trkpt lat="42.91085" lon="2.11842">
        <ele>471</ele>
        <time>2014-05-13T09:32:12.1Z</time>
      </trkpt>
      <trkpt lat="42.91087" lon="2.11842">
        <ele>470</ele>
        <time>2014-05-13T09:32:14.1Z</time>
      </trkpt>
      <trkpt lat="42.9109" lon="2.1184">
        <ele>470</ele>
        <time>2014-05-13T09:32:17.1Z</time>
      </trkpt>
      <trkpt lat="42.91094" lon="2.11839">
        <ele>470</ele>
        <time>2014-05-13T09:32:20.1Z</time>
      </trkpt>
      <trkpt lat="42.91097" lon="2.11837">
        <ele>471</ele>
        <time>2014-05-13T09:32:23.1Z</time>
      </trkpt>
      <trkpt lat="42.91101" lon="2.11835">
        <ele>470</ele>
        <time>2014-05-13T09:32:26.1Z</time>
      </trkpt>
      <trkpt lat="42.91103" lon="2.11835">
        <ele>470</ele>
        <time>2014-05-13T09:32:28.1Z</time>
      </trkpt>
      <trkpt lat="42.91106" lon="2.11834">
        <ele>470</ele>
        <time>2014-05-13T09:32:31.1Z</time>
      </trkpt>
      <trkpt lat="42.91107" lon="2.11833">
        <ele>469</ele>
        <time>2014-05-13T09:32:33.1Z</time>
      </trkpt>
      <trkpt lat="42.91111" lon="2.11832">
        <ele>469</ele>
        <time>2014-05-13T09:32:36.1Z</time>
      </trkpt>
      <trkpt lat="42.91113" lon="2.11832">
        <ele>469</ele>
        <time>2014-05-13T09:32:38.1Z</time>
      </trkpt>
      <trkpt lat="42.91116" lon="2.11831">
        <ele>469</ele>
        <time>2014-05-13T09:32:41.1Z</time>
      </trkpt>
      <trkpt lat="42.91119" lon="2.1183">
        <ele>469</ele>
        <time>2014-05-13T09:32:44.1Z</time>
      </trkpt>
      <trkpt lat="42.91121" lon="2.1183">
        <ele>469</ele>
        <time>2014-05-13T09:32:46.1Z</time>
      </trkpt>
      <trkpt lat="42.91124" lon="2.11829">
        <ele>469</ele>
        <time>2014-05-13T09:32:49.1Z</time>
      </trkpt>
      <trkpt lat="42.91125" lon="2.11829">
        <ele>469</ele>
        <time>2014-05-13T09:32:51.1Z</time>
      </trkpt>
      <trkpt lat="42.91128" lon="2.11827">
        <ele>468</ele>
        <time>2014-05-13T09:32:54.1Z</time>
      </trkpt>
      <trkpt lat="42.9113" lon="2.11825">
        <ele>468</ele>
        <time>2014-05-13T09:32:57.1Z</time>
      </trkpt>
      <trkpt lat="42.91132" lon="2.11825">
        <ele>468</ele>
        <time>2014-05-13T09:32:59.1Z</time>
      </trkpt>
      <trkpt lat="42.91135" lon="2.11824">
        <ele>468</ele>
        <time>2014-05-13T09:33:02.1Z</time>
      </trkpt>
      <trkpt lat="42.91139" lon="2.11822">
        <ele>467</ele>
        <time>2014-05-13T09:33:05.1Z</time>
      </trkpt>
      <trkpt lat="42.91142" lon="2.1182">
        <ele>467</ele>
        <time>2014-05-13T09:33:08.1Z</time>
      </trkpt>
      <trkpt lat="42.91145" lon="2.11818">
        <ele>467</ele>
        <time>2014-05-13T09:33:11.1Z</time>
      </trkpt>
      <trkpt lat="42.91148" lon="2.11817">
        <ele>467</ele>
        <time>2014-05-13T09:33:13.1Z</time>
      </trkpt>
      <trkpt lat="42.9115" lon="2.11816">
        <ele>467</ele>
        <time>2014-05-13T09:33:16.1Z</time>
      </trkpt>
      <trkpt lat="42.91152" lon="2.11815">
        <ele>467</ele>
        <time>2014-05-13T09:33:18.1Z</time>
      </trkpt>
      <trkpt lat="42.91155" lon="2.11813">
        <ele>466</ele>
        <time>2014-05-13T09:33:21.1Z</time>
      </trkpt>
      <trkpt lat="42.91157" lon="2.11813">
        <ele>466</ele>
        <time>2014-05-13T09:33:23.1Z</time>
      </trkpt>
      <trkpt lat="42.9116" lon="2.11812">
        <ele>466</ele>
        <time>2014-05-13T09:33:26.1Z</time>
      </trkpt>
      <trkpt lat="42.91162" lon="2.11811">
        <ele>466</ele>
        <time>2014-05-13T09:33:28.1Z</time>
      </trkpt>
      <trkpt lat="42.91165" lon="2.11809">
        <ele>466</ele>
        <time>2014-05-13T09:33:31.1Z</time>
      </trkpt>
      <trkpt lat="42.91167" lon="2.11808">
        <ele>466</ele>
        <time>2014-05-13T09:33:33.1Z</time>
      </trkpt>
      <trkpt lat="42.9117" lon="2.11806">
        <ele>466</ele>
        <time>2014-05-13T09:33:36.1Z</time>
      </trkpt>
      <trkpt lat="42.91173" lon="2.11805">
        <ele>465</ele>
        <time>2014-05-13T09:33:39.1Z</time>
      </trkpt>
      <trkpt lat="42.91177" lon="2.11803">
        <ele>465</ele>
        <time>2014-05-13T09:33:42.1Z</time>
      </trkpt>
      <trkpt lat="42.91178" lon="2.11802">
        <ele>465</ele>
        <time>2014-05-13T09:33:44.1Z</time>
      </trkpt>
      <trkpt lat="42.91182" lon="2.11801">
        <ele>465</ele>
        <time>2014-05-13T09:33:47.1Z</time>
      </trkpt>
      <trkpt lat="42.91186" lon="2.11799">
        <ele>464</ele>
        <time>2014-05-13T09:33:50.1Z</time>
      </trkpt>
      <trkpt lat="42.9119" lon="2.11798">
        <ele>465</ele>
        <time>2014-05-13T09:33:53.1Z</time>
      </trkpt>
      <trkpt lat="42.91193" lon="2.11796">
        <ele>465</ele>
        <time>2014-05-13T09:33:56.1Z</time>
      </trkpt>
      <trkpt lat="42.91196" lon="2.11795">
        <ele>465</ele>
        <time>2014-05-13T09:33:58.1Z</time>
      </trkpt>
      <trkpt lat="42.91198" lon="2.11794">
        <ele>464</ele>
        <time>2014-05-13T09:34:00.1Z</time>
      </trkpt>
      <trkpt lat="42.91201" lon="2.11793">
        <ele>464</ele>
        <time>2014-05-13T09:34:03.1Z</time>
      </trkpt>
      <trkpt lat="42.91203" lon="2.11792">
        <ele>464</ele>
        <time>2014-05-13T09:34:06.1Z</time>
      </trkpt>
      <trkpt lat="42.91205" lon="2.11792">
        <ele>464</ele>
        <time>2014-05-13T09:34:08.1Z</time>
      </trkpt>
      <trkpt lat="42.91208" lon="2.11791">
        <ele>464</ele>
        <time>2014-05-13T09:34:11.1Z</time>
      </trkpt>
      <trkpt lat="42.91209" lon="2.11791">
        <ele>464</ele>
        <time>2014-05-13T09:34:13.1Z</time>
      </trkpt>
      <trkpt lat="42.91212" lon="2.11792">
        <ele>464</ele>
        <time>2014-05-13T09:34:16.1Z</time>
      </trkpt>
      <trkpt lat="42.91214" lon="2.11792">
        <ele>464</ele>
        <time>2014-05-13T09:34:18.1Z</time>
      </trkpt>
      <trkpt lat="42.91216" lon="2.11793">
        <ele>463</ele>
        <time>2014-05-13T09:34:21.1Z</time>
      </trkpt>
      <trkpt lat="42.91217" lon="2.11794">
        <ele>463</ele>
        <time>2014-05-13T09:34:23.1Z</time>
      </trkpt>
      <trkpt lat="42.91217" lon="2.11794">
        <ele>463</ele>
        <time>2014-05-13T09:34:25.1Z</time>
      </trkpt>
      <trkpt lat="42.91219" lon="2.11794">
        <ele>463</ele>
        <time>2014-05-13T09:34:28.1Z</time>
      </trkpt>
      <trkpt lat="42.91219" lon="2.11795">
        <ele>463</ele>
        <time>2014-05-13T09:34:31.1Z</time>
      </trkpt>
      <trkpt lat="42.9122" lon="2.11795">
        <ele>463</ele>
        <time>2014-05-13T09:34:33.1Z</time>
      </trkpt>
      <trkpt lat="42.9122" lon="2.11796">
        <ele>463</ele>
        <time>2014-05-13T09:34:36.1Z</time>
      </trkpt>
      <trkpt lat="42.9122" lon="2.11797">
        <ele>463</ele>
        <time>2014-05-13T09:34:40.1Z</time>
      </trkpt>
      <trkpt lat="42.9122" lon="2.11797">
        <ele>463</ele>
        <time>2014-05-13T09:34:43.1Z</time>
      </trkpt>
      <trkpt lat="42.91221" lon="2.11798">
        <ele>463</ele>
        <time>2014-05-13T09:34:46.1Z</time>
      </trkpt>
      <trkpt lat="42.91221" lon="2.11799">
        <ele>463</ele>
        <time>2014-05-13T09:34:48.1Z</time>
      </trkpt>
      <trkpt lat="42.91221" lon="2.11799">
        <ele>462</ele>
        <time>2014-05-13T09:34:50.1Z</time>
      </trkpt>
      <trkpt lat="42.91221" lon="2.11799">
        <ele>462</ele>
        <time>2014-05-13T09:34:53.1Z</time>
      </trkpt>
      <trkpt lat="42.91221" lon="2.11801">
        <ele>463</ele>
        <time>2014-05-13T09:34:56.1Z</time>
      </trkpt>
      <trkpt lat="42.9122" lon="2.11801">
        <ele>463</ele>
        <time>2014-05-13T09:34:58.1Z</time>
      </trkpt>
      <trkpt lat="42.9122" lon="2.11802">
        <ele>463</ele>
        <time>2014-05-13T09:35:01.1Z</time>
      </trkpt>
      <trkpt lat="42.9122" lon="2.11803">
        <ele>463</ele>
        <time>2014-05-13T09:35:04.1Z</time>
      </trkpt>
      <trkpt lat="42.9122" lon="2.11803">
        <ele>462</ele>
        <time>2014-05-13T09:35:08.1Z</time>
      </trkpt>
      <trkpt lat="42.91219" lon="2.11804">
        <ele>462</ele>
        <time>2014-05-13T09:35:12.1Z</time>
      </trkpt>
      <trkpt lat="42.9122" lon="2.11805">
        <ele>462</ele>
        <time>2014-05-13T09:35:15.1Z</time>
      </trkpt>
      <trkpt lat="42.9122" lon="2.11805">
        <ele>463</ele>
        <time>2014-05-13T09:35:17.1Z</time>
      </trkpt>
      <trkpt lat="42.9122" lon="2.11805">
        <ele>463</ele>
        <time>2014-05-13T09:35:20.1Z</time>
      </trkpt>
      <trkpt lat="42.9122" lon="2.11805">
        <ele>463</ele>
        <time>2014-05-13T09:35:22.1Z</time>
      </trkpt>
      <trkpt lat="42.9122" lon="2.11806">
        <ele>462</ele>
        <time>2014-05-13T09:35:24.1Z</time>
      </trkpt>
      <trkpt lat="42.9122" lon="2.11806">
        <ele>462</ele>
        <time>2014-05-13T09:35:27.1Z</time>
      </trkpt>
      <trkpt lat="42.9122" lon="2.11806">
        <ele>462</ele>
        <time>2014-05-13T09:35:30.1Z</time>
      </trkpt>
      <trkpt lat="42.9122" lon="2.11805">
        <ele>462</ele>
        <time>2014-05-13T09:35:32.1Z</time>
      </trkpt>
      <trkpt lat="42.91221" lon="2.11805">
        <ele>462</ele>
        <time>2014-05-13T09:35:35.1Z</time>
      </trkpt>
      <trkpt lat="42.91221" lon="2.11804">
        <ele>462</ele>
        <time>2014-05-13T09:35:38.1Z</time>
      </trkpt>
      <trkpt lat="42.91221" lon="2.11803">
        <ele>462</ele>
        <time>2014-05-13T09:35:41.1Z</time>
      </trkpt>
      <trkpt lat="42.91221" lon="2.11802">
        <ele>462</ele>
        <time>2014-05-13T09:35:44.1Z</time>
      </trkpt>
      <trkpt lat="42.91222" lon="2.11801">
        <ele>462</ele>
        <time>2014-05-13T09:35:46.1Z</time>
      </trkpt>
      <trkpt lat="42.91222" lon="2.11801">
        <ele>462</ele>
        <time>2014-05-13T09:35:49.1Z</time>
      </trkpt>
      <trkpt lat="42.91222" lon="2.118">
        <ele>462</ele>
        <time>2014-05-13T09:35:52.1Z</time>
      </trkpt>
      <trkpt lat="42.91223" lon="2.118">
        <ele>462</ele>
        <time>2014-05-13T09:35:55.1Z</time>
      </trkpt>
      <trkpt lat="42.91223" lon="2.118">
        <ele>462</ele>
        <time>2014-05-13T09:35:57.1Z</time>
      </trkpt>
      <trkpt lat="42.91224" lon="2.118">
        <ele>462</ele>
        <time>2014-05-13T09:36:00.1Z</time>
      </trkpt>
      <trkpt lat="42.91225" lon="2.118">
        <ele>462</ele>
        <time>2014-05-13T09:36:02.1Z</time>
      </trkpt>
      <trkpt lat="42.91225" lon="2.118">
        <ele>462</ele>
        <time>2014-05-13T09:36:05.1Z</time>
      </trkpt>
      <trkpt lat="42.91226" lon="2.118">
        <ele>462</ele>
        <time>2014-05-13T09:36:08.1Z</time>
      </trkpt>
      <trkpt lat="42.91226" lon="2.118">
        <ele>462</ele>
        <time>2014-05-13T09:36:10.1Z</time>
      </trkpt>
      <trkpt lat="42.91227" lon="2.118">
        <ele>463</ele>
        <time>2014-05-13T09:36:13.1Z</time>
      </trkpt>
      <trkpt lat="42.91227" lon="2.118">
        <ele>463</ele>
        <time>2014-05-13T09:36:15.1Z</time>
      </trkpt>
      <trkpt lat="42.91227" lon="2.11801">
        <ele>463</ele>
        <time>2014-05-13T09:36:18.1Z</time>
      </trkpt>
      <trkpt lat="42.91227" lon="2.11802">
        <ele>462</ele>
        <time>2014-05-13T09:36:20.1Z</time>
      </trkpt>
      <trkpt lat="42.91226" lon="2.11802">
        <ele>463</ele>
        <time>2014-05-13T09:36:24.1Z</time>
      </trkpt>
      <trkpt lat="42.91226" lon="2.11801">
        <ele>463</ele>
        <time>2014-05-13T09:36:28.1Z</time>
      </trkpt>
      <trkpt lat="42.91226" lon="2.11801">
        <ele>462</ele>
        <time>2014-05-13T09:36:30.1Z</time>
      </trkpt>
      <trkpt lat="42.91226" lon="2.11801">
        <ele>462</ele>
        <time>2014-05-13T09:36:32.1Z</time>
      </trkpt>
      <trkpt lat="42.91227" lon="2.11801">
        <ele>462</ele>
        <time>2014-05-13T09:36:35.1Z</time>
      </trkpt>
      <trkpt lat="42.91226" lon="2.11801">
        <ele>462</ele>
        <time>2014-05-13T09:36:37.1Z</time>
      </trkpt>
      <trkpt lat="42.91226" lon="2.11802">
        <ele>462</ele>
        <time>2014-05-13T09:36:40.1Z</time>
      </trkpt>
      <trkpt lat="42.91225" lon="2.11802">
        <ele>462</ele>
        <time>2014-05-13T09:36:42.1Z</time>
      </trkpt>
      <trkpt lat="42.91225" lon="2.11802">
        <ele>462</ele>
        <time>2014-05-13T09:36:45.1Z</time>
      </trkpt>
      <trkpt lat="42.91226" lon="2.11802">
        <ele>462</ele>
        <time>2014-05-13T09:36:48.1Z</time>
      </trkpt>
      <trkpt lat="42.91226" lon="2.11803">
        <ele>462</ele>
        <time>2014-05-13T09:36:50.1Z</time>
      </trkpt>
      <trkpt lat="42.91225" lon="2.11803">
        <ele>463</ele>
        <time>2014-05-13T09:36:53.1Z</time>
      </trkpt>
      <trkpt lat="42.91225" lon="2.11803">
        <ele>463</ele>
        <time>2014-05-13T09:36:55.1Z</time>
      </trkpt>
      <trkpt lat="42.91225" lon="2.11804">
        <ele>462</ele>
        <time>2014-05-13T09:36:58.1Z</time>
      </trkpt>
      <trkpt lat="42.91225" lon="2.11804">
        <ele>462</ele>
        <time>2014-05-13T09:37:01.1Z</time>
      </trkpt>
      <trkpt lat="42.91225" lon="2.11805">
        <ele>462</ele>
        <time>2014-05-13T09:37:03.1Z</time>
      </trkpt>
      <trkpt lat="42.91225" lon="2.11805">
        <ele>462</ele>
        <time>2014-05-13T09:37:06.1Z</time>
      </trkpt>
      <trkpt lat="42.91225" lon="2.11806">
        <ele>462</ele>
        <time>2014-05-13T09:37:08.1Z</time>
      </trkpt>
      <trkpt lat="42.91226" lon="2.11807">
        <ele>462</ele>
        <time>2014-05-13T09:37:11.1Z</time>
      </trkpt>
      <trkpt lat="42.91226" lon="2.11807">
        <ele>462</ele>
        <time>2014-05-13T09:37:13.1Z</time>
      </trkpt>
      <trkpt lat="42.91225" lon="2.11807">
        <ele>462</ele>
        <time>2014-05-13T09:37:15.1Z</time>
      </trkpt>
      <trkpt lat="42.91225" lon="2.11808">
        <ele>462</ele>
        <time>2014-05-13T09:37:18.1Z</time>
      </trkpt>
      <trkpt lat="42.91225" lon="2.11807">
        <ele>462</ele>
        <time>2014-05-13T09:37:21.1Z</time>
      </trkpt>
      <trkpt lat="42.91225" lon="2.11806">
        <ele>462</ele>
        <time>2014-05-13T09:37:24.1Z</time>
      </trkpt>
      <trkpt lat="42.91224" lon="2.11806">
        <ele>462</ele>
        <time>2014-05-13T09:37:26.1Z</time>
      </trkpt>
      <trkpt lat="42.91225" lon="2.11805">
        <ele>462</ele>
        <time>2014-05-13T09:37:29.1Z</time>
      </trkpt>
      <trkpt lat="42.91228" lon="2.11805">
        <ele>461</ele>
        <time>2014-05-13T09:37:32.1Z</time>
      </trkpt>
      <trkpt lat="42.9123" lon="2.11806">
        <ele>461</ele>
        <time>2014-05-13T09:37:34.1Z</time>
      </trkpt>
      <trkpt lat="42.91233" lon="2.11806">
        <ele>461</ele>
        <time>2014-05-13T09:37:37.1Z</time>
      </trkpt>
      <trkpt lat="42.91235" lon="2.11807">
        <ele>462</ele>
        <time>2014-05-13T09:37:39.1Z</time>
      </trkpt>
      <trkpt lat="42.91238" lon="2.11807">
        <ele>461</ele>
        <time>2014-05-13T09:37:42.1Z</time>
      </trkpt>
      <trkpt lat="42.91241" lon="2.11807">
        <ele>461</ele>
        <time>2014-05-13T09:37:44.1Z</time>
      </trkpt>
      <trkpt lat="42.91244" lon="2.11806">
        <ele>461</ele>
        <time>2014-05-13T09:37:47.1Z</time>
      </trkpt>
      <trkpt lat="42.91246" lon="2.11805">
        <ele>461</ele>
        <time>2014-05-13T09:37:49.1Z</time>
      </trkpt>
      <trkpt lat="42.91249" lon="2.11805">
        <ele>461</ele>
        <time>2014-05-13T09:37:52.1Z</time>
      </trkpt>
      <trkpt lat="42.91252" lon="2.11805">
        <ele>461</ele>
        <time>2014-05-13T09:37:55.1Z</time>
      </trkpt>
      <trkpt lat="42.91254" lon="2.11804">
        <ele>461</ele>
        <time>2014-05-13T09:37:57.1Z</time>
      </trkpt>
      <trkpt lat="42.91257" lon="2.11804">
        <ele>461</ele>
        <time>2014-05-13T09:38:00.1Z</time>
      </trkpt>
      <trkpt lat="42.91259" lon="2.11803">
        <ele>461</ele>
        <time>2014-05-13T09:38:02.1Z</time>
      </trkpt>
      <trkpt lat="42.91263" lon="2.11802">
        <ele>460</ele>
        <time>2014-05-13T09:38:05.1Z</time>
      </trkpt>
      <trkpt lat="42.91266" lon="2.11802">
        <ele>460</ele>
        <time>2014-05-13T09:38:08.1Z</time>
      </trkpt>
      <trkpt lat="42.91269" lon="2.11801">
        <ele>460</ele>
        <time>2014-05-13T09:38:11.1Z</time>
      </trkpt>
      <trkpt lat="42.91273" lon="2.118">
        <ele>460</ele>
        <time>2014-05-13T09:38:14.1Z</time>
      </trkpt>
      <trkpt lat="42.91275" lon="2.11799">
        <ele>459</ele>
        <time>2014-05-13T09:38:16.1Z</time>
      </trkpt>
      <trkpt lat="42.91277" lon="2.11799">
        <ele>459</ele>
        <time>2014-05-13T09:38:18.1Z</time>
      </trkpt>
      <trkpt lat="42.9128" lon="2.11798">
        <ele>459</ele>
        <time>2014-05-13T09:38:21.1Z</time>
      </trkpt>
      <trkpt lat="42.91283" lon="2.11798">
        <ele>459</ele>
        <time>2014-05-13T09:38:24.1Z</time>
      </trkpt>
      <trkpt lat="42.91286" lon="2.11799">
        <ele>458</ele>
        <time>2014-05-13T09:38:26.1Z</time>
      </trkpt>
      <trkpt lat="42.91288" lon="2.11801">
        <ele>458</ele>
        <time>2014-05-13T09:38:29.1Z</time>
      </trkpt>
      <trkpt lat="42.9129" lon="2.11804">
        <ele>458</ele>
        <time>2014-05-13T09:38:32.1Z</time>
      </trkpt>
      <trkpt lat="42.91291" lon="2.11806">
        <ele>459</ele>
        <time>2014-05-13T09:38:35.1Z</time>
      </trkpt>
      <trkpt lat="42.91291" lon="2.11806">
        <ele>459</ele>
        <time>2014-05-13T09:38:37.1Z</time>
      </trkpt>
      <trkpt lat="42.91292" lon="2.11807">
        <ele>459</ele>
        <time>2014-05-13T09:38:40.1Z</time>
      </trkpt>
      <trkpt lat="42.91293" lon="2.11807">
        <ele>459</ele>
        <time>2014-05-13T09:38:43.1Z</time>
      </trkpt>
      <trkpt lat="42.91292" lon="2.11808">
        <ele>458</ele>
        <time>2014-05-13T09:38:46.1Z</time>
      </trkpt>
      <trkpt lat="42.91292" lon="2.11809">
        <ele>459</ele>
        <time>2014-05-13T09:38:48.1Z</time>
      </trkpt>
      <trkpt lat="42.91291" lon="2.11811">
        <ele>459</ele>
        <time>2014-05-13T09:38:51.1Z</time>
      </trkpt>
      <trkpt lat="42.91291" lon="2.1181">
        <ele>459</ele>
        <time>2014-05-13T09:38:53.1Z</time>
      </trkpt>
      <trkpt lat="42.9129" lon="2.1181">
        <ele>460</ele>
        <time>2014-05-13T09:38:55.1Z</time>
      </trkpt>
      <trkpt lat="42.9129" lon="2.1181">
        <ele>460</ele>
        <time>2014-05-13T09:38:58.1Z</time>
      </trkpt>
      <trkpt lat="42.9129" lon="2.1181">
        <ele>460</ele>
        <time>2014-05-13T09:39:00.1Z</time>
      </trkpt>
      <trkpt lat="42.91289" lon="2.1181">
        <ele>460</ele>
        <time>2014-05-13T09:39:03.1Z</time>
      </trkpt>
      <trkpt lat="42.91288" lon="2.1181">
        <ele>460</ele>
        <time>2014-05-13T09:39:05.1Z</time>
      </trkpt>
      <trkpt lat="42.91289" lon="2.1181">
        <ele>460</ele>
        <time>2014-05-13T09:39:08.1Z</time>
      </trkpt>
      <trkpt lat="42.91289" lon="2.11809">
        <ele>460</ele>
        <time>2014-05-13T09:39:10.1Z</time>
      </trkpt>
      <trkpt lat="42.91291" lon="2.11809">
        <ele>460</ele>
        <time>2014-05-13T09:39:13.1Z</time>
      </trkpt>
      <trkpt lat="42.91291" lon="2.11808">
        <ele>460</ele>
        <time>2014-05-13T09:39:15.1Z</time>
      </trkpt>
      <trkpt lat="42.91292" lon="2.11805">
        <ele>459</ele>
        <time>2014-05-13T09:39:18.1Z</time>
      </trkpt>
      <trkpt lat="42.91291" lon="2.11802">
        <ele>459</ele>
        <time>2014-05-13T09:39:21.1Z</time>
      </trkpt>
      <trkpt lat="42.91291" lon="2.11799">
        <ele>459</ele>
        <time>2014-05-13T09:39:24.1Z</time>
      </trkpt>
      <trkpt lat="42.91292" lon="2.11799">
        <ele>459</ele>
        <time>2014-05-13T09:39:27.1Z</time>
      </trkpt>
      <trkpt lat="42.91293" lon="2.11798">
        <ele>459</ele>
        <time>2014-05-13T09:39:30.1Z</time>
      </trkpt>
      <trkpt lat="42.91293" lon="2.11799">
        <ele>459</ele>
        <time>2014-05-13T09:39:33.1Z</time>
      </trkpt>
      <trkpt lat="42.91293" lon="2.11799">
        <ele>459</ele>
        <time>2014-05-13T09:39:36.1Z</time>
      </trkpt>
      <trkpt lat="42.91294" lon="2.11798">
        <ele>459</ele>
        <time>2014-05-13T09:39:39.1Z</time>
      </trkpt>
      <trkpt lat="42.91295" lon="2.11798">
        <ele>459</ele>
        <time>2014-05-13T09:39:41.1Z</time>
      </trkpt>
      <trkpt lat="42.91297" lon="2.11796">
        <ele>459</ele>
        <time>2014-05-13T09:39:44.1Z</time>
      </trkpt>
      <trkpt lat="42.91299" lon="2.11795">
        <ele>459</ele>
        <time>2014-05-13T09:39:47.1Z</time>
      </trkpt>
      <trkpt lat="42.91302" lon="2.11794">
        <ele>458</ele>
        <time>2014-05-13T09:39:50.1Z</time>
      </trkpt>
      <trkpt lat="42.91304" lon="2.11793">
        <ele>457</ele>
        <time>2014-05-13T09:39:53.1Z</time>
      </trkpt>
      <trkpt lat="42.91306" lon="2.11792">
        <ele>457</ele>
        <time>2014-05-13T09:39:56.1Z</time>
      </trkpt>
      <trkpt lat="42.91308" lon="2.11791">
        <ele>458</ele>
        <time>2014-05-13T09:39:59.1Z</time>
      </trkpt>
      <trkpt lat="42.91309" lon="2.11791">
        <ele>457</ele>
        <time>2014-05-13T09:40:01.1Z</time>
      </trkpt>
      <trkpt lat="42.91311" lon="2.11789">
        <ele>457</ele>
        <time>2014-05-13T09:40:04.1Z</time>
      </trkpt>
      <trkpt lat="42.91313" lon="2.11789">
        <ele>457</ele>
        <time>2014-05-13T09:40:06.1Z</time>
      </trkpt>
      <trkpt lat="42.91315" lon="2.11788">
        <ele>457</ele>
        <time>2014-05-13T09:40:09.1Z</time>
      </trkpt>
      <trkpt lat="42.91318" lon="2.11787">
        <ele>457</ele>
        <time>2014-05-13T09:40:12.1Z</time>
      </trkpt>
      <trkpt lat="42.9132" lon="2.11786">
        <ele>457</ele>
        <time>2014-05-13T09:40:14.1Z</time>
      </trkpt>
      <trkpt lat="42.91323" lon="2.11785">
        <ele>457</ele>
        <time>2014-05-13T09:40:17.1Z</time>
      </trkpt>
      <trkpt lat="42.91326" lon="2.11784">
        <ele>457</ele>
        <time>2014-05-13T09:40:20.1Z</time>
      </trkpt>
      <trkpt lat="42.91326" lon="2.11784">
        <ele>457</ele>
        <time>2014-05-13T09:40:23.1Z</time>
      </trkpt>
      <trkpt lat="42.91326" lon="2.11784">
        <ele>456</ele>
        <time>2014-05-13T09:40:25.1Z</time>
      </trkpt>
      <trkpt lat="42.91326" lon="2.11784">
        <ele>457</ele>
        <time>2014-05-13T09:40:31.1Z</time>
      </trkpt>
      <trkpt lat="42.91326" lon="2.11784">
        <ele>457</ele>
        <time>2014-05-13T09:40:33.1Z</time>
      </trkpt>
      <trkpt lat="42.91326" lon="2.11784">
        <ele>457</ele>
        <time>2014-05-13T09:40:36.1Z</time>
      </trkpt>
      <trkpt lat="42.91327" lon="2.11784">
        <ele>456</ele>
        <time>2014-05-13T09:40:38.1Z</time>
      </trkpt>
      <trkpt lat="42.91328" lon="2.11783">
        <ele>456</ele>
        <time>2014-05-13T09:40:41.1Z</time>
      </trkpt>
      <trkpt lat="42.9133" lon="2.11782">
        <ele>456</ele>
        <time>2014-05-13T09:40:43.1Z</time>
      </trkpt>
      <trkpt lat="42.91331" lon="2.11783">
        <ele>456</ele>
        <time>2014-05-13T09:40:46.1Z</time>
      </trkpt>
      <trkpt lat="42.91331" lon="2.11784">
        <ele>456</ele>
        <time>2014-05-13T09:40:48.1Z</time>
      </trkpt>
      <trkpt lat="42.91331" lon="2.11783">
        <ele>456</ele>
        <time>2014-05-13T09:40:51.1Z</time>
      </trkpt>
      <trkpt lat="42.91331" lon="2.11783">
        <ele>456</ele>
        <time>2014-05-13T09:40:53.1Z</time>
      </trkpt>
      <trkpt lat="42.91332" lon="2.11783">
        <ele>456</ele>
        <time>2014-05-13T09:40:55.1Z</time>
      </trkpt>
      <trkpt lat="42.91332" lon="2.11783">
        <ele>456</ele>
        <time>2014-05-13T09:40:59.1Z</time>
      </trkpt>
      <trkpt lat="42.91332" lon="2.11783">
        <ele>456</ele>
        <time>2014-05-13T09:41:01.1Z</time>
      </trkpt>
      <trkpt lat="42.91332" lon="2.11783">
        <ele>456</ele>
        <time>2014-05-13T09:41:04.1Z</time>
      </trkpt>
      <trkpt lat="42.91332" lon="2.11782">
        <ele>456</ele>
        <time>2014-05-13T09:41:08.1Z</time>
      </trkpt>
      <trkpt lat="42.91332" lon="2.11782">
        <ele>456</ele>
        <time>2014-05-13T09:41:11.1Z</time>
      </trkpt>
      <trkpt lat="42.91333" lon="2.11782">
        <ele>456</ele>
        <time>2014-05-13T09:41:13.1Z</time>
      </trkpt>
      <trkpt lat="42.91333" lon="2.11782">
        <ele>456</ele>
        <time>2014-05-13T09:41:16.1Z</time>
      </trkpt>
      <trkpt lat="42.91333" lon="2.11782">
        <ele>456</ele>
        <time>2014-05-13T09:41:18.1Z</time>
      </trkpt>
      <trkpt lat="42.91333" lon="2.11782">
        <ele>456</ele>
        <time>2014-05-13T09:41:22.1Z</time>
      </trkpt>
      <trkpt lat="42.91333" lon="2.11781">
        <ele>456</ele>
        <time>2014-05-13T09:41:25.1Z</time>
      </trkpt>
      <trkpt lat="42.91333" lon="2.11782">
        <ele>455</ele>
        <time>2014-05-13T09:41:27.1Z</time>
      </trkpt>
      <trkpt lat="42.91333" lon="2.11782">
        <ele>455</ele>
        <time>2014-05-13T09:41:32.1Z</time>
      </trkpt>
      <trkpt lat="42.91332" lon="2.11782">
        <ele>455</ele>
        <time>2014-05-13T09:41:35.1Z</time>
      </trkpt>
      <trkpt lat="42.91332" lon="2.11783">
        <ele>456</ele>
        <time>2014-05-13T09:41:38.1Z</time>
      </trkpt>
      <trkpt lat="42.91332" lon="2.11783">
        <ele>456</ele>
        <time>2014-05-13T09:41:41.1Z</time>
      </trkpt>
      <trkpt lat="42.91331" lon="2.11783">
        <ele>456</ele>
        <time>2014-05-13T09:41:43.1Z</time>
      </trkpt>
      <trkpt lat="42.91331" lon="2.11783">
        <ele>456</ele>
        <time>2014-05-13T09:41:46.1Z</time>
      </trkpt>
      <trkpt lat="42.91331" lon="2.11783">
        <ele>456</ele>
        <time>2014-05-13T09:41:48.1Z</time>
      </trkpt>
      <trkpt lat="42.91331" lon="2.11783">
        <ele>456</ele>
        <time>2014-05-13T09:41:51.1Z</time>
      </trkpt>
      <trkpt lat="42.91331" lon="2.11783">
        <ele>456</ele>
        <time>2014-05-13T09:41:54.1Z</time>
      </trkpt>
      <trkpt lat="42.91331" lon="2.11782">
        <ele>456</ele>
        <time>2014-05-13T09:41:56.1Z</time>
      </trkpt>
      <trkpt lat="42.91332" lon="2.11781">
        <ele>456</ele>
        <time>2014-05-13T09:41:59.1Z</time>
      </trkpt>
      <trkpt lat="42.91333" lon="2.1178">
        <ele>456</ele>
        <time>2014-05-13T09:42:01.1Z</time>
      </trkpt>
      <trkpt lat="42.91335" lon="2.11779">
        <ele>456</ele>
        <time>2014-05-13T09:42:04.1Z</time>
      </trkpt>
      <trkpt lat="42.91336" lon="2.11778">
        <ele>456</ele>
        <time>2014-05-13T09:42:06.1Z</time>
      </trkpt>
      <trkpt lat="42.91338" lon="2.11777">
        <ele>455</ele>
        <time>2014-05-13T09:42:09.1Z</time>
      </trkpt>
      <trkpt lat="42.91341" lon="2.11776">
        <ele>455</ele>
        <time>2014-05-13T09:42:12.1Z</time>
      </trkpt>
      <trkpt lat="42.91343" lon="2.11775">
        <ele>455</ele>
        <time>2014-05-13T09:42:14.1Z</time>
      </trkpt>
      <trkpt lat="42.91345" lon="2.11775">
        <ele>455</ele>
        <time>2014-05-13T09:42:17.1Z</time>
      </trkpt>
      <trkpt lat="42.91348" lon="2.11775">
        <ele>455</ele>
        <time>2014-05-13T09:42:20.1Z</time>
      </trkpt>
      <trkpt lat="42.91349" lon="2.11775">
        <ele>455</ele>
        <time>2014-05-13T09:42:22.1Z</time>
      </trkpt>
      <trkpt lat="42.91351" lon="2.11775">
        <ele>454</ele>
        <time>2014-05-13T09:42:25.1Z</time>
      </trkpt>
      <trkpt lat="42.91352" lon="2.11774">
        <ele>455</ele>
        <time>2014-05-13T09:42:27.1Z</time>
      </trkpt>
      <trkpt lat="42.91354" lon="2.11774">
        <ele>455</ele>
        <time>2014-05-13T09:42:30.1Z</time>
      </trkpt>
      <trkpt lat="42.91356" lon="2.11774">
        <ele>455</ele>
        <time>2014-05-13T09:42:32.1Z</time>
      </trkpt>
      <trkpt lat="42.91357" lon="2.11773">
        <ele>455</ele>
        <time>2014-05-13T09:42:35.1Z</time>
      </trkpt>
      <trkpt lat="42.91359" lon="2.11773">
        <ele>455</ele>
        <time>2014-05-13T09:42:37.1Z</time>
      </trkpt>
      <trkpt lat="42.9136" lon="2.11772">
        <ele>455</ele>
        <time>2014-05-13T09:42:39.1Z</time>
      </trkpt>
      <trkpt lat="42.91363" lon="2.11772">
        <ele>455</ele>
        <time>2014-05-13T09:42:42.1Z</time>
      </trkpt>
      <trkpt lat="42.91365" lon="2.11771">
        <ele>455</ele>
        <time>2014-05-13T09:42:45.1Z</time>
      </trkpt>
      <trkpt lat="42.91367" lon="2.11771">
        <ele>456</ele>
        <time>2014-05-13T09:42:47.1Z</time>
      </trkpt>
      <trkpt lat="42.9137" lon="2.1177">
        <ele>456</ele>
        <time>2014-05-13T09:42:50.1Z</time>
      </trkpt>
      <trkpt lat="42.91372" lon="2.11769">
        <ele>456</ele>
        <time>2014-05-13T09:42:52.1Z</time>
      </trkpt>
      <trkpt lat="42.91375" lon="2.11768">
        <ele>455</ele>
        <time>2014-05-13T09:42:55.1Z</time>
      </trkpt>
      <trkpt lat="42.91377" lon="2.11767">
        <ele>455</ele>
        <time>2014-05-13T09:42:57.1Z</time>
      </trkpt>
      <trkpt lat="42.9138" lon="2.11766">
        <ele>455</ele>
        <time>2014-05-13T09:43:00.1Z</time>
      </trkpt>
      <trkpt lat="42.91382" lon="2.11766">
        <ele>455</ele>
        <time>2014-05-13T09:43:02.1Z</time>
      </trkpt>
      <trkpt lat="42.91383" lon="2.11765">
        <ele>454</ele>
        <time>2014-05-13T09:43:04.1Z</time>
      </trkpt>
      <trkpt lat="42.91385" lon="2.11764">
        <ele>455</ele>
        <time>2014-05-13T09:43:07.1Z</time>
      </trkpt>
      <trkpt lat="42.91386" lon="2.11763">
        <ele>454</ele>
        <time>2014-05-13T09:43:10.1Z</time>
      </trkpt>
      <trkpt lat="42.91386" lon="2.11762">
        <ele>454</ele>
        <time>2014-05-13T09:43:12.1Z</time>
      </trkpt>
      <trkpt lat="42.91388" lon="2.11761">
        <ele>454</ele>
        <time>2014-05-13T09:43:15.1Z</time>
      </trkpt>
      <trkpt lat="42.91389" lon="2.11761">
        <ele>454</ele>
        <time>2014-05-13T09:43:18.1Z</time>
      </trkpt>
      <trkpt lat="42.9139" lon="2.11762">
        <ele>454</ele>
        <time>2014-05-13T09:43:21.1Z</time>
      </trkpt>
      <trkpt lat="42.91392" lon="2.11762">
        <ele>454</ele>
        <time>2014-05-13T09:43:24.1Z</time>
      </trkpt>
      <trkpt lat="42.91393" lon="2.11761">
        <ele>453</ele>
        <time>2014-05-13T09:43:26.1Z</time>
      </trkpt>
      <trkpt lat="42.91395" lon="2.1176">
        <ele>454</ele>
        <time>2014-05-13T09:43:29.1Z</time>
      </trkpt>
      <trkpt lat="42.91396" lon="2.1176">
        <ele>454</ele>
        <time>2014-05-13T09:43:32.1Z</time>
      </trkpt>
      <trkpt lat="42.91397" lon="2.11759">
        <ele>454</ele>
        <time>2014-05-13T09:43:35.1Z</time>
      </trkpt>
      <trkpt lat="42.91398" lon="2.11759">
        <ele>454</ele>
        <time>2014-05-13T09:43:38.1Z</time>
      </trkpt>
      <trkpt lat="42.91398" lon="2.11759">
        <ele>454</ele>
        <time>2014-05-13T09:43:40.1Z</time>
      </trkpt>
      <trkpt lat="42.91399" lon="2.11758">
        <ele>454</ele>
        <time>2014-05-13T09:43:42.1Z</time>
      </trkpt>
      <trkpt lat="42.91401" lon="2.11758">
        <ele>454</ele>
        <time>2014-05-13T09:43:45.1Z</time>
      </trkpt>
      <trkpt lat="42.91403" lon="2.11758">
        <ele>454</ele>
        <time>2014-05-13T09:43:48.1Z</time>
      </trkpt>
      <trkpt lat="42.91404" lon="2.11757">
        <ele>454</ele>
        <time>2014-05-13T09:43:50.1Z</time>
      </trkpt>
      <trkpt lat="42.91406" lon="2.11756">
        <ele>453</ele>
        <time>2014-05-13T09:43:53.1Z</time>
      </trkpt>
      <trkpt lat="42.91408" lon="2.11755">
        <ele>453</ele>
        <time>2014-05-13T09:43:55.1Z</time>
      </trkpt>
      <trkpt lat="42.9141" lon="2.11754">
        <ele>453</ele>
        <time>2014-05-13T09:43:58.1Z</time>
      </trkpt>
      <trkpt lat="42.91411" lon="2.11754">
        <ele>453</ele>
        <time>2014-05-13T09:44:01.1Z</time>
      </trkpt>
      <trkpt lat="42.91411" lon="2.11754">
        <ele>453</ele>
        <time>2014-05-13T09:44:04.1Z</time>
      </trkpt>
      <trkpt lat="42.91411" lon="2.11753">
        <ele>453</ele>
        <time>2014-05-13T09:44:06.1Z</time>
      </trkpt>
      <trkpt lat="42.91412" lon="2.11753">
        <ele>452</ele>
        <time>2014-05-13T09:44:08.1Z</time>
      </trkpt>
      <trkpt lat="42.91413" lon="2.11752">
        <ele>452</ele>
        <time>2014-05-13T09:44:11.1Z</time>
      </trkpt>
      <trkpt lat="42.91414" lon="2.11752">
        <ele>452</ele>
        <time>2014-05-13T09:44:14.1Z</time>
      </trkpt>
      <trkpt lat="42.91415" lon="2.11752">
        <ele>452</ele>
        <time>2014-05-13T09:44:16.1Z</time>
      </trkpt>
      <trkpt lat="42.91415" lon="2.11752">
        <ele>452</ele>
        <time>2014-05-13T09:44:19.1Z</time>
      </trkpt>
      <trkpt lat="42.91416" lon="2.11753">
        <ele>453</ele>
        <time>2014-05-13T09:44:21.1Z</time>
      </trkpt>
      <trkpt lat="42.91417" lon="2.11753">
        <ele>453</ele>
        <time>2014-05-13T09:44:24.1Z</time>
      </trkpt>
      <trkpt lat="42.91417" lon="2.11753">
        <ele>453</ele>
        <time>2014-05-13T09:44:26.1Z</time>
      </trkpt>
      <trkpt lat="42.91418" lon="2.11753">
        <ele>453</ele>
        <time>2014-05-13T09:44:29.1Z</time>
      </trkpt>
      <trkpt lat="42.91418" lon="2.11753">
        <ele>453</ele>
        <time>2014-05-13T09:44:31.1Z</time>
      </trkpt>
      <trkpt lat="42.91418" lon="2.11754">
        <ele>453</ele>
        <time>2014-05-13T09:44:33.1Z</time>
      </trkpt>
      <trkpt lat="42.91419" lon="2.11754">
        <ele>453</ele>
        <time>2014-05-13T09:44:36.1Z</time>
      </trkpt>
      <trkpt lat="42.91419" lon="2.11755">
        <ele>453</ele>
        <time>2014-05-13T09:44:39.1Z</time>
      </trkpt>
      <trkpt lat="42.91419" lon="2.11755">
        <ele>453</ele>
        <time>2014-05-13T09:44:41.1Z</time>
      </trkpt>
      <trkpt lat="42.91418" lon="2.11755">
        <ele>453</ele>
        <time>2014-05-13T09:44:44.1Z</time>
      </trkpt>
      <trkpt lat="42.91416" lon="2.11756">
        <ele>453</ele>
        <time>2014-05-13T09:44:47.1Z</time>
      </trkpt>
      <trkpt lat="42.91415" lon="2.11756">
        <ele>453</ele>
        <time>2014-05-13T09:44:49.1Z</time>
      </trkpt>
      <trkpt lat="42.91413" lon="2.11756">
        <ele>453</ele>
        <time>2014-05-13T09:44:52.1Z</time>
      </trkpt>
      <trkpt lat="42.91413" lon="2.11756">
        <ele>453</ele>
        <time>2014-05-13T09:44:54.1Z</time>
      </trkpt>
      <trkpt lat="42.91412" lon="2.11755">
        <ele>454</ele>
        <time>2014-05-13T09:44:57.1Z</time>
      </trkpt>
      <trkpt lat="42.91412" lon="2.11755">
        <ele>454</ele>
        <time>2014-05-13T09:44:59.1Z</time>
      </trkpt>
      <trkpt lat="42.91412" lon="2.11755">
        <ele>454</ele>
        <time>2014-05-13T09:45:02.1Z</time>
      </trkpt>
      <trkpt lat="42.91412" lon="2.11755">
        <ele>454</ele>
        <time>2014-05-13T09:45:05.1Z</time>
      </trkpt>
      <trkpt lat="42.91411" lon="2.11756">
        <ele>454</ele>
        <time>2014-05-13T09:45:07.1Z</time>
      </trkpt>
      <trkpt lat="42.9141" lon="2.11756">
        <ele>454</ele>
        <time>2014-05-13T09:45:10.1Z</time>
      </trkpt>
      <trkpt lat="42.9141" lon="2.11756">
        <ele>454</ele>
        <time>2014-05-13T09:45:12.1Z</time>
      </trkpt>
      <trkpt lat="42.91409" lon="2.11756">
        <ele>454</ele>
        <time>2014-05-13T09:45:14.1Z</time>
      </trkpt>
      <trkpt lat="42.91409" lon="2.11756">
        <ele>453</ele>
        <time>2014-05-13T09:45:17.1Z</time>
      </trkpt>
      <trkpt lat="42.91409" lon="2.11756">
        <ele>454</ele>
        <time>2014-05-13T09:45:20.1Z</time>
      </trkpt>
      <trkpt lat="42.9141" lon="2.11757">
        <ele>453</ele>
        <time>2014-05-13T09:45:22.1Z</time>
      </trkpt>
      <trkpt lat="42.9141" lon="2.11756">
        <ele>453</ele>
        <time>2014-05-13T09:45:24.1Z</time>
      </trkpt>
      <trkpt lat="42.91412" lon="2.11756">
        <ele>453</ele>
        <time>2014-05-13T09:45:27.1Z</time>
      </trkpt>
      <trkpt lat="42.91414" lon="2.11756">
        <ele>452</ele>
        <time>2014-05-13T09:45:30.1Z</time>
      </trkpt>
      <trkpt lat="42.91416" lon="2.11756">
        <ele>452</ele>
        <time>2014-05-13T09:45:32.1Z</time>
      </trkpt>
      <trkpt lat="42.91417" lon="2.11756">
        <ele>452</ele>
        <time>2014-05-13T09:45:35.1Z</time>
      </trkpt>
      <trkpt lat="42.91418" lon="2.11757">
        <ele>452</ele>
        <time>2014-05-13T09:45:38.1Z</time>
      </trkpt>
      <trkpt lat="42.9142" lon="2.11758">
        <ele>452</ele>
        <time>2014-05-13T09:45:41.1Z</time>
      </trkpt>
      <trkpt lat="42.91423" lon="2.11758">
        <ele>452</ele>
        <time>2014-05-13T09:45:44.1Z</time>
      </trkpt>
      <trkpt lat="42.91424" lon="2.11758">
        <ele>453</ele>
        <time>2014-05-13T09:45:46.1Z</time>
      </trkpt>
      <trkpt lat="42.91424" lon="2.11758">
        <ele>452</ele>
        <time>2014-05-13T09:45:49.1Z</time>
      </trkpt>
      <trkpt lat="42.91425" lon="2.1176">
        <ele>453</ele>
        <time>2014-05-13T09:45:51.1Z</time>
      </trkpt>
      <trkpt lat="42.91426" lon="2.11762">
        <ele>453</ele>
        <time>2014-05-13T09:45:54.1Z</time>
      </trkpt>
      <trkpt lat="42.91428" lon="2.11764">
        <ele>454</ele>
        <time>2014-05-13T09:45:56.1Z</time>
      </trkpt>
      <trkpt lat="42.91429" lon="2.11766">
        <ele>454</ele>
        <time>2014-05-13T09:45:59.1Z</time>
      </trkpt>
      <trkpt lat="42.9143" lon="2.11767">
        <ele>455</ele>
        <time>2014-05-13T09:46:01.1Z</time>
      </trkpt>
      <trkpt lat="42.91433" lon="2.1177">
        <ele>455</ele>
        <time>2014-05-13T09:46:04.1Z</time>
      </trkpt>
      <trkpt lat="42.91434" lon="2.11772">
        <ele>455</ele>
        <time>2014-05-13T09:46:06.1Z</time>
      </trkpt>
      <trkpt lat="42.91437" lon="2.11774">
        <ele>455</ele>
        <time>2014-05-13T09:46:09.1Z</time>
      </trkpt>
      <trkpt lat="42.91439" lon="2.11776">
        <ele>456</ele>
        <time>2014-05-13T09:46:12.1Z</time>
      </trkpt>
      <trkpt lat="42.91443" lon="2.11778">
        <ele>456</ele>
        <time>2014-05-13T09:46:15.1Z</time>
      </trkpt>
      <trkpt lat="42.91444" lon="2.11779">
        <ele>457</ele>
        <time>2014-05-13T09:46:17.1Z</time>
      </trkpt>
      <trkpt lat="42.91446" lon="2.11779">
        <ele>457</ele>
        <time>2014-05-13T09:46:19.1Z</time>
      </trkpt>
      <trkpt lat="42.91449" lon="2.11781">
        <ele>457</ele>
        <time>2014-05-13T09:46:22.1Z</time>
      </trkpt>
      <trkpt lat="42.91452" lon="2.11782">
        <ele>457</ele>
        <time>2014-05-13T09:46:25.1Z</time>
      </trkpt>
      <trkpt lat="42.91452" lon="2.11782">
        <ele>457</ele>
        <time>2014-05-13T09:46:28.1Z</time>
      </trkpt>
      <trkpt lat="42.91455" lon="2.11782">
        <ele>456</ele>
        <time>2014-05-13T09:46:31.1Z</time>
      </trkpt>
      <trkpt lat="42.91457" lon="2.11783">
        <ele>457</ele>
        <time>2014-05-13T09:46:34.1Z</time>
      </trkpt>
      <trkpt lat="42.91457" lon="2.11785">
        <ele>457</ele>
        <time>2014-05-13T09:46:37.1Z</time>
      </trkpt>
      <trkpt lat="42.9146" lon="2.11786">
        <ele>458</ele>
        <time>2014-05-13T09:46:40.1Z</time>
      </trkpt>
      <trkpt lat="42.91462" lon="2.11787">
        <ele>459</ele>
        <time>2014-05-13T09:46:42.1Z</time>
      </trkpt>
      <trkpt lat="42.91463" lon="2.11788">
        <ele>459</ele>
        <time>2014-05-13T09:46:44.1Z</time>
      </trkpt>
      <trkpt lat="42.91464" lon="2.11787">
        <ele>459</ele>
        <time>2014-05-13T09:46:47.1Z</time>
      </trkpt>
      <trkpt lat="42.91467" lon="2.11787">
        <ele>460</ele>
        <time>2014-05-13T09:46:50.1Z</time>
      </trkpt>
      <trkpt lat="42.91468" lon="2.11787">
        <ele>460</ele>
        <time>2014-05-13T09:46:52.1Z</time>
      </trkpt>
      <trkpt lat="42.9147" lon="2.11786">
        <ele>460</ele>
        <time>2014-05-13T09:46:54.1Z</time>
      </trkpt>
      <trkpt lat="42.91473" lon="2.11785">
        <ele>461</ele>
        <time>2014-05-13T09:46:57.1Z</time>
      </trkpt>
      <trkpt lat="42.91474" lon="2.11784">
        <ele>461</ele>
        <time>2014-05-13T09:46:59.1Z</time>
      </trkpt>
      <trkpt lat="42.91475" lon="2.11784">
        <ele>461</ele>
        <time>2014-05-13T09:47:01.1Z</time>
      </trkpt>
      <trkpt lat="42.91477" lon="2.11783">
        <ele>461</ele>
        <time>2014-05-13T09:47:03.1Z</time>
      </trkpt>
      <trkpt lat="42.91478" lon="2.11783">
        <ele>461</ele>
        <time>2014-05-13T09:47:06.1Z</time>
      </trkpt>
      <trkpt lat="42.91478" lon="2.11783">
        <ele>461</ele>
        <time>2014-05-13T09:47:08.1Z</time>
      </trkpt>
      <trkpt lat="42.9148" lon="2.11784">
        <ele>461</ele>
        <time>2014-05-13T09:47:10.1Z</time>
      </trkpt>
      <trkpt lat="42.91481" lon="2.11783">
        <ele>461</ele>
        <time>2014-05-13T09:47:12.1Z</time>
      </trkpt>
      <trkpt lat="42.91483" lon="2.11783">
        <ele>461</ele>
        <time>2014-05-13T09:47:15.1Z</time>
      </trkpt>
      <trkpt lat="42.91484" lon="2.11782">
        <ele>460</ele>
        <time>2014-05-13T09:47:17.1Z</time>
      </trkpt>
      <trkpt lat="42.91486" lon="2.11781">
        <ele>460</ele>
        <time>2014-05-13T09:47:20.1Z</time>
      </trkpt>
      <trkpt lat="42.91488" lon="2.1178">
        <ele>460</ele>
        <time>2014-05-13T09:47:22.1Z</time>
      </trkpt>
      <trkpt lat="42.91489" lon="2.11778">
        <ele>460</ele>
        <time>2014-05-13T09:47:24.1Z</time>
      </trkpt>
      <trkpt lat="42.91491" lon="2.11778">
        <ele>459</ele>
        <time>2014-05-13T09:47:27.1Z</time>
      </trkpt>
      <trkpt lat="42.91492" lon="2.11776">
        <ele>459</ele>
        <time>2014-05-13T09:47:29.1Z</time>
      </trkpt>
      <trkpt lat="42.91493" lon="2.11776">
        <ele>458</ele>
        <time>2014-05-13T09:47:31.1Z</time>
      </trkpt>
      <trkpt lat="42.91495" lon="2.11775">
        <ele>458</ele>
        <time>2014-05-13T09:47:33.1Z</time>
      </trkpt>
      <trkpt lat="42.91496" lon="2.11774">
        <ele>458</ele>
        <time>2014-05-13T09:47:35.1Z</time>
      </trkpt>
      <trkpt lat="42.91497" lon="2.11773">
        <ele>458</ele>
        <time>2014-05-13T09:47:37.1Z</time>
      </trkpt>
      <trkpt lat="42.91498" lon="2.11773">
        <ele>457</ele>
        <time>2014-05-13T09:47:39.1Z</time>
      </trkpt>
      <trkpt lat="42.915" lon="2.11772">
        <ele>457</ele>
        <time>2014-05-13T09:47:42.1Z</time>
      </trkpt>
      <trkpt lat="42.91502" lon="2.11771">
        <ele>457</ele>
        <time>2014-05-13T09:47:44.1Z</time>
      </trkpt>
      <trkpt lat="42.91504" lon="2.1177">
        <ele>456</ele>
        <time>2014-05-13T09:47:46.1Z</time>
      </trkpt>
      <trkpt lat="42.91505" lon="2.11769">
        <ele>456</ele>
        <time>2014-05-13T09:47:48.1Z</time>
      </trkpt>
      <trkpt lat="42.91507" lon="2.11766">
        <ele>456</ele>
        <time>2014-05-13T09:47:51.1Z</time>
      </trkpt>
      <trkpt lat="42.91508" lon="2.11764">
        <ele>456</ele>
        <time>2014-05-13T09:47:53.1Z</time>
      </trkpt>
      <trkpt lat="42.9151" lon="2.11762">
        <ele>456</ele>
        <time>2014-05-13T09:47:55.1Z</time>
      </trkpt>
      <trkpt lat="42.91511" lon="2.11761">
        <ele>456</ele>
        <time>2014-05-13T09:47:57.1Z</time>
      </trkpt>
      <trkpt lat="42.91513" lon="2.1176">
        <ele>456</ele>
        <time>2014-05-13T09:47:59.1Z</time>
      </trkpt>
      <trkpt lat="42.91514" lon="2.11758">
        <ele>456</ele>
        <time>2014-05-13T09:48:02.1Z</time>
      </trkpt>
      <trkpt lat="42.91515" lon="2.11757">
        <ele>455</ele>
        <time>2014-05-13T09:48:04.1Z</time>
      </trkpt>
      <trkpt lat="42.91516" lon="2.11755">
        <ele>455</ele>
        <time>2014-05-13T09:48:07.1Z</time>
      </trkpt>
      <trkpt lat="42.91518" lon="2.11755">
        <ele>455</ele>
        <time>2014-05-13T09:48:09.1Z</time>
      </trkpt>
      <trkpt lat="42.91519" lon="2.11754">
        <ele>455</ele>
        <time>2014-05-13T09:48:12.1Z</time>
      </trkpt>
      <trkpt lat="42.9152" lon="2.11753">
        <ele>454</ele>
        <time>2014-05-13T09:48:15.1Z</time>
      </trkpt>
      <trkpt lat="42.91522" lon="2.11751">
        <ele>454</ele>
        <time>2014-05-13T09:48:18.1Z</time>
      </trkpt>
      <trkpt lat="42.91525" lon="2.1175">
        <ele>454</ele>
        <time>2014-05-13T09:48:20.1Z</time>
      </trkpt>
      <trkpt lat="42.91528" lon="2.11748">
        <ele>454</ele>
        <time>2014-05-13T09:48:23.1Z</time>
      </trkpt>
      <trkpt lat="42.9153" lon="2.11747">
        <ele>454</ele>
        <time>2014-05-13T09:48:26.1Z</time>
      </trkpt>
      <trkpt lat="42.91533" lon="2.11746">
        <ele>454</ele>
        <time>2014-05-13T09:48:29.1Z</time>
      </trkpt>
      <trkpt lat="42.91534" lon="2.11744">
        <ele>454</ele>
        <time>2014-05-13T09:48:32.1Z</time>
      </trkpt>
      <trkpt lat="42.91537" lon="2.11743">
        <ele>454</ele>
        <time>2014-05-13T09:48:35.1Z</time>
      </trkpt>
      <trkpt lat="42.91537" lon="2.11743">
        <ele>454</ele>
        <time>2014-05-13T09:48:37.1Z</time>
      </trkpt>
      <trkpt lat="42.9154" lon="2.11741">
        <ele>455</ele>
        <time>2014-05-13T09:48:40.1Z</time>
      </trkpt>
      <trkpt lat="42.91541" lon="2.11741">
        <ele>455</ele>
        <time>2014-05-13T09:48:43.1Z</time>
      </trkpt>
      <trkpt lat="42.91544" lon="2.11741">
        <ele>456</ele>
        <time>2014-05-13T09:48:46.1Z</time>
      </trkpt>
      <trkpt lat="42.91547" lon="2.11741">
        <ele>456</ele>
        <time>2014-05-13T09:48:49.1Z</time>
      </trkpt>
      <trkpt lat="42.91549" lon="2.11741">
        <ele>456</ele>
        <time>2014-05-13T09:48:52.1Z</time>
      </trkpt>
      <trkpt lat="42.91551" lon="2.11742">
        <ele>456</ele>
        <time>2014-05-13T09:48:54.1Z</time>
      </trkpt>
      <trkpt lat="42.91554" lon="2.11743">
        <ele>456</ele>
        <time>2014-05-13T09:48:57.1Z</time>
      </trkpt>
      <trkpt lat="42.91555" lon="2.11741">
        <ele>456</ele>
        <time>2014-05-13T09:49:00.1Z</time>
      </trkpt>
      <trkpt lat="42.91556" lon="2.11741">
        <ele>456</ele>
        <time>2014-05-13T09:49:02.1Z</time>
      </trkpt>
      <trkpt lat="42.9156" lon="2.1174">
        <ele>457</ele>
        <time>2014-05-13T09:49:05.1Z</time>
      </trkpt>
      <trkpt lat="42.91562" lon="2.11738">
        <ele>456</ele>
        <time>2014-05-13T09:49:08.1Z</time>
      </trkpt>
      <trkpt lat="42.91565" lon="2.11736">
        <ele>457</ele>
        <time>2014-05-13T09:49:11.1Z</time>
      </trkpt>
      <trkpt lat="42.91567" lon="2.11736">
        <ele>457</ele>
        <time>2014-05-13T09:49:13.1Z</time>
      </trkpt>
      <trkpt lat="42.9157" lon="2.11734">
        <ele>457</ele>
        <time>2014-05-13T09:49:16.1Z</time>
      </trkpt>
      <trkpt lat="42.91571" lon="2.11734">
        <ele>457</ele>
        <time>2014-05-13T09:49:18.1Z</time>
      </trkpt>
      <trkpt lat="42.91574" lon="2.11732">
        <ele>457</ele>
        <time>2014-05-13T09:49:21.1Z</time>
      </trkpt>
      <trkpt lat="42.91575" lon="2.11731">
        <ele>457</ele>
        <time>2014-05-13T09:49:23.1Z</time>
      </trkpt>
      <trkpt lat="42.91578" lon="2.11729">
        <ele>458</ele>
        <time>2014-05-13T09:49:26.1Z</time>
      </trkpt>
      <trkpt lat="42.91581" lon="2.11727">
        <ele>458</ele>
        <time>2014-05-13T09:49:29.1Z</time>
      </trkpt>
      <trkpt lat="42.91582" lon="2.11725">
        <ele>458</ele>
        <time>2014-05-13T09:49:32.1Z</time>
      </trkpt>
      <trkpt lat="42.91584" lon="2.11724">
        <ele>458</ele>
        <time>2014-05-13T09:49:34.1Z</time>
      </trkpt>
      <trkpt lat="42.91587" lon="2.11722">
        <ele>458</ele>
        <time>2014-05-13T09:49:37.1Z</time>
      </trkpt>
      <trkpt lat="42.91589" lon="2.11721">
        <ele>458</ele>
        <time>2014-05-13T09:49:40.1Z</time>
      </trkpt>
      <trkpt lat="42.91591" lon="2.1172">
        <ele>458</ele>
        <time>2014-05-13T09:49:43.1Z</time>
      </trkpt>
      <trkpt lat="42.91593" lon="2.11718">
        <ele>458</ele>
        <time>2014-05-13T09:49:46.1Z</time>
      </trkpt>
      <trkpt lat="42.91594" lon="2.11717">
        <ele>458</ele>
        <time>2014-05-13T09:49:48.1Z</time>
      </trkpt>
      <trkpt lat="42.91594" lon="2.11716">
        <ele>458</ele>
        <time>2014-05-13T09:49:51.1Z</time>
      </trkpt>
      <trkpt lat="42.91594" lon="2.11715">
        <ele>457</ele>
        <time>2014-05-13T09:49:53.1Z</time>
      </trkpt>
      <trkpt lat="42.91594" lon="2.11714">
        <ele>457</ele>
        <time>2014-05-13T09:49:56.1Z</time>
      </trkpt>
      <trkpt lat="42.91594" lon="2.11712">
        <ele>457</ele>
        <time>2014-05-13T09:49:59.1Z</time>
      </trkpt>
      <trkpt lat="42.91594" lon="2.11712">
        <ele>456</ele>
        <time>2014-05-13T09:50:01.1Z</time>
      </trkpt>
      <trkpt lat="42.91594" lon="2.11711">
        <ele>456</ele>
        <time>2014-05-13T09:50:04.1Z</time>
      </trkpt>
      <trkpt lat="42.91594" lon="2.11709">
        <ele>456</ele>
        <time>2014-05-13T09:50:06.1Z</time>
      </trkpt>
      <trkpt lat="42.91594" lon="2.11708">
        <ele>456</ele>
        <time>2014-05-13T09:50:09.1Z</time>
      </trkpt>
      <trkpt lat="42.91595" lon="2.11706">
        <ele>455</ele>
        <time>2014-05-13T09:50:12.1Z</time>
      </trkpt>
      <trkpt lat="42.91596" lon="2.11704">
        <ele>455</ele>
        <time>2014-05-13T09:50:14.1Z</time>
      </trkpt>
      <trkpt lat="42.91597" lon="2.11701">
        <ele>454</ele>
        <time>2014-05-13T09:50:17.1Z</time>
      </trkpt>
      <trkpt lat="42.91599" lon="2.11697">
        <ele>454</ele>
        <time>2014-05-13T09:50:20.1Z</time>
      </trkpt>
      <trkpt lat="42.916" lon="2.11695">
        <ele>453</ele>
        <time>2014-05-13T09:50:22.1Z</time>
      </trkpt>
      <trkpt lat="42.916" lon="2.11693">
        <ele>453</ele>
        <time>2014-05-13T09:50:24.1Z</time>
      </trkpt>
      <trkpt lat="42.91602" lon="2.11691">
        <ele>453</ele>
        <time>2014-05-13T09:50:27.1Z</time>
      </trkpt>
      <trkpt lat="42.91603" lon="2.11689">
        <ele>453</ele>
        <time>2014-05-13T09:50:29.1Z</time>
      </trkpt>
      <trkpt lat="42.91605" lon="2.11686">
        <ele>453</ele>
        <time>2014-05-13T09:50:32.1Z</time>
      </trkpt>
      <trkpt lat="42.91606" lon="2.11685">
        <ele>453</ele>
        <time>2014-05-13T09:50:34.1Z</time>
      </trkpt>
      <trkpt lat="42.91609" lon="2.11682">
        <ele>452</ele>
        <time>2014-05-13T09:50:37.1Z</time>
      </trkpt>
      <trkpt lat="42.9161" lon="2.1168">
        <ele>452</ele>
        <time>2014-05-13T09:50:39.1Z</time>
      </trkpt>
      <trkpt lat="42.91612" lon="2.11678">
        <ele>451</ele>
        <time>2014-05-13T09:50:42.1Z</time>
      </trkpt>
      <trkpt lat="42.91615" lon="2.11676">
        <ele>451</ele>
        <time>2014-05-13T09:50:45.1Z</time>
      </trkpt>
      <trkpt lat="42.91616" lon="2.11674">
        <ele>451</ele>
        <time>2014-05-13T09:50:48.1Z</time>
      </trkpt>
      <trkpt lat="42.91617" lon="2.11673">
        <ele>451</ele>
        <time>2014-05-13T09:50:50.1Z</time>
      </trkpt>
      <trkpt lat="42.91618" lon="2.11672">
        <ele>451</ele>
        <time>2014-05-13T09:50:53.1Z</time>
      </trkpt>
      <trkpt lat="42.91618" lon="2.11671">
        <ele>452</ele>
        <time>2014-05-13T09:50:55.1Z</time>
      </trkpt>
      <trkpt lat="42.91619" lon="2.11669">
        <ele>451</ele>
        <time>2014-05-13T09:50:58.1Z</time>
      </trkpt>
      <trkpt lat="42.9162" lon="2.11665">
        <ele>451</ele>
        <time>2014-05-13T09:51:01.1Z</time>
      </trkpt>
      <trkpt lat="42.91622" lon="2.11664">
        <ele>451</ele>
        <time>2014-05-13T09:51:03.1Z</time>
      </trkpt>
      <trkpt lat="42.91623" lon="2.11663">
        <ele>450</ele>
        <time>2014-05-13T09:51:05.1Z</time>
      </trkpt>
      <trkpt lat="42.91625" lon="2.11662">
        <ele>450</ele>
        <time>2014-05-13T09:51:08.1Z</time>
      </trkpt>
      <trkpt lat="42.91628" lon="2.11662">
        <ele>450</ele>
        <time>2014-05-13T09:51:11.1Z</time>
      </trkpt>
      <trkpt lat="42.9163" lon="2.11661">
        <ele>451</ele>
        <time>2014-05-13T09:51:14.1Z</time>
      </trkpt>
      <trkpt lat="42.91631" lon="2.1166">
        <ele>450</ele>
        <time>2014-05-13T09:51:16.1Z</time>
      </trkpt>
      <trkpt lat="42.91631" lon="2.1166">
        <ele>450</ele>
        <time>2014-05-13T09:51:19.1Z</time>
      </trkpt>
      <trkpt lat="42.91631" lon="2.1166">
        <ele>450</ele>
        <time>2014-05-13T09:51:22.1Z</time>
      </trkpt>
      <trkpt lat="42.9163" lon="2.1166">
        <ele>450</ele>
        <time>2014-05-13T09:51:24.1Z</time>
      </trkpt>
      <trkpt lat="42.9163" lon="2.1166">
        <ele>451</ele>
        <time>2014-05-13T09:51:27.1Z</time>
      </trkpt>
      <trkpt lat="42.91629" lon="2.11661">
        <ele>451</ele>
        <time>2014-05-13T09:51:29.1Z</time>
      </trkpt>
      <trkpt lat="42.91631" lon="2.11661">
        <ele>451</ele>
        <time>2014-05-13T09:51:32.1Z</time>
      </trkpt>
      <trkpt lat="42.91631" lon="2.11661">
        <ele>450</ele>
        <time>2014-05-13T09:51:34.1Z</time>
      </trkpt>
      <trkpt lat="42.91631" lon="2.11661">
        <ele>450</ele>
        <time>2014-05-13T09:51:37.1Z</time>
      </trkpt>
      <trkpt lat="42.9163" lon="2.11661">
        <ele>450</ele>
        <time>2014-05-13T09:51:40.1Z</time>
      </trkpt>
      <trkpt lat="42.9163" lon="2.11661">
        <ele>450</ele>
        <time>2014-05-13T09:51:42.1Z</time>
      </trkpt>
      <trkpt lat="42.91631" lon="2.11662">
        <ele>450</ele>
        <time>2014-05-13T09:51:45.1Z</time>
      </trkpt>
      <trkpt lat="42.91631" lon="2.11662">
        <ele>450</ele>
        <time>2014-05-13T09:51:48.1Z</time>
      </trkpt>
      <trkpt lat="42.91632" lon="2.11662">
        <ele>450</ele>
        <time>2014-05-13T09:51:51.1Z</time>
      </trkpt>
      <trkpt lat="42.91632" lon="2.11662">
        <ele>450</ele>
        <time>2014-05-13T09:51:53.1Z</time>
      </trkpt>
      <trkpt lat="42.91633" lon="2.11662">
        <ele>450</ele>
        <time>2014-05-13T09:51:56.1Z</time>
      </trkpt>
      <trkpt lat="42.91633" lon="2.11662">
        <ele>450</ele>
        <time>2014-05-13T09:51:58.1Z</time>
      </trkpt>
      <trkpt lat="42.91633" lon="2.11662">
        <ele>450</ele>
        <time>2014-05-13T09:52:01.1Z</time>
      </trkpt>
      <trkpt lat="42.91634" lon="2.11662">
        <ele>449</ele>
        <time>2014-05-13T09:52:03.1Z</time>
      </trkpt>
      <trkpt lat="42.91634" lon="2.11662">
        <ele>449</ele>
        <time>2014-05-13T09:52:05.1Z</time>
      </trkpt>
      <trkpt lat="42.91634" lon="2.11662">
        <ele>449</ele>
        <time>2014-05-13T09:52:08.1Z</time>
      </trkpt>
      <trkpt lat="42.91635" lon="2.11662">
        <ele>450</ele>
        <time>2014-05-13T09:52:12.1Z</time>
      </trkpt>
      <trkpt lat="42.91635" lon="2.11662">
        <ele>450</ele>
        <time>2014-05-13T09:52:15.1Z</time>
      </trkpt>
      <trkpt lat="42.91635" lon="2.11662">
        <ele>450</ele>
        <time>2014-05-13T09:52:17.1Z</time>
      </trkpt>
      <trkpt lat="42.91635" lon="2.11663">
        <ele>450</ele>
        <time>2014-05-13T09:52:20.1Z</time>
      </trkpt>
      <trkpt lat="42.91635" lon="2.11663">
        <ele>450</ele>
        <time>2014-05-13T09:52:22.1Z</time>
      </trkpt>
      <trkpt lat="42.91634" lon="2.11663">
        <ele>450</ele>
        <time>2014-05-13T09:52:26.1Z</time>
      </trkpt>
      <trkpt lat="42.91634" lon="2.11663">
        <ele>450</ele>
        <time>2014-05-13T09:52:29.1Z</time>
      </trkpt>
      <trkpt lat="42.91633" lon="2.11662">
        <ele>450</ele>
        <time>2014-05-13T09:52:31.1Z</time>
      </trkpt>
      <trkpt lat="42.91632" lon="2.11662">
        <ele>450</ele>
        <time>2014-05-13T09:52:34.1Z</time>
      </trkpt>
      <trkpt lat="42.91632" lon="2.11661">
        <ele>450</ele>
        <time>2014-05-13T09:52:37.1Z</time>
      </trkpt>
      <trkpt lat="42.91631" lon="2.11661">
        <ele>450</ele>
        <time>2014-05-13T09:52:40.1Z</time>
      </trkpt>
      <trkpt lat="42.91631" lon="2.11661">
        <ele>450</ele>
        <time>2014-05-13T09:52:42.1Z</time>
      </trkpt>
      <trkpt lat="42.91631" lon="2.1166">
        <ele>450</ele>
        <time>2014-05-13T09:52:44.1Z</time>
      </trkpt>
      <trkpt lat="42.91631" lon="2.11659">
        <ele>450</ele>
        <time>2014-05-13T09:52:47.1Z</time>
      </trkpt>
      <trkpt lat="42.9163" lon="2.11658">
        <ele>450</ele>
        <time>2014-05-13T09:52:50.1Z</time>
      </trkpt>
      <trkpt lat="42.9163" lon="2.11658">
        <ele>450</ele>
        <time>2014-05-13T09:52:52.1Z</time>
      </trkpt>
      <trkpt lat="42.91629" lon="2.11658">
        <ele>450</ele>
        <time>2014-05-13T09:52:56.1Z</time>
      </trkpt>
      <trkpt lat="42.9163" lon="2.11658">
        <ele>450</ele>
        <time>2014-05-13T09:52:59.1Z</time>
      </trkpt>
      <trkpt lat="42.91629" lon="2.11658">
        <ele>450</ele>
        <time>2014-05-13T09:53:01.1Z</time>
      </trkpt>
      <trkpt lat="42.91629" lon="2.11659">
        <ele>450</ele>
        <time>2014-05-13T09:53:04.1Z</time>
      </trkpt>
      <trkpt lat="42.91629" lon="2.1166">
        <ele>450</ele>
        <time>2014-05-13T09:53:07.1Z</time>
      </trkpt>
      <trkpt lat="42.91629" lon="2.11661">
        <ele>450</ele>
        <time>2014-05-13T09:53:10.1Z</time>
      </trkpt>
      <trkpt lat="42.91629" lon="2.11661">
        <ele>450</ele>
        <time>2014-05-13T09:53:13.1Z</time>
      </trkpt>
      <trkpt lat="42.91629" lon="2.11662">
        <ele>450</ele>
        <time>2014-05-13T09:53:15.1Z</time>
      </trkpt>
      <trkpt lat="42.91629" lon="2.11662">
        <ele>451</ele>
        <time>2014-05-13T09:53:18.1Z</time>
      </trkpt>
      <trkpt lat="42.91629" lon="2.11663">
        <ele>451</ele>
        <time>2014-05-13T09:53:20.1Z</time>
      </trkpt>
      <trkpt lat="42.9163" lon="2.11664">
        <ele>451</ele>
        <time>2014-05-13T09:53:23.1Z</time>
      </trkpt>
      <trkpt lat="42.91631" lon="2.11665">
        <ele>451</ele>
        <time>2014-05-13T09:53:26.1Z</time>
      </trkpt>
      <trkpt lat="42.91631" lon="2.11666">
        <ele>450</ele>
        <time>2014-05-13T09:53:28.1Z</time>
      </trkpt>
      <trkpt lat="42.91632" lon="2.11666">
        <ele>450</ele>
        <time>2014-05-13T09:53:30.1Z</time>
      </trkpt>
      <trkpt lat="42.91633" lon="2.11666">
        <ele>450</ele>
        <time>2014-05-13T09:53:32.1Z</time>
      </trkpt>
      <trkpt lat="42.91633" lon="2.11667">
        <ele>450</ele>
        <time>2014-05-13T09:53:35.1Z</time>
      </trkpt>
      <trkpt lat="42.91634" lon="2.11667">
        <ele>450</ele>
        <time>2014-05-13T09:53:37.1Z</time>
      </trkpt>
      <trkpt lat="42.91634" lon="2.11668">
        <ele>451</ele>
        <time>2014-05-13T09:53:40.1Z</time>
      </trkpt>
      <trkpt lat="42.91634" lon="2.11668">
        <ele>451</ele>
        <time>2014-05-13T09:53:43.1Z</time>
      </trkpt>
      <trkpt lat="42.91634" lon="2.11668">
        <ele>451</ele>
        <time>2014-05-13T09:53:46.1Z</time>
      </trkpt>
      <trkpt lat="42.91634" lon="2.11668">
        <ele>451</ele>
        <time>2014-05-13T09:53:48.1Z</time>
      </trkpt>
      <trkpt lat="42.91634" lon="2.11667">
        <ele>450</ele>
        <time>2014-05-13T09:53:51.1Z</time>
      </trkpt>
      <trkpt lat="42.91635" lon="2.11666">
        <ele>450</ele>
        <time>2014-05-13T09:53:53.1Z</time>
      </trkpt>
      <trkpt lat="42.91635" lon="2.11666">
        <ele>451</ele>
        <time>2014-05-13T09:53:56.1Z</time>
      </trkpt>
      <trkpt lat="42.91635" lon="2.11665">
        <ele>451</ele>
        <time>2014-05-13T09:53:59.1Z</time>
      </trkpt>
      <trkpt lat="42.91635" lon="2.11664">
        <ele>451</ele>
        <time>2014-05-13T09:54:02.1Z</time>
      </trkpt>
      <trkpt lat="42.91635" lon="2.11663">
        <ele>450</ele>
        <time>2014-05-13T09:54:04.1Z</time>
      </trkpt>
      <trkpt lat="42.91635" lon="2.11662">
        <ele>450</ele>
        <time>2014-05-13T09:54:07.1Z</time>
      </trkpt>
      <trkpt lat="42.91634" lon="2.11662">
        <ele>450</ele>
        <time>2014-05-13T09:54:10.1Z</time>
      </trkpt>
      <trkpt lat="42.91634" lon="2.11662">
        <ele>449</ele>
        <time>2014-05-13T09:54:12.1Z</time>
      </trkpt>
      <trkpt lat="42.91634" lon="2.11662">
        <ele>450</ele>
        <time>2014-05-13T09:54:15.1Z</time>
      </trkpt>
      <trkpt lat="42.91634" lon="2.11661">
        <ele>450</ele>
        <time>2014-05-13T09:54:18.1Z</time>
      </trkpt>
      <trkpt lat="42.91634" lon="2.11661">
        <ele>450</ele>
        <time>2014-05-13T09:54:21.1Z</time>
      </trkpt>
      <trkpt lat="42.91634" lon="2.11661">
        <ele>451</ele>
        <time>2014-05-13T09:54:24.1Z</time>
      </trkpt>
      <trkpt lat="42.91634" lon="2.11661">
        <ele>451</ele>
        <time>2014-05-13T09:54:27.1Z</time>
      </trkpt>
      <trkpt lat="42.91633" lon="2.11662">
        <ele>451</ele>
        <time>2014-05-13T09:54:31.1Z</time>
      </trkpt>
      <trkpt lat="42.91633" lon="2.11662">
        <ele>451</ele>
        <time>2014-05-13T09:54:34.1Z</time>
      </trkpt>
      <trkpt lat="42.91633" lon="2.11662">
        <ele>450</ele>
        <time>2014-05-13T09:54:36.1Z</time>
      </trkpt>
      <trkpt lat="42.91633" lon="2.11662">
        <ele>451</ele>
        <time>2014-05-13T09:54:40.1Z</time>
      </trkpt>
      <trkpt lat="42.91633" lon="2.11662">
        <ele>450</ele>
        <time>2014-05-13T09:54:44.1Z</time>
      </trkpt>
      <trkpt lat="42.91633" lon="2.11663">
        <ele>450</ele>
        <time>2014-05-13T09:54:47.1Z</time>
      </trkpt>
      <trkpt lat="42.91633" lon="2.11663">
        <ele>450</ele>
        <time>2014-05-13T09:54:49.1Z</time>
      </trkpt>
      <trkpt lat="42.91633" lon="2.11663">
        <ele>450</ele>
        <time>2014-05-13T09:54:52.1Z</time>
      </trkpt>
      <trkpt lat="42.91633" lon="2.11663">
        <ele>450</ele>
        <time>2014-05-13T09:54:54.1Z</time>
      </trkpt>
      <trkpt lat="42.91633" lon="2.11663">
        <ele>450</ele>
        <time>2014-05-13T09:55:00.1Z</time>
      </trkpt>
      <trkpt lat="42.91633" lon="2.11663">
        <ele>449</ele>
        <time>2014-05-13T09:55:03.1Z</time>
      </trkpt>
      <trkpt lat="42.91634" lon="2.11663">
        <ele>450</ele>
        <time>2014-05-13T09:55:06.1Z</time>
      </trkpt>
      <trkpt lat="42.91633" lon="2.11663">
        <ele>450</ele>
        <time>2014-05-13T09:55:08.1Z</time>
      </trkpt>
      <trkpt lat="42.91633" lon="2.11663">
        <ele>450</ele>
        <time>2014-05-13T09:55:10.1Z</time>
      </trkpt>
      <trkpt lat="42.91633" lon="2.11663">
        <ele>450</ele>
        <time>2014-05-13T09:55:13.1Z</time>
      </trkpt>
      <trkpt lat="42.91633" lon="2.11662">
        <ele>450</ele>
        <time>2014-05-13T09:55:16.1Z</time>
      </trkpt>
      <trkpt lat="42.91633" lon="2.11662">
        <ele>450</ele>
        <time>2014-05-13T09:55:18.1Z</time>
      </trkpt>
      <trkpt lat="42.91633" lon="2.11662">
        <ele>450</ele>
        <time>2014-05-13T09:55:21.1Z</time>
      </trkpt>
      <trkpt lat="42.91633" lon="2.11662">
        <ele>450</ele>
        <time>2014-05-13T09:55:23.1Z</time>
      </trkpt>
      <trkpt lat="42.91633" lon="2.11661">
        <ele>450</ele>
        <time>2014-05-13T09:55:26.1Z</time>
      </trkpt>
      <trkpt lat="42.91633" lon="2.11661">
        <ele>450</ele>
        <time>2014-05-13T09:55:28.1Z</time>
      </trkpt>
      <trkpt lat="42.91633" lon="2.1166">
        <ele>450</ele>
        <time>2014-05-13T09:55:31.1Z</time>
      </trkpt>
      <trkpt lat="42.91634" lon="2.1166">
        <ele>450</ele>
        <time>2014-05-13T09:55:33.1Z</time>
      </trkpt>
      <trkpt lat="42.91634" lon="2.11659">
        <ele>450</ele>
        <time>2014-05-13T09:55:35.1Z</time>
      </trkpt>
      <trkpt lat="42.91634" lon="2.11659">
        <ele>450</ele>
        <time>2014-05-13T09:55:38.1Z</time>
      </trkpt>
      <trkpt lat="42.91634" lon="2.11658">
        <ele>450</ele>
        <time>2014-05-13T09:55:40.1Z</time>
      </trkpt>
      <trkpt lat="42.91634" lon="2.11658">
        <ele>450</ele>
        <time>2014-05-13T09:55:42.1Z</time>
      </trkpt>
      <trkpt lat="42.91634" lon="2.11658">
        <ele>450</ele>
        <time>2014-05-13T09:55:45.1Z</time>
      </trkpt>
      <trkpt lat="42.91634" lon="2.11657">
        <ele>450</ele>
        <time>2014-05-13T09:55:47.1Z</time>
      </trkpt>
      <trkpt lat="42.91634" lon="2.11657">
        <ele>450</ele>
        <time>2014-05-13T09:55:50.1Z</time>
      </trkpt>
      <trkpt lat="42.91634" lon="2.11656">
        <ele>450</ele>
        <time>2014-05-13T09:55:52.1Z</time>
      </trkpt>
      <trkpt lat="42.91634" lon="2.11656">
        <ele>450</ele>
        <time>2014-05-13T09:55:55.1Z</time>
      </trkpt>
      <trkpt lat="42.91634" lon="2.11655">
        <ele>450</ele>
        <time>2014-05-13T09:55:58.1Z</time>
      </trkpt>
      <trkpt lat="42.91634" lon="2.11655">
        <ele>450</ele>
        <time>2014-05-13T09:56:01.1Z</time>
      </trkpt>
      <trkpt lat="42.91634" lon="2.11655">
        <ele>450</ele>
        <time>2014-05-13T09:56:08.1Z</time>
      </trkpt>
      <trkpt lat="42.91634" lon="2.11655">
        <ele>450</ele>
        <time>2014-05-13T09:56:10.1Z</time>
      </trkpt>
      <trkpt lat="42.91634" lon="2.11656">
        <ele>450</ele>
        <time>2014-05-13T09:56:12.1Z</time>
      </trkpt>
      <trkpt lat="42.91634" lon="2.11656">
        <ele>450</ele>
        <time>2014-05-13T09:56:18.1Z</time>
      </trkpt>
      <trkpt lat="42.91634" lon="2.11657">
        <ele>450</ele>
        <time>2014-05-13T09:56:21.1Z</time>
      </trkpt>
      <trkpt lat="42.91634" lon="2.11657">
        <ele>450</ele>
        <time>2014-05-13T09:56:24.1Z</time>
      </trkpt>
      <trkpt lat="42.91634" lon="2.11658">
        <ele>450</ele>
        <time>2014-05-13T09:56:27.1Z</time>
      </trkpt>
      <trkpt lat="42.91634" lon="2.11658">
        <ele>450</ele>
        <time>2014-05-13T09:56:29.1Z</time>
      </trkpt>
      <trkpt lat="42.91634" lon="2.11659">
        <ele>450</ele>
        <time>2014-05-13T09:56:32.1Z</time>
      </trkpt>
      <trkpt lat="42.91634" lon="2.11659">
        <ele>450</ele>
        <time>2014-05-13T09:56:35.1Z</time>
      </trkpt>
      <trkpt lat="42.91634" lon="2.1166">
        <ele>450</ele>
        <time>2014-05-13T09:56:37.1Z</time>
      </trkpt>
      <trkpt lat="42.91634" lon="2.1166">
        <ele>450</ele>
        <time>2014-05-13T09:56:41.1Z</time>
      </trkpt>
      <trkpt lat="42.91634" lon="2.1166">
        <ele>450</ele>
        <time>2014-05-13T09:56:43.1Z</time>
      </trkpt>
      <trkpt lat="42.91634" lon="2.11661">
        <ele>450</ele>
        <time>2014-05-13T09:56:47.1Z</time>
      </trkpt>
      <trkpt lat="42.91634" lon="2.11661">
        <ele>450</ele>
        <time>2014-05-13T09:56:49.1Z</time>
      </trkpt>
      <trkpt lat="42.91634" lon="2.11661">
        <ele>450</ele>
        <time>2014-05-13T09:56:51.1Z</time>
      </trkpt>
      <trkpt lat="42.91634" lon="2.11661">
        <ele>450</ele>
        <time>2014-05-13T09:56:54.1Z</time>
      </trkpt>
      <trkpt lat="42.91634" lon="2.11662">
        <ele>450</ele>
        <time>2014-05-13T09:56:56.1Z</time>
      </trkpt>
      <trkpt lat="42.91634" lon="2.11662">
        <ele>450</ele>
        <time>2014-05-13T09:56:59.1Z</time>
      </trkpt>
      <trkpt lat="42.91633" lon="2.11662">
        <ele>450</ele>
        <time>2014-05-13T09:57:02.1Z</time>
      </trkpt>
      <trkpt lat="42.91633" lon="2.11662">
        <ele>450</ele>
        <time>2014-05-13T09:57:06.1Z</time>
      </trkpt>
      <trkpt lat="42.91633" lon="2.11662">
        <ele>451</ele>
        <time>2014-05-13T09:57:09.1Z</time>
      </trkpt>
      <trkpt lat="42.91633" lon="2.11662">
        <ele>450</ele>
        <time>2014-05-13T09:57:11.1Z</time>
      </trkpt>
      <trkpt lat="42.91633" lon="2.11662">
        <ele>451</ele>
        <time>2014-05-13T09:57:14.1Z</time>
      </trkpt>
      <trkpt lat="42.91632" lon="2.11662">
        <ele>450</ele>
        <time>2014-05-13T09:57:16.1Z</time>
      </trkpt>
      <trkpt lat="42.91632" lon="2.11662">
        <ele>450</ele>
        <time>2014-05-13T09:57:18.1Z</time>
      </trkpt>
      <trkpt lat="42.91632" lon="2.11662">
        <ele>450</ele>
        <time>2014-05-13T09:57:23.1Z</time>
      </trkpt>
      <trkpt lat="42.91633" lon="2.11662">
        <ele>450</ele>
        <time>2014-05-13T09:57:28.1Z</time>
      </trkpt>
      <trkpt lat="42.91633" lon="2.11661">
        <ele>450</ele>
        <time>2014-05-13T09:57:31.1Z</time>
      </trkpt>
      <trkpt lat="42.91634" lon="2.11661">
        <ele>450</ele>
        <time>2014-05-13T09:57:34.1Z</time>
      </trkpt>
      <trkpt lat="42.91634" lon="2.11661">
        <ele>450</ele>
        <time>2014-05-13T09:57:36.1Z</time>
      </trkpt>
      <trkpt lat="42.91634" lon="2.1166">
        <ele>450</ele>
        <time>2014-05-13T09:57:39.1Z</time>
      </trkpt>
      <trkpt lat="42.91635" lon="2.1166">
        <ele>450</ele>
        <time>2014-05-13T09:57:42.1Z</time>
      </trkpt>
      <trkpt lat="42.91635" lon="2.1166">
        <ele>450</ele>
        <time>2014-05-13T09:57:45.1Z</time>
      </trkpt>
      <trkpt lat="42.91635" lon="2.1166">
        <ele>450</ele>
        <time>2014-05-13T09:57:48.1Z</time>
      </trkpt>
      <trkpt lat="42.91636" lon="2.1166">
        <ele>450</ele>
        <time>2014-05-13T09:57:51.1Z</time>
      </trkpt>
      <trkpt lat="42.91637" lon="2.11661">
        <ele>450</ele>
        <time>2014-05-13T09:57:53.1Z</time>
      </trkpt>
      <trkpt lat="42.91637" lon="2.11661">
        <ele>450</ele>
        <time>2014-05-13T09:57:56.1Z</time>
      </trkpt>
      <trkpt lat="42.91637" lon="2.11661">
        <ele>450</ele>
        <time>2014-05-13T09:58:00.1Z</time>
      </trkpt>
      <trkpt lat="42.91637" lon="2.11662">
        <ele>450</ele>
        <time>2014-05-13T09:58:04.1Z</time>
      </trkpt>
      <trkpt lat="42.91637" lon="2.11662">
        <ele>450</ele>
        <time>2014-05-13T09:58:07.1Z</time>
      </trkpt>
      <trkpt lat="42.91637" lon="2.11662">
        <ele>450</ele>
        <time>2014-05-13T09:58:11.1Z</time>
      </trkpt>
      <trkpt lat="42.91636" lon="2.11662">
        <ele>450</ele>
        <time>2014-05-13T09:58:13.1Z</time>
      </trkpt>
      <trkpt lat="42.91636" lon="2.11662">
        <ele>450</ele>
        <time>2014-05-13T09:58:16.1Z</time>
      </trkpt>
      <trkpt lat="42.91636" lon="2.11663">
        <ele>450</ele>
        <time>2014-05-13T09:58:18.1Z</time>
      </trkpt>
      <trkpt lat="42.91635" lon="2.11663">
        <ele>450</ele>
        <time>2014-05-13T09:58:22.1Z</time>
      </trkpt>
      <trkpt lat="42.91635" lon="2.11663">
        <ele>450</ele>
        <time>2014-05-13T09:58:25.1Z</time>
      </trkpt>
      <trkpt lat="42.91635" lon="2.11664">
        <ele>450</ele>
        <time>2014-05-13T09:58:28.1Z</time>
      </trkpt>
      <trkpt lat="42.91635" lon="2.11664">
        <ele>450</ele>
        <time>2014-05-13T09:58:31.1Z</time>
      </trkpt>
      <trkpt lat="42.91635" lon="2.11664">
        <ele>450</ele>
        <time>2014-05-13T09:58:34.1Z</time>
      </trkpt>
      <trkpt lat="42.91634" lon="2.11664">
        <ele>450</ele>
        <time>2014-05-13T09:58:36.1Z</time>
      </trkpt>
      <trkpt lat="42.91634" lon="2.11663">
        <ele>450</ele>
        <time>2014-05-13T09:58:39.1Z</time>
      </trkpt>
      <trkpt lat="42.91634" lon="2.11663">
        <ele>450</ele>
        <time>2014-05-13T09:58:41.1Z</time>
      </trkpt>
      <trkpt lat="42.91633" lon="2.11662">
        <ele>451</ele>
        <time>2014-05-13T09:58:44.1Z</time>
      </trkpt>
      <trkpt lat="42.91633" lon="2.11662">
        <ele>451</ele>
        <time>2014-05-13T09:58:46.1Z</time>
      </trkpt>
      <trkpt lat="42.91633" lon="2.11662">
        <ele>451</ele>
        <time>2014-05-13T09:58:48.1Z</time>
      </trkpt>
      <trkpt lat="42.91632" lon="2.11661">
        <ele>451</ele>
        <time>2014-05-13T09:58:51.1Z</time>
      </trkpt>
      <trkpt lat="42.91632" lon="2.11661">
        <ele>451</ele>
        <time>2014-05-13T09:58:54.1Z</time>
      </trkpt>
      <trkpt lat="42.91632" lon="2.11661">
        <ele>451</ele>
        <time>2014-05-13T09:58:56.1Z</time>
      </trkpt>
      <trkpt lat="42.91632" lon="2.1166">
        <ele>451</ele>
        <time>2014-05-13T09:58:59.1Z</time>
      </trkpt>
      <trkpt lat="42.91632" lon="2.1166">
        <ele>451</ele>
        <time>2014-05-13T09:59:01.1Z</time>
      </trkpt>
      <trkpt lat="42.91632" lon="2.11659">
        <ele>451</ele>
        <time>2014-05-13T09:59:05.1Z</time>
      </trkpt>
      <trkpt lat="42.91632" lon="2.11659">
        <ele>451</ele>
        <time>2014-05-13T09:59:08.1Z</time>
      </trkpt>
      <trkpt lat="42.91631" lon="2.11659">
        <ele>451</ele>
        <time>2014-05-13T09:59:10.1Z</time>
      </trkpt>
      <trkpt lat="42.91631" lon="2.11659">
        <ele>451</ele>
        <time>2014-05-13T09:59:13.1Z</time>
      </trkpt>
      <trkpt lat="42.91631" lon="2.11659">
        <ele>451</ele>
        <time>2014-05-13T09:59:16.1Z</time>
      </trkpt>
      <trkpt lat="42.91631" lon="2.1166">
        <ele>451</ele>
        <time>2014-05-13T09:59:18.1Z</time>
      </trkpt>
      <trkpt lat="42.91631" lon="2.1166">
        <ele>451</ele>
        <time>2014-05-13T09:59:21.1Z</time>
      </trkpt>
      <trkpt lat="42.91631" lon="2.11659">
        <ele>451</ele>
        <time>2014-05-13T09:59:24.1Z</time>
      </trkpt>
      <trkpt lat="42.91632" lon="2.11659">
        <ele>451</ele>
        <time>2014-05-13T09:59:28.1Z</time>
      </trkpt>
      <trkpt lat="42.91632" lon="2.1166">
        <ele>451</ele>
        <time>2014-05-13T09:59:30.1Z</time>
      </trkpt>
      <trkpt lat="42.91632" lon="2.1166">
        <ele>451</ele>
        <time>2014-05-13T09:59:33.1Z</time>
      </trkpt>
      <trkpt lat="42.91633" lon="2.1166">
        <ele>450</ele>
        <time>2014-05-13T09:59:36.1Z</time>
      </trkpt>
      <trkpt lat="42.91633" lon="2.1166">
        <ele>450</ele>
        <time>2014-05-13T09:59:38.1Z</time>
      </trkpt>
      <trkpt lat="42.91633" lon="2.1166">
        <ele>450</ele>
        <time>2014-05-13T09:59:40.1Z</time>
      </trkpt>
      <trkpt lat="42.91634" lon="2.11661">
        <ele>450</ele>
        <time>2014-05-13T09:59:43.1Z</time>
      </trkpt>
      <trkpt lat="42.91634" lon="2.11661">
        <ele>450</ele>
        <time>2014-05-13T09:59:46.1Z</time>
      </trkpt>
      <trkpt lat="42.91634" lon="2.11661">
        <ele>451</ele>
        <time>2014-05-13T09:59:49.1Z</time>
      </trkpt>
      <trkpt lat="42.91634" lon="2.1166">
        <ele>451</ele>
        <time>2014-05-13T09:59:52.1Z</time>
      </trkpt>
      <trkpt lat="42.91634" lon="2.1166">
        <ele>451</ele>
        <time>2014-05-13T09:59:55.1Z</time>
      </trkpt>
      <trkpt lat="42.91634" lon="2.1166">
        <ele>451</ele>
        <time>2014-05-13T09:59:58.1Z</time>
      </trkpt>
      <trkpt lat="42.91634" lon="2.11658">
        <ele>451</ele>
        <time>2014-05-13T10:00:00.1Z</time>
      </trkpt>
      <trkpt lat="42.91635" lon="2.11656">
        <ele>451</ele>
        <time>2014-05-13T10:00:03.1Z</time>
      </trkpt>
      <trkpt lat="42.91636" lon="2.11654">
        <ele>451</ele>
        <time>2014-05-13T10:00:06.1Z</time>
      </trkpt>
      <trkpt lat="42.91637" lon="2.11651">
        <ele>451</ele>
        <time>2014-05-13T10:00:09.1Z</time>
      </trkpt>
      <trkpt lat="42.91637" lon="2.11649">
        <ele>450</ele>
        <time>2014-05-13T10:00:11.1Z</time>
      </trkpt>
      <trkpt lat="42.91637" lon="2.11648">
        <ele>450</ele>
        <time>2014-05-13T10:00:13.1Z</time>
      </trkpt>
      <trkpt lat="42.91637" lon="2.11645">
        <ele>450</ele>
        <time>2014-05-13T10:00:16.1Z</time>
      </trkpt>
      <trkpt lat="42.91636" lon="2.11643">
        <ele>449</ele>
        <time>2014-05-13T10:00:19.1Z</time>
      </trkpt>
      <trkpt lat="42.91636" lon="2.11642">
        <ele>449</ele>
        <time>2014-05-13T10:00:21.1Z</time>
      </trkpt>
      <trkpt lat="42.91635" lon="2.1164">
        <ele>449</ele>
        <time>2014-05-13T10:00:24.1Z</time>
      </trkpt>
      <trkpt lat="42.91635" lon="2.11639">
        <ele>449</ele>
        <time>2014-05-13T10:00:26.1Z</time>
      </trkpt>
      <trkpt lat="42.91634" lon="2.11637">
        <ele>449</ele>
        <time>2014-05-13T10:00:29.1Z</time>
      </trkpt>
      <trkpt lat="42.91634" lon="2.11636">
        <ele>449</ele>
        <time>2014-05-13T10:00:31.1Z</time>
      </trkpt>
      <trkpt lat="42.91634" lon="2.11632">
        <ele>448</ele>
        <time>2014-05-13T10:00:34.1Z</time>
      </trkpt>
      <trkpt lat="42.91634" lon="2.11631">
        <ele>448</ele>
        <time>2014-05-13T10:00:36.1Z</time>
      </trkpt>
      <trkpt lat="42.91634" lon="2.11629">
        <ele>447</ele>
        <time>2014-05-13T10:00:39.1Z</time>
      </trkpt>
      <trkpt lat="42.91634" lon="2.11627">
        <ele>447</ele>
        <time>2014-05-13T10:00:42.1Z</time>
      </trkpt>
      <trkpt lat="42.91634" lon="2.11624">
        <ele>447</ele>
        <time>2014-05-13T10:00:45.1Z</time>
      </trkpt>
      <trkpt lat="42.91633" lon="2.1162">
        <ele>446</ele>
        <time>2014-05-13T10:00:48.1Z</time>
      </trkpt>
      <trkpt lat="42.91633" lon="2.11616">
        <ele>446</ele>
        <time>2014-05-13T10:00:51.1Z</time>
      </trkpt>
      <trkpt lat="42.91632" lon="2.11613">
        <ele>446</ele>
        <time>2014-05-13T10:00:54.1Z</time>
      </trkpt>
      <trkpt lat="42.91632" lon="2.11611">
        <ele>445</ele>
        <time>2014-05-13T10:00:56.1Z</time>
      </trkpt>
      <trkpt lat="42.91631" lon="2.11608">
        <ele>445</ele>
        <time>2014-05-13T10:00:59.1Z</time>
      </trkpt>
      <trkpt lat="42.91631" lon="2.11606">
        <ele>445</ele>
        <time>2014-05-13T10:01:01.1Z</time>
      </trkpt>
      <trkpt lat="42.9163" lon="2.11602">
        <ele>444</ele>
        <time>2014-05-13T10:01:04.1Z</time>
      </trkpt>
      <trkpt lat="42.9163" lon="2.11598">
        <ele>444</ele>
        <time>2014-05-13T10:01:07.1Z</time>
      </trkpt>
      <trkpt lat="42.91629" lon="2.11594">
        <ele>444</ele>
        <time>2014-05-13T10:01:10.1Z</time>
      </trkpt>
      <trkpt lat="42.91629" lon="2.1159">
        <ele>444</ele>
        <time>2014-05-13T10:01:13.1Z</time>
      </trkpt>
      <trkpt lat="42.91629" lon="2.11586">
        <ele>443</ele>
        <time>2014-05-13T10:01:15.1Z</time>
      </trkpt>
      <trkpt lat="42.91629" lon="2.11582">
        <ele>443</ele>
        <time>2014-05-13T10:01:18.1Z</time>
      </trkpt>
      <trkpt lat="42.91629" lon="2.11579">
        <ele>443</ele>
        <time>2014-05-13T10:01:21.1Z</time>
      </trkpt>
      <trkpt lat="42.91629" lon="2.11577">
        <ele>443</ele>
        <time>2014-05-13T10:01:24.1Z</time>
      </trkpt>
      <trkpt lat="42.91629" lon="2.11575">
        <ele>443</ele>
        <time>2014-05-13T10:01:27.1Z</time>
      </trkpt>
      <trkpt lat="42.91629" lon="2.11574">
        <ele>443</ele>
        <time>2014-05-13T10:01:30.1Z</time>
      </trkpt>
      <trkpt lat="42.91628" lon="2.11573">
        <ele>443</ele>
        <time>2014-05-13T10:01:33.1Z</time>
      </trkpt>
      <trkpt lat="42.91628" lon="2.1157">
        <ele>443</ele>
        <time>2014-05-13T10:01:36.1Z</time>
      </trkpt>
      <trkpt lat="42.91629" lon="2.11568">
        <ele>443</ele>
        <time>2014-05-13T10:01:38.1Z</time>
      </trkpt>
      <trkpt lat="42.91629" lon="2.11566">
        <ele>443</ele>
        <time>2014-05-13T10:01:41.1Z</time>
      </trkpt>
      <trkpt lat="42.91629" lon="2.11564">
        <ele>443</ele>
        <time>2014-05-13T10:01:43.1Z</time>
      </trkpt>
      <trkpt lat="42.91628" lon="2.11563">
        <ele>443</ele>
        <time>2014-05-13T10:01:45.1Z</time>
      </trkpt>
      <trkpt lat="42.91627" lon="2.11561">
        <ele>443</ele>
        <time>2014-05-13T10:01:48.1Z</time>
      </trkpt>
      <trkpt lat="42.91624" lon="2.11559">
        <ele>442</ele>
        <time>2014-05-13T10:01:51.1Z</time>
      </trkpt>
      <trkpt lat="42.91622" lon="2.11557">
        <ele>442</ele>
        <time>2014-05-13T10:01:54.1Z</time>
      </trkpt>
      <trkpt lat="42.91621" lon="2.11555">
        <ele>441</ele>
        <time>2014-05-13T10:01:56.1Z</time>
      </trkpt>
      <trkpt lat="42.91618" lon="2.11553">
        <ele>441</ele>
        <time>2014-05-13T10:01:59.1Z</time>
      </trkpt>
      <trkpt lat="42.91616" lon="2.11553">
        <ele>441</ele>
        <time>2014-05-13T10:02:01.1Z</time>
      </trkpt>
      <trkpt lat="42.91613" lon="2.11551">
        <ele>440</ele>
        <time>2014-05-13T10:02:04.1Z</time>
      </trkpt>
      <trkpt lat="42.91611" lon="2.1155">
        <ele>440</ele>
        <time>2014-05-13T10:02:06.1Z</time>
      </trkpt>
      <trkpt lat="42.91608" lon="2.1155">
        <ele>440</ele>
        <time>2014-05-13T10:02:09.1Z</time>
      </trkpt>
      <trkpt lat="42.91608" lon="2.11548">
        <ele>440</ele>
        <time>2014-05-13T10:02:11.1Z</time>
      </trkpt>
      <trkpt lat="42.91609" lon="2.11545">
        <ele>440</ele>
        <time>2014-05-13T10:02:14.1Z</time>
      </trkpt>
      <trkpt lat="42.9161" lon="2.11543">
        <ele>440</ele>
        <time>2014-05-13T10:02:16.1Z</time>
      </trkpt>
      <trkpt lat="42.91611" lon="2.11542">
        <ele>439</ele>
        <time>2014-05-13T10:02:19.1Z</time>
      </trkpt>
      <trkpt lat="42.91613" lon="2.1154">
        <ele>439</ele>
        <time>2014-05-13T10:02:22.1Z</time>
      </trkpt>
      <trkpt lat="42.91616" lon="2.11539">
        <ele>438</ele>
        <time>2014-05-13T10:02:25.1Z</time>
      </trkpt>
      <trkpt lat="42.91617" lon="2.11538">
        <ele>438</ele>
        <time>2014-05-13T10:02:27.1Z</time>
      </trkpt>
      <trkpt lat="42.91618" lon="2.11537">
        <ele>438</ele>
        <time>2014-05-13T10:02:30.1Z</time>
      </trkpt>
      <trkpt lat="42.9162" lon="2.11536">
        <ele>437</ele>
        <time>2014-05-13T10:02:33.1Z</time>
      </trkpt>
      <trkpt lat="42.91623" lon="2.11534">
        <ele>437</ele>
        <time>2014-05-13T10:02:36.1Z</time>
      </trkpt>
      <trkpt lat="42.91624" lon="2.11533">
        <ele>436</ele>
        <time>2014-05-13T10:02:38.1Z</time>
      </trkpt>
      <trkpt lat="42.91626" lon="2.11533">
        <ele>436</ele>
        <time>2014-05-13T10:02:41.1Z</time>
      </trkpt>
      <trkpt lat="42.91628" lon="2.11532">
        <ele>436</ele>
        <time>2014-05-13T10:02:43.1Z</time>
      </trkpt>
      <trkpt lat="42.91629" lon="2.11531">
        <ele>436</ele>
        <time>2014-05-13T10:02:45.1Z</time>
      </trkpt>
      <trkpt lat="42.91631" lon="2.11529">
        <ele>435</ele>
        <time>2014-05-13T10:02:48.1Z</time>
      </trkpt>
      <trkpt lat="42.91632" lon="2.11528">
        <ele>434</ele>
        <time>2014-05-13T10:02:50.1Z</time>
      </trkpt>
      <trkpt lat="42.91634" lon="2.11525">
        <ele>434</ele>
        <time>2014-05-13T10:02:53.1Z</time>
      </trkpt>
      <trkpt lat="42.91634" lon="2.11522">
        <ele>433</ele>
        <time>2014-05-13T10:02:56.1Z</time>
      </trkpt>
      <trkpt lat="42.91634" lon="2.1152">
        <ele>432</ele>
        <time>2014-05-13T10:02:59.1Z</time>
      </trkpt>
      <trkpt lat="42.91634" lon="2.11518">
        <ele>432</ele>
        <time>2014-05-13T10:03:02.1Z</time>
      </trkpt>
      <trkpt lat="42.91633" lon="2.11516">
        <ele>432</ele>
        <time>2014-05-13T10:03:04.1Z</time>
      </trkpt>
      <trkpt lat="42.91634" lon="2.11513">
        <ele>432</ele>
        <time>2014-05-13T10:03:07.1Z</time>
      </trkpt>
      <trkpt lat="42.91634" lon="2.11509">
        <ele>431</ele>
        <time>2014-05-13T10:03:10.1Z</time>
      </trkpt>
      <trkpt lat="42.91634" lon="2.11507">
        <ele>430</ele>
        <time>2014-05-13T10:03:13.1Z</time>
      </trkpt>
      <trkpt lat="42.91633" lon="2.11505">
        <ele>430</ele>
        <time>2014-05-13T10:03:16.1Z</time>
      </trkpt>
      <trkpt lat="42.91633" lon="2.11502">
        <ele>430</ele>
        <time>2014-05-13T10:03:18.1Z</time>
      </trkpt>
      <trkpt lat="42.91632" lon="2.115">
        <ele>430</ele>
        <time>2014-05-13T10:03:20.1Z</time>
      </trkpt>
      <trkpt lat="42.91631" lon="2.11497">
        <ele>429</ele>
        <time>2014-05-13T10:03:23.1Z</time>
      </trkpt>
      <trkpt lat="42.9163" lon="2.11496">
        <ele>429</ele>
        <time>2014-05-13T10:03:25.1Z</time>
      </trkpt>
      <trkpt lat="42.9163" lon="2.11494">
        <ele>428</ele>
        <time>2014-05-13T10:03:27.1Z</time>
      </trkpt>
      <trkpt lat="42.91629" lon="2.11492">
        <ele>429</ele>
        <time>2014-05-13T10:03:30.1Z</time>
      </trkpt>
      <trkpt lat="42.91628" lon="2.11491">
        <ele>428</ele>
        <time>2014-05-13T10:03:32.1Z</time>
      </trkpt>
      <trkpt lat="42.91628" lon="2.11489">
        <ele>428</ele>
        <time>2014-05-13T10:03:34.1Z</time>
      </trkpt>
      <trkpt lat="42.91628" lon="2.11488">
        <ele>428</ele>
        <time>2014-05-13T10:03:37.1Z</time>
      </trkpt>
      <trkpt lat="42.91629" lon="2.11486">
        <ele>428</ele>
        <time>2014-05-13T10:03:39.1Z</time>
      </trkpt>
      <trkpt lat="42.91628" lon="2.11485">
        <ele>428</ele>
        <time>2014-05-13T10:03:42.1Z</time>
      </trkpt>
      <trkpt lat="42.91628" lon="2.11484">
        <ele>428</ele>
        <time>2014-05-13T10:03:44.1Z</time>
      </trkpt>
      <trkpt lat="42.91628" lon="2.11482">
        <ele>428</ele>
        <time>2014-05-13T10:03:46.1Z</time>
      </trkpt>
      <trkpt lat="42.91628" lon="2.11479">
        <ele>428</ele>
        <time>2014-05-13T10:03:49.1Z</time>
      </trkpt>
      <trkpt lat="42.91628" lon="2.11476">
        <ele>428</ele>
        <time>2014-05-13T10:03:52.1Z</time>
      </trkpt>
      <trkpt lat="42.91626" lon="2.11473">
        <ele>429</ele>
        <time>2014-05-13T10:03:55.1Z</time>
      </trkpt>
      <trkpt lat="42.91624" lon="2.11471">
        <ele>429</ele>
        <time>2014-05-13T10:03:58.1Z</time>
      </trkpt>
      <trkpt lat="42.91623" lon="2.11471">
        <ele>428</ele>
        <time>2014-05-13T10:04:00.1Z</time>
      </trkpt>
      <trkpt lat="42.91622" lon="2.11469">
        <ele>428</ele>
        <time>2014-05-13T10:04:03.1Z</time>
      </trkpt>
      <trkpt lat="42.91621" lon="2.11467">
        <ele>428</ele>
        <time>2014-05-13T10:04:06.1Z</time>
      </trkpt>
      <trkpt lat="42.91621" lon="2.11466">
        <ele>429</ele>
        <time>2014-05-13T10:04:09.1Z</time>
      </trkpt>
      <trkpt lat="42.91621" lon="2.11466">
        <ele>429</ele>
        <time>2014-05-13T10:04:11.1Z</time>
      </trkpt>
      <trkpt lat="42.91621" lon="2.11466">
        <ele>429</ele>
        <time>2014-05-13T10:04:13.1Z</time>
      </trkpt>
      <trkpt lat="42.91623" lon="2.11467">
        <ele>429</ele>
        <time>2014-05-13T10:04:16.1Z</time>
      </trkpt>
      <trkpt lat="42.91625" lon="2.11468">
        <ele>429</ele>
        <time>2014-05-13T10:04:19.1Z</time>
      </trkpt>
      <trkpt lat="42.91626" lon="2.11468">
        <ele>428</ele>
        <time>2014-05-13T10:04:21.1Z</time>
      </trkpt>
      <trkpt lat="42.91628" lon="2.11468">
        <ele>428</ele>
        <time>2014-05-13T10:04:24.1Z</time>
      </trkpt>
      <trkpt lat="42.91629" lon="2.11466">
        <ele>428</ele>
        <time>2014-05-13T10:04:27.1Z</time>
      </trkpt>
      <trkpt lat="42.91629" lon="2.11465">
        <ele>428</ele>
        <time>2014-05-13T10:04:30.1Z</time>
      </trkpt>
      <trkpt lat="42.91631" lon="2.11462">
        <ele>428</ele>
        <time>2014-05-13T10:04:33.1Z</time>
      </trkpt>
      <trkpt lat="42.91632" lon="2.11461">
        <ele>428</ele>
        <time>2014-05-13T10:04:35.1Z</time>
      </trkpt>
      <trkpt lat="42.91633" lon="2.11459">
        <ele>428</ele>
        <time>2014-05-13T10:04:38.1Z</time>
      </trkpt>
      <trkpt lat="42.91634" lon="2.11457">
        <ele>429</ele>
        <time>2014-05-13T10:04:40.1Z</time>
      </trkpt>
      <trkpt lat="42.91635" lon="2.11455">
        <ele>429</ele>
        <time>2014-05-13T10:04:43.1Z</time>
      </trkpt>
      <trkpt lat="42.91638" lon="2.11453">
        <ele>429</ele>
        <time>2014-05-13T10:04:46.1Z</time>
      </trkpt>
      <trkpt lat="42.91641" lon="2.11451">
        <ele>430</ele>
        <time>2014-05-13T10:04:49.1Z</time>
      </trkpt>
      <trkpt lat="42.91642" lon="2.1145">
        <ele>430</ele>
        <time>2014-05-13T10:04:51.1Z</time>
      </trkpt>
      <trkpt lat="42.91645" lon="2.11449">
        <ele>430</ele>
        <time>2014-05-13T10:04:54.1Z</time>
      </trkpt>
      <trkpt lat="42.91648" lon="2.11448">
        <ele>430</ele>
        <time>2014-05-13T10:04:57.1Z</time>
      </trkpt>
      <trkpt lat="42.91649" lon="2.11447">
        <ele>431</ele>
        <time>2014-05-13T10:04:59.1Z</time>
      </trkpt>
      <trkpt lat="42.9165" lon="2.11445">
        <ele>431</ele>
        <time>2014-05-13T10:05:02.1Z</time>
      </trkpt>
      <trkpt lat="42.9165" lon="2.11444">
        <ele>431</ele>
        <time>2014-05-13T10:05:04.1Z</time>
      </trkpt>
      <trkpt lat="42.91651" lon="2.11442">
        <ele>432</ele>
        <time>2014-05-13T10:05:07.1Z</time>
      </trkpt>
      <trkpt lat="42.91651" lon="2.11442">
        <ele>432</ele>
        <time>2014-05-13T10:05:09.1Z</time>
      </trkpt>
      <trkpt lat="42.91652" lon="2.11441">
        <ele>432</ele>
        <time>2014-05-13T10:05:12.1Z</time>
      </trkpt>
      <trkpt lat="42.91653" lon="2.11439">
        <ele>432</ele>
        <time>2014-05-13T10:05:15.1Z</time>
      </trkpt>
      <trkpt lat="42.91653" lon="2.11438">
        <ele>432</ele>
        <time>2014-05-13T10:05:17.1Z</time>
      </trkpt>
      <trkpt lat="42.91655" lon="2.11436">
        <ele>433</ele>
        <time>2014-05-13T10:05:20.1Z</time>
      </trkpt>
      <trkpt lat="42.91656" lon="2.11434">
        <ele>433</ele>
        <time>2014-05-13T10:05:23.1Z</time>
      </trkpt>
      <trkpt lat="42.91657" lon="2.11434">
        <ele>433</ele>
        <time>2014-05-13T10:05:25.1Z</time>
      </trkpt>
      <trkpt lat="42.91658" lon="2.11434">
        <ele>433</ele>
        <time>2014-05-13T10:05:28.1Z</time>
      </trkpt>
      <trkpt lat="42.9166" lon="2.11433">
        <ele>434</ele>
        <time>2014-05-13T10:05:30.1Z</time>
      </trkpt>
      <trkpt lat="42.91662" lon="2.11431">
        <ele>434</ele>
        <time>2014-05-13T10:05:33.1Z</time>
      </trkpt>
      <trkpt lat="42.91662" lon="2.11431">
        <ele>434</ele>
        <time>2014-05-13T10:05:36.1Z</time>
      </trkpt>
      <trkpt lat="42.91661" lon="2.11429">
        <ele>434</ele>
        <time>2014-05-13T10:05:38.1Z</time>
      </trkpt>
      <trkpt lat="42.9166" lon="2.11428">
        <ele>434</ele>
        <time>2014-05-13T10:05:41.1Z</time>
      </trkpt>
      <trkpt lat="42.91659" lon="2.11429">
        <ele>434</ele>
        <time>2014-05-13T10:05:44.1Z</time>
      </trkpt>
      <trkpt lat="42.91659" lon="2.11428">
        <ele>434</ele>
        <time>2014-05-13T10:05:48.1Z</time>
      </trkpt>
      <trkpt lat="42.91658" lon="2.11426">
        <ele>434</ele>
        <time>2014-05-13T10:05:51.1Z</time>
      </trkpt>
      <trkpt lat="42.91659" lon="2.11425">
        <ele>434</ele>
        <time>2014-05-13T10:05:54.1Z</time>
      </trkpt>
      <trkpt lat="42.91659" lon="2.11425">
        <ele>434</ele>
        <time>2014-05-13T10:05:56.1Z</time>
      </trkpt>
      <trkpt lat="42.91659" lon="2.11424">
        <ele>434</ele>
        <time>2014-05-13T10:05:59.1Z</time>
      </trkpt>
      <trkpt lat="42.91659" lon="2.11423">
        <ele>434</ele>
        <time>2014-05-13T10:06:02.1Z</time>
      </trkpt>
      <trkpt lat="42.91659" lon="2.11423">
        <ele>434</ele>
        <time>2014-05-13T10:06:05.1Z</time>
      </trkpt>
      <trkpt lat="42.9166" lon="2.11423">
        <ele>434</ele>
        <time>2014-05-13T10:06:08.1Z</time>
      </trkpt>
      <trkpt lat="42.9166" lon="2.11422">
        <ele>434</ele>
        <time>2014-05-13T10:06:11.1Z</time>
      </trkpt>
      <trkpt lat="42.9166" lon="2.11421">
        <ele>434</ele>
        <time>2014-05-13T10:06:14.1Z</time>
      </trkpt>
      <trkpt lat="42.91661" lon="2.11421">
        <ele>434</ele>
        <time>2014-05-13T10:06:17.1Z</time>
      </trkpt>
      <trkpt lat="42.91661" lon="2.11421">
        <ele>434</ele>
        <time>2014-05-13T10:06:20.1Z</time>
      </trkpt>
      <trkpt lat="42.91661" lon="2.1142">
        <ele>434</ele>
        <time>2014-05-13T10:06:23.1Z</time>
      </trkpt>
      <trkpt lat="42.9166" lon="2.1142">
        <ele>434</ele>
        <time>2014-05-13T10:06:26.1Z</time>
      </trkpt>
      <trkpt lat="42.9166" lon="2.1142">
        <ele>434</ele>
        <time>2014-05-13T10:06:28.1Z</time>
      </trkpt>
      <trkpt lat="42.9166" lon="2.1142">
        <ele>434</ele>
        <time>2014-05-13T10:06:31.1Z</time>
      </trkpt>
      <trkpt lat="42.91661" lon="2.1142">
        <ele>435</ele>
        <time>2014-05-13T10:06:33.1Z</time>
      </trkpt>
      <trkpt lat="42.9166" lon="2.1142">
        <ele>434</ele>
        <time>2014-05-13T10:06:36.1Z</time>
      </trkpt>
      <trkpt lat="42.9166" lon="2.1142">
        <ele>434</ele>
        <time>2014-05-13T10:06:39.1Z</time>
      </trkpt>
      <trkpt lat="42.91661" lon="2.11419">
        <ele>434</ele>
        <time>2014-05-13T10:06:42.1Z</time>
      </trkpt>
      <trkpt lat="42.91662" lon="2.11419">
        <ele>434</ele>
        <time>2014-05-13T10:06:44.1Z</time>
      </trkpt>
      <trkpt lat="42.91662" lon="2.11419">
        <ele>434</ele>
        <time>2014-05-13T10:06:47.1Z</time>
      </trkpt>
      <trkpt lat="42.91662" lon="2.1142">
        <ele>434</ele>
        <time>2014-05-13T10:06:49.1Z</time>
      </trkpt>
      <trkpt lat="42.91663" lon="2.1142">
        <ele>434</ele>
        <time>2014-05-13T10:06:51.1Z</time>
      </trkpt>
      <trkpt lat="42.91664" lon="2.1142">
        <ele>434</ele>
        <time>2014-05-13T10:06:54.1Z</time>
      </trkpt>
      <trkpt lat="42.91664" lon="2.1142">
        <ele>435</ele>
        <time>2014-05-13T10:06:56.1Z</time>
      </trkpt>
      <trkpt lat="42.91664" lon="2.1142">
        <ele>434</ele>
        <time>2014-05-13T10:06:59.1Z</time>
      </trkpt>
      <trkpt lat="42.91663" lon="2.1142">
        <ele>434</ele>
        <time>2014-05-13T10:07:01.1Z</time>
      </trkpt>
      <trkpt lat="42.91662" lon="2.11421">
        <ele>434</ele>
        <time>2014-05-13T10:07:03.1Z</time>
      </trkpt>
      <trkpt lat="42.91663" lon="2.11421">
        <ele>434</ele>
        <time>2014-05-13T10:07:06.1Z</time>
      </trkpt>
      <trkpt lat="42.91665" lon="2.11419">
        <ele>435</ele>
        <time>2014-05-13T10:07:09.1Z</time>
      </trkpt>
      <trkpt lat="42.91664" lon="2.11417">
        <ele>434</ele>
        <time>2014-05-13T10:07:12.1Z</time>
      </trkpt>
      <trkpt lat="42.91663" lon="2.11418">
        <ele>434</ele>
        <time>2014-05-13T10:07:14.1Z</time>
      </trkpt>
      <trkpt lat="42.91661" lon="2.11419">
        <ele>434</ele>
        <time>2014-05-13T10:07:17.1Z</time>
      </trkpt>
      <trkpt lat="42.91662" lon="2.11421">
        <ele>434</ele>
        <time>2014-05-13T10:07:20.1Z</time>
      </trkpt>
      <trkpt lat="42.91663" lon="2.11422">
        <ele>434</ele>
        <time>2014-05-13T10:07:23.1Z</time>
      </trkpt>
      <trkpt lat="42.91663" lon="2.11423">
        <ele>434</ele>
        <time>2014-05-13T10:07:25.1Z</time>
      </trkpt>
      <trkpt lat="42.91663" lon="2.11424">
        <ele>434</ele>
        <time>2014-05-13T10:07:28.1Z</time>
      </trkpt>
      <trkpt lat="42.91663" lon="2.11425">
        <ele>434</ele>
        <time>2014-05-13T10:07:30.1Z</time>
      </trkpt>
      <trkpt lat="42.91663" lon="2.11426">
        <ele>434</ele>
        <time>2014-05-13T10:07:33.1Z</time>
      </trkpt>
      <trkpt lat="42.91663" lon="2.11426">
        <ele>434</ele>
        <time>2014-05-13T10:07:35.1Z</time>
      </trkpt>
      <trkpt lat="42.91662" lon="2.11426">
        <ele>434</ele>
        <time>2014-05-13T10:07:37.1Z</time>
      </trkpt>
      <trkpt lat="42.91661" lon="2.11426">
        <ele>434</ele>
        <time>2014-05-13T10:07:41.1Z</time>
      </trkpt>
      <trkpt lat="42.91663" lon="2.11426">
        <ele>434</ele>
        <time>2014-05-13T10:07:44.1Z</time>
      </trkpt>
      <trkpt lat="42.91663" lon="2.11426">
        <ele>434</ele>
        <time>2014-05-13T10:07:46.1Z</time>
      </trkpt>
      <trkpt lat="42.91662" lon="2.11425">
        <ele>434</ele>
        <time>2014-05-13T10:07:48.1Z</time>
      </trkpt>
      <trkpt lat="42.91663" lon="2.11425">
        <ele>434</ele>
        <time>2014-05-13T10:07:51.1Z</time>
      </trkpt>
      <trkpt lat="42.91663" lon="2.11425">
        <ele>434</ele>
        <time>2014-05-13T10:07:54.1Z</time>
      </trkpt>
      <trkpt lat="42.91665" lon="2.11424">
        <ele>434</ele>
        <time>2014-05-13T10:07:57.1Z</time>
      </trkpt>
      <trkpt lat="42.91666" lon="2.11424">
        <ele>434</ele>
        <time>2014-05-13T10:07:59.1Z</time>
      </trkpt>
      <trkpt lat="42.91668" lon="2.11423">
        <ele>434</ele>
        <time>2014-05-13T10:08:02.1Z</time>
      </trkpt>
      <trkpt lat="42.9167" lon="2.11422">
        <ele>434</ele>
        <time>2014-05-13T10:08:05.1Z</time>
      </trkpt>
      <trkpt lat="42.9167" lon="2.11422">
        <ele>434</ele>
        <time>2014-05-13T10:08:07.1Z</time>
      </trkpt>
      <trkpt lat="42.9167" lon="2.11421">
        <ele>434</ele>
        <time>2014-05-13T10:08:11.1Z</time>
      </trkpt>
      <trkpt lat="42.9167" lon="2.11421">
        <ele>434</ele>
        <time>2014-05-13T10:08:13.1Z</time>
      </trkpt>
      <trkpt lat="42.91669" lon="2.1142">
        <ele>434</ele>
        <time>2014-05-13T10:08:16.1Z</time>
      </trkpt>
      <trkpt lat="42.91669" lon="2.1142">
        <ele>434</ele>
        <time>2014-05-13T10:08:18.1Z</time>
      </trkpt>
      <trkpt lat="42.91669" lon="2.1142">
        <ele>434</ele>
        <time>2014-05-13T10:08:21.1Z</time>
      </trkpt>
      <trkpt lat="42.91668" lon="2.1142">
        <ele>434</ele>
        <time>2014-05-13T10:08:24.1Z</time>
      </trkpt>
      <trkpt lat="42.91667" lon="2.1142">
        <ele>434</ele>
        <time>2014-05-13T10:08:28.1Z</time>
      </trkpt>
      <trkpt lat="42.91667" lon="2.1142">
        <ele>434</ele>
        <time>2014-05-13T10:08:31.1Z</time>
      </trkpt>
      <trkpt lat="42.91665" lon="2.11419">
        <ele>434</ele>
        <time>2014-05-13T10:08:34.1Z</time>
      </trkpt>
      <trkpt lat="42.91665" lon="2.11419">
        <ele>435</ele>
        <time>2014-05-13T10:08:36.1Z</time>
      </trkpt>
      <trkpt lat="42.91663" lon="2.11419">
        <ele>434</ele>
        <time>2014-05-13T10:08:39.1Z</time>
      </trkpt>
      <trkpt lat="42.91663" lon="2.11419">
        <ele>434</ele>
        <time>2014-05-13T10:08:41.1Z</time>
      </trkpt>
      <trkpt lat="42.91663" lon="2.11417">
        <ele>434</ele>
        <time>2014-05-13T10:08:44.1Z</time>
      </trkpt>
      <trkpt lat="42.91662" lon="2.11416">
        <ele>434</ele>
        <time>2014-05-13T10:08:47.1Z</time>
      </trkpt>
      <trkpt lat="42.91662" lon="2.11415">
        <ele>434</ele>
        <time>2014-05-13T10:08:49.1Z</time>
      </trkpt>
      <trkpt lat="42.91662" lon="2.11414">
        <ele>434</ele>
        <time>2014-05-13T10:08:52.1Z</time>
      </trkpt>
      <trkpt lat="42.91663" lon="2.11413">
        <ele>434</ele>
        <time>2014-05-13T10:08:55.1Z</time>
      </trkpt>
      <trkpt lat="42.91663" lon="2.11411">
        <ele>434</ele>
        <time>2014-05-13T10:08:57.1Z</time>
      </trkpt>
      <trkpt lat="42.91664" lon="2.11408">
        <ele>434</ele>
        <time>2014-05-13T10:09:00.1Z</time>
      </trkpt>
      <trkpt lat="42.91665" lon="2.11407">
        <ele>434</ele>
        <time>2014-05-13T10:09:02.1Z</time>
      </trkpt>
      <trkpt lat="42.91665" lon="2.11406">
        <ele>434</ele>
        <time>2014-05-13T10:09:05.1Z</time>
      </trkpt>
      <trkpt lat="42.91664" lon="2.11405">
        <ele>434</ele>
        <time>2014-05-13T10:09:07.1Z</time>
      </trkpt>
      <trkpt lat="42.91664" lon="2.11402">
        <ele>434</ele>
        <time>2014-05-13T10:09:10.1Z</time>
      </trkpt>
      <trkpt lat="42.91663" lon="2.11401">
        <ele>435</ele>
        <time>2014-05-13T10:09:13.1Z</time>
      </trkpt>
      <trkpt lat="42.91665" lon="2.11398">
        <ele>435</ele>
        <time>2014-05-13T10:09:16.1Z</time>
      </trkpt>
      <trkpt lat="42.91666" lon="2.11397">
        <ele>434</ele>
        <time>2014-05-13T10:09:18.1Z</time>
      </trkpt>
      <trkpt lat="42.91668" lon="2.11396">
        <ele>434</ele>
        <time>2014-05-13T10:09:21.1Z</time>
      </trkpt>
      <trkpt lat="42.91668" lon="2.11395">
        <ele>434</ele>
        <time>2014-05-13T10:09:23.1Z</time>
      </trkpt>
      <trkpt lat="42.9167" lon="2.11394">
        <ele>434</ele>
        <time>2014-05-13T10:09:26.1Z</time>
      </trkpt>
      <trkpt lat="42.91672" lon="2.11392">
        <ele>434</ele>
        <time>2014-05-13T10:09:28.1Z</time>
      </trkpt>
      <trkpt lat="42.91675" lon="2.1139">
        <ele>435</ele>
        <time>2014-05-13T10:09:31.1Z</time>
      </trkpt>
      <trkpt lat="42.91676" lon="2.11388">
        <ele>435</ele>
        <time>2014-05-13T10:09:33.1Z</time>
      </trkpt>
      <trkpt lat="42.9168" lon="2.11386">
        <ele>435</ele>
        <time>2014-05-13T10:09:36.1Z</time>
      </trkpt>
      <trkpt lat="42.91683" lon="2.11385">
        <ele>434</ele>
        <time>2014-05-13T10:09:39.1Z</time>
      </trkpt>
      <trkpt lat="42.91684" lon="2.11383">
        <ele>435</ele>
        <time>2014-05-13T10:09:42.1Z</time>
      </trkpt>
      <trkpt lat="42.91687" lon="2.1138">
        <ele>435</ele>
        <time>2014-05-13T10:09:45.1Z</time>
      </trkpt>
      <trkpt lat="42.91688" lon="2.11377">
        <ele>436</ele>
        <time>2014-05-13T10:09:48.1Z</time>
      </trkpt>
      <trkpt lat="42.9169" lon="2.11375">
        <ele>436</ele>
        <time>2014-05-13T10:09:50.1Z</time>
      </trkpt>
      <trkpt lat="42.9169" lon="2.11374">
        <ele>436</ele>
        <time>2014-05-13T10:09:52.1Z</time>
      </trkpt>
      <trkpt lat="42.91692" lon="2.11371">
        <ele>436</ele>
        <time>2014-05-13T10:09:55.1Z</time>
      </trkpt>
      <trkpt lat="42.91693" lon="2.11369">
        <ele>436</ele>
        <time>2014-05-13T10:09:58.1Z</time>
      </trkpt>
      <trkpt lat="42.91694" lon="2.11368">
        <ele>436</ele>
        <time>2014-05-13T10:10:00.1Z</time>
      </trkpt>
      <trkpt lat="42.91696" lon="2.11367">
        <ele>436</ele>
        <time>2014-05-13T10:10:03.1Z</time>
      </trkpt>
      <trkpt lat="42.91697" lon="2.11365">
        <ele>436</ele>
        <time>2014-05-13T10:10:06.1Z</time>
      </trkpt>
      <trkpt lat="42.91698" lon="2.11363">
        <ele>437</ele>
        <time>2014-05-13T10:10:09.1Z</time>
      </trkpt>
      <trkpt lat="42.917" lon="2.1136">
        <ele>437</ele>
        <time>2014-05-13T10:10:12.1Z</time>
      </trkpt>
      <trkpt lat="42.917" lon="2.11358">
        <ele>437</ele>
        <time>2014-05-13T10:10:14.1Z</time>
      </trkpt>
      <trkpt lat="42.91701" lon="2.11357">
        <ele>438</ele>
        <time>2014-05-13T10:10:16.1Z</time>
      </trkpt>
      <trkpt lat="42.91703" lon="2.11354">
        <ele>438</ele>
        <time>2014-05-13T10:10:19.1Z</time>
      </trkpt>
      <trkpt lat="42.91703" lon="2.11352">
        <ele>438</ele>
        <time>2014-05-13T10:10:21.1Z</time>
      </trkpt>
      <trkpt lat="42.91704" lon="2.11349">
        <ele>438</ele>
        <time>2014-05-13T10:10:24.1Z</time>
      </trkpt>
      <trkpt lat="42.91705" lon="2.11347">
        <ele>438</ele>
        <time>2014-05-13T10:10:26.1Z</time>
      </trkpt>
      <trkpt lat="42.91706" lon="2.11344">
        <ele>439</ele>
        <time>2014-05-13T10:10:29.1Z</time>
      </trkpt>
      <trkpt lat="42.91707" lon="2.11342">
        <ele>439</ele>
        <time>2014-05-13T10:10:31.1Z</time>
      </trkpt>
      <trkpt lat="42.91708" lon="2.11339">
        <ele>439</ele>
        <time>2014-05-13T10:10:34.1Z</time>
      </trkpt>
      <trkpt lat="42.91708" lon="2.11337">
        <ele>439</ele>
        <time>2014-05-13T10:10:36.1Z</time>
      </trkpt>
      <trkpt lat="42.9171" lon="2.11333">
        <ele>439</ele>
        <time>2014-05-13T10:10:39.1Z</time>
      </trkpt>
      <trkpt lat="42.91711" lon="2.11331">
        <ele>439</ele>
        <time>2014-05-13T10:10:42.1Z</time>
      </trkpt>
      <trkpt lat="42.91711" lon="2.11329">
        <ele>440</ele>
        <time>2014-05-13T10:10:45.1Z</time>
      </trkpt>
      <trkpt lat="42.91712" lon="2.11325">
        <ele>440</ele>
        <time>2014-05-13T10:10:48.1Z</time>
      </trkpt>
      <trkpt lat="42.91712" lon="2.11323">
        <ele>440</ele>
        <time>2014-05-13T10:10:50.1Z</time>
      </trkpt>
      <trkpt lat="42.91713" lon="2.11319">
        <ele>440</ele>
        <time>2014-05-13T10:10:53.1Z</time>
      </trkpt>
      <trkpt lat="42.91714" lon="2.11317">
        <ele>440</ele>
        <time>2014-05-13T10:10:55.1Z</time>
      </trkpt>
      <trkpt lat="42.91714" lon="2.11313">
        <ele>441</ele>
        <time>2014-05-13T10:10:58.1Z</time>
      </trkpt>
      <trkpt lat="42.91714" lon="2.1131">
        <ele>441</ele>
        <time>2014-05-13T10:11:01.1Z</time>
      </trkpt>
      <trkpt lat="42.91716" lon="2.11308">
        <ele>441</ele>
        <time>2014-05-13T10:11:03.1Z</time>
      </trkpt>
      <trkpt lat="42.91716" lon="2.11305">
        <ele>441</ele>
        <time>2014-05-13T10:11:06.1Z</time>
      </trkpt>
      <trkpt lat="42.91718" lon="2.11303">
        <ele>441</ele>
        <time>2014-05-13T10:11:09.1Z</time>
      </trkpt>
      <trkpt lat="42.91719" lon="2.113">
        <ele>442</ele>
        <time>2014-05-13T10:11:11.1Z</time>
      </trkpt>
      <trkpt lat="42.9172" lon="2.11297">
        <ele>442</ele>
        <time>2014-05-13T10:11:14.1Z</time>
      </trkpt>
      <trkpt lat="42.91721" lon="2.11295">
        <ele>442</ele>
        <time>2014-05-13T10:11:16.1Z</time>
      </trkpt>
      <trkpt lat="42.91722" lon="2.11292">
        <ele>443</ele>
        <time>2014-05-13T10:11:19.1Z</time>
      </trkpt>
      <trkpt lat="42.91723" lon="2.11288">
        <ele>443</ele>
        <time>2014-05-13T10:11:22.1Z</time>
      </trkpt>
      <trkpt lat="42.91725" lon="2.11287">
        <ele>443</ele>
        <time>2014-05-13T10:11:24.1Z</time>
      </trkpt>
      <trkpt lat="42.91725" lon="2.11285">
        <ele>444</ele>
        <time>2014-05-13T10:11:27.1Z</time>
      </trkpt>
      <trkpt lat="42.91725" lon="2.11283">
        <ele>444</ele>
        <time>2014-05-13T10:11:29.1Z</time>
      </trkpt>
      <trkpt lat="42.91727" lon="2.11282">
        <ele>444</ele>
        <time>2014-05-13T10:11:31.1Z</time>
      </trkpt>
      <trkpt lat="42.91729" lon="2.11279">
        <ele>444</ele>
        <time>2014-05-13T10:11:34.1Z</time>
      </trkpt>
      <trkpt lat="42.9173" lon="2.11278">
        <ele>444</ele>
        <time>2014-05-13T10:11:36.1Z</time>
      </trkpt>
      <trkpt lat="42.91731" lon="2.11275">
        <ele>444</ele>
        <time>2014-05-13T10:11:39.1Z</time>
      </trkpt>
      <trkpt lat="42.91733" lon="2.11273">
        <ele>445</ele>
        <time>2014-05-13T10:11:42.1Z</time>
      </trkpt>
      <trkpt lat="42.91734" lon="2.11268">
        <ele>445</ele>
        <time>2014-05-13T10:11:45.1Z</time>
      </trkpt>
      <trkpt lat="42.91735" lon="2.11265">
        <ele>445</ele>
        <time>2014-05-13T10:11:48.1Z</time>
      </trkpt>
      <trkpt lat="42.91736" lon="2.11263">
        <ele>446</ele>
        <time>2014-05-13T10:11:51.1Z</time>
      </trkpt>
      <trkpt lat="42.91736" lon="2.11261">
        <ele>446</ele>
        <time>2014-05-13T10:11:53.1Z</time>
      </trkpt>
      <trkpt lat="42.91737" lon="2.11259">
        <ele>447</ele>
        <time>2014-05-13T10:11:55.1Z</time>
      </trkpt>
      <trkpt lat="42.91737" lon="2.11257">
        <ele>447</ele>
        <time>2014-05-13T10:11:58.1Z</time>
      </trkpt>
      <trkpt lat="42.91738" lon="2.11254">
        <ele>447</ele>
        <time>2014-05-13T10:12:01.1Z</time>
      </trkpt>
      <trkpt lat="42.91737" lon="2.11251">
        <ele>447</ele>
        <time>2014-05-13T10:12:04.1Z</time>
      </trkpt>
      <trkpt lat="42.91738" lon="2.1125">
        <ele>447</ele>
        <time>2014-05-13T10:12:06.1Z</time>
      </trkpt>
      <trkpt lat="42.91738" lon="2.11247">
        <ele>448</ele>
        <time>2014-05-13T10:12:09.1Z</time>
      </trkpt>
      <trkpt lat="42.91737" lon="2.11245">
        <ele>448</ele>
        <time>2014-05-13T10:12:11.1Z</time>
      </trkpt>
      <trkpt lat="42.91738" lon="2.11243">
        <ele>448</ele>
        <time>2014-05-13T10:12:14.1Z</time>
      </trkpt>
      <trkpt lat="42.91738" lon="2.1124">
        <ele>448</ele>
        <time>2014-05-13T10:12:17.1Z</time>
      </trkpt>
      <trkpt lat="42.91738" lon="2.11237">
        <ele>448</ele>
        <time>2014-05-13T10:12:19.1Z</time>
      </trkpt>
      <trkpt lat="42.91739" lon="2.11235">
        <ele>448</ele>
        <time>2014-05-13T10:12:21.1Z</time>
      </trkpt>
      <trkpt lat="42.9174" lon="2.11232">
        <ele>449</ele>
        <time>2014-05-13T10:12:24.1Z</time>
      </trkpt>
      <trkpt lat="42.91741" lon="2.11228">
        <ele>449</ele>
        <time>2014-05-13T10:12:27.1Z</time>
      </trkpt>
      <trkpt lat="42.91743" lon="2.11225">
        <ele>449</ele>
        <time>2014-05-13T10:12:30.1Z</time>
      </trkpt>
      <trkpt lat="42.91743" lon="2.11223">
        <ele>449</ele>
        <time>2014-05-13T10:12:32.1Z</time>
      </trkpt>
      <trkpt lat="42.91744" lon="2.11221">
        <ele>449</ele>
        <time>2014-05-13T10:12:34.1Z</time>
      </trkpt>
      <trkpt lat="42.91744" lon="2.11218">
        <ele>449</ele>
        <time>2014-05-13T10:12:37.1Z</time>
      </trkpt>
      <trkpt lat="42.91744" lon="2.11214">
        <ele>450</ele>
        <time>2014-05-13T10:12:40.1Z</time>
      </trkpt>
      <trkpt lat="42.91745" lon="2.11211">
        <ele>451</ele>
        <time>2014-05-13T10:12:43.1Z</time>
      </trkpt>
      <trkpt lat="42.91745" lon="2.1121">
        <ele>451</ele>
        <time>2014-05-13T10:12:46.1Z</time>
      </trkpt>
      <trkpt lat="42.91746" lon="2.11206">
        <ele>452</ele>
        <time>2014-05-13T10:12:49.1Z</time>
      </trkpt>
      <trkpt lat="42.91747" lon="2.11205">
        <ele>452</ele>
        <time>2014-05-13T10:12:51.1Z</time>
      </trkpt>
      <trkpt lat="42.91747" lon="2.11202">
        <ele>452</ele>
        <time>2014-05-13T10:12:54.1Z</time>
      </trkpt>
      <trkpt lat="42.91748" lon="2.112">
        <ele>452</ele>
        <time>2014-05-13T10:12:57.1Z</time>
      </trkpt>
      <trkpt lat="42.91749" lon="2.11199">
        <ele>453</ele>
        <time>2014-05-13T10:12:59.1Z</time>
      </trkpt>
      <trkpt lat="42.91749" lon="2.11196">
        <ele>453</ele>
        <time>2014-05-13T10:13:02.1Z</time>
      </trkpt>
      <trkpt lat="42.9175" lon="2.11195">
        <ele>454</ele>
        <time>2014-05-13T10:13:05.1Z</time>
      </trkpt>
      <trkpt lat="42.91752" lon="2.11192">
        <ele>455</ele>
        <time>2014-05-13T10:13:08.1Z</time>
      </trkpt>
      <trkpt lat="42.91753" lon="2.1119">
        <ele>455</ele>
        <time>2014-05-13T10:13:10.1Z</time>
      </trkpt>
      <trkpt lat="42.91755" lon="2.1119">
        <ele>455</ele>
        <time>2014-05-13T10:13:13.1Z</time>
      </trkpt>
      <trkpt lat="42.91756" lon="2.11192">
        <ele>456</ele>
        <time>2014-05-13T10:13:16.1Z</time>
      </trkpt>
      <trkpt lat="42.91757" lon="2.11193">
        <ele>456</ele>
        <time>2014-05-13T10:13:19.1Z</time>
      </trkpt>
      <trkpt lat="42.91758" lon="2.11194">
        <ele>456</ele>
        <time>2014-05-13T10:13:22.1Z</time>
      </trkpt>
      <trkpt lat="42.9176" lon="2.11195">
        <ele>456</ele>
        <time>2014-05-13T10:13:25.1Z</time>
      </trkpt>
      <trkpt lat="42.91761" lon="2.11196">
        <ele>457</ele>
        <time>2014-05-13T10:13:27.1Z</time>
      </trkpt>
      <trkpt lat="42.91764" lon="2.11196">
        <ele>457</ele>
        <time>2014-05-13T10:13:30.1Z</time>
      </trkpt>
      <trkpt lat="42.91767" lon="2.11195">
        <ele>457</ele>
        <time>2014-05-13T10:13:33.1Z</time>
      </trkpt>
      <trkpt lat="42.9177" lon="2.11194">
        <ele>457</ele>
        <time>2014-05-13T10:13:36.1Z</time>
      </trkpt>
      <trkpt lat="42.91771" lon="2.11194">
        <ele>458</ele>
        <time>2014-05-13T10:13:38.1Z</time>
      </trkpt>
      <trkpt lat="42.91773" lon="2.11193">
        <ele>458</ele>
        <time>2014-05-13T10:13:41.1Z</time>
      </trkpt>
      <trkpt lat="42.91775" lon="2.11193">
        <ele>459</ele>
        <time>2014-05-13T10:13:44.1Z</time>
      </trkpt>
      <trkpt lat="42.91778" lon="2.11193">
        <ele>459</ele>
        <time>2014-05-13T10:13:47.1Z</time>
      </trkpt>
      <trkpt lat="42.9178" lon="2.11191">
        <ele>460</ele>
        <time>2014-05-13T10:13:50.1Z</time>
      </trkpt>
      <trkpt lat="42.91782" lon="2.11189">
        <ele>460</ele>
        <time>2014-05-13T10:13:53.1Z</time>
      </trkpt>
      <trkpt lat="42.91784" lon="2.11187">
        <ele>461</ele>
        <time>2014-05-13T10:13:56.1Z</time>
      </trkpt>
      <trkpt lat="42.91784" lon="2.11184">
        <ele>461</ele>
        <time>2014-05-13T10:13:59.1Z</time>
      </trkpt>
      <trkpt lat="42.91784" lon="2.11182">
        <ele>461</ele>
        <time>2014-05-13T10:14:02.1Z</time>
      </trkpt>
      <trkpt lat="42.91785" lon="2.11181">
        <ele>461</ele>
        <time>2014-05-13T10:14:05.1Z</time>
      </trkpt>
      <trkpt lat="42.91785" lon="2.11178">
        <ele>462</ele>
        <time>2014-05-13T10:14:08.1Z</time>
      </trkpt>
      <trkpt lat="42.91785" lon="2.11176">
        <ele>462</ele>
        <time>2014-05-13T10:14:10.1Z</time>
      </trkpt>
      <trkpt lat="42.91785" lon="2.11175">
        <ele>462</ele>
        <time>2014-05-13T10:14:13.1Z</time>
      </trkpt>
      <trkpt lat="42.91785" lon="2.11174">
        <ele>462</ele>
        <time>2014-05-13T10:14:15.1Z</time>
      </trkpt>
      <trkpt lat="42.91787" lon="2.11172">
        <ele>462</ele>
        <time>2014-05-13T10:14:18.1Z</time>
      </trkpt>
      <trkpt lat="42.91787" lon="2.11172">
        <ele>462</ele>
        <time>2014-05-13T10:14:21.1Z</time>
      </trkpt>
      <trkpt lat="42.91788" lon="2.11168">
        <ele>463</ele>
        <time>2014-05-13T10:14:24.1Z</time>
      </trkpt>
      <trkpt lat="42.91788" lon="2.11166">
        <ele>463</ele>
        <time>2014-05-13T10:14:26.1Z</time>
      </trkpt>
      <trkpt lat="42.91788" lon="2.11164">
        <ele>463</ele>
        <time>2014-05-13T10:14:29.1Z</time>
      </trkpt>
      <trkpt lat="42.91788" lon="2.11162">
        <ele>464</ele>
        <time>2014-05-13T10:14:32.1Z</time>
      </trkpt>
      <trkpt lat="42.91789" lon="2.11159">
        <ele>465</ele>
        <time>2014-05-13T10:14:35.1Z</time>
      </trkpt>
      <trkpt lat="42.91789" lon="2.11157">
        <ele>465</ele>
        <time>2014-05-13T10:14:37.1Z</time>
      </trkpt>
      <trkpt lat="42.91788" lon="2.11155">
        <ele>466</ele>
        <time>2014-05-13T10:14:40.1Z</time>
      </trkpt>
      <trkpt lat="42.91788" lon="2.11153">
        <ele>466</ele>
        <time>2014-05-13T10:14:43.1Z</time>
      </trkpt>
      <trkpt lat="42.91788" lon="2.11151">
        <ele>466</ele>
        <time>2014-05-13T10:14:45.1Z</time>
      </trkpt>
      <trkpt lat="42.91789" lon="2.11147">
        <ele>466</ele>
        <time>2014-05-13T10:14:48.1Z</time>
      </trkpt>
      <trkpt lat="42.91789" lon="2.11145">
        <ele>466</ele>
        <time>2014-05-13T10:14:50.1Z</time>
      </trkpt>
      <trkpt lat="42.9179" lon="2.11141">
        <ele>466</ele>
        <time>2014-05-13T10:14:53.1Z</time>
      </trkpt>
      <trkpt lat="42.9179" lon="2.11139">
        <ele>467</ele>
        <time>2014-05-13T10:14:55.1Z</time>
      </trkpt>
      <trkpt lat="42.9179" lon="2.11136">
        <ele>468</ele>
        <time>2014-05-13T10:14:58.1Z</time>
      </trkpt>
      <trkpt lat="42.91791" lon="2.11133">
        <ele>468</ele>
        <time>2014-05-13T10:15:00.1Z</time>
      </trkpt>
      <trkpt lat="42.9179" lon="2.11131">
        <ele>468</ele>
        <time>2014-05-13T10:15:03.1Z</time>
      </trkpt>
      <trkpt lat="42.91791" lon="2.11129">
        <ele>469</ele>
        <time>2014-05-13T10:15:05.1Z</time>
      </trkpt>
      <trkpt lat="42.91792" lon="2.11126">
        <ele>469</ele>
        <time>2014-05-13T10:15:08.1Z</time>
      </trkpt>
      <trkpt lat="42.91793" lon="2.11122">
        <ele>469</ele>
        <time>2014-05-13T10:15:11.1Z</time>
      </trkpt>
      <trkpt lat="42.91793" lon="2.1112">
        <ele>469</ele>
        <time>2014-05-13T10:15:13.1Z</time>
      </trkpt>
      <trkpt lat="42.91793" lon="2.11117">
        <ele>470</ele>
        <time>2014-05-13T10:15:15.1Z</time>
      </trkpt>
      <trkpt lat="42.91795" lon="2.11113">
        <ele>470</ele>
        <time>2014-05-13T10:15:18.1Z</time>
      </trkpt>
      <trkpt lat="42.91794" lon="2.11111">
        <ele>470</ele>
        <time>2014-05-13T10:15:21.1Z</time>
      </trkpt>
      <trkpt lat="42.91793" lon="2.1111">
        <ele>470</ele>
        <time>2014-05-13T10:15:23.1Z</time>
      </trkpt>
      <trkpt lat="42.91794" lon="2.11106">
        <ele>471</ele>
        <time>2014-05-13T10:15:26.1Z</time>
      </trkpt>
      <trkpt lat="42.91794" lon="2.11104">
        <ele>471</ele>
        <time>2014-05-13T10:15:29.1Z</time>
      </trkpt>
      <trkpt lat="42.91795" lon="2.11102">
        <ele>471</ele>
        <time>2014-05-13T10:15:31.1Z</time>
      </trkpt>
      <trkpt lat="42.91796" lon="2.11098">
        <ele>471</ele>
        <time>2014-05-13T10:15:34.1Z</time>
      </trkpt>
      <trkpt lat="42.91797" lon="2.11095">
        <ele>472</ele>
        <time>2014-05-13T10:15:36.1Z</time>
      </trkpt>
      <trkpt lat="42.91798" lon="2.11093">
        <ele>472</ele>
        <time>2014-05-13T10:15:38.1Z</time>
      </trkpt>
      <trkpt lat="42.91799" lon="2.1109">
        <ele>472</ele>
        <time>2014-05-13T10:15:41.1Z</time>
      </trkpt>
      <trkpt lat="42.918" lon="2.11088">
        <ele>472</ele>
        <time>2014-05-13T10:15:43.1Z</time>
      </trkpt>
      <trkpt lat="42.91802" lon="2.11084">
        <ele>473</ele>
        <time>2014-05-13T10:15:46.1Z</time>
      </trkpt>
      <trkpt lat="42.91804" lon="2.1108">
        <ele>473</ele>
        <time>2014-05-13T10:15:49.1Z</time>
      </trkpt>
      <trkpt lat="42.91805" lon="2.11076">
        <ele>473</ele>
        <time>2014-05-13T10:15:52.1Z</time>
      </trkpt>
      <trkpt lat="42.91806" lon="2.11075">
        <ele>473</ele>
        <time>2014-05-13T10:15:54.1Z</time>
      </trkpt>
      <trkpt lat="42.91807" lon="2.11073">
        <ele>473</ele>
        <time>2014-05-13T10:15:57.1Z</time>
      </trkpt>
      <trkpt lat="42.91807" lon="2.11073">
        <ele>473</ele>
        <time>2014-05-13T10:15:59.1Z</time>
      </trkpt>
      <trkpt lat="42.91807" lon="2.11069">
        <ele>473</ele>
        <time>2014-05-13T10:16:02.1Z</time>
      </trkpt>
      <trkpt lat="42.91808" lon="2.11066">
        <ele>472</ele>
        <time>2014-05-13T10:16:05.1Z</time>
      </trkpt>
      <trkpt lat="42.91808" lon="2.11064">
        <ele>472</ele>
        <time>2014-05-13T10:16:07.1Z</time>
      </trkpt>
      <trkpt lat="42.91808" lon="2.11061">
        <ele>472</ele>
        <time>2014-05-13T10:16:10.1Z</time>
      </trkpt>
      <trkpt lat="42.91807" lon="2.11058">
        <ele>472</ele>
        <time>2014-05-13T10:16:12.1Z</time>
      </trkpt>
      <trkpt lat="42.91807" lon="2.11056">
        <ele>473</ele>
        <time>2014-05-13T10:16:14.1Z</time>
      </trkpt>
      <trkpt lat="42.91806" lon="2.11053">
        <ele>473</ele>
        <time>2014-05-13T10:16:17.1Z</time>
      </trkpt>
      <trkpt lat="42.91806" lon="2.11051">
        <ele>474</ele>
        <time>2014-05-13T10:16:20.1Z</time>
      </trkpt>
      <trkpt lat="42.91806" lon="2.11048">
        <ele>474</ele>
        <time>2014-05-13T10:16:22.1Z</time>
      </trkpt>
      <trkpt lat="42.91806" lon="2.11045">
        <ele>474</ele>
        <time>2014-05-13T10:16:24.1Z</time>
      </trkpt>
      <trkpt lat="42.91806" lon="2.11042">
        <ele>474</ele>
        <time>2014-05-13T10:16:27.1Z</time>
      </trkpt>
      <trkpt lat="42.91806" lon="2.11038">
        <ele>475</ele>
        <time>2014-05-13T10:16:30.1Z</time>
      </trkpt>
      <trkpt lat="42.91805" lon="2.11036">
        <ele>475</ele>
        <time>2014-05-13T10:16:32.1Z</time>
      </trkpt>
      <trkpt lat="42.91805" lon="2.11033">
        <ele>475</ele>
        <time>2014-05-13T10:16:35.1Z</time>
      </trkpt>
      <trkpt lat="42.91806" lon="2.11031">
        <ele>475</ele>
        <time>2014-05-13T10:16:37.1Z</time>
      </trkpt>
      <trkpt lat="42.91806" lon="2.11028">
        <ele>475</ele>
        <time>2014-05-13T10:16:40.1Z</time>
      </trkpt>
      <trkpt lat="42.91807" lon="2.11025">
        <ele>475</ele>
        <time>2014-05-13T10:16:42.1Z</time>
      </trkpt>
      <trkpt lat="42.91808" lon="2.11021">
        <ele>476</ele>
        <time>2014-05-13T10:16:45.1Z</time>
      </trkpt>
      <trkpt lat="42.91808" lon="2.11018">
        <ele>477</ele>
        <time>2014-05-13T10:16:48.1Z</time>
      </trkpt>
      <trkpt lat="42.91808" lon="2.11016">
        <ele>477</ele>
        <time>2014-05-13T10:16:50.1Z</time>
      </trkpt>
      <trkpt lat="42.91809" lon="2.11013">
        <ele>477</ele>
        <time>2014-05-13T10:16:53.1Z</time>
      </trkpt>
      <trkpt lat="42.9181" lon="2.11009">
        <ele>477</ele>
        <time>2014-05-13T10:16:56.1Z</time>
      </trkpt>
      <trkpt lat="42.91811" lon="2.11006">
        <ele>477</ele>
        <time>2014-05-13T10:16:58.1Z</time>
      </trkpt>
      <trkpt lat="42.91812" lon="2.11002">
        <ele>477</ele>
        <time>2014-05-13T10:17:01.1Z</time>
      </trkpt>
      <trkpt lat="42.91813" lon="2.11">
        <ele>478</ele>
        <time>2014-05-13T10:17:03.1Z</time>
      </trkpt>
      <trkpt lat="42.91814" lon="2.10996">
        <ele>478</ele>
        <time>2014-05-13T10:17:06.1Z</time>
      </trkpt>
      <trkpt lat="42.91814" lon="2.10993">
        <ele>478</ele>
        <time>2014-05-13T10:17:08.1Z</time>
      </trkpt>
      <trkpt lat="42.91815" lon="2.10989">
        <ele>478</ele>
        <time>2014-05-13T10:17:11.1Z</time>
      </trkpt>
      <trkpt lat="42.91816" lon="2.10986">
        <ele>478</ele>
        <time>2014-05-13T10:17:14.1Z</time>
      </trkpt>
      <trkpt lat="42.91816" lon="2.10983">
        <ele>478</ele>
        <time>2014-05-13T10:17:16.1Z</time>
      </trkpt>
      <trkpt lat="42.91816" lon="2.1098">
        <ele>478</ele>
        <time>2014-05-13T10:17:19.1Z</time>
      </trkpt>
      <trkpt lat="42.91817" lon="2.10976">
        <ele>478</ele>
        <time>2014-05-13T10:17:22.1Z</time>
      </trkpt>
      <trkpt lat="42.91817" lon="2.10972">
        <ele>478</ele>
        <time>2014-05-13T10:17:25.1Z</time>
      </trkpt>
      <trkpt lat="42.91817" lon="2.1097">
        <ele>479</ele>
        <time>2014-05-13T10:17:27.1Z</time>
      </trkpt>
      <trkpt lat="42.91818" lon="2.10967">
        <ele>479</ele>
        <time>2014-05-13T10:17:30.1Z</time>
      </trkpt>
      <trkpt lat="42.91819" lon="2.10963">
        <ele>479</ele>
        <time>2014-05-13T10:17:33.1Z</time>
      </trkpt>
      <trkpt lat="42.91818" lon="2.10961">
        <ele>479</ele>
        <time>2014-05-13T10:17:35.1Z</time>
      </trkpt>
      <trkpt lat="42.91818" lon="2.10958">
        <ele>479</ele>
        <time>2014-05-13T10:17:38.1Z</time>
      </trkpt>
      <trkpt lat="42.91818" lon="2.10954">
        <ele>479</ele>
        <time>2014-05-13T10:17:41.1Z</time>
      </trkpt>
      <trkpt lat="42.91817" lon="2.10952">
        <ele>479</ele>
        <time>2014-05-13T10:17:43.1Z</time>
      </trkpt>
      <trkpt lat="42.91817" lon="2.10948">
        <ele>480</ele>
        <time>2014-05-13T10:17:46.1Z</time>
      </trkpt>
      <trkpt lat="42.91818" lon="2.10945">
        <ele>480</ele>
        <time>2014-05-13T10:17:49.1Z</time>
      </trkpt>
      <trkpt lat="42.91817" lon="2.10942">
        <ele>481</ele>
        <time>2014-05-13T10:17:51.1Z</time>
      </trkpt>
      <trkpt lat="42.91819" lon="2.10937">
        <ele>481</ele>
        <time>2014-05-13T10:17:54.1Z</time>
      </trkpt>
      <trkpt lat="42.91819" lon="2.10933">
        <ele>481</ele>
        <time>2014-05-13T10:17:57.1Z</time>
      </trkpt>
      <trkpt lat="42.91819" lon="2.10931">
        <ele>481</ele>
        <time>2014-05-13T10:17:59.1Z</time>
      </trkpt>
      <trkpt lat="42.9182" lon="2.10929">
        <ele>482</ele>
        <time>2014-05-13T10:18:01.1Z</time>
      </trkpt>
      <trkpt lat="42.9182" lon="2.10927">
        <ele>482</ele>
        <time>2014-05-13T10:18:03.1Z</time>
      </trkpt>
      <trkpt lat="42.9182" lon="2.10926">
        <ele>482</ele>
        <time>2014-05-13T10:18:06.1Z</time>
      </trkpt>
      <trkpt lat="42.9182" lon="2.10925">
        <ele>482</ele>
        <time>2014-05-13T10:18:08.1Z</time>
      </trkpt>
      <trkpt lat="42.91821" lon="2.10924">
        <ele>482</ele>
        <time>2014-05-13T10:18:10.1Z</time>
      </trkpt>
      <trkpt lat="42.91822" lon="2.10923">
        <ele>483</ele>
        <time>2014-05-13T10:18:13.1Z</time>
      </trkpt>
      <trkpt lat="42.91822" lon="2.10922">
        <ele>483</ele>
        <time>2014-05-13T10:18:15.1Z</time>
      </trkpt>
      <trkpt lat="42.91822" lon="2.10923">
        <ele>483</ele>
        <time>2014-05-13T10:18:18.1Z</time>
      </trkpt>
      <trkpt lat="42.91822" lon="2.10922">
        <ele>482</ele>
        <time>2014-05-13T10:18:20.1Z</time>
      </trkpt>
      <trkpt lat="42.91823" lon="2.10923">
        <ele>483</ele>
        <time>2014-05-13T10:18:23.1Z</time>
      </trkpt>
      <trkpt lat="42.91824" lon="2.10923">
        <ele>483</ele>
        <time>2014-05-13T10:18:25.1Z</time>
      </trkpt>
      <trkpt lat="42.91824" lon="2.10922">
        <ele>483</ele>
        <time>2014-05-13T10:18:27.1Z</time>
      </trkpt>
      <trkpt lat="42.91824" lon="2.10922">
        <ele>483</ele>
        <time>2014-05-13T10:18:30.1Z</time>
      </trkpt>
      <trkpt lat="42.91825" lon="2.10922">
        <ele>483</ele>
        <time>2014-05-13T10:18:33.1Z</time>
      </trkpt>
      <trkpt lat="42.91825" lon="2.10922">
        <ele>483</ele>
        <time>2014-05-13T10:18:35.1Z</time>
      </trkpt>
      <trkpt lat="42.91825" lon="2.10922">
        <ele>483</ele>
        <time>2014-05-13T10:18:41.1Z</time>
      </trkpt>
      <trkpt lat="42.91824" lon="2.10922">
        <ele>483</ele>
        <time>2014-05-13T10:18:46.1Z</time>
      </trkpt>
      <trkpt lat="42.91824" lon="2.10922">
        <ele>483</ele>
        <time>2014-05-13T10:18:48.1Z</time>
      </trkpt>
      <trkpt lat="42.91824" lon="2.10922">
        <ele>483</ele>
        <time>2014-05-13T10:18:50.1Z</time>
      </trkpt>
      <trkpt lat="42.91823" lon="2.10921">
        <ele>483</ele>
        <time>2014-05-13T10:18:53.1Z</time>
      </trkpt>
      <trkpt lat="42.91823" lon="2.1092">
        <ele>483</ele>
        <time>2014-05-13T10:18:55.1Z</time>
      </trkpt>
      <trkpt lat="42.91823" lon="2.1092">
        <ele>483</ele>
        <time>2014-05-13T10:18:58.1Z</time>
      </trkpt>
      <trkpt lat="42.91822" lon="2.10919">
        <ele>483</ele>
        <time>2014-05-13T10:19:01.1Z</time>
      </trkpt>
      <trkpt lat="42.91822" lon="2.10918">
        <ele>483</ele>
        <time>2014-05-13T10:19:03.1Z</time>
      </trkpt>
      <trkpt lat="42.91824" lon="2.10919">
        <ele>483</ele>
        <time>2014-05-13T10:19:06.1Z</time>
      </trkpt>
      <trkpt lat="42.91824" lon="2.1092">
        <ele>483</ele>
        <time>2014-05-13T10:19:08.1Z</time>
      </trkpt>
      <trkpt lat="42.91824" lon="2.1092">
        <ele>483</ele>
        <time>2014-05-13T10:19:11.1Z</time>
      </trkpt>
      <trkpt lat="42.91824" lon="2.10921">
        <ele>483</ele>
        <time>2014-05-13T10:19:15.1Z</time>
      </trkpt>
      <trkpt lat="42.91824" lon="2.10921">
        <ele>483</ele>
        <time>2014-05-13T10:19:20.1Z</time>
      </trkpt>
      <trkpt lat="42.91823" lon="2.10921">
        <ele>483</ele>
        <time>2014-05-13T10:19:23.1Z</time>
      </trkpt>
      <trkpt lat="42.91822" lon="2.1092">
        <ele>484</ele>
        <time>2014-05-13T10:19:26.1Z</time>
      </trkpt>
      <trkpt lat="42.91822" lon="2.1092">
        <ele>483</ele>
        <time>2014-05-13T10:19:29.1Z</time>
      </trkpt>
      <trkpt lat="42.91822" lon="2.10919">
        <ele>483</ele>
        <time>2014-05-13T10:19:32.1Z</time>
      </trkpt>
      <trkpt lat="42.91822" lon="2.10919">
        <ele>483</ele>
        <time>2014-05-13T10:19:35.1Z</time>
      </trkpt>
      <trkpt lat="42.91822" lon="2.10919">
        <ele>482</ele>
        <time>2014-05-13T10:19:38.1Z</time>
      </trkpt>
      <trkpt lat="42.91821" lon="2.10918">
        <ele>482</ele>
        <time>2014-05-13T10:19:41.1Z</time>
      </trkpt>
      <trkpt lat="42.91819" lon="2.10919">
        <ele>483</ele>
        <time>2014-05-13T10:19:44.1Z</time>
      </trkpt>
      <trkpt lat="42.9182" lon="2.10919">
        <ele>483</ele>
        <time>2014-05-13T10:19:47.1Z</time>
      </trkpt>
      <trkpt lat="42.9182" lon="2.10919">
        <ele>482</ele>
        <time>2014-05-13T10:19:49.1Z</time>
      </trkpt>
      <trkpt lat="42.9182" lon="2.10919">
        <ele>483</ele>
        <time>2014-05-13T10:19:52.1Z</time>
      </trkpt>
      <trkpt lat="42.91821" lon="2.10919">
        <ele>483</ele>
        <time>2014-05-13T10:19:54.1Z</time>
      </trkpt>
      <trkpt lat="42.91821" lon="2.1092">
        <ele>483</ele>
        <time>2014-05-13T10:19:57.1Z</time>
      </trkpt>
      <trkpt lat="42.91819" lon="2.10919">
        <ele>483</ele>
        <time>2014-05-13T10:20:00.1Z</time>
      </trkpt>
      <trkpt lat="42.9182" lon="2.10918">
        <ele>482</ele>
        <time>2014-05-13T10:20:02.1Z</time>
      </trkpt>
      <trkpt lat="42.9182" lon="2.10917">
        <ele>482</ele>
        <time>2014-05-13T10:20:04.1Z</time>
      </trkpt>
      <trkpt lat="42.91821" lon="2.10917">
        <ele>482</ele>
        <time>2014-05-13T10:20:07.1Z</time>
      </trkpt>
      <trkpt lat="42.9182" lon="2.10916">
        <ele>483</ele>
        <time>2014-05-13T10:20:09.1Z</time>
      </trkpt>
      <trkpt lat="42.91819" lon="2.10915">
        <ele>483</ele>
        <time>2014-05-13T10:20:12.1Z</time>
      </trkpt>
      <trkpt lat="42.91818" lon="2.10915">
        <ele>482</ele>
        <time>2014-05-13T10:20:17.1Z</time>
      </trkpt>
      <trkpt lat="42.91818" lon="2.10916">
        <ele>482</ele>
        <time>2014-05-13T10:20:20.1Z</time>
      </trkpt>
      <trkpt lat="42.91819" lon="2.10917">
        <ele>482</ele>
        <time>2014-05-13T10:20:22.1Z</time>
      </trkpt>
      <trkpt lat="42.9182" lon="2.1092">
        <ele>481</ele>
        <time>2014-05-13T10:20:25.1Z</time>
      </trkpt>
      <trkpt lat="42.9182" lon="2.10922">
        <ele>481</ele>
        <time>2014-05-13T10:20:27.1Z</time>
      </trkpt>
      <trkpt lat="42.9182" lon="2.10923">
        <ele>481</ele>
        <time>2014-05-13T10:20:29.1Z</time>
      </trkpt>
      <trkpt lat="42.91821" lon="2.10923">
        <ele>481</ele>
        <time>2014-05-13T10:20:32.1Z</time>
      </trkpt>
      <trkpt lat="42.91821" lon="2.10923">
        <ele>481</ele>
        <time>2014-05-13T10:20:35.1Z</time>
      </trkpt>
      <trkpt lat="42.91821" lon="2.10923">
        <ele>481</ele>
        <time>2014-05-13T10:20:37.1Z</time>
      </trkpt>
      <trkpt lat="42.91821" lon="2.10923">
        <ele>481</ele>
        <time>2014-05-13T10:20:40.1Z</time>
      </trkpt>
      <trkpt lat="42.91822" lon="2.10922">
        <ele>481</ele>
        <time>2014-05-13T10:20:43.1Z</time>
      </trkpt>
      <trkpt lat="42.91822" lon="2.10922">
        <ele>481</ele>
        <time>2014-05-13T10:20:45.1Z</time>
      </trkpt>
      <trkpt lat="42.91822" lon="2.10922">
        <ele>481</ele>
        <time>2014-05-13T10:20:48.1Z</time>
      </trkpt>
      <trkpt lat="42.91822" lon="2.10922">
        <ele>481</ele>
        <time>2014-05-13T10:20:51.1Z</time>
      </trkpt>
      <trkpt lat="42.91822" lon="2.10921">
        <ele>482</ele>
        <time>2014-05-13T10:20:53.1Z</time>
      </trkpt>
      <trkpt lat="42.91822" lon="2.10922">
        <ele>482</ele>
        <time>2014-05-13T10:20:55.1Z</time>
      </trkpt>
      <trkpt lat="42.91823" lon="2.10922">
        <ele>482</ele>
        <time>2014-05-13T10:20:58.1Z</time>
      </trkpt>
      <trkpt lat="42.91822" lon="2.10921">
        <ele>481</ele>
        <time>2014-05-13T10:21:00.1Z</time>
      </trkpt>
      <trkpt lat="42.91822" lon="2.10921">
        <ele>481</ele>
        <time>2014-05-13T10:21:03.1Z</time>
      </trkpt>
      <trkpt lat="42.91821" lon="2.10921">
        <ele>481</ele>
        <time>2014-05-13T10:21:06.1Z</time>
      </trkpt>
      <trkpt lat="42.91822" lon="2.1092">
        <ele>482</ele>
        <time>2014-05-13T10:21:08.1Z</time>
      </trkpt>
      <trkpt lat="42.91824" lon="2.10919">
        <ele>482</ele>
        <time>2014-05-13T10:21:11.1Z</time>
      </trkpt>
      <trkpt lat="42.91824" lon="2.10919">
        <ele>482</ele>
        <time>2014-05-13T10:21:13.1Z</time>
      </trkpt>
      <trkpt lat="42.91824" lon="2.10918">
        <ele>482</ele>
        <time>2014-05-13T10:21:15.1Z</time>
      </trkpt>
      <trkpt lat="42.91823" lon="2.10918">
        <ele>483</ele>
        <time>2014-05-13T10:21:17.1Z</time>
      </trkpt>
      <trkpt lat="42.91822" lon="2.10918">
        <ele>483</ele>
        <time>2014-05-13T10:21:20.1Z</time>
      </trkpt>
      <trkpt lat="42.91821" lon="2.10918">
        <ele>483</ele>
        <time>2014-05-13T10:21:22.1Z</time>
      </trkpt>
      <trkpt lat="42.9182" lon="2.10917">
        <ele>482</ele>
        <time>2014-05-13T10:21:25.1Z</time>
      </trkpt>
      <trkpt lat="42.9182" lon="2.10918">
        <ele>482</ele>
        <time>2014-05-13T10:21:28.1Z</time>
      </trkpt>
      <trkpt lat="42.9182" lon="2.10918">
        <ele>481</ele>
        <time>2014-05-13T10:21:31.1Z</time>
      </trkpt>
      <trkpt lat="42.91819" lon="2.10918">
        <ele>482</ele>
        <time>2014-05-13T10:21:33.1Z</time>
      </trkpt>
      <trkpt lat="42.91819" lon="2.10917">
        <ele>482</ele>
        <time>2014-05-13T10:21:36.1Z</time>
      </trkpt>
      <trkpt lat="42.91819" lon="2.10918">
        <ele>482</ele>
        <time>2014-05-13T10:21:39.1Z</time>
      </trkpt>
      <trkpt lat="42.91819" lon="2.10917">
        <ele>482</ele>
        <time>2014-05-13T10:21:41.1Z</time>
      </trkpt>
      <trkpt lat="42.91819" lon="2.10917">
        <ele>482</ele>
        <time>2014-05-13T10:21:45.1Z</time>
      </trkpt>
      <trkpt lat="42.91819" lon="2.10917">
        <ele>482</ele>
        <time>2014-05-13T10:21:48.1Z</time>
      </trkpt>
      <trkpt lat="42.9182" lon="2.10916">
        <ele>482</ele>
        <time>2014-05-13T10:21:50.1Z</time>
      </trkpt>
      <trkpt lat="42.91821" lon="2.10914">
        <ele>482</ele>
        <time>2014-05-13T10:21:53.1Z</time>
      </trkpt>
      <trkpt lat="42.91821" lon="2.10914">
        <ele>482</ele>
        <time>2014-05-13T10:21:56.1Z</time>
      </trkpt>
      <trkpt lat="42.9182" lon="2.10915">
        <ele>482</ele>
        <time>2014-05-13T10:21:59.1Z</time>
      </trkpt>
      <trkpt lat="42.91821" lon="2.10915">
        <ele>482</ele>
        <time>2014-05-13T10:22:02.1Z</time>
      </trkpt>
      <trkpt lat="42.91821" lon="2.10914">
        <ele>482</ele>
        <time>2014-05-13T10:22:05.1Z</time>
      </trkpt>
      <trkpt lat="42.91821" lon="2.10914">
        <ele>482</ele>
        <time>2014-05-13T10:22:07.1Z</time>
      </trkpt>
      <trkpt lat="42.91821" lon="2.10911">
        <ele>482</ele>
        <time>2014-05-13T10:22:10.1Z</time>
      </trkpt>
      <trkpt lat="42.91822" lon="2.10908">
        <ele>482</ele>
        <time>2014-05-13T10:22:13.1Z</time>
      </trkpt>
      <trkpt lat="42.91824" lon="2.10906">
        <ele>482</ele>
        <time>2014-05-13T10:22:15.1Z</time>
      </trkpt>
      <trkpt lat="42.91824" lon="2.10903">
        <ele>482</ele>
        <time>2014-05-13T10:22:18.1Z</time>
      </trkpt>
      <trkpt lat="42.91825" lon="2.109">
        <ele>483</ele>
        <time>2014-05-13T10:22:20.1Z</time>
      </trkpt>
      <trkpt lat="42.91825" lon="2.10897">
        <ele>483</ele>
        <time>2014-05-13T10:22:23.1Z</time>
      </trkpt>
      <trkpt lat="42.91826" lon="2.10894">
        <ele>483</ele>
        <time>2014-05-13T10:22:25.1Z</time>
      </trkpt>
      <trkpt lat="42.91828" lon="2.10892">
        <ele>483</ele>
        <time>2014-05-13T10:22:27.1Z</time>
      </trkpt>
      <trkpt lat="42.9183" lon="2.10888">
        <ele>483</ele>
        <time>2014-05-13T10:22:30.1Z</time>
      </trkpt>
      <trkpt lat="42.9183" lon="2.10885">
        <ele>483</ele>
        <time>2014-05-13T10:22:32.1Z</time>
      </trkpt>
      <trkpt lat="42.9183" lon="2.10882">
        <ele>483</ele>
        <time>2014-05-13T10:22:35.1Z</time>
      </trkpt>
      <trkpt lat="42.91831" lon="2.1088">
        <ele>483</ele>
        <time>2014-05-13T10:22:37.1Z</time>
      </trkpt>
      <trkpt lat="42.91831" lon="2.10876">
        <ele>483</ele>
        <time>2014-05-13T10:22:40.1Z</time>
      </trkpt>
      <trkpt lat="42.91831" lon="2.10875">
        <ele>484</ele>
        <time>2014-05-13T10:22:42.1Z</time>
      </trkpt>
      <trkpt lat="42.91832" lon="2.10872">
        <ele>484</ele>
        <time>2014-05-13T10:22:45.1Z</time>
      </trkpt>
      <trkpt lat="42.91832" lon="2.1087">
        <ele>484</ele>
        <time>2014-05-13T10:22:47.1Z</time>
      </trkpt>
      <trkpt lat="42.91832" lon="2.10868">
        <ele>484</ele>
        <time>2014-05-13T10:22:49.1Z</time>
      </trkpt>
      <trkpt lat="42.91832" lon="2.10864">
        <ele>485</ele>
        <time>2014-05-13T10:22:52.1Z</time>
      </trkpt>
      <trkpt lat="42.91832" lon="2.10862">
        <ele>485</ele>
        <time>2014-05-13T10:22:55.1Z</time>
      </trkpt>
      <trkpt lat="42.91832" lon="2.10858">
        <ele>485</ele>
        <time>2014-05-13T10:22:58.1Z</time>
      </trkpt>
      <trkpt lat="42.91832" lon="2.10855">
        <ele>485</ele>
        <time>2014-05-13T10:23:01.1Z</time>
      </trkpt>
      <trkpt lat="42.91833" lon="2.10852">
        <ele>485</ele>
        <time>2014-05-13T10:23:04.1Z</time>
      </trkpt>
      <trkpt lat="42.91833" lon="2.10849">
        <ele>486</ele>
        <time>2014-05-13T10:23:06.1Z</time>
      </trkpt>
      <trkpt lat="42.91835" lon="2.10845">
        <ele>486</ele>
        <time>2014-05-13T10:23:09.1Z</time>
      </trkpt>
      <trkpt lat="42.91836" lon="2.10841">
        <ele>486</ele>
        <time>2014-05-13T10:23:12.1Z</time>
      </trkpt>
      <trkpt lat="42.91836" lon="2.10838">
        <ele>487</ele>
        <time>2014-05-13T10:23:14.1Z</time>
      </trkpt>
      <trkpt lat="42.91837" lon="2.10835">
        <ele>487</ele>
        <time>2014-05-13T10:23:17.1Z</time>
      </trkpt>
      <trkpt lat="42.91837" lon="2.10832">
        <ele>487</ele>
        <time>2014-05-13T10:23:19.1Z</time>
      </trkpt>
      <trkpt lat="42.91838" lon="2.10827">
        <ele>488</ele>
        <time>2014-05-13T10:23:22.1Z</time>
      </trkpt>
      <trkpt lat="42.9184" lon="2.10824">
        <ele>488</ele>
        <time>2014-05-13T10:23:25.1Z</time>
      </trkpt>
      <trkpt lat="42.9184" lon="2.10822">
        <ele>488</ele>
        <time>2014-05-13T10:23:27.1Z</time>
      </trkpt>
      <trkpt lat="42.9184" lon="2.1082">
        <ele>488</ele>
        <time>2014-05-13T10:23:29.1Z</time>
      </trkpt>
      <trkpt lat="42.91841" lon="2.10816">
        <ele>488</ele>
        <time>2014-05-13T10:23:32.1Z</time>
      </trkpt>
      <trkpt lat="42.91841" lon="2.10812">
        <ele>488</ele>
        <time>2014-05-13T10:23:35.1Z</time>
      </trkpt>
      <trkpt lat="42.91841" lon="2.1081">
        <ele>488</ele>
        <time>2014-05-13T10:23:37.1Z</time>
      </trkpt>
      <trkpt lat="42.91843" lon="2.10805">
        <ele>488</ele>
        <time>2014-05-13T10:23:40.1Z</time>
      </trkpt>
      <trkpt lat="42.91844" lon="2.10802">
        <ele>488</ele>
        <time>2014-05-13T10:23:43.1Z</time>
      </trkpt>
      <trkpt lat="42.91844" lon="2.10799">
        <ele>488</ele>
        <time>2014-05-13T10:23:45.1Z</time>
      </trkpt>
      <trkpt lat="42.91845" lon="2.10795">
        <ele>488</ele>
        <time>2014-05-13T10:23:48.1Z</time>
      </trkpt>
      <trkpt lat="42.91846" lon="2.10792">
        <ele>488</ele>
        <time>2014-05-13T10:23:51.1Z</time>
      </trkpt>
      <trkpt lat="42.91847" lon="2.10789">
        <ele>489</ele>
        <time>2014-05-13T10:23:53.1Z</time>
      </trkpt>
      <trkpt lat="42.91849" lon="2.10786">
        <ele>489</ele>
        <time>2014-05-13T10:23:56.1Z</time>
      </trkpt>
      <trkpt lat="42.9185" lon="2.10784">
        <ele>490</ele>
        <time>2014-05-13T10:23:58.1Z</time>
      </trkpt>
      <trkpt lat="42.91851" lon="2.10781">
        <ele>490</ele>
        <time>2014-05-13T10:24:01.1Z</time>
      </trkpt>
      <trkpt lat="42.91852" lon="2.10778">
        <ele>490</ele>
        <time>2014-05-13T10:24:03.1Z</time>
      </trkpt>
      <trkpt lat="42.91853" lon="2.10775">
        <ele>491</ele>
        <time>2014-05-13T10:24:05.1Z</time>
      </trkpt>
      <trkpt lat="42.91854" lon="2.10772">
        <ele>491</ele>
        <time>2014-05-13T10:24:07.1Z</time>
      </trkpt>
      <trkpt lat="42.91855" lon="2.10768">
        <ele>491</ele>
        <time>2014-05-13T10:24:10.1Z</time>
      </trkpt>
      <trkpt lat="42.91856" lon="2.10766">
        <ele>491</ele>
        <time>2014-05-13T10:24:12.1Z</time>
      </trkpt>
      <trkpt lat="42.91856" lon="2.10762">
        <ele>491</ele>
        <time>2014-05-13T10:24:15.1Z</time>
      </trkpt>
      <trkpt lat="42.91858" lon="2.10759">
        <ele>491</ele>
        <time>2014-05-13T10:24:18.1Z</time>
      </trkpt>
      <trkpt lat="42.91858" lon="2.10757">
        <ele>492</ele>
        <time>2014-05-13T10:24:20.1Z</time>
      </trkpt>
      <trkpt lat="42.91859" lon="2.10753">
        <ele>492</ele>
        <time>2014-05-13T10:24:23.1Z</time>
      </trkpt>
      <trkpt lat="42.91859" lon="2.10751">
        <ele>492</ele>
        <time>2014-05-13T10:24:25.1Z</time>
      </trkpt>
      <trkpt lat="42.91861" lon="2.10748">
        <ele>493</ele>
        <time>2014-05-13T10:24:28.1Z</time>
      </trkpt>
      <trkpt lat="42.91861" lon="2.10745">
        <ele>493</ele>
        <time>2014-05-13T10:24:30.1Z</time>
      </trkpt>
      <trkpt lat="42.91861" lon="2.1074">
        <ele>493</ele>
        <time>2014-05-13T10:24:33.1Z</time>
      </trkpt>
      <trkpt lat="42.91862" lon="2.10735">
        <ele>493</ele>
        <time>2014-05-13T10:24:36.1Z</time>
      </trkpt>
      <trkpt lat="42.91863" lon="2.1073">
        <ele>493</ele>
        <time>2014-05-13T10:24:39.1Z</time>
      </trkpt>
      <trkpt lat="42.91863" lon="2.10726">
        <ele>494</ele>
        <time>2014-05-13T10:24:42.1Z</time>
      </trkpt>
      <trkpt lat="42.91864" lon="2.10724">
        <ele>494</ele>
        <time>2014-05-13T10:24:44.1Z</time>
      </trkpt>
      <trkpt lat="42.91865" lon="2.1072">
        <ele>494</ele>
        <time>2014-05-13T10:24:47.1Z</time>
      </trkpt>
      <trkpt lat="42.91865" lon="2.10716">
        <ele>494</ele>
        <time>2014-05-13T10:24:50.1Z</time>
      </trkpt>
      <trkpt lat="42.91865" lon="2.10713">
        <ele>494</ele>
        <time>2014-05-13T10:24:52.1Z</time>
      </trkpt>
      <trkpt lat="42.91865" lon="2.10709">
        <ele>493</ele>
        <time>2014-05-13T10:24:55.1Z</time>
      </trkpt>
      <trkpt lat="42.91864" lon="2.10704">
        <ele>493</ele>
        <time>2014-05-13T10:24:58.1Z</time>
      </trkpt>
      <trkpt lat="42.91863" lon="2.10701">
        <ele>493</ele>
        <time>2014-05-13T10:25:01.1Z</time>
      </trkpt>
      <trkpt lat="42.91864" lon="2.10698">
        <ele>494</ele>
        <time>2014-05-13T10:25:04.1Z</time>
      </trkpt>
      <trkpt lat="42.91865" lon="2.10696">
        <ele>494</ele>
        <time>2014-05-13T10:25:07.1Z</time>
      </trkpt>
      <trkpt lat="42.91866" lon="2.10695">
        <ele>494</ele>
        <time>2014-05-13T10:25:09.1Z</time>
      </trkpt>
      <trkpt lat="42.91867" lon="2.10693">
        <ele>493</ele>
        <time>2014-05-13T10:25:12.1Z</time>
      </trkpt>
      <trkpt lat="42.91868" lon="2.10692">
        <ele>493</ele>
        <time>2014-05-13T10:25:15.1Z</time>
      </trkpt>
      <trkpt lat="42.91869" lon="2.10692">
        <ele>493</ele>
        <time>2014-05-13T10:25:18.1Z</time>
      </trkpt>
      <trkpt lat="42.91869" lon="2.10691">
        <ele>493</ele>
        <time>2014-05-13T10:25:21.1Z</time>
      </trkpt>
      <trkpt lat="42.9187" lon="2.1069">
        <ele>493</ele>
        <time>2014-05-13T10:25:24.1Z</time>
      </trkpt>
      <trkpt lat="42.91871" lon="2.1069">
        <ele>493</ele>
        <time>2014-05-13T10:25:27.1Z</time>
      </trkpt>
      <trkpt lat="42.9187" lon="2.10689">
        <ele>494</ele>
        <time>2014-05-13T10:25:30.1Z</time>
      </trkpt>
      <trkpt lat="42.91871" lon="2.10689">
        <ele>494</ele>
        <time>2014-05-13T10:25:33.1Z</time>
      </trkpt>
      <trkpt lat="42.91871" lon="2.10691">
        <ele>495</ele>
        <time>2014-05-13T10:25:36.1Z</time>
      </trkpt>
      <trkpt lat="42.9187" lon="2.10691">
        <ele>495</ele>
        <time>2014-05-13T10:25:38.1Z</time>
      </trkpt>
      <trkpt lat="42.91871" lon="2.10691">
        <ele>495</ele>
        <time>2014-05-13T10:25:41.1Z</time>
      </trkpt>
      <trkpt lat="42.91871" lon="2.10691">
        <ele>495</ele>
        <time>2014-05-13T10:25:43.1Z</time>
      </trkpt>
      <trkpt lat="42.91871" lon="2.10691">
        <ele>494</ele>
        <time>2014-05-13T10:25:45.1Z</time>
      </trkpt>
      <trkpt lat="42.9187" lon="2.1069">
        <ele>495</ele>
        <time>2014-05-13T10:25:48.1Z</time>
      </trkpt>
      <trkpt lat="42.9187" lon="2.1069">
        <ele>495</ele>
        <time>2014-05-13T10:25:50.1Z</time>
      </trkpt>
      <trkpt lat="42.91869" lon="2.1069">
        <ele>495</ele>
        <time>2014-05-13T10:25:53.1Z</time>
      </trkpt>
      <trkpt lat="42.9187" lon="2.1069">
        <ele>495</ele>
        <time>2014-05-13T10:25:56.1Z</time>
      </trkpt>
      <trkpt lat="42.9187" lon="2.10689">
        <ele>495</ele>
        <time>2014-05-13T10:25:58.1Z</time>
      </trkpt>
      <trkpt lat="42.9187" lon="2.1069">
        <ele>495</ele>
        <time>2014-05-13T10:26:01.1Z</time>
      </trkpt>
      <trkpt lat="42.9187" lon="2.10689">
        <ele>495</ele>
        <time>2014-05-13T10:26:03.1Z</time>
      </trkpt>
      <trkpt lat="42.9187" lon="2.10689">
        <ele>495</ele>
        <time>2014-05-13T10:26:06.1Z</time>
      </trkpt>
      <trkpt lat="42.91869" lon="2.10689">
        <ele>495</ele>
        <time>2014-05-13T10:26:08.1Z</time>
      </trkpt>
      <trkpt lat="42.91869" lon="2.10689">
        <ele>495</ele>
        <time>2014-05-13T10:26:10.1Z</time>
      </trkpt>
      <trkpt lat="42.91869" lon="2.10689">
        <ele>495</ele>
        <time>2014-05-13T10:26:13.1Z</time>
      </trkpt>
      <trkpt lat="42.91869" lon="2.10689">
        <ele>495</ele>
        <time>2014-05-13T10:26:15.1Z</time>
      </trkpt>
      <trkpt lat="42.91868" lon="2.1069">
        <ele>495</ele>
        <time>2014-05-13T10:26:18.1Z</time>
      </trkpt>
      <trkpt lat="42.91867" lon="2.1069">
        <ele>494</ele>
        <time>2014-05-13T10:26:20.1Z</time>
      </trkpt>
      <trkpt lat="42.91869" lon="2.10688">
        <ele>494</ele>
        <time>2014-05-13T10:26:22.1Z</time>
      </trkpt>
    </trkseg>
  </trk>
</gpx>